<?xml version='1.0' encoding='UTF-8'?><gpx version="1.1" creator="JPX - https://github.com/jenetics/jpx" xmlns="http://www.topografix.com/GPX/1/1"><trk><trkseg><trkpt lat="40.6953099" lon="14.7262776"><ele>278.0</ele><time>2026-04-18T03:49:07.55Z</time></trkpt><trkpt lat="40.6953339" lon="14.7261825"><ele>278.0</ele><time>2026-04-18T03:49:24.052Z</time></trkpt><trkpt lat="40.6953319" lon="14.7260972"><ele>278.0</ele><time>2026-04-18T03:49:29.051Z</time></trkpt><trkpt lat="40.6953589" lon="14.7260209"><ele>278.0</ele><time>2026-04-18T03:49:36.051Z</time></trkpt><trkpt lat="40.6953831" lon="14.7259438"><ele>278.0</ele><time>2026-04-18T03:49:41.051Z</time></trkpt><trkpt lat="40.6954109" lon="14.7258516"><ele>278.0</ele><time>2026-04-18T03:49:49.051Z</time></trkpt><trkpt lat="40.6954349" lon="14.7257661"><ele>278.0</ele><time>2026-04-18T03:49:54.051Z</time></trkpt><trkpt lat="40.6954626" lon="14.725672"><ele>278.42857142857144</ele><time>2026-04-18T03:50:00.051Z</time></trkpt><trkpt lat="40.6954862" lon="14.7255923"><ele>278.8571428571429</ele><time>2026-04-18T03:50:04.051Z</time></trkpt><trkpt lat="40.6955113" lon="14.7255119"><ele>279.28571428571433</ele><time>2026-04-18T03:50:09.051Z</time></trkpt><trkpt lat="40.695536" lon="14.7254348"><ele>279.7142857142857</ele><time>2026-04-18T03:50:15.051Z</time></trkpt><trkpt lat="40.6955641" lon="14.7253461"><ele>280.14285714285717</ele><time>2026-04-18T03:50:20.051Z</time></trkpt><trkpt lat="40.6955896" lon="14.7252679"><ele>280.5714285714286</ele><time>2026-04-18T03:50:24.051Z</time></trkpt><trkpt lat="40.6956243" lon="14.7251777"><ele>281.0</ele><time>2026-04-18T03:50:29.051Z</time></trkpt><trkpt lat="40.6956312" lon="14.7250802"><ele>280.14285714285717</ele><time>2026-04-18T03:50:35.051Z</time></trkpt><trkpt lat="40.6956161" lon="14.7249867"><ele>279.2857142857143</ele><time>2026-04-18T03:50:41.051Z</time></trkpt><trkpt lat="40.6956063" lon="14.7249018"><ele>278.42857142857144</ele><time>2026-04-18T03:50:47.051Z</time></trkpt><trkpt lat="40.695586" lon="14.7248062"><ele>277.57142857142856</ele><time>2026-04-18T03:50:52.051Z</time></trkpt><trkpt lat="40.6955633" lon="14.7247208"><ele>276.7142857142857</ele><time>2026-04-18T03:50:57.051Z</time></trkpt><trkpt lat="40.695565" lon="14.7246263"><ele>275.8571428571429</ele><time>2026-04-18T03:51:02.051Z</time></trkpt><trkpt lat="40.695569" lon="14.724531"><ele>275.0</ele><time>2026-04-18T03:51:08.051Z</time></trkpt><trkpt lat="40.6955691" lon="14.7244408"><ele>275.14285714285717</ele><time>2026-04-18T03:51:15.051Z</time></trkpt><trkpt lat="40.6955668" lon="14.7243447"><ele>275.2857142857143</ele><time>2026-04-18T03:51:21.051Z</time></trkpt><trkpt lat="40.6955738" lon="14.724259"><ele>275.42857142857144</ele><time>2026-04-18T03:51:25.051Z</time></trkpt><trkpt lat="40.6955609" lon="14.724171"><ele>275.57142857142856</ele><time>2026-04-18T03:51:30.051Z</time></trkpt><trkpt lat="40.6955377" lon="14.7240825"><ele>275.7142857142857</ele><time>2026-04-18T03:51:35.051Z</time></trkpt><trkpt lat="40.6955036" lon="14.7239843"><ele>275.8571428571429</ele><time>2026-04-18T03:51:40.051Z</time></trkpt><trkpt lat="40.6954672" lon="14.7238977"><ele>276.0</ele><time>2026-04-18T03:51:45.051Z</time></trkpt><trkpt lat="40.6954284" lon="14.7238292"><ele>276.0</ele><time>2026-04-18T03:51:48.051Z</time></trkpt><trkpt lat="40.6953625" lon="14.7237782"><ele>276.0</ele><time>2026-04-18T03:51:52.051Z</time></trkpt><trkpt lat="40.6952885" lon="14.7237237"><ele>276.0</ele><time>2026-04-18T03:51:57.051Z</time></trkpt><trkpt lat="40.6952192" lon="14.7236749"><ele>276.0</ele><time>2026-04-18T03:52:04.051Z</time></trkpt><trkpt lat="40.6951578" lon="14.7236381"><ele>276.0</ele><time>2026-04-18T03:52:07.052Z</time></trkpt><trkpt lat="40.695084" lon="14.7235909"><ele>276.0</ele><time>2026-04-18T03:52:13.052Z</time></trkpt><trkpt lat="40.6950088" lon="14.7235421"><ele>275.0</ele><time>2026-04-18T03:52:19.051Z</time></trkpt><trkpt lat="40.6949456" lon="14.7235024"><ele>274.0</ele><time>2026-04-18T03:52:25.051Z</time></trkpt><trkpt lat="40.6948711" lon="14.7234543"><ele>273.0</ele><time>2026-04-18T03:52:30.051Z</time></trkpt><trkpt lat="40.6947979" lon="14.7234078"><ele>272.0</ele><time>2026-04-18T03:52:36.051Z</time></trkpt><trkpt lat="40.694737" lon="14.7233658"><ele>271.0</ele><time>2026-04-18T03:52:39.052Z</time></trkpt><trkpt lat="40.6946802" lon="14.723325"><ele>270.0</ele><time>2026-04-18T03:52:45.051Z</time></trkpt><trkpt lat="40.6946057" lon="14.7232711"><ele>270.0</ele><time>2026-04-18T03:52:50.051Z</time></trkpt><trkpt lat="40.6945329" lon="14.7232176"><ele>270.0</ele><time>2026-04-18T03:52:55.051Z</time></trkpt><trkpt lat="40.694459" lon="14.7231643"><ele>270.0</ele><time>2026-04-18T03:53:01.052Z</time></trkpt><trkpt lat="40.6943866" lon="14.7231104"><ele>270.0</ele><time>2026-04-18T03:53:07.051Z</time></trkpt><trkpt lat="40.6943165" lon="14.7230572"><ele>270.0</ele><time>2026-04-18T03:53:12.051Z</time></trkpt><trkpt lat="40.6942685" lon="14.723135"><ele>270.0</ele><time>2026-04-18T03:53:17.051Z</time></trkpt><trkpt lat="40.6941962" lon="14.7231856"><ele>266.85714285714283</ele><time>2026-04-18T03:53:20.051Z</time></trkpt><trkpt lat="40.694127" lon="14.7232109"><ele>263.71428571428567</ele><time>2026-04-18T03:53:24.051Z</time></trkpt><trkpt lat="40.6940508" lon="14.7232365"><ele>260.57142857142856</ele><time>2026-04-18T03:53:28.051Z</time></trkpt><trkpt lat="40.693982" lon="14.7232352"><ele>257.42857142857144</ele><time>2026-04-18T03:53:32.051Z</time></trkpt><trkpt lat="40.6939106" lon="14.7231961"><ele>254.2857142857143</ele><time>2026-04-18T03:53:38.051Z</time></trkpt><trkpt lat="40.6938541" lon="14.723151"><ele>251.14285714285717</ele><time>2026-04-18T03:53:43.051Z</time></trkpt><trkpt lat="40.6938002" lon="14.7231002"><ele>248.0</ele><time>2026-04-18T03:53:48.051Z</time></trkpt><trkpt lat="40.6937402" lon="14.7230433"><ele>248.00000000000003</ele><time>2026-04-18T03:53:53.051Z</time></trkpt><trkpt lat="40.6936861" lon="14.7229808"><ele>248.0</ele><time>2026-04-18T03:53:59.051Z</time></trkpt><trkpt lat="40.6936456" lon="14.7229045"><ele>248.0</ele><time>2026-04-18T03:54:03.051Z</time></trkpt><trkpt lat="40.6936077" lon="14.7228133"><ele>248.0</ele><time>2026-04-18T03:54:08.051Z</time></trkpt><trkpt lat="40.6935702" lon="14.7227216"><ele>248.00000000000003</ele><time>2026-04-18T03:54:13.051Z</time></trkpt><trkpt lat="40.6935403" lon="14.7226472"><ele>248.0</ele><time>2026-04-18T03:54:18.051Z</time></trkpt><trkpt lat="40.6935009" lon="14.7225474"><ele>246.85714285714286</ele><time>2026-04-18T03:54:23.051Z</time></trkpt><trkpt lat="40.693462" lon="14.7224479"><ele>245.71428571428572</ele><time>2026-04-18T03:54:28.051Z</time></trkpt><trkpt lat="40.693503" lon="14.722369"><ele>244.57142857142858</ele><time>2026-04-18T03:54:31.051Z</time></trkpt><trkpt lat="40.6935444" lon="14.7222816"><ele>243.42857142857144</ele><time>2026-04-18T03:54:52.052Z</time></trkpt><trkpt lat="40.6935529" lon="14.7221914"><ele>242.28571428571428</ele><time>2026-04-18T03:54:56.052Z</time></trkpt><trkpt lat="40.6935594" lon="14.722108"><ele>241.14285714285717</ele><time>2026-04-18T03:55:00.052Z</time></trkpt><trkpt lat="40.6935876" lon="14.722019"><ele>240.0</ele><time>2026-04-18T03:55:05.052Z</time></trkpt><trkpt lat="40.6936188" lon="14.721946"><ele>242.42857142857144</ele><time>2026-04-18T03:55:11.052Z</time></trkpt><trkpt lat="40.6936553" lon="14.7218662"><ele>244.85714285714283</ele><time>2026-04-18T03:55:17.052Z</time></trkpt><trkpt lat="40.693702" lon="14.7217826"><ele>247.28571428571428</ele><time>2026-04-18T03:55:22.052Z</time></trkpt><trkpt lat="40.6937472" lon="14.7217186"><ele>249.71428571428572</ele><time>2026-04-18T03:55:26.052Z</time></trkpt><trkpt lat="40.6937971" lon="14.7216598"><ele>252.14285714285717</ele><time>2026-04-18T03:55:31.052Z</time></trkpt><trkpt lat="40.6938535" lon="14.7216061"><ele>254.57142857142856</ele><time>2026-04-18T03:55:35.053Z</time></trkpt><trkpt lat="40.6939051" lon="14.7215581"><ele>257.0</ele><time>2026-04-18T03:55:41.052Z</time></trkpt><trkpt lat="40.6939683" lon="14.7214968"><ele>257.0</ele><time>2026-04-18T03:55:46.052Z</time></trkpt><trkpt lat="40.6940286" lon="14.7214399"><ele>257.0</ele><time>2026-04-18T03:55:51.052Z</time></trkpt><trkpt lat="40.6940827" lon="14.721389"><ele>257.0</ele><time>2026-04-18T03:55:55.052Z</time></trkpt><trkpt lat="40.6941426" lon="14.7213309"><ele>257.0</ele><time>2026-04-18T03:56:00.052Z</time></trkpt><trkpt lat="40.6942029" lon="14.7212724"><ele>257.0</ele><time>2026-04-18T03:56:05.052Z</time></trkpt><trkpt lat="40.6942568" lon="14.7212175"><ele>257.0</ele><time>2026-04-18T03:56:11.053Z</time></trkpt><trkpt lat="40.6943166" lon="14.7211432"><ele>257.0</ele><time>2026-04-18T03:56:16.052Z</time></trkpt><trkpt lat="40.6943643" lon="14.7210806"><ele>258.1666666666667</ele><time>2026-04-18T03:56:20.052Z</time></trkpt><trkpt lat="40.6944205" lon="14.7209993"><ele>259.33333333333337</ele><time>2026-04-18T03:56:25.052Z</time></trkpt><trkpt lat="40.6944701" lon="14.7209242"><ele>260.5</ele><time>2026-04-18T03:56:31.052Z</time></trkpt><trkpt lat="40.6945298" lon="14.7208328"><ele>261.6666666666667</ele><time>2026-04-18T03:56:36.052Z</time></trkpt><trkpt lat="40.6945843" lon="14.7207514"><ele>262.8333333333333</ele><time>2026-04-18T03:56:42.052Z</time></trkpt><trkpt lat="40.6946363" lon="14.7206705"><ele>264.0</ele><time>2026-04-18T03:56:48.052Z</time></trkpt><trkpt lat="40.694684" lon="14.7205969"><ele>264.0</ele><time>2026-04-18T03:56:54.052Z</time></trkpt><trkpt lat="40.6947295" lon="14.7205254"><ele>264.0</ele><time>2026-04-18T03:56:59.052Z</time></trkpt><trkpt lat="40.6947669" lon="14.7204544"><ele>264.0</ele><time>2026-04-18T03:57:05.052Z</time></trkpt><trkpt lat="40.694805" lon="14.720377"><ele>264.0</ele><time>2026-04-18T03:57:12.052Z</time></trkpt><trkpt lat="40.6947541" lon="14.7202925"><ele>264.0</ele><time>2026-04-18T03:57:16.052Z</time></trkpt><trkpt lat="40.6947032" lon="14.7202067"><ele>264.0</ele><time>2026-04-18T03:57:20.052Z</time></trkpt><trkpt lat="40.6946586" lon="14.7201368"><ele>264.0</ele><time>2026-04-18T03:57:25.052Z</time></trkpt><trkpt lat="40.6946082" lon="14.7200678"><ele>263.42857142857144</ele><time>2026-04-18T03:57:30.052Z</time></trkpt><trkpt lat="40.6945556" lon="14.719991"><ele>262.8571428571429</ele><time>2026-04-18T03:57:36.052Z</time></trkpt><trkpt lat="40.6945093" lon="14.7199277"><ele>262.28571428571433</ele><time>2026-04-18T03:57:40.052Z</time></trkpt><trkpt lat="40.694466" lon="14.7198663"><ele>261.7142857142857</ele><time>2026-04-18T03:57:44.052Z</time></trkpt><trkpt lat="40.6944126" lon="14.7197896"><ele>261.14285714285717</ele><time>2026-04-18T03:57:49.052Z</time></trkpt><trkpt lat="40.6943646" lon="14.719707"><ele>260.5714285714286</ele><time>2026-04-18T03:57:54.052Z</time></trkpt><trkpt lat="40.6943253" lon="14.7196321"><ele>260.0</ele><time>2026-04-18T03:57:59.053Z</time></trkpt><trkpt lat="40.694278" lon="14.719543"><ele>258.00000000000006</ele><time>2026-04-18T03:58:04.052Z</time></trkpt><trkpt lat="40.6942431" lon="14.7194563"><ele>256.0</ele><time>2026-04-18T03:58:10.052Z</time></trkpt><trkpt lat="40.6942137" lon="14.7193826"><ele>254.00000000000003</ele><time>2026-04-18T03:58:14.052Z</time></trkpt><trkpt lat="40.6941834" lon="14.7193079"><ele>252.00000000000003</ele><time>2026-04-18T03:58:19.052Z</time></trkpt><trkpt lat="40.694146" lon="14.7192151"><ele>250.0</ele><time>2026-04-18T03:58:24.052Z</time></trkpt><trkpt lat="40.6941106" lon="14.7191286"><ele>248.00000000000003</ele><time>2026-04-18T03:58:29.052Z</time></trkpt><trkpt lat="40.694079" lon="14.7190496"><ele>246.00000000000003</ele><time>2026-04-18T03:58:33.052Z</time></trkpt><trkpt lat="40.6940516" lon="14.7189613"><ele>246.00000000000003</ele><time>2026-04-18T03:58:38.052Z</time></trkpt><trkpt lat="40.6940522" lon="14.7188739"><ele>246.0</ele><time>2026-04-18T03:58:43.052Z</time></trkpt><trkpt lat="40.694025" lon="14.7187856"><ele>246.00000000000003</ele><time>2026-04-18T03:58:49.052Z</time></trkpt><trkpt lat="40.6940021" lon="14.7186922"><ele>246.00000000000003</ele><time>2026-04-18T03:58:53.052Z</time></trkpt><trkpt lat="40.693987" lon="14.7185972"><ele>246.0</ele><time>2026-04-18T03:58:58.052Z</time></trkpt><trkpt lat="40.6939754" lon="14.7184966"><ele>246.00000000000003</ele><time>2026-04-18T03:59:03.052Z</time></trkpt><trkpt lat="40.6939683" lon="14.7184085"><ele>246.00000000000003</ele><time>2026-04-18T03:59:09.052Z</time></trkpt><trkpt lat="40.6939683" lon="14.7183177"><ele>245.71428571428575</ele><time>2026-04-18T03:59:13.052Z</time></trkpt><trkpt lat="40.6939788" lon="14.7182201"><ele>245.42857142857144</ele><time>2026-04-18T03:59:17.052Z</time></trkpt><trkpt lat="40.6939963" lon="14.7181272"><ele>245.14285714285714</ele><time>2026-04-18T03:59:21.052Z</time></trkpt><trkpt lat="40.6940238" lon="14.7180435"><ele>244.85714285714286</ele><time>2026-04-18T03:59:26.052Z</time></trkpt><trkpt lat="40.6940542" lon="14.7179673"><ele>244.57142857142856</ele><time>2026-04-18T03:59:30.052Z</time></trkpt><trkpt lat="40.6940835" lon="14.7178922"><ele>244.28571428571425</ele><time>2026-04-18T03:59:36.053Z</time></trkpt><trkpt lat="40.6941125" lon="14.7178167"><ele>243.99999999999997</ele><time>2026-04-18T03:59:41.052Z</time></trkpt><trkpt lat="40.6941432" lon="14.7177357"><ele>242.4285714285714</ele><time>2026-04-18T03:59:45.052Z</time></trkpt><trkpt lat="40.6941763" lon="14.7176516"><ele>240.85714285714283</ele><time>2026-04-18T03:59:49.052Z</time></trkpt><trkpt lat="40.6942081" lon="14.7175693"><ele>239.28571428571428</ele><time>2026-04-18T03:59:53.052Z</time></trkpt><trkpt lat="40.6942401" lon="14.7174788"><ele>237.7142857142857</ele><time>2026-04-18T03:59:59.052Z</time></trkpt><trkpt lat="40.6942717" lon="14.7173831"><ele>236.1428571428571</ele><time>2026-04-18T04:00:04.052Z</time></trkpt><trkpt lat="40.6942991" lon="14.7172976"><ele>234.57142857142858</ele><time>2026-04-18T04:00:08.052Z</time></trkpt><trkpt lat="40.694327" lon="14.717212"><ele>233.0</ele><time>2026-04-18T04:00:13.052Z</time></trkpt><trkpt lat="40.6943548" lon="14.7171245"><ele>233.0</ele><time>2026-04-18T04:00:20.052Z</time></trkpt><trkpt lat="40.6943864" lon="14.717028"><ele>233.0</ele><time>2026-04-18T04:00:24.052Z</time></trkpt><trkpt lat="40.6944144" lon="14.7169414"><ele>233.0</ele><time>2026-04-18T04:00:29.052Z</time></trkpt><trkpt lat="40.6944302" lon="14.716847"><ele>233.0</ele><time>2026-04-18T04:00:34.052Z</time></trkpt><trkpt lat="40.6944392" lon="14.7167586"><ele>233.0</ele><time>2026-04-18T04:00:39.052Z</time></trkpt><trkpt lat="40.6944333" lon="14.7166616"><ele>233.0</ele><time>2026-04-18T04:00:44.052Z</time></trkpt><trkpt lat="40.6944239" lon="14.7165637"><ele>233.0</ele><time>2026-04-18T04:00:48.052Z</time></trkpt><trkpt lat="40.6944148" lon="14.7164806"><ele>231.71428571428572</ele><time>2026-04-18T04:00:52.052Z</time></trkpt><trkpt lat="40.6944203" lon="14.7163881"><ele>230.42857142857142</ele><time>2026-04-18T04:00:57.052Z</time></trkpt><trkpt lat="40.6944774" lon="14.7163357"><ele>229.14285714285714</ele><time>2026-04-18T04:01:02.052Z</time></trkpt><trkpt lat="40.6945463" lon="14.7163016"><ele>227.85714285714286</ele><time>2026-04-18T04:01:09.052Z</time></trkpt><trkpt lat="40.694621" lon="14.7163497"><ele>226.57142857142856</ele><time>2026-04-18T04:01:14.052Z</time></trkpt><trkpt lat="40.6946629" lon="14.7164208"><ele>225.28571428571428</ele><time>2026-04-18T04:01:18.052Z</time></trkpt><trkpt lat="40.6947219" lon="14.7164808"><ele>224.0</ele><time>2026-04-18T04:01:24.052Z</time></trkpt><trkpt lat="40.6947738" lon="14.716535"><ele>223.66666666666669</ele><time>2026-04-18T04:01:30.052Z</time></trkpt><trkpt lat="40.694841" lon="14.7165938"><ele>223.33333333333334</ele><time>2026-04-18T04:01:34.052Z</time></trkpt><trkpt lat="40.6949219" lon="14.7166111"><ele>223.0</ele><time>2026-04-18T04:01:39.052Z</time></trkpt><trkpt lat="40.6950043" lon="14.716627"><ele>222.66666666666669</ele><time>2026-04-18T04:01:44.052Z</time></trkpt><trkpt lat="40.6950826" lon="14.7166408"><ele>222.33333333333334</ele><time>2026-04-18T04:01:49.052Z</time></trkpt><trkpt lat="40.6951668" lon="14.7166603"><ele>222.0</ele><time>2026-04-18T04:01:53.052Z</time></trkpt><trkpt lat="40.6952453" lon="14.7166787"><ele>219.66666666666666</ele><time>2026-04-18T04:01:58.052Z</time></trkpt><trkpt lat="40.6953197" lon="14.7166954"><ele>217.33333333333331</ele><time>2026-04-18T04:02:03.052Z</time></trkpt><trkpt lat="40.6953879" lon="14.7167108"><ele>215.0</ele><time>2026-04-18T04:02:09.052Z</time></trkpt><trkpt lat="40.6954625" lon="14.7167286"><ele>212.66666666666666</ele><time>2026-04-18T04:02:15.053Z</time></trkpt><trkpt lat="40.6955424" lon="14.7167471"><ele>210.33333333333331</ele><time>2026-04-18T04:02:20.052Z</time></trkpt><trkpt lat="40.695621" lon="14.7167654"><ele>208.0</ele><time>2026-04-18T04:02:25.052Z</time></trkpt><trkpt lat="40.6956951" lon="14.7167821"><ele>208.0</ele><time>2026-04-18T04:02:30.052Z</time></trkpt><trkpt lat="40.695761" lon="14.7168008"><ele>208.0</ele><time>2026-04-18T04:02:37.052Z</time></trkpt><trkpt lat="40.6957829" lon="14.7168901"><ele>208.0</ele><time>2026-04-18T04:02:42.052Z</time></trkpt><trkpt lat="40.6958047" lon="14.7169905"><ele>208.0</ele><time>2026-04-18T04:02:47.053Z</time></trkpt><trkpt lat="40.6958294" lon="14.7170831"><ele>208.0</ele><time>2026-04-18T04:02:52.052Z</time></trkpt><trkpt lat="40.6958496" lon="14.7171745"><ele>208.0</ele><time>2026-04-18T04:02:56.052Z</time></trkpt><trkpt lat="40.6958769" lon="14.7172683"><ele>208.0</ele><time>2026-04-18T04:03:01.052Z</time></trkpt><trkpt lat="40.6959412" lon="14.7172934"><ele>208.66666666666666</ele><time>2026-04-18T04:03:05.052Z</time></trkpt><trkpt lat="40.6960113" lon="14.7173097"><ele>209.33333333333331</ele><time>2026-04-18T04:03:09.052Z</time></trkpt><trkpt lat="40.6960922" lon="14.7173258"><ele>210.0</ele><time>2026-04-18T04:03:14.052Z</time></trkpt><trkpt lat="40.6961615" lon="14.7173397"><ele>210.66666666666669</ele><time>2026-04-18T04:03:19.052Z</time></trkpt><trkpt lat="40.6962392" lon="14.717356"><ele>211.33333333333334</ele><time>2026-04-18T04:03:25.052Z</time></trkpt><trkpt lat="40.6963141" lon="14.7173711"><ele>212.0</ele><time>2026-04-18T04:03:30.052Z</time></trkpt><trkpt lat="40.6963883" lon="14.717387"><ele>212.0</ele><time>2026-04-18T04:03:35.052Z</time></trkpt><trkpt lat="40.6964644" lon="14.7174023"><ele>212.0</ele><time>2026-04-18T04:03:40.052Z</time></trkpt><trkpt lat="40.696537" lon="14.7174172"><ele>212.0</ele><time>2026-04-18T04:03:44.052Z</time></trkpt><trkpt lat="40.6966038" lon="14.7173725"><ele>212.0</ele><time>2026-04-18T04:03:51.052Z</time></trkpt><trkpt lat="40.6966569" lon="14.7173054"><ele>212.0</ele><time>2026-04-18T04:03:55.052Z</time></trkpt><trkpt lat="40.6966976" lon="14.7172386"><ele>212.0</ele><time>2026-04-18T04:03:59.052Z</time></trkpt><trkpt lat="40.6967134" lon="14.7171546"><ele>212.0</ele><time>2026-04-18T04:04:04.052Z</time></trkpt><trkpt lat="40.6967345" lon="14.7170569"><ele>212.0</ele><time>2026-04-18T04:04:10.053Z</time></trkpt><trkpt lat="40.6967463" lon="14.7169712"><ele>212.0</ele><time>2026-04-18T04:04:15.052Z</time></trkpt><trkpt lat="40.6967596" lon="14.716886"><ele>212.0</ele><time>2026-04-18T04:04:19.052Z</time></trkpt><trkpt lat="40.6967718" lon="14.7167991"><ele>212.0</ele><time>2026-04-18T04:04:24.052Z</time></trkpt><trkpt lat="40.6967882" lon="14.7167141"><ele>212.0</ele><time>2026-04-18T04:04:29.052Z</time></trkpt><trkpt lat="40.6968277" lon="14.7166419"><ele>212.0</ele><time>2026-04-18T04:04:35.052Z</time></trkpt><trkpt lat="40.6968822" lon="14.7165865"><ele>212.0</ele><time>2026-04-18T04:04:39.052Z</time></trkpt><trkpt lat="40.6969402" lon="14.7165483"><ele>211.2857142857143</ele><time>2026-04-18T04:04:43.052Z</time></trkpt><trkpt lat="40.697003" lon="14.7165097"><ele>210.57142857142856</ele><time>2026-04-18T04:04:47.052Z</time></trkpt><trkpt lat="40.6970674" lon="14.7164701"><ele>209.85714285714286</ele><time>2026-04-18T04:04:52.053Z</time></trkpt><trkpt lat="40.6971288" lon="14.7164328"><ele>209.14285714285717</ele><time>2026-04-18T04:04:57.052Z</time></trkpt><trkpt lat="40.6971908" lon="14.7163939"><ele>208.42857142857144</ele><time>2026-04-18T04:05:04.052Z</time></trkpt><trkpt lat="40.6972522" lon="14.7163579"><ele>207.71428571428572</ele><time>2026-04-18T04:05:08.052Z</time></trkpt><trkpt lat="40.6973201" lon="14.7163277"><ele>207.0</ele><time>2026-04-18T04:05:13.052Z</time></trkpt><trkpt lat="40.697392" lon="14.7162975"><ele>207.00000000000003</ele><time>2026-04-18T04:05:18.052Z</time></trkpt><trkpt lat="40.6974592" lon="14.7162686"><ele>207.0</ele><time>2026-04-18T04:05:23.052Z</time></trkpt><trkpt lat="40.6975305" lon="14.7162393"><ele>207.0</ele><time>2026-04-18T04:05:27.052Z</time></trkpt><trkpt lat="40.6975955" lon="14.7162173"><ele>207.0</ele><time>2026-04-18T04:05:34.052Z</time></trkpt><trkpt lat="40.6976589" lon="14.7162242"><ele>207.0</ele><time>2026-04-18T04:05:39.052Z</time></trkpt><trkpt lat="40.6977334" lon="14.7162551"><ele>207.00000000000003</ele><time>2026-04-18T04:05:46.052Z</time></trkpt><trkpt lat="40.6977944" lon="14.7162853"><ele>207.0</ele><time>2026-04-18T04:05:49.052Z</time></trkpt><trkpt lat="40.6978782" lon="14.7162807"><ele>204.71428571428572</ele><time>2026-04-18T04:06:09.052Z</time></trkpt><trkpt lat="40.6979462" lon="14.7163241"><ele>202.42857142857144</ele><time>2026-04-18T04:06:13.052Z</time></trkpt><trkpt lat="40.6980094" lon="14.7163746"><ele>200.14285714285717</ele><time>2026-04-18T04:06:17.053Z</time></trkpt><trkpt lat="40.6980631" lon="14.7164216"><ele>197.85714285714286</ele><time>2026-04-18T04:06:21.052Z</time></trkpt><trkpt lat="40.6981268" lon="14.7164835"><ele>195.57142857142856</ele><time>2026-04-18T04:06:27.052Z</time></trkpt><trkpt lat="40.6981839" lon="14.7165392"><ele>193.2857142857143</ele><time>2026-04-18T04:06:32.052Z</time></trkpt><trkpt lat="40.6982359" lon="14.716591"><ele>191.0</ele><time>2026-04-18T04:06:38.052Z</time></trkpt><trkpt lat="40.6983021" lon="14.7166633"><ele>191.0</ele><time>2026-04-18T04:06:43.052Z</time></trkpt><trkpt lat="40.698358" lon="14.7167339"><ele>191.0</ele><time>2026-04-18T04:06:47.052Z</time></trkpt><trkpt lat="40.6984071" lon="14.7168008"><ele>191.0</ele><time>2026-04-18T04:06:51.052Z</time></trkpt><trkpt lat="40.6984678" lon="14.716853"><ele>191.0</ele><time>2026-04-18T04:06:56.052Z</time></trkpt><trkpt lat="40.6985289" lon="14.7168802"><ele>191.0</ele><time>2026-04-18T04:07:00.052Z</time></trkpt><trkpt lat="40.6985901" lon="14.7169079"><ele>191.0</ele><time>2026-04-18T04:07:06.052Z</time></trkpt><trkpt lat="40.6986595" lon="14.7169383"><ele>191.0</ele><time>2026-04-18T04:07:11.053Z</time></trkpt><trkpt lat="40.6987286" lon="14.7169622"><ele>191.42857142857144</ele><time>2026-04-18T04:07:19.052Z</time></trkpt><trkpt lat="40.6987947" lon="14.7169249"><ele>191.85714285714283</ele><time>2026-04-18T04:07:25.053Z</time></trkpt><trkpt lat="40.6988454" lon="14.7168665"><ele>192.28571428571428</ele><time>2026-04-18T04:07:29.052Z</time></trkpt><trkpt lat="40.698874" lon="14.7167867"><ele>192.71428571428572</ele><time>2026-04-18T04:07:35.052Z</time></trkpt><trkpt lat="40.6988727" lon="14.7166983"><ele>193.14285714285717</ele><time>2026-04-18T04:07:40.052Z</time></trkpt><trkpt lat="40.6988674" lon="14.7166114"><ele>193.57142857142856</ele><time>2026-04-18T04:07:45.052Z</time></trkpt><trkpt lat="40.6988462" lon="14.7165258"><ele>194.0</ele><time>2026-04-18T04:07:49.052Z</time></trkpt><trkpt lat="40.6988191" lon="14.7164423"><ele>193.7142857142857</ele><time>2026-04-18T04:07:53.052Z</time></trkpt><trkpt lat="40.6987891" lon="14.7163513"><ele>193.42857142857144</ele><time>2026-04-18T04:07:58.052Z</time></trkpt><trkpt lat="40.6987638" lon="14.7162696"><ele>193.14285714285714</ele><time>2026-04-18T04:08:03.052Z</time></trkpt><trkpt lat="40.6987343" lon="14.7161863"><ele>192.85714285714283</ele><time>2026-04-18T04:08:07.053Z</time></trkpt><trkpt lat="40.698704" lon="14.7161129"><ele>192.57142857142856</ele><time>2026-04-18T04:08:12.052Z</time></trkpt><trkpt lat="40.6986654" lon="14.716033"><ele>192.28571428571428</ele><time>2026-04-18T04:08:16.052Z</time></trkpt><trkpt lat="40.6986188" lon="14.7159635"><ele>192.0</ele><time>2026-04-18T04:08:21.052Z</time></trkpt><trkpt lat="40.6985697" lon="14.7158996"><ele>191.99999999999997</ele><time>2026-04-18T04:08:26.053Z</time></trkpt><trkpt lat="40.6985211" lon="14.7158409"><ele>192.0</ele><time>2026-04-18T04:08:31.052Z</time></trkpt><trkpt lat="40.6984725" lon="14.7157836"><ele>192.0</ele><time>2026-04-18T04:08:36.052Z</time></trkpt><trkpt lat="40.6984229" lon="14.7157285"><ele>192.0</ele><time>2026-04-18T04:08:41.052Z</time></trkpt><trkpt lat="40.6983645" lon="14.7156738"><ele>192.0</ele><time>2026-04-18T04:08:46.053Z</time></trkpt><trkpt lat="40.6983033" lon="14.7156168"><ele>191.99999999999997</ele><time>2026-04-18T04:08:51.052Z</time></trkpt><trkpt lat="40.6982475" lon="14.7155665"><ele>192.0</ele><time>2026-04-18T04:08:55.052Z</time></trkpt><trkpt lat="40.69817" lon="14.7155009"><ele>192.0</ele><time>2026-04-18T04:09:02.052Z</time></trkpt><trkpt lat="40.6980976" lon="14.7154397"><ele>192.0</ele><time>2026-04-18T04:09:07.053Z</time></trkpt><trkpt lat="40.6980291" lon="14.7153803"><ele>192.0</ele><time>2026-04-18T04:09:13.052Z</time></trkpt><trkpt lat="40.6979536" lon="14.7153459"><ele>192.0</ele><time>2026-04-18T04:09:22.052Z</time></trkpt><trkpt lat="40.6978983" lon="14.7152967"><ele>192.0</ele><time>2026-04-18T04:09:26.052Z</time></trkpt><trkpt lat="40.6978416" lon="14.7152465"><ele>192.0</ele><time>2026-04-18T04:09:31.052Z</time></trkpt><trkpt lat="40.6977776" lon="14.7151897"><ele>191.7142857142857</ele><time>2026-04-18T04:09:36.053Z</time></trkpt><trkpt lat="40.6977232" lon="14.7151415"><ele>191.42857142857142</ele><time>2026-04-18T04:09:41.052Z</time></trkpt><trkpt lat="40.6976661" lon="14.7150845"><ele>191.14285714285714</ele><time>2026-04-18T04:09:46.052Z</time></trkpt><trkpt lat="40.6976087" lon="14.7150178"><ele>190.85714285714283</ele><time>2026-04-18T04:09:51.052Z</time></trkpt><trkpt lat="40.6975483" lon="14.7149447"><ele>190.57142857142858</ele><time>2026-04-18T04:09:56.052Z</time></trkpt><trkpt lat="40.6975067" lon="14.7148822"><ele>190.28571428571428</ele><time>2026-04-18T04:10:01.052Z</time></trkpt><trkpt lat="40.697458" lon="14.7148019"><ele>190.0</ele><time>2026-04-18T04:10:07.052Z</time></trkpt><trkpt lat="40.6974158" lon="14.7147328"><ele>190.0</ele><time>2026-04-18T04:10:14.053Z</time></trkpt><trkpt lat="40.6973802" lon="14.7146561"><ele>190.0</ele><time>2026-04-18T04:10:20.052Z</time></trkpt><trkpt lat="40.6973666" lon="14.7145527"><ele>190.0</ele><time>2026-04-18T04:10:25.052Z</time></trkpt><trkpt lat="40.697335" lon="14.7144613"><ele>190.0</ele><time>2026-04-18T04:10:29.052Z</time></trkpt><trkpt lat="40.6973043" lon="14.714387"><ele>190.0</ele><time>2026-04-18T04:10:34.053Z</time></trkpt><trkpt lat="40.6972659" lon="14.7143011"><ele>190.0</ele><time>2026-04-18T04:10:40.052Z</time></trkpt><trkpt lat="40.6972198" lon="14.7142351"><ele>190.0</ele><time>2026-04-18T04:10:45.052Z</time></trkpt><trkpt lat="40.6971892" lon="14.7141404"><ele>189.85714285714286</ele><time>2026-04-18T04:10:49.052Z</time></trkpt><trkpt lat="40.6971294" lon="14.714071"><ele>189.71428571428572</ele><time>2026-04-18T04:10:53.052Z</time></trkpt><trkpt lat="40.697059" lon="14.7140617"><ele>189.57142857142856</ele><time>2026-04-18T04:10:57.052Z</time></trkpt><trkpt lat="40.6969909" lon="14.714067"><ele>189.42857142857144</ele><time>2026-04-18T04:11:01.052Z</time></trkpt><trkpt lat="40.6969223" lon="14.7140795"><ele>189.28571428571428</ele><time>2026-04-18T04:11:05.052Z</time></trkpt><trkpt lat="40.6968622" lon="14.7141117"><ele>189.14285714285714</ele><time>2026-04-18T04:11:11.052Z</time></trkpt><trkpt lat="40.6967836" lon="14.7141587"><ele>189.0</ele><time>2026-04-18T04:11:23.052Z</time></trkpt><trkpt lat="40.6967103" lon="14.7141864"><ele>189.0</ele><time>2026-04-18T04:11:28.052Z</time></trkpt><trkpt lat="40.6966406" lon="14.7142216"><ele>189.0</ele><time>2026-04-18T04:11:34.052Z</time></trkpt><trkpt lat="40.696577" lon="14.7142076"><ele>189.0</ele><time>2026-04-18T04:11:43.052Z</time></trkpt><trkpt lat="40.6965207" lon="14.7141504"><ele>189.0</ele><time>2026-04-18T04:11:47.053Z</time></trkpt><trkpt lat="40.6964649" lon="14.7141049"><ele>189.0</ele><time>2026-04-18T04:11:51.052Z</time></trkpt><trkpt lat="40.6964032" lon="14.7140513"><ele>189.0</ele><time>2026-04-18T04:11:55.052Z</time></trkpt><trkpt lat="40.6963453" lon="14.7139923"><ele>189.0</ele><time>2026-04-18T04:11:59.053Z</time></trkpt><trkpt lat="40.6962877" lon="14.7139296"><ele>189.0</ele><time>2026-04-18T04:12:05.052Z</time></trkpt><trkpt lat="40.6962275" lon="14.7138643"><ele>189.0</ele><time>2026-04-18T04:12:10.052Z</time></trkpt><trkpt lat="40.6961663" lon="14.7137964"><ele>189.0</ele><time>2026-04-18T04:12:16.052Z</time></trkpt><trkpt lat="40.69611" lon="14.7137347"><ele>189.0</ele><time>2026-04-18T04:12:21.052Z</time></trkpt><trkpt lat="40.6960605" lon="14.7136802"><ele>189.0</ele><time>2026-04-18T04:12:27.052Z</time></trkpt><trkpt lat="40.696005" lon="14.7136173"><ele>189.0</ele><time>2026-04-18T04:12:32.052Z</time></trkpt><trkpt lat="40.6959475" lon="14.713553"><ele>189.0</ele><time>2026-04-18T04:12:38.052Z</time></trkpt><trkpt lat="40.6958888" lon="14.7134847"><ele>189.33333333333334</ele><time>2026-04-18T04:12:43.052Z</time></trkpt><trkpt lat="40.695838" lon="14.7134257"><ele>189.66666666666666</ele><time>2026-04-18T04:12:47.052Z</time></trkpt><trkpt lat="40.6957713" lon="14.7133464"><ele>190.0</ele><time>2026-04-18T04:12:52.052Z</time></trkpt><trkpt lat="40.6958326" lon="14.7132507"><ele>190.33333333333331</ele><time>2026-04-18T04:12:55.052Z</time></trkpt><trkpt lat="40.6958815" lon="14.7131842"><ele>190.66666666666666</ele><time>2026-04-18T04:12:57.052Z</time></trkpt><trkpt lat="40.6959322" lon="14.7131042"><ele>191.0</ele><time>2026-04-18T04:13:00.052Z</time></trkpt><trkpt lat="40.6959788" lon="14.7130278"><ele>191.0</ele><time>2026-04-18T04:13:04.052Z</time></trkpt><trkpt lat="40.6960315" lon="14.7129559"><ele>191.0</ele><time>2026-04-18T04:13:08.052Z</time></trkpt><trkpt lat="40.696076" lon="14.7128958"><ele>191.0</ele><time>2026-04-18T04:13:13.052Z</time></trkpt><trkpt lat="40.6961225" lon="14.7128315"><ele>191.0</ele><time>2026-04-18T04:13:18.052Z</time></trkpt><trkpt lat="40.6961725" lon="14.7127657"><ele>191.0</ele><time>2026-04-18T04:13:23.052Z</time></trkpt><trkpt lat="40.6962183" lon="14.7127055"><ele>191.0</ele><time>2026-04-18T04:13:27.052Z</time></trkpt><trkpt lat="40.6962723" lon="14.7126378"><ele>191.0</ele><time>2026-04-18T04:13:32.052Z</time></trkpt><trkpt lat="40.6963288" lon="14.7125708"><ele>191.2857142857143</ele><time>2026-04-18T04:13:37.052Z</time></trkpt><trkpt lat="40.6963814" lon="14.7125203"><ele>191.57142857142856</ele><time>2026-04-18T04:13:42.052Z</time></trkpt><trkpt lat="40.696448" lon="14.7124594"><ele>191.85714285714286</ele><time>2026-04-18T04:13:47.052Z</time></trkpt><trkpt lat="40.6965017" lon="14.7124117"><ele>192.14285714285717</ele><time>2026-04-18T04:13:51.052Z</time></trkpt><trkpt lat="40.6965614" lon="14.7123608"><ele>192.42857142857144</ele><time>2026-04-18T04:13:56.052Z</time></trkpt><trkpt lat="40.6966292" lon="14.7123087"><ele>192.71428571428572</ele><time>2026-04-18T04:14:02.052Z</time></trkpt><trkpt lat="40.6966685" lon="14.7122396"><ele>193.0</ele><time>2026-04-18T04:14:07.052Z</time></trkpt><trkpt lat="40.6966468" lon="14.7121525"><ele>193.00000000000003</ele><time>2026-04-18T04:14:11.052Z</time></trkpt><trkpt lat="40.6966204" lon="14.7120729"><ele>193.0</ele><time>2026-04-18T04:14:15.052Z</time></trkpt><trkpt lat="40.6965876" lon="14.7119887"><ele>193.0</ele><time>2026-04-18T04:14:20.052Z</time></trkpt><trkpt lat="40.696554" lon="14.7119144"><ele>193.0</ele><time>2026-04-18T04:14:25.052Z</time></trkpt><trkpt lat="40.6965309" lon="14.7118254"><ele>193.0</ele><time>2026-04-18T04:14:30.052Z</time></trkpt><trkpt lat="40.6964958" lon="14.7117413"><ele>193.00000000000003</ele><time>2026-04-18T04:14:35.052Z</time></trkpt><trkpt lat="40.6964523" lon="14.7116624"><ele>193.0</ele><time>2026-04-18T04:14:40.052Z</time></trkpt><trkpt lat="40.6964269" lon="14.7115841"><ele>192.57142857142858</ele><time>2026-04-18T04:14:46.052Z</time></trkpt><trkpt lat="40.6964357" lon="14.7114958"><ele>192.14285714285714</ele><time>2026-04-18T04:14:51.052Z</time></trkpt><trkpt lat="40.6963758" lon="14.7114645"><ele>191.71428571428572</ele><time>2026-04-18T04:14:57.052Z</time></trkpt><trkpt lat="40.6963083" lon="14.7114471"><ele>191.28571428571428</ele><time>2026-04-18T04:15:01.052Z</time></trkpt><trkpt lat="40.6962368" lon="14.7114257"><ele>190.85714285714286</ele><time>2026-04-18T04:15:05.053Z</time></trkpt><trkpt lat="40.6961772" lon="14.7113845"><ele>190.42857142857144</ele><time>2026-04-18T04:15:10.052Z</time></trkpt><trkpt lat="40.6961434" lon="14.711311"><ele>190.0</ele><time>2026-04-18T04:15:15.052Z</time></trkpt><trkpt lat="40.6961142" lon="14.7112233"><ele>190.0</ele><time>2026-04-18T04:15:20.052Z</time></trkpt><trkpt lat="40.6960706" lon="14.7111441"><ele>190.0</ele><time>2026-04-18T04:15:26.053Z</time></trkpt><trkpt lat="40.6960566" lon="14.7110561"><ele>190.0</ele><time>2026-04-18T04:15:30.052Z</time></trkpt><trkpt lat="40.6960969" lon="14.7109766"><ele>190.0</ele><time>2026-04-18T04:15:34.053Z</time></trkpt><trkpt lat="40.6961216" lon="14.710891"><ele>190.0</ele><time>2026-04-18T04:15:38.053Z</time></trkpt><trkpt lat="40.6961756" lon="14.7108331"><ele>190.0</ele><time>2026-04-18T04:15:43.052Z</time></trkpt><trkpt lat="40.6962379" lon="14.7108503"><ele>190.0</ele><time>2026-04-18T04:16:06.052Z</time></trkpt><trkpt lat="40.6963033" lon="14.7108175"><ele>191.16666666666669</ele><time>2026-04-18T04:16:12.052Z</time></trkpt><trkpt lat="40.6963692" lon="14.7107949"><ele>192.33333333333334</ele><time>2026-04-18T04:16:17.052Z</time></trkpt><trkpt lat="40.6964402" lon="14.7107703"><ele>193.5</ele><time>2026-04-18T04:16:22.052Z</time></trkpt><trkpt lat="40.6965133" lon="14.7107441"><ele>194.66666666666669</ele><time>2026-04-18T04:16:28.052Z</time></trkpt><trkpt lat="40.6965889" lon="14.7107175"><ele>195.83333333333334</ele><time>2026-04-18T04:16:34.052Z</time></trkpt><trkpt lat="40.696662" lon="14.7106915"><ele>197.0</ele><time>2026-04-18T04:16:39.052Z</time></trkpt><trkpt lat="40.6967375" lon="14.7106571"><ele>197.00000000000003</ele><time>2026-04-18T04:16:45.052Z</time></trkpt><trkpt lat="40.6966812" lon="14.7105483"><ele>197.0</ele><time>2026-04-18T04:16:53.052Z</time></trkpt><trkpt lat="40.6966512" lon="14.7104504"><ele>197.0</ele><time>2026-04-18T04:16:55.052Z</time></trkpt><trkpt lat="40.6966328" lon="14.710362"><ele>197.0</ele><time>2026-04-18T04:16:57.052Z</time></trkpt><trkpt lat="40.6966137" lon="14.7102782"><ele>197.00000000000003</ele><time>2026-04-18T04:17:00.052Z</time></trkpt><trkpt lat="40.6965875" lon="14.7101882"><ele>197.0</ele><time>2026-04-18T04:17:04.052Z</time></trkpt><trkpt lat="40.6965703" lon="14.7100961"><ele>197.83333333333334</ele><time>2026-04-18T04:17:08.052Z</time></trkpt><trkpt lat="40.6965551" lon="14.7100139"><ele>198.66666666666669</ele><time>2026-04-18T04:17:12.052Z</time></trkpt><trkpt lat="40.6965355" lon="14.7099159"><ele>199.5</ele><time>2026-04-18T04:17:19.052Z</time></trkpt><trkpt lat="40.6965181" lon="14.7098234"><ele>200.33333333333331</ele><time>2026-04-18T04:17:25.052Z</time></trkpt><trkpt lat="40.6964927" lon="14.7097373"><ele>201.16666666666666</ele><time>2026-04-18T04:17:29.052Z</time></trkpt><trkpt lat="40.6964221" lon="14.7096261"><ele>202.0</ele><time>2026-04-18T04:18:03.052Z</time></trkpt><trkpt lat="40.6963866" lon="14.7095407"><ele>202.0</ele><time>2026-04-18T04:18:10.052Z</time></trkpt><trkpt lat="40.6963564" lon="14.7094505"><ele>202.0</ele><time>2026-04-18T04:18:16.052Z</time></trkpt><trkpt lat="40.6963086" lon="14.7093909"><ele>202.0</ele><time>2026-04-18T04:18:22.052Z</time></trkpt><trkpt lat="40.6962777" lon="14.709301"><ele>202.0</ele><time>2026-04-18T04:18:26.052Z</time></trkpt><trkpt lat="40.6962467" lon="14.7092115"><ele>202.0</ele><time>2026-04-18T04:18:32.052Z</time></trkpt><trkpt lat="40.6962162" lon="14.7091332"><ele>202.0</ele><time>2026-04-18T04:18:37.052Z</time></trkpt><trkpt lat="40.6961846" lon="14.7090493"><ele>202.0</ele><time>2026-04-18T04:18:43.053Z</time></trkpt><trkpt lat="40.6961537" lon="14.7089697"><ele>202.0</ele><time>2026-04-18T04:18:48.053Z</time></trkpt><trkpt lat="40.6961174" lon="14.7088786"><ele>202.0</ele><time>2026-04-18T04:18:53.052Z</time></trkpt><trkpt lat="40.696085" lon="14.7087947"><ele>202.0</ele><time>2026-04-18T04:18:58.052Z</time></trkpt><trkpt lat="40.6960491" lon="14.7087117"><ele>202.0</ele><time>2026-04-18T04:19:03.052Z</time></trkpt><trkpt lat="40.6960091" lon="14.7086379"><ele>202.0</ele><time>2026-04-18T04:19:08.052Z</time></trkpt><trkpt lat="40.6959671" lon="14.7085564"><ele>202.0</ele><time>2026-04-18T04:19:13.052Z</time></trkpt><trkpt lat="40.6959266" lon="14.708468"><ele>202.0</ele><time>2026-04-18T04:19:19.052Z</time></trkpt><trkpt lat="40.6959172" lon="14.7083858"><ele>201.42857142857142</ele><time>2026-04-18T04:19:23.052Z</time></trkpt><trkpt lat="40.6959276" lon="14.7082834"><ele>200.85714285714283</ele><time>2026-04-18T04:19:28.052Z</time></trkpt><trkpt lat="40.6959832" lon="14.7082103"><ele>200.28571428571428</ele><time>2026-04-18T04:19:33.052Z</time></trkpt><trkpt lat="40.6960387" lon="14.7081404"><ele>199.71428571428572</ele><time>2026-04-18T04:19:38.052Z</time></trkpt><trkpt lat="40.6960746" lon="14.7080685"><ele>199.14285714285714</ele><time>2026-04-18T04:19:42.052Z</time></trkpt><trkpt lat="40.6961033" lon="14.7079746"><ele>198.57142857142858</ele><time>2026-04-18T04:19:47.052Z</time></trkpt><trkpt lat="40.6961234" lon="14.7078855"><ele>198.0</ele><time>2026-04-18T04:19:52.052Z</time></trkpt><trkpt lat="40.6961433" lon="14.70779"><ele>199.42857142857144</ele><time>2026-04-18T04:19:58.052Z</time></trkpt><trkpt lat="40.696161" lon="14.7077013"><ele>200.85714285714283</ele><time>2026-04-18T04:20:03.052Z</time></trkpt><trkpt lat="40.6961784" lon="14.7076171"><ele>202.28571428571428</ele><time>2026-04-18T04:20:08.052Z</time></trkpt><trkpt lat="40.6962006" lon="14.7075284"><ele>203.71428571428572</ele><time>2026-04-18T04:20:13.052Z</time></trkpt><trkpt lat="40.6962238" lon="14.707449"><ele>205.14285714285717</ele><time>2026-04-18T04:20:19.052Z</time></trkpt><trkpt lat="40.696251" lon="14.7073714"><ele>206.57142857142856</ele><time>2026-04-18T04:20:23.052Z</time></trkpt><trkpt lat="40.6962857" lon="14.7072746"><ele>208.0</ele><time>2026-04-18T04:20:29.052Z</time></trkpt><trkpt lat="40.6963149" lon="14.7071912"><ele>208.0</ele><time>2026-04-18T04:20:34.052Z</time></trkpt><trkpt lat="40.6963451" lon="14.7071079"><ele>208.0</ele><time>2026-04-18T04:20:38.052Z</time></trkpt><trkpt lat="40.6963728" lon="14.7070309"><ele>208.0</ele><time>2026-04-18T04:20:43.052Z</time></trkpt><trkpt lat="40.6964028" lon="14.7069437"><ele>208.0</ele><time>2026-04-18T04:20:48.052Z</time></trkpt><trkpt lat="40.6964328" lon="14.7068595"><ele>208.0</ele><time>2026-04-18T04:20:53.052Z</time></trkpt><trkpt lat="40.6964626" lon="14.7067634"><ele>208.0</ele><time>2026-04-18T04:20:58.052Z</time></trkpt><trkpt lat="40.6964891" lon="14.7066667"><ele>208.0</ele><time>2026-04-18T04:21:03.052Z</time></trkpt><trkpt lat="40.696513" lon="14.7065615"><ele>208.14285714285714</ele><time>2026-04-18T04:21:09.052Z</time></trkpt><trkpt lat="40.6965257" lon="14.7064702"><ele>208.2857142857143</ele><time>2026-04-18T04:21:14.052Z</time></trkpt><trkpt lat="40.6965392" lon="14.7063704"><ele>208.42857142857144</ele><time>2026-04-18T04:21:19.052Z</time></trkpt><trkpt lat="40.696553" lon="14.7062667"><ele>208.57142857142856</ele><time>2026-04-18T04:21:24.053Z</time></trkpt><trkpt lat="40.6965669" lon="14.7061806"><ele>208.71428571428572</ele><time>2026-04-18T04:21:29.052Z</time></trkpt><trkpt lat="40.6965857" lon="14.7061009"><ele>208.85714285714286</ele><time>2026-04-18T04:21:34.052Z</time></trkpt><trkpt lat="40.6966065" lon="14.7060153"><ele>209.0</ele><time>2026-04-18T04:21:39.052Z</time></trkpt><trkpt lat="40.6966254" lon="14.7059359"><ele>209.00000000000003</ele><time>2026-04-18T04:21:43.052Z</time></trkpt><trkpt lat="40.6966567" lon="14.7058528"><ele>209.0</ele><time>2026-04-18T04:21:48.052Z</time></trkpt><trkpt lat="40.6966912" lon="14.7057527"><ele>209.0</ele><time>2026-04-18T04:21:53.052Z</time></trkpt><trkpt lat="40.6967009" lon="14.7056542"><ele>209.0</ele><time>2026-04-18T04:21:58.052Z</time></trkpt><trkpt lat="40.6967257" lon="14.7055775"><ele>209.00000000000003</ele><time>2026-04-18T04:22:02.052Z</time></trkpt><trkpt lat="40.696733" lon="14.7054644"><ele>209.0</ele><time>2026-04-18T04:22:07.053Z</time></trkpt><trkpt lat="40.6967409" lon="14.7053628"><ele>209.0</ele><time>2026-04-18T04:22:13.052Z</time></trkpt><trkpt lat="40.6967318" lon="14.7052773"><ele>209.0</ele><time>2026-04-18T04:22:18.052Z</time></trkpt><trkpt lat="40.6967997" lon="14.705242"><ele>209.0</ele><time>2026-04-18T04:22:34.052Z</time></trkpt><trkpt lat="40.69687" lon="14.705263"><ele>209.0</ele><time>2026-04-18T04:22:42.052Z</time></trkpt><trkpt lat="40.6969347" lon="14.7052448"><ele>209.0</ele><time>2026-04-18T04:22:49.052Z</time></trkpt><trkpt lat="40.6969939" lon="14.7052074"><ele>209.0</ele><time>2026-04-18T04:22:57.052Z</time></trkpt><trkpt lat="40.6970634" lon="14.705171"><ele>209.0</ele><time>2026-04-18T04:23:03.053Z</time></trkpt><trkpt lat="40.6971268" lon="14.705143"><ele>210.85714285714286</ele><time>2026-04-18T04:23:08.052Z</time></trkpt><trkpt lat="40.6971973" lon="14.7051473"><ele>212.71428571428572</ele><time>2026-04-18T04:23:13.052Z</time></trkpt><trkpt lat="40.697207" lon="14.7050484"><ele>214.57142857142856</ele><time>2026-04-18T04:23:18.052Z</time></trkpt><trkpt lat="40.6972013" lon="14.7049606"><ele>216.42857142857144</ele><time>2026-04-18T04:23:22.052Z</time></trkpt><trkpt lat="40.6971825" lon="14.7048699"><ele>218.2857142857143</ele><time>2026-04-18T04:23:29.052Z</time></trkpt><trkpt lat="40.697159" lon="14.704777"><ele>220.14285714285714</ele><time>2026-04-18T04:23:34.052Z</time></trkpt><trkpt lat="40.6971399" lon="14.7046951"><ele>222.0</ele><time>2026-04-18T04:23:43.052Z</time></trkpt><trkpt lat="40.6971199" lon="14.7046061"><ele>222.0</ele><time>2026-04-18T04:23:48.052Z</time></trkpt><trkpt lat="40.6970993" lon="14.7045123"><ele>222.0</ele><time>2026-04-18T04:23:52.052Z</time></trkpt><trkpt lat="40.6970787" lon="14.7044233"><ele>222.0</ele><time>2026-04-18T04:23:56.052Z</time></trkpt><trkpt lat="40.6970577" lon="14.7043231"><ele>222.0</ele><time>2026-04-18T04:24:01.053Z</time></trkpt><trkpt lat="40.6970407" lon="14.7042316"><ele>222.0</ele><time>2026-04-18T04:24:06.052Z</time></trkpt><trkpt lat="40.6970252" lon="14.7041327"><ele>222.0</ele><time>2026-04-18T04:24:12.052Z</time></trkpt><trkpt lat="40.6970185" lon="14.7040386"><ele>222.0</ele><time>2026-04-18T04:24:21.052Z</time></trkpt><trkpt lat="40.6970103" lon="14.7039332"><ele>222.57142857142856</ele><time>2026-04-18T04:24:27.052Z</time></trkpt><trkpt lat="40.6970071" lon="14.7038324"><ele>223.14285714285717</ele><time>2026-04-18T04:24:32.052Z</time></trkpt><trkpt lat="40.6970067" lon="14.703745"><ele>223.71428571428572</ele><time>2026-04-18T04:24:37.052Z</time></trkpt><trkpt lat="40.6969703" lon="14.7036627"><ele>224.28571428571428</ele><time>2026-04-18T04:24:47.052Z</time></trkpt><trkpt lat="40.6969381" lon="14.7035746"><ele>224.85714285714283</ele><time>2026-04-18T04:24:52.053Z</time></trkpt><trkpt lat="40.6969317" lon="14.7034828"><ele>225.42857142857144</ele><time>2026-04-18T04:24:57.052Z</time></trkpt><trkpt lat="40.6969503" lon="14.7034007"><ele>226.0</ele><time>2026-04-18T04:25:02.052Z</time></trkpt><trkpt lat="40.6969901" lon="14.7033353"><ele>226.28571428571428</ele><time>2026-04-18T04:25:06.052Z</time></trkpt><trkpt lat="40.6970594" lon="14.7033074"><ele>226.57142857142856</ele><time>2026-04-18T04:25:10.052Z</time></trkpt><trkpt lat="40.6971291" lon="14.703293"><ele>226.85714285714283</ele><time>2026-04-18T04:25:14.053Z</time></trkpt><trkpt lat="40.6971938" lon="14.7032729"><ele>227.14285714285714</ele><time>2026-04-18T04:25:18.053Z</time></trkpt><trkpt lat="40.6972348" lon="14.7031901"><ele>227.4285714285714</ele><time>2026-04-18T04:25:23.053Z</time></trkpt><trkpt lat="40.6972404" lon="14.7031018"><ele>227.7142857142857</ele><time>2026-04-18T04:25:28.053Z</time></trkpt><trkpt lat="40.697233" lon="14.703011"><ele>228.0</ele><time>2026-04-18T04:25:33.053Z</time></trkpt><trkpt lat="40.6972416" lon="14.7029169"><ele>228.0</ele><time>2026-04-18T04:25:41.053Z</time></trkpt><trkpt lat="40.6972498" lon="14.7028329"><ele>228.0</ele><time>2026-04-18T04:25:48.053Z</time></trkpt><trkpt lat="40.6972618" lon="14.7027369"><ele>228.0</ele><time>2026-04-18T04:25:55.053Z</time></trkpt><trkpt lat="40.6972933" lon="14.7026443"><ele>228.0</ele><time>2026-04-18T04:26:01.053Z</time></trkpt><trkpt lat="40.6973507" lon="14.7025846"><ele>228.0</ele><time>2026-04-18T04:26:05.053Z</time></trkpt><trkpt lat="40.6974024" lon="14.7024966"><ele>228.0</ele><time>2026-04-18T04:26:09.053Z</time></trkpt><trkpt lat="40.6974405" lon="14.7024043"><ele>228.28571428571428</ele><time>2026-04-18T04:26:14.053Z</time></trkpt><trkpt lat="40.6974853" lon="14.7023202"><ele>228.57142857142856</ele><time>2026-04-18T04:26:19.053Z</time></trkpt><trkpt lat="40.6975289" lon="14.7022392"><ele>228.85714285714283</ele><time>2026-04-18T04:26:25.053Z</time></trkpt><trkpt lat="40.6975681" lon="14.7021698"><ele>229.1428571428571</ele><time>2026-04-18T04:26:30.053Z</time></trkpt><trkpt lat="40.6976093" lon="14.7020995"><ele>229.42857142857142</ele><time>2026-04-18T04:26:35.053Z</time></trkpt><trkpt lat="40.6976515" lon="14.7020258"><ele>229.71428571428567</ele><time>2026-04-18T04:26:41.053Z</time></trkpt><trkpt lat="40.6976941" lon="14.7019529"><ele>229.99999999999997</ele><time>2026-04-18T04:26:46.053Z</time></trkpt><trkpt lat="40.6977354" lon="14.7018707"><ele>230.85714285714283</ele><time>2026-04-18T04:26:51.053Z</time></trkpt><trkpt lat="40.6977693" lon="14.7017832"><ele>231.71428571428572</ele><time>2026-04-18T04:26:56.054Z</time></trkpt><trkpt lat="40.6977949" lon="14.7017053"><ele>232.57142857142856</ele><time>2026-04-18T04:27:01.053Z</time></trkpt><trkpt lat="40.6978252" lon="14.7016174"><ele>233.42857142857142</ele><time>2026-04-18T04:27:07.053Z</time></trkpt><trkpt lat="40.6978548" lon="14.7015294"><ele>234.28571428571428</ele><time>2026-04-18T04:27:13.053Z</time></trkpt><trkpt lat="40.6978814" lon="14.7014505"><ele>235.14285714285714</ele><time>2026-04-18T04:27:17.054Z</time></trkpt><trkpt lat="40.6979105" lon="14.7013641"><ele>236.0</ele><time>2026-04-18T04:27:22.053Z</time></trkpt><trkpt lat="40.6979409" lon="14.7012696"><ele>236.0</ele><time>2026-04-18T04:27:27.053Z</time></trkpt><trkpt lat="40.6979644" lon="14.7011923"><ele>236.0</ele><time>2026-04-18T04:27:31.053Z</time></trkpt><trkpt lat="40.6979941" lon="14.7010977"><ele>236.0</ele><time>2026-04-18T04:27:37.053Z</time></trkpt><trkpt lat="40.6980242" lon="14.7010004"><ele>236.0</ele><time>2026-04-18T04:27:42.053Z</time></trkpt><trkpt lat="40.6980472" lon="14.700922"><ele>236.0</ele><time>2026-04-18T04:27:48.053Z</time></trkpt><trkpt lat="40.6980749" lon="14.7008341"><ele>236.0</ele><time>2026-04-18T04:27:54.053Z</time></trkpt><trkpt lat="40.698099" lon="14.7007447"><ele>236.0</ele><time>2026-04-18T04:27:59.053Z</time></trkpt><trkpt lat="40.6981181" lon="14.7006445"><ele>236.85714285714283</ele><time>2026-04-18T04:28:04.054Z</time></trkpt><trkpt lat="40.6981482" lon="14.70057"><ele>237.71428571428572</ele><time>2026-04-18T04:28:08.053Z</time></trkpt><trkpt lat="40.6982009" lon="14.7005222"><ele>238.57142857142856</ele><time>2026-04-18T04:28:13.053Z</time></trkpt><trkpt lat="40.6982518" lon="14.7004707"><ele>239.42857142857142</ele><time>2026-04-18T04:28:17.054Z</time></trkpt><trkpt lat="40.6982958" lon="14.7004083"><ele>240.28571428571428</ele><time>2026-04-18T04:28:21.053Z</time></trkpt><trkpt lat="40.6983457" lon="14.7003388"><ele>241.14285714285714</ele><time>2026-04-18T04:28:26.053Z</time></trkpt><trkpt lat="40.6983901" lon="14.7002754"><ele>242.0</ele><time>2026-04-18T04:28:31.053Z</time></trkpt><trkpt lat="40.6984339" lon="14.7002152"><ele>242.57142857142856</ele><time>2026-04-18T04:28:36.053Z</time></trkpt><trkpt lat="40.6984562" lon="14.7001221"><ele>243.1428571428571</ele><time>2026-04-18T04:28:49.053Z</time></trkpt><trkpt lat="40.6984938" lon="14.7000534"><ele>243.71428571428572</ele><time>2026-04-18T04:28:52.053Z</time></trkpt><trkpt lat="40.6985381" lon="14.6999931"><ele>244.28571428571428</ele><time>2026-04-18T04:28:59.053Z</time></trkpt><trkpt lat="40.698547" lon="14.6998972"><ele>244.85714285714286</ele><time>2026-04-18T04:29:07.053Z</time></trkpt><trkpt lat="40.6984964" lon="14.6998443"><ele>245.42857142857144</ele><time>2026-04-18T04:29:10.053Z</time></trkpt><trkpt lat="40.698437" lon="14.6998148"><ele>246.00000000000003</ele><time>2026-04-18T04:29:17.053Z</time></trkpt><trkpt lat="40.6983721" lon="14.6998013"><ele>246.00000000000003</ele><time>2026-04-18T04:29:21.053Z</time></trkpt><trkpt lat="40.6983075" lon="14.6998021"><ele>246.0</ele><time>2026-04-18T04:29:25.053Z</time></trkpt><trkpt lat="40.698241" lon="14.6998452"><ele>246.00000000000003</ele><time>2026-04-18T04:29:31.053Z</time></trkpt><trkpt lat="40.698179" lon="14.6998947"><ele>246.00000000000003</ele><time>2026-04-18T04:29:37.053Z</time></trkpt><trkpt lat="40.6981187" lon="14.6999446"><ele>246.0</ele><time>2026-04-18T04:29:42.053Z</time></trkpt><trkpt lat="40.6980615" lon="14.6999937"><ele>246.00000000000003</ele><time>2026-04-18T04:29:47.053Z</time></trkpt><trkpt lat="40.6980002" lon="14.7000481"><ele>246.00000000000003</ele><time>2026-04-18T04:29:52.053Z</time></trkpt><trkpt lat="40.6979497" lon="14.700102"><ele>246.00000000000003</ele><time>2026-04-18T04:29:56.053Z</time></trkpt><trkpt lat="40.6978897" lon="14.7001652"><ele>246.0</ele><time>2026-04-18T04:30:01.053Z</time></trkpt><trkpt lat="40.6978371" lon="14.7002226"><ele>246.00000000000003</ele><time>2026-04-18T04:30:07.053Z</time></trkpt><trkpt lat="40.6977785" lon="14.7002845"><ele>246.00000000000003</ele><time>2026-04-18T04:30:12.053Z</time></trkpt><trkpt lat="40.6977222" lon="14.7003441"><ele>246.0</ele><time>2026-04-18T04:30:17.053Z</time></trkpt><trkpt lat="40.6976693" lon="14.7004004"><ele>246.00000000000003</ele><time>2026-04-18T04:30:22.054Z</time></trkpt><trkpt lat="40.6976102" lon="14.7004633"><ele>246.00000000000003</ele><time>2026-04-18T04:30:27.053Z</time></trkpt><trkpt lat="40.6975532" lon="14.7005232"><ele>246.00000000000003</ele><time>2026-04-18T04:30:33.053Z</time></trkpt><trkpt lat="40.6974912" lon="14.7005889"><ele>246.0</ele><time>2026-04-18T04:30:39.053Z</time></trkpt><trkpt lat="40.6974381" lon="14.7006442"><ele>246.00000000000003</ele><time>2026-04-18T04:30:44.053Z</time></trkpt><trkpt lat="40.6973739" lon="14.7006143"><ele>246.00000000000003</ele><time>2026-04-18T04:30:48.053Z</time></trkpt><trkpt lat="40.6973099" lon="14.7005615"><ele>246.0</ele><time>2026-04-18T04:30:53.053Z</time></trkpt><trkpt lat="40.697242" lon="14.7005188"><ele>246.00000000000003</ele><time>2026-04-18T04:30:58.053Z</time></trkpt><trkpt lat="40.6971855" lon="14.7004547"><ele>246.00000000000003</ele><time>2026-04-18T04:31:04.053Z</time></trkpt><trkpt lat="40.6971428" lon="14.7003929"><ele>246.00000000000003</ele><time>2026-04-18T04:31:09.053Z</time></trkpt><trkpt lat="40.6971058" lon="14.7003137"><ele>246.0</ele><time>2026-04-18T04:31:14.053Z</time></trkpt><trkpt lat="40.6970899" lon="14.7002323"><ele>246.00000000000003</ele><time>2026-04-18T04:31:19.053Z</time></trkpt><trkpt lat="40.697087" lon="14.7001439"><ele>246.00000000000003</ele><time>2026-04-18T04:31:23.053Z</time></trkpt><trkpt lat="40.6970833" lon="14.7000568"><ele>246.0</ele><time>2026-04-18T04:31:27.053Z</time></trkpt><trkpt lat="40.6970851" lon="14.6999666"><ele>246.00000000000003</ele><time>2026-04-18T04:31:32.053Z</time></trkpt><trkpt lat="40.6970863" lon="14.6998759"><ele>246.00000000000003</ele><time>2026-04-18T04:31:37.054Z</time></trkpt><trkpt lat="40.6970884" lon="14.6997845"><ele>246.42857142857144</ele><time>2026-04-18T04:31:42.054Z</time></trkpt><trkpt lat="40.6970931" lon="14.6996958"><ele>246.85714285714286</ele><time>2026-04-18T04:31:47.053Z</time></trkpt><trkpt lat="40.6970981" lon="14.6995923"><ele>247.28571428571428</ele><time>2026-04-18T04:31:53.053Z</time></trkpt><trkpt lat="40.6971108" lon="14.6994878"><ele>247.71428571428572</ele><time>2026-04-18T04:31:57.053Z</time></trkpt><trkpt lat="40.6971278" lon="14.6993971"><ele>248.1428571428571</ele><time>2026-04-18T04:32:03.053Z</time></trkpt><trkpt lat="40.6971458" lon="14.6993007"><ele>248.57142857142856</ele><time>2026-04-18T04:32:07.053Z</time></trkpt><trkpt lat="40.6971887" lon="14.6992212"><ele>249.0</ele><time>2026-04-18T04:32:22.053Z</time></trkpt><trkpt lat="40.6972221" lon="14.69914"><ele>249.57142857142856</ele><time>2026-04-18T04:32:27.053Z</time></trkpt><trkpt lat="40.6972444" lon="14.6990441"><ele>250.1428571428571</ele><time>2026-04-18T04:32:32.053Z</time></trkpt><trkpt lat="40.6972597" lon="14.6989488"><ele>250.71428571428572</ele><time>2026-04-18T04:32:37.053Z</time></trkpt><trkpt lat="40.6972717" lon="14.6988647"><ele>251.28571428571428</ele><time>2026-04-18T04:32:41.053Z</time></trkpt><trkpt lat="40.6972847" lon="14.6987622"><ele>251.85714285714286</ele><time>2026-04-18T04:32:46.053Z</time></trkpt><trkpt lat="40.6972963" lon="14.6986771"><ele>252.42857142857144</ele><time>2026-04-18T04:32:51.053Z</time></trkpt><trkpt lat="40.6973086" lon="14.6985817"><ele>253.00000000000003</ele><time>2026-04-18T04:32:56.053Z</time></trkpt><trkpt lat="40.6973219" lon="14.6984829"><ele>253.00000000000003</ele><time>2026-04-18T04:33:01.053Z</time></trkpt><trkpt lat="40.697333" lon="14.6983935"><ele>253.0</ele><time>2026-04-18T04:33:06.053Z</time></trkpt><trkpt lat="40.6973405" lon="14.6983071"><ele>253.00000000000003</ele><time>2026-04-18T04:33:11.053Z</time></trkpt><trkpt lat="40.6973437" lon="14.6982179"><ele>253.00000000000003</ele><time>2026-04-18T04:33:15.053Z</time></trkpt><trkpt lat="40.6973397" lon="14.6981189"><ele>253.0</ele><time>2026-04-18T04:33:20.053Z</time></trkpt><trkpt lat="40.6973151" lon="14.6980412"><ele>253.00000000000003</ele><time>2026-04-18T04:33:25.053Z</time></trkpt><trkpt lat="40.6972889" lon="14.6979618"><ele>253.00000000000003</ele><time>2026-04-18T04:33:29.053Z</time></trkpt><trkpt lat="40.6972233" lon="14.6979511"><ele>253.00000000000003</ele><time>2026-04-18T04:33:55.053Z</time></trkpt><trkpt lat="40.6972005" lon="14.6978736"><ele>253.0</ele><time>2026-04-18T04:33:59.053Z</time></trkpt><trkpt lat="40.6971769" lon="14.6977957"><ele>253.00000000000003</ele><time>2026-04-18T04:34:03.053Z</time></trkpt><trkpt lat="40.6971482" lon="14.6977095"><ele>253.00000000000003</ele><time>2026-04-18T04:34:08.053Z</time></trkpt><trkpt lat="40.6971235" lon="14.6976307"><ele>253.0</ele><time>2026-04-18T04:34:16.053Z</time></trkpt><trkpt lat="40.6970951" lon="14.6975441"><ele>253.00000000000003</ele><time>2026-04-18T04:34:21.053Z</time></trkpt><trkpt lat="40.6970666" lon="14.6974549"><ele>253.00000000000003</ele><time>2026-04-18T04:34:26.053Z</time></trkpt><trkpt lat="40.6970382" lon="14.6973683"><ele>253.42857142857144</ele><time>2026-04-18T04:34:31.053Z</time></trkpt><trkpt lat="40.6970117" lon="14.6972884"><ele>253.85714285714286</ele><time>2026-04-18T04:34:36.053Z</time></trkpt><trkpt lat="40.6969816" lon="14.6971991"><ele>254.28571428571428</ele><time>2026-04-18T04:34:42.053Z</time></trkpt><trkpt lat="40.6969571" lon="14.6971155"><ele>254.71428571428572</ele><time>2026-04-18T04:34:47.053Z</time></trkpt><trkpt lat="40.6969321" lon="14.6970225"><ele>255.1428571428571</ele><time>2026-04-18T04:34:52.053Z</time></trkpt><trkpt lat="40.6969119" lon="14.6969424"><ele>255.57142857142856</ele><time>2026-04-18T04:34:57.053Z</time></trkpt><trkpt lat="40.6968936" lon="14.6968515"><ele>256.0</ele><time>2026-04-18T04:35:02.053Z</time></trkpt><trkpt lat="40.6968865" lon="14.6967536"><ele>256.0</ele><time>2026-04-18T04:35:07.053Z</time></trkpt><trkpt lat="40.696888" lon="14.6966648"><ele>255.99999999999997</ele><time>2026-04-18T04:35:12.054Z</time></trkpt><trkpt lat="40.6968914" lon="14.6965787"><ele>256.0</ele><time>2026-04-18T04:35:17.053Z</time></trkpt><trkpt lat="40.6968964" lon="14.6964777"><ele>256.0</ele><time>2026-04-18T04:35:22.053Z</time></trkpt><trkpt lat="40.6969034" lon="14.6963938"><ele>255.99999999999997</ele><time>2026-04-18T04:35:27.053Z</time></trkpt><trkpt lat="40.6968665" lon="14.6963051"><ele>256.0</ele><time>2026-04-18T04:35:33.053Z</time></trkpt><trkpt lat="40.6968188" lon="14.6962373"><ele>256.0</ele><time>2026-04-18T04:35:38.053Z</time></trkpt><trkpt lat="40.6967692" lon="14.6961644"><ele>256.0</ele><time>2026-04-18T04:35:43.053Z</time></trkpt><trkpt lat="40.6967241" lon="14.6960978"><ele>255.99999999999997</ele><time>2026-04-18T04:35:49.053Z</time></trkpt><trkpt lat="40.6966699" lon="14.6960201"><ele>256.0</ele><time>2026-04-18T04:35:55.053Z</time></trkpt><trkpt lat="40.6965911" lon="14.6960095"><ele>256.0</ele><time>2026-04-18T04:36:00.054Z</time></trkpt><trkpt lat="40.6965242" lon="14.6959903"><ele>255.99999999999997</ele><time>2026-04-18T04:36:04.053Z</time></trkpt><trkpt lat="40.6964539" lon="14.6959608"><ele>256.0</ele><time>2026-04-18T04:36:09.053Z</time></trkpt><trkpt lat="40.6963853" lon="14.6959561"><ele>256.0</ele><time>2026-04-18T04:36:14.053Z</time></trkpt><trkpt lat="40.6963186" lon="14.6959499"><ele>257.85714285714283</ele><time>2026-04-18T04:36:19.054Z</time></trkpt><trkpt lat="40.6962485" lon="14.6959566"><ele>259.71428571428567</ele><time>2026-04-18T04:36:24.053Z</time></trkpt><trkpt lat="40.6961757" lon="14.6959455"><ele>261.57142857142856</ele><time>2026-04-18T04:36:29.053Z</time></trkpt><trkpt lat="40.6961094" lon="14.6959227"><ele>263.42857142857144</ele><time>2026-04-18T04:36:34.053Z</time></trkpt><trkpt lat="40.6960466" lon="14.6958672"><ele>265.28571428571433</ele><time>2026-04-18T04:36:39.053Z</time></trkpt><trkpt lat="40.6960312" lon="14.6957727"><ele>267.14285714285717</ele><time>2026-04-18T04:36:44.053Z</time></trkpt><trkpt lat="40.6960039" lon="14.6956777"><ele>269.0</ele><time>2026-04-18T04:36:49.053Z</time></trkpt><trkpt lat="40.6959886" lon="14.6955881"><ele>269.2857142857143</ele><time>2026-04-18T04:36:54.053Z</time></trkpt><trkpt lat="40.6959559" lon="14.6955052"><ele>269.5714285714286</ele><time>2026-04-18T04:36:59.054Z</time></trkpt><trkpt lat="40.6959269" lon="14.6954112"><ele>269.8571428571429</ele><time>2026-04-18T04:37:06.054Z</time></trkpt><trkpt lat="40.695885" lon="14.6953298"><ele>270.14285714285717</ele><time>2026-04-18T04:37:12.053Z</time></trkpt><trkpt lat="40.6958269" lon="14.6952865"><ele>270.42857142857144</ele><time>2026-04-18T04:37:16.053Z</time></trkpt><trkpt lat="40.6957654" lon="14.6952435"><ele>270.7142857142857</ele><time>2026-04-18T04:37:21.054Z</time></trkpt><trkpt lat="40.6956916" lon="14.6952423"><ele>271.0</ele><time>2026-04-18T04:37:26.053Z</time></trkpt><trkpt lat="40.6956317" lon="14.6952779"><ele>271.0</ele><time>2026-04-18T04:37:32.053Z</time></trkpt><trkpt lat="40.6955943" lon="14.6953559"><ele>271.0</ele><time>2026-04-18T04:37:38.053Z</time></trkpt><trkpt lat="40.6955774" lon="14.6954446"><ele>271.0</ele><time>2026-04-18T04:37:44.053Z</time></trkpt><trkpt lat="40.6956067" lon="14.6955256"><ele>271.0</ele><time>2026-04-18T04:37:50.053Z</time></trkpt><trkpt lat="40.6956193" lon="14.6956152"><ele>271.0</ele><time>2026-04-18T04:37:56.053Z</time></trkpt><trkpt lat="40.6956092" lon="14.6956984"><ele>271.0</ele><time>2026-04-18T04:38:01.053Z</time></trkpt><trkpt lat="40.6956106" lon="14.6957903"><ele>271.0</ele><time>2026-04-18T04:38:06.053Z</time></trkpt><trkpt lat="40.6956098" lon="14.6958765"><ele>271.0</ele><time>2026-04-18T04:38:11.053Z</time></trkpt><trkpt lat="40.6956156" lon="14.6959663"><ele>271.0</ele><time>2026-04-18T04:38:16.053Z</time></trkpt><trkpt lat="40.6956239" lon="14.6960504"><ele>271.0</ele><time>2026-04-18T04:38:21.053Z</time></trkpt><trkpt lat="40.6956181" lon="14.6961889"><ele>271.0</ele><time>2026-04-18T04:38:39.053Z</time></trkpt><trkpt lat="40.6956172" lon="14.696274"><ele>271.0</ele><time>2026-04-18T04:38:45.053Z</time></trkpt><trkpt lat="40.6956171" lon="14.6963574"><ele>271.0</ele><time>2026-04-18T04:38:50.053Z</time></trkpt><trkpt lat="40.6956104" lon="14.6964419"><ele>271.0</ele><time>2026-04-18T04:38:54.053Z</time></trkpt><trkpt lat="40.6956029" lon="14.6965308"><ele>271.0</ele><time>2026-04-18T04:38:59.053Z</time></trkpt><trkpt lat="40.6955913" lon="14.6966201"><ele>271.0</ele><time>2026-04-18T04:39:05.054Z</time></trkpt><trkpt lat="40.6955519" lon="14.6967069"><ele>271.0</ele><time>2026-04-18T04:39:11.053Z</time></trkpt><trkpt lat="40.6954871" lon="14.6967156"><ele>271.0</ele><time>2026-04-18T04:39:22.053Z</time></trkpt><trkpt lat="40.6954476" lon="14.6967862"><ele>271.0</ele><time>2026-04-18T04:39:27.053Z</time></trkpt><trkpt lat="40.6953965" lon="14.6968408"><ele>271.0</ele><time>2026-04-18T04:39:31.053Z</time></trkpt><trkpt lat="40.6953447" lon="14.6968932"><ele>271.0</ele><time>2026-04-18T04:39:35.053Z</time></trkpt><trkpt lat="40.6952856" lon="14.6969419"><ele>271.7142857142857</ele><time>2026-04-18T04:39:41.053Z</time></trkpt><trkpt lat="40.6952233" lon="14.6969911"><ele>272.42857142857144</ele><time>2026-04-18T04:39:47.053Z</time></trkpt><trkpt lat="40.6951567" lon="14.6970144"><ele>273.14285714285717</ele><time>2026-04-18T04:39:52.053Z</time></trkpt><trkpt lat="40.6950863" lon="14.6970267"><ele>273.8571428571429</ele><time>2026-04-18T04:39:57.054Z</time></trkpt><trkpt lat="40.6950195" lon="14.6970551"><ele>274.5714285714286</ele><time>2026-04-18T04:40:02.053Z</time></trkpt><trkpt lat="40.6949429" lon="14.6970675"><ele>275.2857142857143</ele><time>2026-04-18T04:40:07.053Z</time></trkpt><trkpt lat="40.694871" lon="14.6970809"><ele>276.0</ele><time>2026-04-18T04:40:12.053Z</time></trkpt><trkpt lat="40.6947942" lon="14.6970872"><ele>276.0</ele><time>2026-04-18T04:40:17.053Z</time></trkpt><trkpt lat="40.6947194" lon="14.6971001"><ele>276.0</ele><time>2026-04-18T04:40:22.053Z</time></trkpt><trkpt lat="40.6946425" lon="14.6971096"><ele>276.0</ele><time>2026-04-18T04:40:27.053Z</time></trkpt><trkpt lat="40.6945654" lon="14.6971158"><ele>276.0</ele><time>2026-04-18T04:40:32.053Z</time></trkpt><trkpt lat="40.6945012" lon="14.6971377"><ele>276.0</ele><time>2026-04-18T04:40:37.053Z</time></trkpt><trkpt lat="40.6944254" lon="14.6971468"><ele>276.0</ele><time>2026-04-18T04:40:42.053Z</time></trkpt><trkpt lat="40.694352" lon="14.6971532"><ele>276.0</ele><time>2026-04-18T04:40:47.053Z</time></trkpt><trkpt lat="40.6942888" lon="14.6971671"><ele>276.0</ele><time>2026-04-18T04:40:51.053Z</time></trkpt><trkpt lat="40.694218" lon="14.6971754"><ele>276.0</ele><time>2026-04-18T04:40:56.053Z</time></trkpt><trkpt lat="40.6941419" lon="14.6971837"><ele>276.0</ele><time>2026-04-18T04:41:01.053Z</time></trkpt><trkpt lat="40.6940685" lon="14.6971927"><ele>276.0</ele><time>2026-04-18T04:41:06.053Z</time></trkpt><trkpt lat="40.693992" lon="14.6972057"><ele>276.0</ele><time>2026-04-18T04:41:11.053Z</time></trkpt><trkpt lat="40.6939252" lon="14.6972162"><ele>276.0</ele><time>2026-04-18T04:41:16.053Z</time></trkpt><trkpt lat="40.6938568" lon="14.6972371"><ele>276.0</ele><time>2026-04-18T04:41:21.053Z</time></trkpt><trkpt lat="40.6937852" lon="14.6972606"><ele>276.0</ele><time>2026-04-18T04:41:26.053Z</time></trkpt><trkpt lat="40.6937116" lon="14.697289"><ele>276.0</ele><time>2026-04-18T04:41:31.053Z</time></trkpt><trkpt lat="40.6936459" lon="14.6973035"><ele>276.0</ele><time>2026-04-18T04:41:35.053Z</time></trkpt><trkpt lat="40.6935812" lon="14.6973368"><ele>276.0</ele><time>2026-04-18T04:41:40.053Z</time></trkpt><trkpt lat="40.6935077" lon="14.6973718"><ele>276.0</ele><time>2026-04-18T04:41:45.053Z</time></trkpt><trkpt lat="40.6934391" lon="14.6973903"><ele>276.0</ele><time>2026-04-18T04:41:50.053Z</time></trkpt><trkpt lat="40.693363" lon="14.6974092"><ele>276.0</ele><time>2026-04-18T04:41:55.053Z</time></trkpt><trkpt lat="40.6932929" lon="14.6974194"><ele>277.42857142857144</ele><time>2026-04-18T04:42:00.053Z</time></trkpt><trkpt lat="40.6932179" lon="14.69742"><ele>278.8571428571429</ele><time>2026-04-18T04:42:06.053Z</time></trkpt><trkpt lat="40.6931595" lon="14.6973831"><ele>280.2857142857143</ele><time>2026-04-18T04:42:11.053Z</time></trkpt><trkpt lat="40.6930928" lon="14.6973282"><ele>281.7142857142857</ele><time>2026-04-18T04:42:16.053Z</time></trkpt><trkpt lat="40.6930319" lon="14.6972939"><ele>283.1428571428571</ele><time>2026-04-18T04:42:20.053Z</time></trkpt><trkpt lat="40.6929708" lon="14.6972606"><ele>284.57142857142856</ele><time>2026-04-18T04:42:24.053Z</time></trkpt><trkpt lat="40.6929205" lon="14.6972074"><ele>286.0</ele><time>2026-04-18T04:42:35.053Z</time></trkpt><trkpt lat="40.6928621" lon="14.6971435"><ele>285.99999999999994</ele><time>2026-04-18T04:42:40.053Z</time></trkpt><trkpt lat="40.6928126" lon="14.6970893"><ele>286.0</ele><time>2026-04-18T04:42:44.053Z</time></trkpt><trkpt lat="40.6927538" lon="14.6970244"><ele>286.0</ele><time>2026-04-18T04:42:49.053Z</time></trkpt><trkpt lat="40.6927031" lon="14.6969714"><ele>286.0</ele><time>2026-04-18T04:42:54.053Z</time></trkpt><trkpt lat="40.6926518" lon="14.6969124"><ele>286.0</ele><time>2026-04-18T04:42:58.053Z</time></trkpt><trkpt lat="40.6925928" lon="14.6968485"><ele>285.99999999999994</ele><time>2026-04-18T04:43:03.053Z</time></trkpt><trkpt lat="40.6925308" lon="14.6967831"><ele>286.0</ele><time>2026-04-18T04:43:09.053Z</time></trkpt><trkpt lat="40.6924683" lon="14.6967126"><ele>288.99999999999994</ele><time>2026-04-18T04:43:14.053Z</time></trkpt><trkpt lat="40.6924269" lon="14.6966464"><ele>292.0</ele><time>2026-04-18T04:43:19.053Z</time></trkpt><trkpt lat="40.6923714" lon="14.6965797"><ele>295.0</ele><time>2026-04-18T04:43:25.053Z</time></trkpt><trkpt lat="40.692314" lon="14.6965173"><ele>298.0</ele><time>2026-04-18T04:43:30.053Z</time></trkpt><trkpt lat="40.6922557" lon="14.6964677"><ele>301.0</ele><time>2026-04-18T04:43:35.053Z</time></trkpt><trkpt lat="40.6921891" lon="14.6964538"><ele>303.99999999999994</ele><time>2026-04-18T04:43:40.053Z</time></trkpt><trkpt lat="40.6921152" lon="14.6964485"><ele>307.0</ele><time>2026-04-18T04:43:45.053Z</time></trkpt><trkpt lat="40.6920441" lon="14.6964756"><ele>306.99999999999994</ele><time>2026-04-18T04:43:50.053Z</time></trkpt><trkpt lat="40.6919802" lon="14.6965115"><ele>307.0</ele><time>2026-04-18T04:43:55.054Z</time></trkpt><trkpt lat="40.6919167" lon="14.6965361"><ele>307.0</ele><time>2026-04-18T04:44:00.053Z</time></trkpt><trkpt lat="40.6918583" lon="14.6965822"><ele>307.0</ele><time>2026-04-18T04:44:06.054Z</time></trkpt><trkpt lat="40.6918006" lon="14.696627"><ele>307.0</ele><time>2026-04-18T04:44:11.053Z</time></trkpt><trkpt lat="40.6917344" lon="14.6966633"><ele>306.99999999999994</ele><time>2026-04-18T04:44:16.053Z</time></trkpt><trkpt lat="40.6916747" lon="14.6967225"><ele>307.0</ele><time>2026-04-18T04:44:21.053Z</time></trkpt><trkpt lat="40.6916118" lon="14.6967689"><ele>307.85714285714283</ele><time>2026-04-18T04:44:26.053Z</time></trkpt><trkpt lat="40.6915612" lon="14.6968368"><ele>308.7142857142857</ele><time>2026-04-18T04:44:31.053Z</time></trkpt><trkpt lat="40.6915099" lon="14.6968904"><ele>309.57142857142856</ele><time>2026-04-18T04:44:36.053Z</time></trkpt><trkpt lat="40.6914495" lon="14.6969381"><ele>310.42857142857144</ele><time>2026-04-18T04:44:41.053Z</time></trkpt><trkpt lat="40.6913889" lon="14.6969804"><ele>311.2857142857143</ele><time>2026-04-18T04:44:46.053Z</time></trkpt><trkpt lat="40.691319" lon="14.6970052"><ele>312.1428571428571</ele><time>2026-04-18T04:44:51.054Z</time></trkpt><trkpt lat="40.6912502" lon="14.6970419"><ele>313.0</ele><time>2026-04-18T04:44:56.053Z</time></trkpt><trkpt lat="40.6911805" lon="14.6970667"><ele>310.2857142857143</ele><time>2026-04-18T04:45:01.053Z</time></trkpt><trkpt lat="40.6911131" lon="14.6970915"><ele>307.57142857142856</ele><time>2026-04-18T04:45:06.053Z</time></trkpt><trkpt lat="40.6910387" lon="14.697083"><ele>304.8571428571429</ele><time>2026-04-18T04:45:11.054Z</time></trkpt><trkpt lat="40.6909735" lon="14.6970689"><ele>302.1428571428571</ele><time>2026-04-18T04:45:16.053Z</time></trkpt><trkpt lat="40.690909" lon="14.697067"><ele>299.42857142857144</ele><time>2026-04-18T04:45:22.053Z</time></trkpt><trkpt lat="40.6908418" lon="14.6970361"><ele>296.7142857142857</ele><time>2026-04-18T04:45:27.053Z</time></trkpt><trkpt lat="40.6907805" lon="14.6970041"><ele>294.0</ele><time>2026-04-18T04:45:32.054Z</time></trkpt><trkpt lat="40.6907147" lon="14.6969602"><ele>298.85714285714283</ele><time>2026-04-18T04:45:37.053Z</time></trkpt><trkpt lat="40.6906499" lon="14.696912"><ele>303.7142857142857</ele><time>2026-04-18T04:45:43.053Z</time></trkpt><trkpt lat="40.6905881" lon="14.6968668"><ele>308.57142857142856</ele><time>2026-04-18T04:45:48.053Z</time></trkpt><trkpt lat="40.6905303" lon="14.6968174"><ele>313.42857142857144</ele><time>2026-04-18T04:45:52.054Z</time></trkpt><trkpt lat="40.6904708" lon="14.6967803"><ele>318.2857142857143</ele><time>2026-04-18T04:45:56.053Z</time></trkpt><trkpt lat="40.6904108" lon="14.6967529"><ele>323.1428571428571</ele><time>2026-04-18T04:46:00.053Z</time></trkpt><trkpt lat="40.6903459" lon="14.6967351"><ele>328.0</ele><time>2026-04-18T04:46:05.053Z</time></trkpt><trkpt lat="40.6902756" lon="14.696715"><ele>327.1428571428571</ele><time>2026-04-18T04:46:10.053Z</time></trkpt><trkpt lat="40.6902115" lon="14.6967164"><ele>326.2857142857143</ele><time>2026-04-18T04:46:14.053Z</time></trkpt><trkpt lat="40.6901343" lon="14.6967079"><ele>325.42857142857144</ele><time>2026-04-18T04:46:19.054Z</time></trkpt><trkpt lat="40.6900701" lon="14.6966887"><ele>324.57142857142856</ele><time>2026-04-18T04:46:23.053Z</time></trkpt><trkpt lat="40.6900025" lon="14.6966672"><ele>323.7142857142857</ele><time>2026-04-18T04:46:29.053Z</time></trkpt><trkpt lat="40.6899423" lon="14.6966273"><ele>322.85714285714283</ele><time>2026-04-18T04:46:34.053Z</time></trkpt><trkpt lat="40.6898816" lon="14.6965793"><ele>322.0</ele><time>2026-04-18T04:46:39.053Z</time></trkpt><trkpt lat="40.689798" lon="14.6965248"><ele>322.0</ele><time>2026-04-18T04:47:21.053Z</time></trkpt><trkpt lat="40.6897328" lon="14.6964821"><ele>322.0</ele><time>2026-04-18T04:47:26.053Z</time></trkpt><trkpt lat="40.6896688" lon="14.696449"><ele>322.0</ele><time>2026-04-18T04:47:32.053Z</time></trkpt><trkpt lat="40.6896122" lon="14.696497"><ele>322.0</ele><time>2026-04-18T04:47:37.053Z</time></trkpt><trkpt lat="40.689584" lon="14.6965865"><ele>322.0</ele><time>2026-04-18T04:47:43.053Z</time></trkpt><trkpt lat="40.6895741" lon="14.6966746"><ele>322.0</ele><time>2026-04-18T04:47:48.053Z</time></trkpt><trkpt lat="40.6895517" lon="14.6967574"><ele>322.0</ele><time>2026-04-18T04:47:53.053Z</time></trkpt><trkpt lat="40.6895146" lon="14.6968417"><ele>323.7142857142857</ele><time>2026-04-18T04:47:58.053Z</time></trkpt><trkpt lat="40.6894816" lon="14.6969217"><ele>325.42857142857144</ele><time>2026-04-18T04:48:03.053Z</time></trkpt><trkpt lat="40.6894346" lon="14.6969784"><ele>327.1428571428571</ele><time>2026-04-18T04:48:08.053Z</time></trkpt><trkpt lat="40.6893753" lon="14.6970158"><ele>328.8571428571429</ele><time>2026-04-18T04:48:17.053Z</time></trkpt><trkpt lat="40.6893108" lon="14.6970024"><ele>330.57142857142856</ele><time>2026-04-18T04:48:22.053Z</time></trkpt><trkpt lat="40.689242" lon="14.6969888"><ele>332.2857142857143</ele><time>2026-04-18T04:48:27.053Z</time></trkpt><trkpt lat="40.689171" lon="14.6969549"><ele>334.0</ele><time>2026-04-18T04:48:32.054Z</time></trkpt><trkpt lat="40.6891052" lon="14.6969168"><ele>334.0</ele><time>2026-04-18T04:48:37.053Z</time></trkpt><trkpt lat="40.6890433" lon="14.6968862"><ele>334.0</ele><time>2026-04-18T04:48:42.053Z</time></trkpt><trkpt lat="40.688972" lon="14.6968471"><ele>334.0</ele><time>2026-04-18T04:48:47.053Z</time></trkpt><trkpt lat="40.6889036" lon="14.6968037"><ele>334.0</ele><time>2026-04-18T04:48:52.053Z</time></trkpt><trkpt lat="40.6888373" lon="14.6967548"><ele>334.0</ele><time>2026-04-18T04:48:57.053Z</time></trkpt><trkpt lat="40.6887741" lon="14.6967142"><ele>334.0</ele><time>2026-04-18T04:49:02.053Z</time></trkpt><trkpt lat="40.6887016" lon="14.6967165"><ele>334.0</ele><time>2026-04-18T04:49:08.053Z</time></trkpt><trkpt lat="40.6886341" lon="14.6967398"><ele>333.7142857142857</ele><time>2026-04-18T04:49:13.053Z</time></trkpt><trkpt lat="40.6885729" lon="14.6967888"><ele>333.42857142857144</ele><time>2026-04-18T04:49:18.053Z</time></trkpt><trkpt lat="40.6885082" lon="14.6968341"><ele>333.1428571428571</ele><time>2026-04-18T04:49:23.053Z</time></trkpt><trkpt lat="40.6884455" lon="14.6968584"><ele>332.8571428571429</ele><time>2026-04-18T04:49:28.053Z</time></trkpt><trkpt lat="40.6883842" lon="14.6968904"><ele>332.5714285714286</ele><time>2026-04-18T04:49:33.053Z</time></trkpt><trkpt lat="40.6883412" lon="14.6969762"><ele>332.2857142857143</ele><time>2026-04-18T04:49:38.053Z</time></trkpt><trkpt lat="40.6882895" lon="14.6970536"><ele>332.0</ele><time>2026-04-18T04:49:43.054Z</time></trkpt><trkpt lat="40.688235" lon="14.6971034"><ele>332.0</ele><time>2026-04-18T04:49:48.054Z</time></trkpt><trkpt lat="40.6882274" lon="14.6971976"><ele>332.0</ele><time>2026-04-18T04:49:53.053Z</time></trkpt><trkpt lat="40.6882561" lon="14.6972784"><ele>332.0</ele><time>2026-04-18T04:50:03.053Z</time></trkpt><trkpt lat="40.6882831" lon="14.6973747"><ele>332.0</ele><time>2026-04-18T04:50:08.053Z</time></trkpt><trkpt lat="40.6882974" lon="14.6974711"><ele>332.0</ele><time>2026-04-18T04:50:13.053Z</time></trkpt><trkpt lat="40.6882892" lon="14.6975661"><ele>332.0</ele><time>2026-04-18T04:50:18.053Z</time></trkpt><trkpt lat="40.6882594" lon="14.6976544"><ele>332.0</ele><time>2026-04-18T04:50:23.053Z</time></trkpt><trkpt lat="40.6882318" lon="14.6977403"><ele>330.57142857142856</ele><time>2026-04-18T04:50:28.053Z</time></trkpt><trkpt lat="40.6882108" lon="14.6978334"><ele>329.14285714285717</ele><time>2026-04-18T04:50:34.053Z</time></trkpt><trkpt lat="40.6881995" lon="14.6979212"><ele>327.7142857142857</ele><time>2026-04-18T04:50:38.053Z</time></trkpt><trkpt lat="40.6881825" lon="14.6980095"><ele>326.2857142857143</ele><time>2026-04-18T04:50:43.053Z</time></trkpt><trkpt lat="40.688146" lon="14.6980893"><ele>324.8571428571429</ele><time>2026-04-18T04:50:48.053Z</time></trkpt><trkpt lat="40.688107" lon="14.6981589"><ele>323.42857142857144</ele><time>2026-04-18T04:50:53.053Z</time></trkpt><trkpt lat="40.6880565" lon="14.698217"><ele>322.0</ele><time>2026-04-18T04:50:58.053Z</time></trkpt><trkpt lat="40.687998" lon="14.6982499"><ele>322.0</ele><time>2026-04-18T04:51:03.054Z</time></trkpt><trkpt lat="40.6879331" lon="14.6983044"><ele>322.0</ele><time>2026-04-18T04:51:08.054Z</time></trkpt><trkpt lat="40.687875" lon="14.6983404"><ele>322.0</ele><time>2026-04-18T04:51:12.053Z</time></trkpt><trkpt lat="40.6878035" lon="14.6983581"><ele>322.0</ele><time>2026-04-18T04:51:17.053Z</time></trkpt><trkpt lat="40.68773" lon="14.6983584"><ele>322.0</ele><time>2026-04-18T04:51:22.053Z</time></trkpt><trkpt lat="40.6876626" lon="14.6983409"><ele>322.0</ele><time>2026-04-18T04:51:27.053Z</time></trkpt><trkpt lat="40.6875932" lon="14.698325"><ele>322.0</ele><time>2026-04-18T04:51:32.054Z</time></trkpt><trkpt lat="40.6875193" lon="14.6983226"><ele>325.14285714285717</ele><time>2026-04-18T04:51:37.053Z</time></trkpt><trkpt lat="40.6874499" lon="14.6983188"><ele>328.2857142857143</ele><time>2026-04-18T04:51:41.053Z</time></trkpt><trkpt lat="40.6873743" lon="14.6983068"><ele>331.42857142857144</ele><time>2026-04-18T04:51:46.053Z</time></trkpt><trkpt lat="40.6873075" lon="14.6983092"><ele>334.57142857142856</ele><time>2026-04-18T04:51:50.053Z</time></trkpt><trkpt lat="40.6872418" lon="14.6982926"><ele>337.7142857142857</ele><time>2026-04-18T04:51:55.054Z</time></trkpt><trkpt lat="40.6871688" lon="14.6982708"><ele>340.8571428571429</ele><time>2026-04-18T04:52:01.054Z</time></trkpt><trkpt lat="40.687104" lon="14.6982605"><ele>344.0</ele><time>2026-04-18T04:52:05.054Z</time></trkpt><trkpt lat="40.6870342" lon="14.6982459"><ele>344.00000000000006</ele><time>2026-04-18T04:52:10.054Z</time></trkpt><trkpt lat="40.6869559" lon="14.6982323"><ele>344.0</ele><time>2026-04-18T04:52:15.054Z</time></trkpt><trkpt lat="40.6868813" lon="14.6982165"><ele>344.0</ele><time>2026-04-18T04:52:20.054Z</time></trkpt><trkpt lat="40.6868171" lon="14.6981933"><ele>344.0</ele><time>2026-04-18T04:52:24.054Z</time></trkpt><trkpt lat="40.6867542" lon="14.6981832"><ele>344.0</ele><time>2026-04-18T04:52:28.054Z</time></trkpt><trkpt lat="40.6866918" lon="14.6981637"><ele>344.00000000000006</ele><time>2026-04-18T04:52:32.055Z</time></trkpt><trkpt lat="40.6866159" lon="14.6981538"><ele>344.0</ele><time>2026-04-18T04:52:37.054Z</time></trkpt><trkpt lat="40.6865448" lon="14.6981308"><ele>344.1666666666667</ele><time>2026-04-18T04:52:42.054Z</time></trkpt><trkpt lat="40.6864802" lon="14.6981133"><ele>344.33333333333337</ele><time>2026-04-18T04:52:46.055Z</time></trkpt><trkpt lat="40.6864126" lon="14.6980924"><ele>344.5</ele><time>2026-04-18T04:52:51.054Z</time></trkpt><trkpt lat="40.686343" lon="14.6980583"><ele>344.6666666666667</ele><time>2026-04-18T04:52:56.054Z</time></trkpt><trkpt lat="40.6862713" lon="14.6980078"><ele>344.8333333333333</ele><time>2026-04-18T04:53:01.054Z</time></trkpt><trkpt lat="40.6861894" lon="14.6979551"><ele>345.0</ele><time>2026-04-18T04:53:06.054Z</time></trkpt><trkpt lat="40.6861333" lon="14.6978756"><ele>345.1666666666667</ele><time>2026-04-18T04:53:13.054Z</time></trkpt><trkpt lat="40.686079" lon="14.6978317"><ele>345.3333333333333</ele><time>2026-04-18T04:53:18.054Z</time></trkpt><trkpt lat="40.686029" lon="14.6977795"><ele>345.5</ele><time>2026-04-18T04:53:21.054Z</time></trkpt><trkpt lat="40.6859609" lon="14.6977146"><ele>345.66666666666663</ele><time>2026-04-18T04:53:26.054Z</time></trkpt><trkpt lat="40.6858856" lon="14.6976472"><ele>345.8333333333333</ele><time>2026-04-18T04:53:32.054Z</time></trkpt><trkpt lat="40.6858321" lon="14.6975973"><ele>346.0</ele><time>2026-04-18T04:53:36.054Z</time></trkpt><trkpt lat="40.6857603" lon="14.6975345"><ele>347.3333333333333</ele><time>2026-04-18T04:53:42.054Z</time></trkpt><trkpt lat="40.6856912" lon="14.697478"><ele>348.66666666666663</ele><time>2026-04-18T04:53:48.054Z</time></trkpt><trkpt lat="40.6856385" lon="14.6973835"><ele>350.0</ele><time>2026-04-18T04:53:54.054Z</time></trkpt><trkpt lat="40.6855767" lon="14.6973253"><ele>351.3333333333333</ele><time>2026-04-18T04:54:01.054Z</time></trkpt><trkpt lat="40.6855278" lon="14.6972681"><ele>352.6666666666667</ele><time>2026-04-18T04:54:04.054Z</time></trkpt><trkpt lat="40.685463" lon="14.6972018"><ele>354.0</ele><time>2026-04-18T04:54:10.054Z</time></trkpt><trkpt lat="40.6854144" lon="14.6971486"><ele>354.0</ele><time>2026-04-18T04:54:14.055Z</time></trkpt><trkpt lat="40.6854338" lon="14.6970671"><ele>354.0</ele><time>2026-04-18T04:54:17.054Z</time></trkpt><trkpt lat="40.6853981" lon="14.6969881"><ele>354.0</ele><time>2026-04-18T04:54:23.054Z</time></trkpt><trkpt lat="40.6853301" lon="14.6969417"><ele>354.0</ele><time>2026-04-18T04:54:28.054Z</time></trkpt><trkpt lat="40.6852591" lon="14.6969"><ele>354.0</ele><time>2026-04-18T04:54:33.054Z</time></trkpt><trkpt lat="40.6851894" lon="14.6968679"><ele>354.0</ele><time>2026-04-18T04:54:38.054Z</time></trkpt><trkpt lat="40.6851225" lon="14.6968245"><ele>354.0</ele><time>2026-04-18T04:54:43.054Z</time></trkpt><trkpt lat="40.6850619" lon="14.696782"><ele>355.14285714285717</ele><time>2026-04-18T04:54:48.055Z</time></trkpt><trkpt lat="40.6849923" lon="14.6967374"><ele>356.2857142857143</ele><time>2026-04-18T04:54:53.054Z</time></trkpt><trkpt lat="40.6849321" lon="14.6967127"><ele>357.42857142857144</ele><time>2026-04-18T04:54:57.054Z</time></trkpt><trkpt lat="40.6848695" lon="14.6966873"><ele>358.57142857142856</ele><time>2026-04-18T04:55:01.054Z</time></trkpt><trkpt lat="40.6848006" lon="14.6966458"><ele>359.71428571428567</ele><time>2026-04-18T04:55:07.054Z</time></trkpt><trkpt lat="40.6847471" lon="14.6965892"><ele>360.85714285714283</ele><time>2026-04-18T04:55:13.055Z</time></trkpt><trkpt lat="40.6846924" lon="14.6965442"><ele>362.0</ele><time>2026-04-18T04:55:17.054Z</time></trkpt><trkpt lat="40.6846263" lon="14.6965011"><ele>362.0</ele><time>2026-04-18T04:55:22.054Z</time></trkpt><trkpt lat="40.6845669" lon="14.6964624"><ele>362.0</ele><time>2026-04-18T04:55:26.055Z</time></trkpt><trkpt lat="40.684503" lon="14.6964209"><ele>362.0</ele><time>2026-04-18T04:55:31.054Z</time></trkpt><trkpt lat="40.684445" lon="14.6963879"><ele>362.0</ele><time>2026-04-18T04:55:36.054Z</time></trkpt><trkpt lat="40.6843851" lon="14.696333"><ele>362.0</ele><time>2026-04-18T04:55:41.054Z</time></trkpt><trkpt lat="40.684332" lon="14.6962883"><ele>362.0</ele><time>2026-04-18T04:55:46.054Z</time></trkpt><trkpt lat="40.6842747" lon="14.6962429"><ele>362.0</ele><time>2026-04-18T04:55:52.054Z</time></trkpt><trkpt lat="40.6842235" lon="14.6961779"><ele>362.2857142857143</ele><time>2026-04-18T04:55:57.054Z</time></trkpt><trkpt lat="40.6841654" lon="14.6961109"><ele>362.57142857142856</ele><time>2026-04-18T04:56:02.054Z</time></trkpt><trkpt lat="40.6841129" lon="14.6960502"><ele>362.8571428571429</ele><time>2026-04-18T04:56:06.054Z</time></trkpt><trkpt lat="40.6840787" lon="14.6959779"><ele>363.1428571428571</ele><time>2026-04-18T04:56:10.054Z</time></trkpt><trkpt lat="40.6840749" lon="14.6958863"><ele>363.42857142857144</ele><time>2026-04-18T04:56:14.054Z</time></trkpt><trkpt lat="40.6840841" lon="14.6958041"><ele>363.7142857142857</ele><time>2026-04-18T04:56:18.054Z</time></trkpt><trkpt lat="40.6840955" lon="14.6957096"><ele>364.0</ele><time>2026-04-18T04:56:23.054Z</time></trkpt><trkpt lat="40.6841103" lon="14.6956105"><ele>364.0</ele><time>2026-04-18T04:56:29.054Z</time></trkpt><trkpt lat="40.6841306" lon="14.6955314"><ele>364.0</ele><time>2026-04-18T04:56:33.055Z</time></trkpt><trkpt lat="40.6841418" lon="14.6954323"><ele>364.0</ele><time>2026-04-18T04:56:38.054Z</time></trkpt><trkpt lat="40.6841282" lon="14.695334"><ele>364.0</ele><time>2026-04-18T04:56:50.055Z</time></trkpt><trkpt lat="40.6841157" lon="14.6952431"><ele>364.0</ele><time>2026-04-18T04:56:55.054Z</time></trkpt><trkpt lat="40.6840941" lon="14.6951475"><ele>364.0</ele><time>2026-04-18T04:57:00.054Z</time></trkpt><trkpt lat="40.6840719" lon="14.6950604"><ele>364.0</ele><time>2026-04-18T04:57:05.054Z</time></trkpt><trkpt lat="40.6840588" lon="14.6949721"><ele>365.2857142857143</ele><time>2026-04-18T04:57:10.054Z</time></trkpt><trkpt lat="40.6840679" lon="14.694887"><ele>366.57142857142856</ele><time>2026-04-18T04:57:16.054Z</time></trkpt><trkpt lat="40.6840536" lon="14.6947943"><ele>367.8571428571429</ele><time>2026-04-18T04:57:21.054Z</time></trkpt><trkpt lat="40.6840492" lon="14.6946949"><ele>369.1428571428571</ele><time>2026-04-18T04:57:27.054Z</time></trkpt><trkpt lat="40.6840167" lon="14.6946118"><ele>370.42857142857144</ele><time>2026-04-18T04:57:32.054Z</time></trkpt><trkpt lat="40.6839833" lon="14.6945199"><ele>371.7142857142857</ele><time>2026-04-18T04:57:37.054Z</time></trkpt><trkpt lat="40.6839562" lon="14.694433"><ele>373.0</ele><time>2026-04-18T04:57:42.054Z</time></trkpt><trkpt lat="40.6839291" lon="14.6943538"><ele>374.57142857142856</ele><time>2026-04-18T04:57:47.054Z</time></trkpt><trkpt lat="40.6838941" lon="14.6942743"><ele>376.14285714285717</ele><time>2026-04-18T04:57:52.054Z</time></trkpt><trkpt lat="40.6838645" lon="14.6941949"><ele>377.71428571428567</ele><time>2026-04-18T04:57:57.054Z</time></trkpt><trkpt lat="40.6838345" lon="14.6941214"><ele>379.2857142857143</ele><time>2026-04-18T04:58:01.054Z</time></trkpt><trkpt lat="40.6838017" lon="14.6940311"><ele>380.85714285714283</ele><time>2026-04-18T04:58:06.055Z</time></trkpt><trkpt lat="40.6837758" lon="14.6939402"><ele>382.4285714285714</ele><time>2026-04-18T04:58:11.054Z</time></trkpt><trkpt lat="40.6837719" lon="14.6938554"><ele>384.0</ele><time>2026-04-18T04:58:16.054Z</time></trkpt><trkpt lat="40.6837709" lon="14.6937638"><ele>383.99999999999994</ele><time>2026-04-18T04:58:21.054Z</time></trkpt><trkpt lat="40.6837847" lon="14.6936781"><ele>384.0</ele><time>2026-04-18T04:58:26.054Z</time></trkpt><trkpt lat="40.6838035" lon="14.693583"><ele>384.0</ele><time>2026-04-18T04:58:31.054Z</time></trkpt><trkpt lat="40.6838359" lon="14.6935075"><ele>384.0</ele><time>2026-04-18T04:58:36.055Z</time></trkpt><trkpt lat="40.683864" lon="14.6934328"><ele>384.0</ele><time>2026-04-18T04:58:40.054Z</time></trkpt><trkpt lat="40.6838711" lon="14.6933358"><ele>383.99999999999994</ele><time>2026-04-18T04:58:44.054Z</time></trkpt><trkpt lat="40.6838965" lon="14.6932424"><ele>384.0</ele><time>2026-04-18T04:58:49.054Z</time></trkpt><trkpt lat="40.6839402" lon="14.6931645"><ele>383.85714285714283</ele><time>2026-04-18T04:58:54.054Z</time></trkpt><trkpt lat="40.6839786" lon="14.6930783"><ele>383.7142857142857</ele><time>2026-04-18T04:58:59.054Z</time></trkpt><trkpt lat="40.6839852" lon="14.6929926"><ele>383.57142857142856</ele><time>2026-04-18T04:59:04.054Z</time></trkpt><trkpt lat="40.683956" lon="14.6929092"><ele>383.42857142857144</ele><time>2026-04-18T04:59:08.054Z</time></trkpt><trkpt lat="40.6838937" lon="14.692872"><ele>383.2857142857143</ele><time>2026-04-18T04:59:14.054Z</time></trkpt><trkpt lat="40.6838213" lon="14.6928902"><ele>383.1428571428571</ele><time>2026-04-18T04:59:18.055Z</time></trkpt><trkpt lat="40.6837648" lon="14.6929312"><ele>383.0</ele><time>2026-04-18T04:59:22.054Z</time></trkpt><trkpt lat="40.6837029" lon="14.6929802"><ele>383.0</ele><time>2026-04-18T04:59:27.054Z</time></trkpt><trkpt lat="40.6836495" lon="14.6930384"><ele>383.0</ele><time>2026-04-18T04:59:32.054Z</time></trkpt><trkpt lat="40.6835905" lon="14.6930874"><ele>383.0</ele><time>2026-04-18T04:59:37.054Z</time></trkpt><trkpt lat="40.6835235" lon="14.6931403"><ele>383.0</ele><time>2026-04-18T04:59:42.054Z</time></trkpt><trkpt lat="40.6834623" lon="14.6931877"><ele>383.0</ele><time>2026-04-18T04:59:47.054Z</time></trkpt><trkpt lat="40.6834035" lon="14.6932377"><ele>383.0</ele><time>2026-04-18T04:59:52.054Z</time></trkpt><trkpt lat="40.6833421" lon="14.6932895"><ele>383.0</ele><time>2026-04-18T04:59:57.054Z</time></trkpt><trkpt lat="40.6832843" lon="14.6933454"><ele>380.85714285714283</ele><time>2026-04-18T05:00:03.054Z</time></trkpt><trkpt lat="40.6832347" lon="14.6934246"><ele>378.71428571428567</ele><time>2026-04-18T05:00:08.054Z</time></trkpt><trkpt lat="40.6831961" lon="14.6934967"><ele>376.57142857142856</ele><time>2026-04-18T05:00:12.055Z</time></trkpt><trkpt lat="40.6831505" lon="14.6935626"><ele>374.42857142857144</ele><time>2026-04-18T05:00:17.054Z</time></trkpt><trkpt lat="40.6831054" lon="14.6936438"><ele>372.2857142857143</ele><time>2026-04-18T05:00:22.054Z</time></trkpt><trkpt lat="40.6830592" lon="14.6937066"><ele>370.14285714285717</ele><time>2026-04-18T05:00:27.054Z</time></trkpt><trkpt lat="40.6829981" lon="14.693753"><ele>368.0</ele><time>2026-04-18T05:00:33.054Z</time></trkpt><trkpt lat="40.6829364" lon="14.6937809"><ele>366.14285714285717</ele><time>2026-04-18T05:00:37.054Z</time></trkpt><trkpt lat="40.6828602" lon="14.6937817"><ele>364.2857142857143</ele><time>2026-04-18T05:00:42.054Z</time></trkpt><trkpt lat="40.6827921" lon="14.6937782"><ele>362.42857142857144</ele><time>2026-04-18T05:00:47.054Z</time></trkpt><trkpt lat="40.6827255" lon="14.6937684"><ele>360.57142857142856</ele><time>2026-04-18T05:00:51.054Z</time></trkpt><trkpt lat="40.6826632" lon="14.6937468"><ele>358.7142857142857</ele><time>2026-04-18T05:00:55.054Z</time></trkpt><trkpt lat="40.6825935" lon="14.6937262"><ele>356.85714285714283</ele><time>2026-04-18T05:01:00.054Z</time></trkpt><trkpt lat="40.6825551" lon="14.6936473"><ele>355.0</ele><time>2026-04-18T05:01:04.054Z</time></trkpt><trkpt lat="40.6825499" lon="14.6935605"><ele>355.0</ele><time>2026-04-18T05:01:09.054Z</time></trkpt><trkpt lat="40.6825456" lon="14.6934626"><ele>355.0</ele><time>2026-04-18T05:01:15.054Z</time></trkpt><trkpt lat="40.6825272" lon="14.6933754"><ele>355.0</ele><time>2026-04-18T05:01:20.054Z</time></trkpt><trkpt lat="40.6825133" lon="14.693293"><ele>355.0</ele><time>2026-04-18T05:01:30.054Z</time></trkpt><trkpt lat="40.682494" lon="14.6931973"><ele>355.0</ele><time>2026-04-18T05:01:35.054Z</time></trkpt><trkpt lat="40.6824592" lon="14.6931228"><ele>355.0</ele><time>2026-04-18T05:01:40.054Z</time></trkpt><trkpt lat="40.6824302" lon="14.6930406"><ele>355.0</ele><time>2026-04-18T05:01:46.055Z</time></trkpt><trkpt lat="40.6823841" lon="14.6929769"><ele>355.0</ele><time>2026-04-18T05:01:58.054Z</time></trkpt><trkpt lat="40.6823442" lon="14.6929082"><ele>355.0</ele><time>2026-04-18T05:02:03.055Z</time></trkpt><trkpt lat="40.6823029" lon="14.6928235"><ele>355.0</ele><time>2026-04-18T05:02:09.054Z</time></trkpt><trkpt lat="40.6822662" lon="14.6927497"><ele>355.0</ele><time>2026-04-18T05:02:13.054Z</time></trkpt><trkpt lat="40.6822362" lon="14.6926379"><ele>355.0</ele><time>2026-04-18T05:02:19.054Z</time></trkpt><trkpt lat="40.6822094" lon="14.6925383"><ele>355.0</ele><time>2026-04-18T05:02:24.055Z</time></trkpt><trkpt lat="40.682188" lon="14.6924594"><ele>355.0</ele><time>2026-04-18T05:02:28.054Z</time></trkpt><trkpt lat="40.6821214" lon="14.6924511"><ele>357.42857142857144</ele><time>2026-04-18T05:02:34.054Z</time></trkpt><trkpt lat="40.6821172" lon="14.6923666"><ele>359.8571428571429</ele><time>2026-04-18T05:02:40.054Z</time></trkpt><trkpt lat="40.6821215" lon="14.6922661"><ele>362.28571428571433</ele><time>2026-04-18T05:02:45.054Z</time></trkpt><trkpt lat="40.6821278" lon="14.692182"><ele>364.7142857142857</ele><time>2026-04-18T05:02:49.054Z</time></trkpt><trkpt lat="40.6821322" lon="14.6920966"><ele>367.14285714285717</ele><time>2026-04-18T05:02:54.055Z</time></trkpt><trkpt lat="40.6821351" lon="14.6920126"><ele>369.5714285714286</ele><time>2026-04-18T05:02:58.054Z</time></trkpt><trkpt lat="40.6821316" lon="14.6919137"><ele>372.0</ele><time>2026-04-18T05:03:03.054Z</time></trkpt><trkpt lat="40.6821025" lon="14.6918235"><ele>373.5714285714286</ele><time>2026-04-18T05:03:08.054Z</time></trkpt><trkpt lat="40.6820848" lon="14.6917342"><ele>375.14285714285717</ele><time>2026-04-18T05:03:13.054Z</time></trkpt><trkpt lat="40.6820916" lon="14.6916504"><ele>376.7142857142857</ele><time>2026-04-18T05:03:21.054Z</time></trkpt><trkpt lat="40.6820781" lon="14.6915639"><ele>378.28571428571433</ele><time>2026-04-18T05:03:27.054Z</time></trkpt><trkpt lat="40.6820569" lon="14.6916482"><ele>379.85714285714283</ele><time>2026-04-18T05:03:40.054Z</time></trkpt><trkpt lat="40.6820538" lon="14.6917377"><ele>381.42857142857144</ele><time>2026-04-18T05:03:45.054Z</time></trkpt><trkpt lat="40.6820283" lon="14.6916497"><ele>383.0</ele><time>2026-04-18T05:03:57.054Z</time></trkpt><trkpt lat="40.6820277" lon="14.6915584"><ele>383.0</ele><time>2026-04-18T05:04:02.054Z</time></trkpt><trkpt lat="40.6820147" lon="14.6914716"><ele>383.0</ele><time>2026-04-18T05:04:07.054Z</time></trkpt><trkpt lat="40.6820297" lon="14.6913795"><ele>383.0</ele><time>2026-04-18T05:04:13.054Z</time></trkpt><trkpt lat="40.681972" lon="14.6913321"><ele>383.0</ele><time>2026-04-18T05:04:18.054Z</time></trkpt><trkpt lat="40.6819326" lon="14.6913976"><ele>383.0</ele><time>2026-04-18T05:04:22.054Z</time></trkpt><trkpt lat="40.6819606" lon="14.691477"><ele>383.0</ele><time>2026-04-18T05:04:27.054Z</time></trkpt><trkpt lat="40.6819738" lon="14.6915654"><ele>383.0</ele><time>2026-04-18T05:04:32.054Z</time></trkpt><trkpt lat="40.6819185" lon="14.691524"><ele>377.57142857142856</ele><time>2026-04-18T05:04:45.054Z</time></trkpt><trkpt lat="40.681896" lon="14.6914327"><ele>372.1428571428571</ele><time>2026-04-18T05:04:50.054Z</time></trkpt><trkpt lat="40.6818676" lon="14.6913558"><ele>366.7142857142857</ele><time>2026-04-18T05:04:55.054Z</time></trkpt><trkpt lat="40.6818249" lon="14.6912753"><ele>361.2857142857143</ele><time>2026-04-18T05:05:00.054Z</time></trkpt><trkpt lat="40.6818053" lon="14.6911955"><ele>355.85714285714283</ele><time>2026-04-18T05:05:05.054Z</time></trkpt><trkpt lat="40.6817826" lon="14.6911119"><ele>350.42857142857144</ele><time>2026-04-18T05:05:10.054Z</time></trkpt><trkpt lat="40.6817735" lon="14.6911955"><ele>345.0</ele><time>2026-04-18T05:05:19.054Z</time></trkpt><trkpt lat="40.6818081" lon="14.6912741"><ele>345.0</ele><time>2026-04-18T05:05:23.054Z</time></trkpt><trkpt lat="40.6818288" lon="14.6913544"><ele>345.0</ele><time>2026-04-18T05:05:27.054Z</time></trkpt><trkpt lat="40.681859" lon="14.6914395"><ele>345.0</ele><time>2026-04-18T05:05:32.054Z</time></trkpt><trkpt lat="40.6817851" lon="14.6914711"><ele>345.0</ele><time>2026-04-18T05:05:38.054Z</time></trkpt><trkpt lat="40.6817041" lon="14.6914834"><ele>345.0</ele><time>2026-04-18T05:05:42.055Z</time></trkpt><trkpt lat="40.6816273" lon="14.6914899"><ele>345.0</ele><time>2026-04-18T05:05:46.054Z</time></trkpt><trkpt lat="40.6815641" lon="14.6914918"><ele>345.0</ele><time>2026-04-18T05:05:51.054Z</time></trkpt><trkpt lat="40.6815237" lon="14.6914262"><ele>345.0</ele><time>2026-04-18T05:05:58.054Z</time></trkpt><trkpt lat="40.6815376" lon="14.6913369"><ele>345.0</ele><time>2026-04-18T05:06:04.054Z</time></trkpt><trkpt lat="40.6815376" lon="14.6912426"><ele>345.0</ele><time>2026-04-18T05:06:10.055Z</time></trkpt><trkpt lat="40.6815762" lon="14.6911611"><ele>345.0</ele><time>2026-04-18T05:06:21.054Z</time></trkpt><trkpt lat="40.6816128" lon="14.6910792"><ele>345.0</ele><time>2026-04-18T05:06:27.054Z</time></trkpt><trkpt lat="40.6816156" lon="14.6909904"><ele>345.0</ele><time>2026-04-18T05:06:33.054Z</time></trkpt><trkpt lat="40.6815775" lon="14.6909063"><ele>345.0</ele><time>2026-04-18T05:06:39.054Z</time></trkpt><trkpt lat="40.6815889" lon="14.6908233"><ele>346.14285714285717</ele><time>2026-04-18T05:06:45.054Z</time></trkpt><trkpt lat="40.6816077" lon="14.6907433"><ele>347.2857142857143</ele><time>2026-04-18T05:06:50.054Z</time></trkpt><trkpt lat="40.6816255" lon="14.6906465"><ele>348.42857142857144</ele><time>2026-04-18T05:06:57.054Z</time></trkpt><trkpt lat="40.6816556" lon="14.6905609"><ele>349.57142857142856</ele><time>2026-04-18T05:07:03.054Z</time></trkpt><trkpt lat="40.6816786" lon="14.6904737"><ele>350.7142857142857</ele><time>2026-04-18T05:07:11.054Z</time></trkpt><trkpt lat="40.6816744" lon="14.6903881"><ele>351.85714285714283</ele><time>2026-04-18T05:07:20.055Z</time></trkpt><trkpt lat="40.6817008" lon="14.6903073"><ele>353.0</ele><time>2026-04-18T05:07:31.054Z</time></trkpt><trkpt lat="40.6817514" lon="14.6902491"><ele>353.4285714285714</ele><time>2026-04-18T05:07:37.054Z</time></trkpt><trkpt lat="40.6817822" lon="14.6901713"><ele>353.8571428571429</ele><time>2026-04-18T05:07:42.054Z</time></trkpt><trkpt lat="40.6818155" lon="14.6900822"><ele>354.2857142857143</ele><time>2026-04-18T05:07:48.054Z</time></trkpt><trkpt lat="40.6818353" lon="14.6899937"><ele>354.71428571428567</ele><time>2026-04-18T05:07:55.054Z</time></trkpt><trkpt lat="40.6817967" lon="14.6899184"><ele>355.1428571428571</ele><time>2026-04-18T05:08:01.054Z</time></trkpt><trkpt lat="40.6817465" lon="14.6898587"><ele>355.57142857142856</ele><time>2026-04-18T05:08:08.055Z</time></trkpt><trkpt lat="40.681727" lon="14.6897779"><ele>356.0</ele><time>2026-04-18T05:08:15.054Z</time></trkpt><trkpt lat="40.6817753" lon="14.6898322"><ele>355.99999999999994</ele><time>2026-04-18T05:09:01.054Z</time></trkpt><trkpt lat="40.6817728" lon="14.6899291"><ele>356.0</ele><time>2026-04-18T05:09:08.054Z</time></trkpt><trkpt lat="40.6817659" lon="14.6900129"><ele>356.0</ele><time>2026-04-18T05:09:18.054Z</time></trkpt><trkpt lat="40.6817067" lon="14.6900592"><ele>356.0</ele><time>2026-04-18T05:09:26.054Z</time></trkpt><trkpt lat="40.6816828" lon="14.6901443"><ele>356.0</ele><time>2026-04-18T05:09:33.054Z</time></trkpt><trkpt lat="40.681632" lon="14.6902029"><ele>355.99999999999994</ele><time>2026-04-18T05:09:42.054Z</time></trkpt><trkpt lat="40.6815623" lon="14.6902053"><ele>356.0</ele><time>2026-04-18T05:09:48.054Z</time></trkpt><trkpt lat="40.6814975" lon="14.6902323"><ele>355.57142857142856</ele><time>2026-04-18T05:09:55.054Z</time></trkpt><trkpt lat="40.6814369" lon="14.690273"><ele>355.1428571428571</ele><time>2026-04-18T05:10:01.054Z</time></trkpt><trkpt lat="40.6813943" lon="14.6903365"><ele>354.71428571428567</ele><time>2026-04-18T05:10:08.054Z</time></trkpt><trkpt lat="40.6814038" lon="14.6904227"><ele>354.2857142857143</ele><time>2026-04-18T05:10:24.054Z</time></trkpt><trkpt lat="40.6813756" lon="14.6905015"><ele>353.8571428571429</ele><time>2026-04-18T05:10:29.055Z</time></trkpt><trkpt lat="40.6813653" lon="14.6905923"><ele>353.4285714285714</ele><time>2026-04-18T05:10:35.054Z</time></trkpt><trkpt lat="40.6813282" lon="14.690671"><ele>353.0</ele><time>2026-04-18T05:10:41.055Z</time></trkpt><trkpt lat="40.6812958" lon="14.6907535"><ele>353.0</ele><time>2026-04-18T05:10:47.054Z</time></trkpt><trkpt lat="40.6813196" lon="14.690838"><ele>353.0</ele><time>2026-04-18T05:10:54.054Z</time></trkpt><trkpt lat="40.6812973" lon="14.6909295"><ele>353.0</ele><time>2026-04-18T05:11:01.054Z</time></trkpt><trkpt lat="40.6812445" lon="14.6909776"><ele>353.0</ele><time>2026-04-18T05:11:06.054Z</time></trkpt><trkpt lat="40.6811875" lon="14.6910284"><ele>353.0</ele><time>2026-04-18T05:11:12.054Z</time></trkpt><trkpt lat="40.6811329" lon="14.6910728"><ele>353.0</ele><time>2026-04-18T05:11:17.054Z</time></trkpt><trkpt lat="40.6810668" lon="14.6911023"><ele>353.0</ele><time>2026-04-18T05:11:24.054Z</time></trkpt><trkpt lat="40.6809994" lon="14.6910737"><ele>355.4285714285714</ele><time>2026-04-18T05:11:32.054Z</time></trkpt><trkpt lat="40.6809321" lon="14.6910691"><ele>357.8571428571429</ele><time>2026-04-18T05:11:39.054Z</time></trkpt><trkpt lat="40.6808664" lon="14.6910433"><ele>360.2857142857143</ele><time>2026-04-18T05:11:46.054Z</time></trkpt><trkpt lat="40.6807922" lon="14.691058"><ele>362.71428571428567</ele><time>2026-04-18T05:11:54.054Z</time></trkpt><trkpt lat="40.6807212" lon="14.6910469"><ele>365.1428571428571</ele><time>2026-04-18T05:12:00.054Z</time></trkpt><trkpt lat="40.6806582" lon="14.6910367"><ele>367.57142857142856</ele><time>2026-04-18T05:12:07.054Z</time></trkpt><trkpt lat="40.680587" lon="14.6910564"><ele>370.0</ele><time>2026-04-18T05:12:15.054Z</time></trkpt><trkpt lat="40.6804717" lon="14.6910947"><ele>369.99999999999994</ele><time>2026-04-18T05:12:57.055Z</time></trkpt><trkpt lat="40.6804111" lon="14.6911369"><ele>370.0</ele><time>2026-04-18T05:13:03.054Z</time></trkpt><trkpt lat="40.680346" lon="14.6911403"><ele>370.0</ele><time>2026-04-18T05:13:12.054Z</time></trkpt><trkpt lat="40.6802786" lon="14.6911403"><ele>370.0</ele><time>2026-04-18T05:13:19.054Z</time></trkpt><trkpt lat="40.680212" lon="14.6911726"><ele>370.0</ele><time>2026-04-18T05:13:26.054Z</time></trkpt><trkpt lat="40.6801526" lon="14.6912136"><ele>369.99999999999994</ele><time>2026-04-18T05:13:34.054Z</time></trkpt><trkpt lat="40.6800928" lon="14.6912653"><ele>370.0</ele><time>2026-04-18T05:13:43.054Z</time></trkpt><trkpt lat="40.6800336" lon="14.6913162"><ele>375.1428571428571</ele><time>2026-04-18T05:13:51.054Z</time></trkpt><trkpt lat="40.6799629" lon="14.691316"><ele>380.2857142857143</ele><time>2026-04-18T05:14:00.054Z</time></trkpt><trkpt lat="40.6798991" lon="14.6913379"><ele>385.42857142857144</ele><time>2026-04-18T05:14:12.054Z</time></trkpt><trkpt lat="40.679833" lon="14.6913524"><ele>390.57142857142856</ele><time>2026-04-18T05:14:18.054Z</time></trkpt><trkpt lat="40.6798898" lon="14.6913072"><ele>395.7142857142857</ele><time>2026-04-18T05:14:42.056Z</time></trkpt><trkpt lat="40.6799654" lon="14.691292"><ele>400.85714285714283</ele><time>2026-04-18T05:14:49.055Z</time></trkpt><trkpt lat="40.6800346" lon="14.6913208"><ele>406.0</ele><time>2026-04-18T05:14:54.055Z</time></trkpt><trkpt lat="40.6800905" lon="14.6913595"><ele>406.0</ele><time>2026-04-18T05:14:59.056Z</time></trkpt><trkpt lat="40.6801498" lon="14.6914154"><ele>406.0</ele><time>2026-04-18T05:15:06.055Z</time></trkpt><trkpt lat="40.6802041" lon="14.6914678"><ele>406.0</ele><time>2026-04-18T05:15:11.056Z</time></trkpt><trkpt lat="40.6802499" lon="14.6915263"><ele>406.0</ele><time>2026-04-18T05:15:15.056Z</time></trkpt><trkpt lat="40.6802799" lon="14.6916016"><ele>406.0</ele><time>2026-04-18T05:15:20.055Z</time></trkpt><trkpt lat="40.6803133" lon="14.6916863"><ele>406.0</ele><time>2026-04-18T05:15:26.055Z</time></trkpt><trkpt lat="40.6803257" lon="14.6917763"><ele>406.0</ele><time>2026-04-18T05:15:31.055Z</time></trkpt><trkpt lat="40.6803293" lon="14.6918684"><ele>406.85714285714283</ele><time>2026-04-18T05:15:38.055Z</time></trkpt><trkpt lat="40.6803103" lon="14.6919526"><ele>407.7142857142857</ele><time>2026-04-18T05:15:43.056Z</time></trkpt><trkpt lat="40.6802782" lon="14.6920386"><ele>408.57142857142856</ele><time>2026-04-18T05:15:50.055Z</time></trkpt><trkpt lat="40.6802345" lon="14.6921115"><ele>409.42857142857144</ele><time>2026-04-18T05:15:56.055Z</time></trkpt><trkpt lat="40.6801842" lon="14.6921706"><ele>410.2857142857143</ele><time>2026-04-18T05:16:02.055Z</time></trkpt><trkpt lat="40.6801461" lon="14.692248"><ele>411.1428571428571</ele><time>2026-04-18T05:16:09.055Z</time></trkpt><trkpt lat="40.6801095" lon="14.6923247"><ele>412.0</ele><time>2026-04-18T05:16:17.055Z</time></trkpt><trkpt lat="40.6800998" lon="14.6924172"><ele>411.99999999999994</ele><time>2026-04-18T05:16:24.055Z</time></trkpt><trkpt lat="40.6800902" lon="14.6925075"><ele>412.0</ele><time>2026-04-18T05:16:32.055Z</time></trkpt><trkpt lat="40.6800649" lon="14.6925885"><ele>412.0</ele><time>2026-04-18T05:16:38.055Z</time></trkpt><trkpt lat="40.6800539" lon="14.6926805"><ele>412.0</ele><time>2026-04-18T05:16:45.055Z</time></trkpt><trkpt lat="40.6800148" lon="14.6927625"><ele>412.0</ele><time>2026-04-18T05:16:52.055Z</time></trkpt><trkpt lat="40.6799841" lon="14.6928358"><ele>411.99999999999994</ele><time>2026-04-18T05:16:57.055Z</time></trkpt><trkpt lat="40.6799447" lon="14.6929027"><ele>412.0</ele><time>2026-04-18T05:17:03.055Z</time></trkpt><trkpt lat="40.6799025" lon="14.6929656"><ele>411.85714285714283</ele><time>2026-04-18T05:17:08.056Z</time></trkpt><trkpt lat="40.6798591" lon="14.693044"><ele>411.7142857142857</ele><time>2026-04-18T05:17:15.055Z</time></trkpt><trkpt lat="40.6798014" lon="14.6931048"><ele>411.57142857142856</ele><time>2026-04-18T05:17:20.055Z</time></trkpt><trkpt lat="40.6797438" lon="14.6931634"><ele>411.42857142857144</ele><time>2026-04-18T05:17:25.055Z</time></trkpt><trkpt lat="40.6796768" lon="14.6932066"><ele>411.2857142857143</ele><time>2026-04-18T05:17:31.055Z</time></trkpt><trkpt lat="40.6796143" lon="14.6932405"><ele>411.1428571428571</ele><time>2026-04-18T05:17:36.055Z</time></trkpt><trkpt lat="40.6795568" lon="14.6932758"><ele>411.0</ele><time>2026-04-18T05:17:40.055Z</time></trkpt><trkpt lat="40.6794997" lon="14.6933176"><ele>413.85714285714283</ele><time>2026-04-18T05:17:44.055Z</time></trkpt><trkpt lat="40.6794318" lon="14.6933455"><ele>416.71428571428567</ele><time>2026-04-18T05:17:49.055Z</time></trkpt><trkpt lat="40.6793547" lon="14.6933537"><ele>419.57142857142856</ele><time>2026-04-18T05:17:55.055Z</time></trkpt><trkpt lat="40.6792818" lon="14.6933455"><ele>422.42857142857144</ele><time>2026-04-18T05:18:02.055Z</time></trkpt><trkpt lat="40.6792088" lon="14.6933361"><ele>425.2857142857143</ele><time>2026-04-18T05:18:08.055Z</time></trkpt><trkpt lat="40.6791409" lon="14.6933412"><ele>428.14285714285717</ele><time>2026-04-18T05:18:14.055Z</time></trkpt><trkpt lat="40.6790766" lon="14.6933825"><ele>431.0</ele><time>2026-04-18T05:18:20.055Z</time></trkpt><trkpt lat="40.6790155" lon="14.693405"><ele>431.0</ele><time>2026-04-18T05:18:24.055Z</time></trkpt><trkpt lat="40.6789507" lon="14.6934115"><ele>431.0</ele><time>2026-04-18T05:18:30.055Z</time></trkpt><trkpt lat="40.6788794" lon="14.6934331"><ele>431.0</ele><time>2026-04-18T05:18:37.055Z</time></trkpt><trkpt lat="40.6788134" lon="14.6934386"><ele>431.0</ele><time>2026-04-18T05:18:43.055Z</time></trkpt><trkpt lat="40.6787431" lon="14.6934149"><ele>431.0</ele><time>2026-04-18T05:18:49.055Z</time></trkpt><trkpt lat="40.6786793" lon="14.6933886"><ele>431.0</ele><time>2026-04-18T05:18:55.055Z</time></trkpt><trkpt lat="40.6786186" lon="14.6933528"><ele>431.0</ele><time>2026-04-18T05:19:02.056Z</time></trkpt><trkpt lat="40.6785553" lon="14.6933425"><ele>432.0</ele><time>2026-04-18T05:19:07.056Z</time></trkpt><trkpt lat="40.6784905" lon="14.6933482"><ele>433.0</ele><time>2026-04-18T05:19:12.056Z</time></trkpt><trkpt lat="40.6784265" lon="14.6933522"><ele>434.0</ele><time>2026-04-18T05:19:16.055Z</time></trkpt><trkpt lat="40.6783573" lon="14.6933452"><ele>435.0</ele><time>2026-04-18T05:19:23.055Z</time></trkpt><trkpt lat="40.6782939" lon="14.6933195"><ele>436.0</ele><time>2026-04-18T05:19:30.055Z</time></trkpt><trkpt lat="40.6782836" lon="14.6934113"><ele>437.0</ele><time>2026-04-18T05:19:42.055Z</time></trkpt><trkpt lat="40.6783395" lon="14.6934569"><ele>438.0</ele><time>2026-04-18T05:19:47.055Z</time></trkpt><trkpt lat="40.6783844" lon="14.6935196"><ele>438.0</ele><time>2026-04-18T05:19:53.055Z</time></trkpt><trkpt lat="40.6784054" lon="14.6936061"><ele>438.0</ele><time>2026-04-18T05:19:58.055Z</time></trkpt><trkpt lat="40.6783909" lon="14.6936918"><ele>438.0</ele><time>2026-04-18T05:20:03.055Z</time></trkpt><trkpt lat="40.6783628" lon="14.6937662"><ele>438.0</ele><time>2026-04-18T05:20:08.055Z</time></trkpt><trkpt lat="40.6783295" lon="14.6938457"><ele>438.0</ele><time>2026-04-18T05:20:13.055Z</time></trkpt><trkpt lat="40.6783807" lon="14.6939087"><ele>438.0</ele><time>2026-04-18T05:20:21.055Z</time></trkpt><trkpt lat="40.6784198" lon="14.6939857"><ele>438.0</ele><time>2026-04-18T05:20:27.055Z</time></trkpt><trkpt lat="40.6784996" lon="14.6940238"><ele>438.0</ele><time>2026-04-18T05:20:44.055Z</time></trkpt><trkpt lat="40.6785592" lon="14.6940756"><ele>438.0</ele><time>2026-04-18T05:20:45.055Z</time></trkpt><trkpt lat="40.678564" lon="14.6941677"><ele>438.0</ele><time>2026-04-18T05:20:51.055Z</time></trkpt><trkpt lat="40.6785379" lon="14.6942442"><ele>438.0</ele><time>2026-04-18T05:20:58.055Z</time></trkpt><trkpt lat="40.6786096" lon="14.6943447"><ele>438.0</ele><time>2026-04-18T05:21:21.055Z</time></trkpt><trkpt lat="40.6786579" lon="14.6944137"><ele>438.0</ele><time>2026-04-18T05:21:26.055Z</time></trkpt><trkpt lat="40.6786836" lon="14.6945027"><ele>438.14285714285717</ele><time>2026-04-18T05:21:31.055Z</time></trkpt><trkpt lat="40.6786876" lon="14.6945868"><ele>438.2857142857143</ele><time>2026-04-18T05:21:36.055Z</time></trkpt><trkpt lat="40.6786774" lon="14.6946834"><ele>438.42857142857144</ele><time>2026-04-18T05:21:42.055Z</time></trkpt><trkpt lat="40.6786557" lon="14.6947682"><ele>438.57142857142856</ele><time>2026-04-18T05:21:49.055Z</time></trkpt><trkpt lat="40.6786176" lon="14.6948388"><ele>438.71428571428567</ele><time>2026-04-18T05:21:56.056Z</time></trkpt><trkpt lat="40.6785838" lon="14.6949153"><ele>438.85714285714283</ele><time>2026-04-18T05:22:02.055Z</time></trkpt><trkpt lat="40.6785388" lon="14.6949906"><ele>439.0</ele><time>2026-04-18T05:22:09.055Z</time></trkpt><trkpt lat="40.6784884" lon="14.6950458"><ele>439.0</ele><time>2026-04-18T05:22:14.055Z</time></trkpt><trkpt lat="40.6784243" lon="14.695054"><ele>439.0</ele><time>2026-04-18T05:22:20.055Z</time></trkpt><trkpt lat="40.67836" lon="14.6950788"><ele>439.0</ele><time>2026-04-18T05:22:25.055Z</time></trkpt><trkpt lat="40.6782945" lon="14.6951191"><ele>439.0</ele><time>2026-04-18T05:22:30.055Z</time></trkpt><trkpt lat="40.6782357" lon="14.6951528"><ele>439.0</ele><time>2026-04-18T05:22:35.055Z</time></trkpt><trkpt lat="40.6781839" lon="14.6952014"><ele>439.0</ele><time>2026-04-18T05:22:43.055Z</time></trkpt><trkpt lat="40.6781179" lon="14.6952344"><ele>439.0</ele><time>2026-04-18T05:22:50.055Z</time></trkpt><trkpt lat="40.6780485" lon="14.6952652"><ele>439.1428571428571</ele><time>2026-04-18T05:22:55.055Z</time></trkpt><trkpt lat="40.6779937" lon="14.6953104"><ele>439.2857142857143</ele><time>2026-04-18T05:23:00.055Z</time></trkpt><trkpt lat="40.6779301" lon="14.695345"><ele>439.42857142857144</ele><time>2026-04-18T05:23:05.055Z</time></trkpt><trkpt lat="40.6778636" lon="14.6953664"><ele>439.57142857142856</ele><time>2026-04-18T05:23:10.055Z</time></trkpt><trkpt lat="40.6777989" lon="14.6954071"><ele>439.7142857142857</ele><time>2026-04-18T05:23:16.055Z</time></trkpt><trkpt lat="40.6777384" lon="14.6954402"><ele>439.85714285714283</ele><time>2026-04-18T05:23:22.055Z</time></trkpt><trkpt lat="40.6776827" lon="14.695482"><ele>440.0</ele><time>2026-04-18T05:23:28.055Z</time></trkpt><trkpt lat="40.6776079" lon="14.6955079"><ele>439.99999999999994</ele><time>2026-04-18T05:23:34.055Z</time></trkpt><trkpt lat="40.677539" lon="14.6955177"><ele>440.0</ele><time>2026-04-18T05:23:40.056Z</time></trkpt><trkpt lat="40.6774747" lon="14.6955481"><ele>440.0</ele><time>2026-04-18T05:23:46.055Z</time></trkpt><trkpt lat="40.6774044" lon="14.6955536"><ele>440.0</ele><time>2026-04-18T05:23:54.055Z</time></trkpt><trkpt lat="40.6773392" lon="14.6955521"><ele>440.0</ele><time>2026-04-18T05:24:00.056Z</time></trkpt><trkpt lat="40.6772719" lon="14.6955841"><ele>439.99999999999994</ele><time>2026-04-18T05:24:06.055Z</time></trkpt><trkpt lat="40.6772061" lon="14.695603"><ele>440.0</ele><time>2026-04-18T05:24:12.056Z</time></trkpt><trkpt lat="40.6771348" lon="14.6955821"><ele>439.99999999999994</ele><time>2026-04-18T05:24:19.055Z</time></trkpt><trkpt lat="40.6770708" lon="14.6955572"><ele>440.0</ele><time>2026-04-18T05:24:24.055Z</time></trkpt><trkpt lat="40.6770057" lon="14.6955315"><ele>440.0</ele><time>2026-04-18T05:24:30.055Z</time></trkpt><trkpt lat="40.6769379" lon="14.6955208"><ele>440.0</ele><time>2026-04-18T05:24:38.055Z</time></trkpt><trkpt lat="40.6768724" lon="14.6955066"><ele>440.0</ele><time>2026-04-18T05:24:45.055Z</time></trkpt><trkpt lat="40.6768058" lon="14.6954779"><ele>439.99999999999994</ele><time>2026-04-18T05:24:51.055Z</time></trkpt><trkpt lat="40.6767395" lon="14.6954515"><ele>440.0</ele><time>2026-04-18T05:24:57.055Z</time></trkpt><trkpt lat="40.6766833" lon="14.6953974"><ele>442.4285714285714</ele><time>2026-04-18T05:25:05.055Z</time></trkpt><trkpt lat="40.6766411" lon="14.6953339"><ele>444.8571428571429</ele><time>2026-04-18T05:25:11.055Z</time></trkpt><trkpt lat="40.6765671" lon="14.6953119"><ele>447.28571428571433</ele><time>2026-04-18T05:25:17.055Z</time></trkpt><trkpt lat="40.6765011" lon="14.6952807"><ele>449.7142857142857</ele><time>2026-04-18T05:25:22.055Z</time></trkpt><trkpt lat="40.6764384" lon="14.6952452"><ele>452.14285714285717</ele><time>2026-04-18T05:25:28.055Z</time></trkpt><trkpt lat="40.6763628" lon="14.6952426"><ele>454.5714285714286</ele><time>2026-04-18T05:25:34.055Z</time></trkpt><trkpt lat="40.6762977" lon="14.6952447"><ele>457.00000000000006</ele><time>2026-04-18T05:25:40.055Z</time></trkpt><trkpt lat="40.6762339" lon="14.6952656"><ele>457.00000000000006</ele><time>2026-04-18T05:25:47.055Z</time></trkpt><trkpt lat="40.6761674" lon="14.695264"><ele>457.0</ele><time>2026-04-18T05:25:54.055Z</time></trkpt><trkpt lat="40.6760967" lon="14.6952454"><ele>457.00000000000006</ele><time>2026-04-18T05:26:00.056Z</time></trkpt><trkpt lat="40.6760324" lon="14.6952472"><ele>457.00000000000006</ele><time>2026-04-18T05:26:06.055Z</time></trkpt><trkpt lat="40.6759684" lon="14.6952173"><ele>457.0</ele><time>2026-04-18T05:26:11.055Z</time></trkpt><trkpt lat="40.6759092" lon="14.6951808"><ele>457.00000000000006</ele><time>2026-04-18T05:26:16.055Z</time></trkpt><trkpt lat="40.675841" lon="14.6951623"><ele>457.00000000000006</ele><time>2026-04-18T05:26:22.055Z</time></trkpt><trkpt lat="40.6757293" lon="14.6951221"><ele>458.28571428571433</ele><time>2026-04-18T05:26:38.055Z</time></trkpt><trkpt lat="40.6756606" lon="14.6950993"><ele>459.57142857142856</ele><time>2026-04-18T05:26:46.056Z</time></trkpt><trkpt lat="40.6755954" lon="14.6950835"><ele>460.8571428571429</ele><time>2026-04-18T05:26:52.056Z</time></trkpt><trkpt lat="40.6755213" lon="14.6950779"><ele>462.14285714285717</ele><time>2026-04-18T05:26:59.055Z</time></trkpt><trkpt lat="40.6754537" lon="14.6950807"><ele>463.42857142857144</ele><time>2026-04-18T05:27:06.055Z</time></trkpt><trkpt lat="40.6753921" lon="14.6950394"><ele>464.7142857142857</ele><time>2026-04-18T05:27:13.055Z</time></trkpt><trkpt lat="40.675331" lon="14.6950088"><ele>466.0</ele><time>2026-04-18T05:27:22.055Z</time></trkpt><trkpt lat="40.6752625" lon="14.6949691"><ele>466.0</ele><time>2026-04-18T05:27:27.056Z</time></trkpt><trkpt lat="40.6752049" lon="14.694933"><ele>466.0</ele><time>2026-04-18T05:27:34.055Z</time></trkpt><trkpt lat="40.6751489" lon="14.6948826"><ele>466.0</ele><time>2026-04-18T05:27:42.055Z</time></trkpt><trkpt lat="40.6751003" lon="14.6948227"><ele>466.0</ele><time>2026-04-18T05:27:49.055Z</time></trkpt><trkpt lat="40.6750458" lon="14.6947675"><ele>466.0</ele><time>2026-04-18T05:27:57.055Z</time></trkpt><trkpt lat="40.6749835" lon="14.6947241"><ele>466.0</ele><time>2026-04-18T05:28:05.055Z</time></trkpt><trkpt lat="40.6749275" lon="14.6946799"><ele>466.0</ele><time>2026-04-18T05:28:12.055Z</time></trkpt><trkpt lat="40.6748706" lon="14.6946207"><ele>466.0</ele><time>2026-04-18T05:28:20.055Z</time></trkpt><trkpt lat="40.6748297" lon="14.6945418"><ele>466.0</ele><time>2026-04-18T05:28:27.055Z</time></trkpt><trkpt lat="40.6748054" lon="14.6944616"><ele>466.0</ele><time>2026-04-18T05:28:34.055Z</time></trkpt><trkpt lat="40.6747896" lon="14.6943784"><ele>466.0</ele><time>2026-04-18T05:28:41.055Z</time></trkpt><trkpt lat="40.6747987" lon="14.694296"><ele>466.0</ele><time>2026-04-18T05:28:46.055Z</time></trkpt><trkpt lat="40.6747838" lon="14.6942105"><ele>466.0</ele><time>2026-04-18T05:28:52.055Z</time></trkpt><trkpt lat="40.6747695" lon="14.6941259"><ele>466.0</ele><time>2026-04-18T05:28:56.055Z</time></trkpt><trkpt lat="40.674759" lon="14.6940361"><ele>470.28571428571433</ele><time>2026-04-18T05:29:01.055Z</time></trkpt><trkpt lat="40.6747233" lon="14.6939561"><ele>474.57142857142856</ele><time>2026-04-18T05:29:07.055Z</time></trkpt><trkpt lat="40.6747102" lon="14.6938674"><ele>478.8571428571429</ele><time>2026-04-18T05:29:13.055Z</time></trkpt><trkpt lat="40.6746844" lon="14.6937814"><ele>483.14285714285717</ele><time>2026-04-18T05:29:22.055Z</time></trkpt><trkpt lat="40.6746859" lon="14.6936922"><ele>487.42857142857144</ele><time>2026-04-18T05:29:29.055Z</time></trkpt><trkpt lat="40.6746935" lon="14.6936085"><ele>491.7142857142857</ele><time>2026-04-18T05:29:34.055Z</time></trkpt><trkpt lat="40.6746923" lon="14.6935156"><ele>496.0</ele><time>2026-04-18T05:29:40.055Z</time></trkpt><trkpt lat="40.6746705" lon="14.6934346"><ele>499.7142857142857</ele><time>2026-04-18T05:29:45.055Z</time></trkpt><trkpt lat="40.6746413" lon="14.6933524"><ele>503.42857142857144</ele><time>2026-04-18T05:29:50.055Z</time></trkpt><trkpt lat="40.6746018" lon="14.6932811"><ele>507.14285714285717</ele><time>2026-04-18T05:29:56.055Z</time></trkpt><trkpt lat="40.6745747" lon="14.6931962"><ele>510.8571428571429</ele><time>2026-04-18T05:30:02.055Z</time></trkpt><trkpt lat="40.6745608" lon="14.6931045"><ele>514.5714285714286</ele><time>2026-04-18T05:30:08.055Z</time></trkpt><trkpt lat="40.6745549" lon="14.6930083"><ele>518.2857142857143</ele><time>2026-04-18T05:30:14.055Z</time></trkpt><trkpt lat="40.6745542" lon="14.6929145"><ele>522.0</ele><time>2026-04-18T05:30:21.055Z</time></trkpt><trkpt lat="40.6745292" lon="14.6928198"><ele>519.5714285714286</ele><time>2026-04-18T05:30:27.055Z</time></trkpt><trkpt lat="40.6744934" lon="14.6927393"><ele>517.1428571428571</ele><time>2026-04-18T05:30:34.055Z</time></trkpt><trkpt lat="40.6744668" lon="14.6926486"><ele>514.7142857142857</ele><time>2026-04-18T05:30:40.055Z</time></trkpt><trkpt lat="40.6744423" lon="14.6925644"><ele>512.2857142857142</ele><time>2026-04-18T05:30:45.055Z</time></trkpt><trkpt lat="40.6744062" lon="14.6924781"><ele>509.8571428571428</ele><time>2026-04-18T05:30:51.056Z</time></trkpt><trkpt lat="40.674367" lon="14.6924044"><ele>507.4285714285714</ele><time>2026-04-18T05:30:56.055Z</time></trkpt><trkpt lat="40.6743342" lon="14.6923208"><ele>505.0</ele><time>2026-04-18T05:31:03.055Z</time></trkpt><trkpt lat="40.6743031" lon="14.6922469"><ele>505.0</ele><time>2026-04-18T05:31:08.055Z</time></trkpt><trkpt lat="40.6742517" lon="14.6921967"><ele>504.99999999999994</ele><time>2026-04-18T05:31:14.055Z</time></trkpt><trkpt lat="40.67418" lon="14.6922057"><ele>505.0</ele><time>2026-04-18T05:31:22.056Z</time></trkpt><trkpt lat="40.6741127" lon="14.6922229"><ele>505.0</ele><time>2026-04-18T05:31:30.055Z</time></trkpt><trkpt lat="40.6741353" lon="14.6923142"><ele>504.99999999999994</ele><time>2026-04-18T05:31:37.055Z</time></trkpt><trkpt lat="40.6741821" lon="14.6923817"><ele>505.0</ele><time>2026-04-18T05:31:42.056Z</time></trkpt><trkpt lat="40.6742098" lon="14.6924608"><ele>505.0</ele><time>2026-04-18T05:31:48.056Z</time></trkpt><trkpt lat="40.6741999" lon="14.6925538"><ele>505.0</ele><time>2026-04-18T05:31:55.055Z</time></trkpt><trkpt lat="40.6741682" lon="14.6926354"><ele>504.99999999999994</ele><time>2026-04-18T05:32:01.056Z</time></trkpt><trkpt lat="40.6741121" lon="14.6926798"><ele>505.0</ele><time>2026-04-18T05:32:12.055Z</time></trkpt><trkpt lat="40.6740471" lon="14.6927287"><ele>505.0</ele><time>2026-04-18T05:32:39.055Z</time></trkpt><trkpt lat="40.6740059" lon="14.6927993"><ele>504.99999999999994</ele><time>2026-04-18T05:32:47.055Z</time></trkpt><trkpt lat="40.673947" lon="14.6928379"><ele>505.0</ele><time>2026-04-18T05:32:56.055Z</time></trkpt><trkpt lat="40.6738806" lon="14.692853"><ele>505.0</ele><time>2026-04-18T05:33:07.055Z</time></trkpt><trkpt lat="40.6738164" lon="14.6928539"><ele>502.71428571428567</ele><time>2026-04-18T05:33:15.055Z</time></trkpt><trkpt lat="40.6737516" lon="14.6928256"><ele>500.4285714285714</ele><time>2026-04-18T05:33:25.055Z</time></trkpt><trkpt lat="40.6736865" lon="14.692818"><ele>498.1428571428571</ele><time>2026-04-18T05:33:37.056Z</time></trkpt><trkpt lat="40.6736169" lon="14.692814"><ele>495.8571428571429</ele><time>2026-04-18T05:34:13.055Z</time></trkpt><trkpt lat="40.6735514" lon="14.6927998"><ele>493.5714285714286</ele><time>2026-04-18T05:34:19.055Z</time></trkpt><trkpt lat="40.6734814" lon="14.6927848"><ele>491.28571428571433</ele><time>2026-04-18T05:34:26.055Z</time></trkpt><trkpt lat="40.6734165" lon="14.6927751"><ele>489.0</ele><time>2026-04-18T05:34:34.055Z</time></trkpt><trkpt lat="40.6733472" lon="14.6927583"><ele>489.0</ele><time>2026-04-18T05:34:41.055Z</time></trkpt><trkpt lat="40.6732767" lon="14.6927678"><ele>489.00000000000006</ele><time>2026-04-18T05:34:46.055Z</time></trkpt><trkpt lat="40.6732134" lon="14.6927462"><ele>489.0</ele><time>2026-04-18T05:34:52.055Z</time></trkpt><trkpt lat="40.6731668" lon="14.6926856"><ele>489.0</ele><time>2026-04-18T05:34:59.055Z</time></trkpt><trkpt lat="40.6730965" lon="14.6926644"><ele>489.00000000000006</ele><time>2026-04-18T05:35:07.055Z</time></trkpt><trkpt lat="40.6730319" lon="14.6926372"><ele>489.0</ele><time>2026-04-18T05:35:12.055Z</time></trkpt><trkpt lat="40.6729842" lon="14.6925744"><ele>489.0</ele><time>2026-04-18T05:35:18.055Z</time></trkpt><trkpt lat="40.672922" lon="14.692592"><ele>494.14285714285717</ele><time>2026-04-18T05:35:25.056Z</time></trkpt><trkpt lat="40.6728546" lon="14.6926115"><ele>499.28571428571433</ele><time>2026-04-18T05:35:35.055Z</time></trkpt><trkpt lat="40.6728053" lon="14.6926705"><ele>504.42857142857144</ele><time>2026-04-18T05:35:45.055Z</time></trkpt><trkpt lat="40.672737" lon="14.6926935"><ele>509.57142857142856</ele><time>2026-04-18T05:35:54.055Z</time></trkpt><trkpt lat="40.6726745" lon="14.6926554"><ele>514.7142857142858</ele><time>2026-04-18T05:36:05.055Z</time></trkpt><trkpt lat="40.6726091" lon="14.6926272"><ele>519.8571428571429</ele><time>2026-04-18T05:36:12.055Z</time></trkpt><trkpt lat="40.6725501" lon="14.6925751"><ele>525.0</ele><time>2026-04-18T05:36:18.055Z</time></trkpt><trkpt lat="40.6724941" lon="14.6925252"><ele>526.8571428571429</ele><time>2026-04-18T05:36:25.056Z</time></trkpt><trkpt lat="40.6724356" lon="14.6924937"><ele>528.7142857142858</ele><time>2026-04-18T05:36:30.055Z</time></trkpt><trkpt lat="40.6723716" lon="14.6925193"><ele>530.5714285714286</ele><time>2026-04-18T05:36:37.055Z</time></trkpt><trkpt lat="40.6722792" lon="14.692553"><ele>532.4285714285714</ele><time>2026-04-18T05:36:53.055Z</time></trkpt><trkpt lat="40.672264" lon="14.6926422"><ele>534.2857142857143</ele><time>2026-04-18T05:37:05.055Z</time></trkpt><trkpt lat="40.6722079" lon="14.6926928"><ele>536.1428571428571</ele><time>2026-04-18T05:37:12.055Z</time></trkpt><trkpt lat="40.6721389" lon="14.6926888"><ele>538.0</ele><time>2026-04-18T05:37:28.055Z</time></trkpt><trkpt lat="40.6720793" lon="14.6927213"><ele>538.0</ele><time>2026-04-18T05:37:43.055Z</time></trkpt><trkpt lat="40.6720124" lon="14.6927269"><ele>538.0</ele><time>2026-04-18T05:38:27.055Z</time></trkpt><trkpt lat="40.6719565" lon="14.6926737"><ele>538.0</ele><time>2026-04-18T05:38:34.056Z</time></trkpt><trkpt lat="40.6718256" lon="14.6925933"><ele>538.0</ele><time>2026-04-18T05:38:58.055Z</time></trkpt><trkpt lat="40.6718061" lon="14.6925097"><ele>538.0</ele><time>2026-04-18T05:39:04.055Z</time></trkpt><trkpt lat="40.671785" lon="14.6924285"><ele>538.0</ele><time>2026-04-18T05:39:10.055Z</time></trkpt><trkpt lat="40.6717477" lon="14.6923452"><ele>541.2857142857143</ele><time>2026-04-18T05:39:17.056Z</time></trkpt><trkpt lat="40.6717399" lon="14.6922622"><ele>544.5714285714287</ele><time>2026-04-18T05:39:22.056Z</time></trkpt><trkpt lat="40.6717295" lon="14.6921686"><ele>547.8571428571429</ele><time>2026-04-18T05:39:31.057Z</time></trkpt><trkpt lat="40.6717334" lon="14.6920795"><ele>551.1428571428571</ele><time>2026-04-18T05:39:39.056Z</time></trkpt><trkpt lat="40.6717715" lon="14.6920081"><ele>554.4285714285713</ele><time>2026-04-18T05:39:48.056Z</time></trkpt><trkpt lat="40.6718123" lon="14.6919434"><ele>557.7142857142857</ele><time>2026-04-18T05:39:54.057Z</time></trkpt><trkpt lat="40.6718128" lon="14.6918525"><ele>561.0</ele><time>2026-04-18T05:40:11.056Z</time></trkpt><trkpt lat="40.6718082" lon="14.6917603"><ele>562.1428571428571</ele><time>2026-04-18T05:40:19.056Z</time></trkpt><trkpt lat="40.6718306" lon="14.6916692"><ele>563.2857142857142</ele><time>2026-04-18T05:40:27.056Z</time></trkpt><trkpt lat="40.6718782" lon="14.6915936"><ele>564.4285714285714</ele><time>2026-04-18T05:40:33.056Z</time></trkpt><trkpt lat="40.6719026" lon="14.6915153"><ele>565.5714285714286</ele><time>2026-04-18T05:40:38.056Z</time></trkpt><trkpt lat="40.67188" lon="14.6914353"><ele>566.7142857142858</ele><time>2026-04-18T05:40:43.056Z</time></trkpt><trkpt lat="40.6718605" lon="14.691354"><ele>567.8571428571429</ele><time>2026-04-18T05:40:49.056Z</time></trkpt><trkpt lat="40.6718318" lon="14.6912635"><ele>569.0</ele><time>2026-04-18T05:40:55.056Z</time></trkpt><trkpt lat="40.6718117" lon="14.691167"><ele>569.0000000000001</ele><time>2026-04-18T05:41:03.056Z</time></trkpt><trkpt lat="40.6717461" lon="14.6911405"><ele>569.0</ele><time>2026-04-18T05:41:12.056Z</time></trkpt><trkpt lat="40.671675" lon="14.6911102"><ele>569.0</ele><time>2026-04-18T05:41:37.056Z</time></trkpt><trkpt lat="40.6716936" lon="14.6910218"><ele>569.0</ele><time>2026-04-18T05:41:55.056Z</time></trkpt><trkpt lat="40.6716411" lon="14.6909673"><ele>569.0</ele><time>2026-04-18T05:42:02.056Z</time></trkpt><trkpt lat="40.6716321" lon="14.6908701"><ele>569.0000000000001</ele><time>2026-04-18T05:42:39.057Z</time></trkpt><trkpt lat="40.6716063" lon="14.6907904"><ele>569.0</ele><time>2026-04-18T05:42:44.057Z</time></trkpt><trkpt lat="40.6715712" lon="14.6907211"><ele>571.1428571428572</ele><time>2026-04-18T05:42:49.056Z</time></trkpt><trkpt lat="40.6715041" lon="14.6907148"><ele>573.2857142857143</ele><time>2026-04-18T05:42:58.056Z</time></trkpt><trkpt lat="40.6714953" lon="14.6906224"><ele>575.4285714285714</ele><time>2026-04-18T05:43:07.057Z</time></trkpt><trkpt lat="40.6714642" lon="14.6905435"><ele>577.5714285714287</ele><time>2026-04-18T05:43:27.056Z</time></trkpt><trkpt lat="40.6714004" lon="14.6905475"><ele>579.7142857142858</ele><time>2026-04-18T05:43:38.056Z</time></trkpt><trkpt lat="40.6713369" lon="14.6905491"><ele>581.8571428571429</ele><time>2026-04-18T05:43:50.057Z</time></trkpt><trkpt lat="40.6712788" lon="14.6905899"><ele>584.0</ele><time>2026-04-18T05:43:58.056Z</time></trkpt><trkpt lat="40.6712143" lon="14.6905937"><ele>584.0</ele><time>2026-04-18T05:44:08.056Z</time></trkpt><trkpt lat="40.6711271" lon="14.6905561"><ele>584.0</ele><time>2026-04-18T05:44:29.056Z</time></trkpt><trkpt lat="40.67106" lon="14.690581"><ele>584.0</ele><time>2026-04-18T05:44:37.056Z</time></trkpt><trkpt lat="40.6710188" lon="14.690651"><ele>584.0</ele><time>2026-04-18T05:44:45.057Z</time></trkpt><trkpt lat="40.671002" lon="14.6907331"><ele>584.0</ele><time>2026-04-18T05:44:53.056Z</time></trkpt><trkpt lat="40.6709313" lon="14.6907586"><ele>584.0</ele><time>2026-04-18T05:45:03.056Z</time></trkpt><trkpt lat="40.6708687" lon="14.6907056"><ele>584.0</ele><time>2026-04-18T05:45:08.056Z</time></trkpt><trkpt lat="40.6708173" lon="14.690653"><ele>586.8571428571429</ele><time>2026-04-18T05:45:13.057Z</time></trkpt><trkpt lat="40.6707586" lon="14.6906074"><ele>589.7142857142858</ele><time>2026-04-18T05:45:19.057Z</time></trkpt><trkpt lat="40.670702" lon="14.6905672"><ele>592.5714285714287</ele><time>2026-04-18T05:45:26.056Z</time></trkpt><trkpt lat="40.6706591" lon="14.690496"><ele>595.4285714285714</ele><time>2026-04-18T05:45:34.056Z</time></trkpt><trkpt lat="40.6707149" lon="14.6905701"><ele>598.2857142857143</ele><time>2026-04-18T05:45:50.056Z</time></trkpt><trkpt lat="40.6707552" lon="14.6906513"><ele>601.1428571428572</ele><time>2026-04-18T05:45:57.056Z</time></trkpt><trkpt lat="40.6707678" lon="14.6907327"><ele>604.0</ele><time>2026-04-18T05:46:03.056Z</time></trkpt><trkpt lat="40.6707631" lon="14.6908226"><ele>604.0000000000001</ele><time>2026-04-18T05:46:11.056Z</time></trkpt><trkpt lat="40.6708062" lon="14.6908842"><ele>604.0</ele><time>2026-04-18T05:46:18.056Z</time></trkpt><trkpt lat="40.6708409" lon="14.6909585"><ele>604.0</ele><time>2026-04-18T05:46:27.056Z</time></trkpt><trkpt lat="40.6708783" lon="14.6910354"><ele>604.0</ele><time>2026-04-18T05:46:33.057Z</time></trkpt><trkpt lat="40.6708946" lon="14.6911229"><ele>604.0</ele><time>2026-04-18T05:46:40.056Z</time></trkpt><trkpt lat="40.6708872" lon="14.6912118"><ele>604.0000000000001</ele><time>2026-04-18T05:46:47.056Z</time></trkpt><trkpt lat="40.6708691" lon="14.691299"><ele>604.0</ele><time>2026-04-18T05:46:56.056Z</time></trkpt><trkpt lat="40.6708013" lon="14.6913957"><ele>604.8571428571429</ele><time>2026-04-18T05:47:11.056Z</time></trkpt><trkpt lat="40.6707514" lon="14.6914473"><ele>605.7142857142858</ele><time>2026-04-18T05:47:18.056Z</time></trkpt><trkpt lat="40.6707205" lon="14.6915265"><ele>606.5714285714287</ele><time>2026-04-18T05:47:26.056Z</time></trkpt><trkpt lat="40.6706903" lon="14.6916001"><ele>607.4285714285714</ele><time>2026-04-18T05:47:33.056Z</time></trkpt><trkpt lat="40.6707174" lon="14.6916758"><ele>608.2857142857142</ele><time>2026-04-18T05:47:41.056Z</time></trkpt><trkpt lat="40.6707823" lon="14.6917205"><ele>609.1428571428572</ele><time>2026-04-18T05:47:47.056Z</time></trkpt><trkpt lat="40.6708182" lon="14.6918034"><ele>610.0</ele><time>2026-04-18T05:47:53.056Z</time></trkpt><trkpt lat="40.6708051" lon="14.6918901"><ele>610.7142857142858</ele><time>2026-04-18T05:47:59.056Z</time></trkpt><trkpt lat="40.670777" lon="14.6919785"><ele>611.4285714285713</ele><time>2026-04-18T05:48:06.056Z</time></trkpt><trkpt lat="40.6707657" lon="14.6920727"><ele>612.1428571428571</ele><time>2026-04-18T05:48:13.056Z</time></trkpt><trkpt lat="40.6707584" lon="14.6921586"><ele>612.8571428571429</ele><time>2026-04-18T05:48:19.056Z</time></trkpt><trkpt lat="40.6707514" lon="14.6922456"><ele>613.5714285714287</ele><time>2026-04-18T05:48:26.056Z</time></trkpt><trkpt lat="40.6707459" lon="14.6923289"><ele>614.2857142857142</ele><time>2026-04-18T05:48:33.056Z</time></trkpt><trkpt lat="40.6707561" lon="14.6924199"><ele>615.0</ele><time>2026-04-18T05:48:41.056Z</time></trkpt><trkpt lat="40.6707412" lon="14.6925025"><ele>615.0</ele><time>2026-04-18T05:48:50.056Z</time></trkpt><trkpt lat="40.6706802" lon="14.6925789"><ele>615.0</ele><time>2026-04-18T05:49:05.056Z</time></trkpt><trkpt lat="40.6706508" lon="14.6926543"><ele>615.0</ele><time>2026-04-18T05:49:12.056Z</time></trkpt><trkpt lat="40.6706403" lon="14.6927394"><ele>615.0</ele><time>2026-04-18T05:49:20.056Z</time></trkpt><trkpt lat="40.670615" lon="14.6928169"><ele>615.0</ele><time>2026-04-18T05:49:27.056Z</time></trkpt><trkpt lat="40.6705903" lon="14.6928977"><ele>615.0</ele><time>2026-04-18T05:49:33.056Z</time></trkpt><trkpt lat="40.6705902" lon="14.6929838"><ele>615.0</ele><time>2026-04-18T05:49:39.056Z</time></trkpt><trkpt lat="40.6705927" lon="14.6930825"><ele>614.7142857142857</ele><time>2026-04-18T05:49:45.056Z</time></trkpt><trkpt lat="40.6705595" lon="14.6931577"><ele>614.4285714285714</ele><time>2026-04-18T05:49:53.056Z</time></trkpt><trkpt lat="40.6705381" lon="14.6932358"><ele>614.1428571428571</ele><time>2026-04-18T05:49:58.056Z</time></trkpt><trkpt lat="40.6705033" lon="14.6933081"><ele>613.8571428571429</ele><time>2026-04-18T05:50:03.057Z</time></trkpt><trkpt lat="40.6704346" lon="14.6933346"><ele>613.5714285714286</ele><time>2026-04-18T05:50:10.056Z</time></trkpt><trkpt lat="40.6703775" lon="14.6932973"><ele>613.2857142857143</ele><time>2026-04-18T05:50:16.056Z</time></trkpt><trkpt lat="40.6703197" lon="14.6932465"><ele>613.0</ele><time>2026-04-18T05:50:22.056Z</time></trkpt><trkpt lat="40.6702755" lon="14.6931811"><ele>616.1428571428571</ele><time>2026-04-18T05:50:27.056Z</time></trkpt><trkpt lat="40.6702321" lon="14.6931158"><ele>619.2857142857142</ele><time>2026-04-18T05:50:33.056Z</time></trkpt><trkpt lat="40.6702048" lon="14.6930346"><ele>622.4285714285713</ele><time>2026-04-18T05:50:38.056Z</time></trkpt><trkpt lat="40.6701595" lon="14.6929678"><ele>625.5714285714286</ele><time>2026-04-18T05:50:43.056Z</time></trkpt><trkpt lat="40.6701172" lon="14.6929001"><ele>628.7142857142857</ele><time>2026-04-18T05:50:48.056Z</time></trkpt><trkpt lat="40.6700638" lon="14.6928312"><ele>631.8571428571428</ele><time>2026-04-18T05:50:54.056Z</time></trkpt><trkpt lat="40.6700299" lon="14.69275"><ele>635.0</ele><time>2026-04-18T05:51:00.056Z</time></trkpt><trkpt lat="40.6699751" lon="14.6926795"><ele>634.9999999999999</ele><time>2026-04-18T05:51:07.056Z</time></trkpt><trkpt lat="40.6699107" lon="14.6927071"><ele>635.0</ele><time>2026-04-18T05:51:14.056Z</time></trkpt><trkpt lat="40.6698603" lon="14.6927727"><ele>635.0</ele><time>2026-04-18T05:51:20.056Z</time></trkpt><trkpt lat="40.6698043" lon="14.6928199"><ele>635.0</ele><time>2026-04-18T05:51:27.056Z</time></trkpt><trkpt lat="40.6697387" lon="14.6928365"><ele>635.0</ele><time>2026-04-18T05:51:33.056Z</time></trkpt><trkpt lat="40.6696754" lon="14.6928582"><ele>634.9999999999999</ele><time>2026-04-18T05:51:41.056Z</time></trkpt><trkpt lat="40.6696234" lon="14.6929191"><ele>635.0</ele><time>2026-04-18T05:51:49.056Z</time></trkpt><trkpt lat="40.6695648" lon="14.6929512"><ele>634.9999999999999</ele><time>2026-04-18T05:51:56.056Z</time></trkpt><trkpt lat="40.6695076" lon="14.6929975"><ele>635.0</ele><time>2026-04-18T05:52:03.056Z</time></trkpt><trkpt lat="40.6694156" lon="14.6929347"><ele>635.0</ele><time>2026-04-18T05:52:24.056Z</time></trkpt><trkpt lat="40.6693488" lon="14.6929475"><ele>635.0</ele><time>2026-04-18T05:52:32.056Z</time></trkpt><trkpt lat="40.6692856" lon="14.6929341"><ele>635.0</ele><time>2026-04-18T05:52:41.056Z</time></trkpt><trkpt lat="40.6692196" lon="14.692932"><ele>634.9999999999999</ele><time>2026-04-18T05:52:50.056Z</time></trkpt><trkpt lat="40.6691537" lon="14.6929619"><ele>635.0</ele><time>2026-04-18T05:52:58.056Z</time></trkpt><trkpt lat="40.669088" lon="14.692965"><ele>636.1428571428571</ele><time>2026-04-18T05:53:07.056Z</time></trkpt><trkpt lat="40.6690409" lon="14.6929019"><ele>637.2857142857142</ele><time>2026-04-18T05:53:15.056Z</time></trkpt><trkpt lat="40.6689954" lon="14.6928418"><ele>638.4285714285713</ele><time>2026-04-18T05:53:22.056Z</time></trkpt><trkpt lat="40.6689387" lon="14.6927897"><ele>639.5714285714286</ele><time>2026-04-18T05:53:30.056Z</time></trkpt><trkpt lat="40.6689077" lon="14.6927108"><ele>640.7142857142858</ele><time>2026-04-18T05:53:39.056Z</time></trkpt><trkpt lat="40.6688417" lon="14.6926754"><ele>641.8571428571428</ele><time>2026-04-18T05:53:50.056Z</time></trkpt><trkpt lat="40.6687769" lon="14.6926816"><ele>643.0</ele><time>2026-04-18T05:53:59.056Z</time></trkpt><trkpt lat="40.6687111" lon="14.6926835"><ele>643.0</ele><time>2026-04-18T05:54:13.056Z</time></trkpt><trkpt lat="40.668662" lon="14.6927358"><ele>643.0</ele><time>2026-04-18T05:54:22.056Z</time></trkpt><trkpt lat="40.6685972" lon="14.6927587"><ele>643.0</ele><time>2026-04-18T05:54:29.056Z</time></trkpt><trkpt lat="40.6685329" lon="14.6927986"><ele>643.0</ele><time>2026-04-18T05:54:38.056Z</time></trkpt><trkpt lat="40.6684709" lon="14.6928292"><ele>643.0</ele><time>2026-04-18T05:54:44.056Z</time></trkpt><trkpt lat="40.6684038" lon="14.6928355"><ele>643.0</ele><time>2026-04-18T05:54:50.057Z</time></trkpt><trkpt lat="40.6683351" lon="14.6928075"><ele>643.0</ele><time>2026-04-18T05:54:56.056Z</time></trkpt><trkpt lat="40.6682723" lon="14.6927681"><ele>650.5714285714286</ele><time>2026-04-18T05:55:02.056Z</time></trkpt><trkpt lat="40.6682261" lon="14.6927017"><ele>658.1428571428572</ele><time>2026-04-18T05:55:09.057Z</time></trkpt><trkpt lat="40.6681572" lon="14.6927315"><ele>665.7142857142858</ele><time>2026-04-18T05:55:16.056Z</time></trkpt><trkpt lat="40.6680855" lon="14.6927241"><ele>673.2857142857142</ele><time>2026-04-18T05:55:30.056Z</time></trkpt><trkpt lat="40.6680488" lon="14.6926493"><ele>680.8571428571429</ele><time>2026-04-18T05:55:40.056Z</time></trkpt><trkpt lat="40.6679923" lon="14.6926053"><ele>688.4285714285714</ele><time>2026-04-18T05:55:51.056Z</time></trkpt><trkpt lat="40.6679248" lon="14.6925775"><ele>696.0</ele><time>2026-04-18T05:55:57.057Z</time></trkpt><trkpt lat="40.6678577" lon="14.6925391"><ele>696.0</ele><time>2026-04-18T05:56:03.056Z</time></trkpt><trkpt lat="40.6678047" lon="14.6924912"><ele>696.0</ele><time>2026-04-18T05:56:08.056Z</time></trkpt><trkpt lat="40.6677419" lon="14.6924364"><ele>696.0</ele><time>2026-04-18T05:56:14.056Z</time></trkpt><trkpt lat="40.667677" lon="14.6923945"><ele>696.0</ele><time>2026-04-18T05:56:20.056Z</time></trkpt><trkpt lat="40.6676142" lon="14.6923745"><ele>696.0</ele><time>2026-04-18T05:56:25.056Z</time></trkpt><trkpt lat="40.6675514" lon="14.69234"><ele>696.0</ele><time>2026-04-18T05:56:31.056Z</time></trkpt><trkpt lat="40.6674887" lon="14.6923169"><ele>696.0</ele><time>2026-04-18T05:56:36.056Z</time></trkpt><trkpt lat="40.6674255" lon="14.6922988"><ele>695.8571428571429</ele><time>2026-04-18T05:56:41.056Z</time></trkpt><trkpt lat="40.6673467" lon="14.6922712"><ele>695.7142857142858</ele><time>2026-04-18T05:56:47.056Z</time></trkpt><trkpt lat="40.667359" lon="14.6921681"><ele>695.5714285714287</ele><time>2026-04-18T05:56:51.056Z</time></trkpt><trkpt lat="40.6673823" lon="14.6920876"><ele>695.4285714285714</ele><time>2026-04-18T05:56:55.056Z</time></trkpt><trkpt lat="40.6674066" lon="14.6919965"><ele>695.2857142857143</ele><time>2026-04-18T05:57:01.056Z</time></trkpt><trkpt lat="40.6674047" lon="14.691909"><ele>695.1428571428572</ele><time>2026-04-18T05:57:06.056Z</time></trkpt><trkpt lat="40.6673913" lon="14.691823"><ele>695.0</ele><time>2026-04-18T05:57:11.056Z</time></trkpt><trkpt lat="40.6673815" lon="14.6917373"><ele>695.0000000000001</ele><time>2026-04-18T05:57:17.056Z</time></trkpt><trkpt lat="40.667393" lon="14.6916507"><ele>695.0</ele><time>2026-04-18T05:57:23.056Z</time></trkpt><trkpt lat="40.6673877" lon="14.6915667"><ele>695.0</ele><time>2026-04-18T05:57:29.056Z</time></trkpt><trkpt lat="40.6673802" lon="14.6914753"><ele>695.0</ele><time>2026-04-18T05:57:38.056Z</time></trkpt><trkpt lat="40.6673718" lon="14.6913841"><ele>695.0</ele><time>2026-04-18T05:57:48.056Z</time></trkpt><trkpt lat="40.6673733" lon="14.6913003"><ele>695.0000000000001</ele><time>2026-04-18T05:57:55.057Z</time></trkpt><trkpt lat="40.6673766" lon="14.691211"><ele>695.0</ele><time>2026-04-18T05:58:01.056Z</time></trkpt><trkpt lat="40.6673745" lon="14.6911173"><ele>697.0000000000001</ele><time>2026-04-18T05:58:07.056Z</time></trkpt><trkpt lat="40.6673698" lon="14.6910235"><ele>699.0</ele><time>2026-04-18T05:58:13.056Z</time></trkpt><trkpt lat="40.6673544" lon="14.6909388"><ele>701.0</ele><time>2026-04-18T05:58:22.056Z</time></trkpt><trkpt lat="40.6673493" lon="14.6908435"><ele>703.0</ele><time>2026-04-18T05:58:31.056Z</time></trkpt><trkpt lat="40.6673184" lon="14.6907598"><ele>705.0</ele><time>2026-04-18T05:58:39.056Z</time></trkpt><trkpt lat="40.6672814" lon="14.6906924"><ele>707.0000000000001</ele><time>2026-04-18T05:58:44.056Z</time></trkpt><trkpt lat="40.6672711" lon="14.6906012"><ele>709.0</ele><time>2026-04-18T05:58:52.056Z</time></trkpt><trkpt lat="40.6672427" lon="14.6905137"><ele>709.0000000000001</ele><time>2026-04-18T05:59:01.056Z</time></trkpt><trkpt lat="40.6672043" lon="14.6904454"><ele>709.0</ele><time>2026-04-18T05:59:08.056Z</time></trkpt><trkpt lat="40.6671707" lon="14.6903624"><ele>709.0</ele><time>2026-04-18T05:59:14.056Z</time></trkpt><trkpt lat="40.6671538" lon="14.6902762"><ele>709.0</ele><time>2026-04-18T05:59:21.056Z</time></trkpt><trkpt lat="40.6671315" lon="14.6901915"><ele>709.0</ele><time>2026-04-18T05:59:28.056Z</time></trkpt><trkpt lat="40.6670953" lon="14.6901181"><ele>709.0000000000001</ele><time>2026-04-18T05:59:33.056Z</time></trkpt><trkpt lat="40.6670697" lon="14.6900209"><ele>709.0</ele><time>2026-04-18T06:00:00.057Z</time></trkpt><trkpt lat="40.6669896" lon="14.6899769"><ele>705.7142857142858</ele><time>2026-04-18T06:00:21.057Z</time></trkpt><trkpt lat="40.6669377" lon="14.6899272"><ele>702.4285714285714</ele><time>2026-04-18T06:00:28.057Z</time></trkpt><trkpt lat="40.6669256" lon="14.689839"><ele>699.1428571428571</ele><time>2026-04-18T06:00:36.057Z</time></trkpt><trkpt lat="40.6668744" lon="14.6897761"><ele>695.8571428571429</ele><time>2026-04-18T06:00:44.057Z</time></trkpt><trkpt lat="40.6668478" lon="14.6896994"><ele>692.5714285714286</ele><time>2026-04-18T06:00:50.057Z</time></trkpt><trkpt lat="40.6668146" lon="14.6896191"><ele>689.2857142857143</ele><time>2026-04-18T06:00:56.057Z</time></trkpt><trkpt lat="40.6667891" lon="14.689534"><ele>686.0</ele><time>2026-04-18T06:01:02.057Z</time></trkpt><trkpt lat="40.6667653" lon="14.6894555"><ele>689.4285714285714</ele><time>2026-04-18T06:01:07.057Z</time></trkpt><trkpt lat="40.6667412" lon="14.6893569"><ele>692.8571428571429</ele><time>2026-04-18T06:01:14.057Z</time></trkpt><trkpt lat="40.66669" lon="14.6892957"><ele>696.2857142857142</ele><time>2026-04-18T06:01:19.057Z</time></trkpt><trkpt lat="40.6666191" lon="14.689295"><ele>699.7142857142858</ele><time>2026-04-18T06:01:27.057Z</time></trkpt><trkpt lat="40.6665801" lon="14.689214"><ele>703.1428571428571</ele><time>2026-04-18T06:01:34.057Z</time></trkpt><trkpt lat="40.6665787" lon="14.6891158"><ele>706.5714285714286</ele><time>2026-04-18T06:01:41.057Z</time></trkpt><trkpt lat="40.6665848" lon="14.6890259"><ele>710.0</ele><time>2026-04-18T06:01:47.057Z</time></trkpt><trkpt lat="40.6666053" lon="14.6889349"><ele>710.0</ele><time>2026-04-18T06:01:53.057Z</time></trkpt><trkpt lat="40.6666177" lon="14.6888501"><ele>710.0</ele><time>2026-04-18T06:01:59.057Z</time></trkpt><trkpt lat="40.6666063" lon="14.6887503"><ele>710.0</ele><time>2026-04-18T06:02:05.057Z</time></trkpt><trkpt lat="40.6665945" lon="14.6886681"><ele>710.0</ele><time>2026-04-18T06:02:10.057Z</time></trkpt><trkpt lat="40.6665905" lon="14.6885757"><ele>710.0</ele><time>2026-04-18T06:02:16.057Z</time></trkpt><trkpt lat="40.6665803" lon="14.6884798"><ele>710.0</ele><time>2026-04-18T06:02:22.057Z</time></trkpt><trkpt lat="40.6665864" lon="14.6883947"><ele>710.0</ele><time>2026-04-18T06:02:28.057Z</time></trkpt><trkpt lat="40.6666173" lon="14.688308"><ele>710.4285714285714</ele><time>2026-04-18T06:02:34.057Z</time></trkpt><trkpt lat="40.6666311" lon="14.6882192"><ele>710.8571428571429</ele><time>2026-04-18T06:02:40.057Z</time></trkpt><trkpt lat="40.6666417" lon="14.6881358"><ele>711.2857142857142</ele><time>2026-04-18T06:02:45.057Z</time></trkpt><trkpt lat="40.6666637" lon="14.6880498"><ele>711.7142857142858</ele><time>2026-04-18T06:02:51.057Z</time></trkpt><trkpt lat="40.6666593" lon="14.6879531"><ele>712.1428571428572</ele><time>2026-04-18T06:02:57.057Z</time></trkpt><trkpt lat="40.6666672" lon="14.687867"><ele>712.5714285714286</ele><time>2026-04-18T06:03:03.057Z</time></trkpt><trkpt lat="40.6666638" lon="14.6877793"><ele>713.0</ele><time>2026-04-18T06:03:08.058Z</time></trkpt><trkpt lat="40.6666479" lon="14.6876858"><ele>713.0</ele><time>2026-04-18T06:03:14.057Z</time></trkpt><trkpt lat="40.6666245" lon="14.6876061"><ele>713.0</ele><time>2026-04-18T06:03:19.057Z</time></trkpt><trkpt lat="40.6666141" lon="14.6875235"><ele>713.0</ele><time>2026-04-18T06:03:39.057Z</time></trkpt><trkpt lat="40.6665913" lon="14.6874383"><ele>713.0</ele><time>2026-04-18T06:03:44.057Z</time></trkpt><trkpt lat="40.6665709" lon="14.6873532"><ele>713.0</ele><time>2026-04-18T06:03:50.057Z</time></trkpt><trkpt lat="40.666536" lon="14.6872732"><ele>713.0</ele><time>2026-04-18T06:04:00.057Z</time></trkpt><trkpt lat="40.6665206" lon="14.6871866"><ele>713.0</ele><time>2026-04-18T06:04:06.057Z</time></trkpt><trkpt lat="40.6664933" lon="14.6871026"><ele>713.0</ele><time>2026-04-18T06:04:12.057Z</time></trkpt><trkpt lat="40.6665186" lon="14.6870255"><ele>713.0</ele><time>2026-04-18T06:04:20.057Z</time></trkpt><trkpt lat="40.6665706" lon="14.6869574"><ele>713.0</ele><time>2026-04-18T06:04:26.057Z</time></trkpt><trkpt lat="40.6666269" lon="14.6868959"><ele>713.0</ele><time>2026-04-18T06:04:32.057Z</time></trkpt><trkpt lat="40.6666421" lon="14.6868034"><ele>713.0</ele><time>2026-04-18T06:04:37.057Z</time></trkpt><trkpt lat="40.6666389" lon="14.6867077"><ele>713.0</ele><time>2026-04-18T06:04:43.057Z</time></trkpt><trkpt lat="40.6666689" lon="14.6866334"><ele>713.0</ele><time>2026-04-18T06:04:52.057Z</time></trkpt><trkpt lat="40.6667318" lon="14.6866026"><ele>711.1428571428571</ele><time>2026-04-18T06:05:00.057Z</time></trkpt><trkpt lat="40.6667767" lon="14.6865308"><ele>709.2857142857143</ele><time>2026-04-18T06:05:10.057Z</time></trkpt><trkpt lat="40.666839" lon="14.6864849"><ele>707.4285714285714</ele><time>2026-04-18T06:05:18.057Z</time></trkpt><trkpt lat="40.666914" lon="14.6864782"><ele>705.5714285714286</ele><time>2026-04-18T06:05:25.057Z</time></trkpt><trkpt lat="40.666973" lon="14.6864353"><ele>703.7142857142858</ele><time>2026-04-18T06:05:31.057Z</time></trkpt><trkpt lat="40.666989" lon="14.6863446"><ele>701.8571428571429</ele><time>2026-04-18T06:05:37.057Z</time></trkpt><trkpt lat="40.6669747" lon="14.6862598"><ele>700.0</ele><time>2026-04-18T06:05:44.057Z</time></trkpt><trkpt lat="40.666962" lon="14.6861702"><ele>697.8571428571429</ele><time>2026-04-18T06:05:51.057Z</time></trkpt><trkpt lat="40.6669483" lon="14.6860761"><ele>695.7142857142858</ele><time>2026-04-18T06:05:57.057Z</time></trkpt><trkpt lat="40.6669384" lon="14.6859933"><ele>693.5714285714286</ele><time>2026-04-18T06:06:02.057Z</time></trkpt><trkpt lat="40.6669188" lon="14.6859068"><ele>691.4285714285714</ele><time>2026-04-18T06:06:08.057Z</time></trkpt><trkpt lat="40.6669037" lon="14.6858172"><ele>689.2857142857143</ele><time>2026-04-18T06:06:14.057Z</time></trkpt><trkpt lat="40.6668854" lon="14.6857293"><ele>687.1428571428571</ele><time>2026-04-18T06:06:20.057Z</time></trkpt><trkpt lat="40.666842" lon="14.6856636"><ele>685.0</ele><time>2026-04-18T06:06:25.057Z</time></trkpt><trkpt lat="40.6668395" lon="14.685573"><ele>685.0</ele><time>2026-04-18T06:06:31.058Z</time></trkpt><trkpt lat="40.6668393" lon="14.6854828"><ele>685.0</ele><time>2026-04-18T06:06:36.057Z</time></trkpt><trkpt lat="40.6668491" lon="14.6853993"><ele>685.0</ele><time>2026-04-18T06:06:41.057Z</time></trkpt><trkpt lat="40.6668477" lon="14.685303"><ele>685.0</ele><time>2026-04-18T06:06:47.057Z</time></trkpt><trkpt lat="40.6667949" lon="14.6852484"><ele>685.0</ele><time>2026-04-18T06:06:52.058Z</time></trkpt><trkpt lat="40.6667285" lon="14.6852413"><ele>685.0</ele><time>2026-04-18T06:06:57.057Z</time></trkpt><trkpt lat="40.6666722" lon="14.6851994"><ele>685.0</ele><time>2026-04-18T06:07:02.057Z</time></trkpt><trkpt lat="40.6666472" lon="14.6851226"><ele>686.7142857142857</ele><time>2026-04-18T06:07:08.057Z</time></trkpt><trkpt lat="40.6666247" lon="14.6850442"><ele>688.4285714285714</ele><time>2026-04-18T06:07:13.057Z</time></trkpt><trkpt lat="40.6666049" lon="14.684959"><ele>690.1428571428571</ele><time>2026-04-18T06:07:19.057Z</time></trkpt><trkpt lat="40.6665855" lon="14.6848759"><ele>691.8571428571429</ele><time>2026-04-18T06:07:25.057Z</time></trkpt><trkpt lat="40.6665444" lon="14.6847941"><ele>693.5714285714286</ele><time>2026-04-18T06:07:31.057Z</time></trkpt><trkpt lat="40.6665265" lon="14.6847032"><ele>695.2857142857143</ele><time>2026-04-18T06:07:37.057Z</time></trkpt><trkpt lat="40.6665184" lon="14.6846146"><ele>697.0</ele><time>2026-04-18T06:07:42.057Z</time></trkpt><trkpt lat="40.6664906" lon="14.6845397"><ele>697.0</ele><time>2026-04-18T06:07:47.057Z</time></trkpt><trkpt lat="40.6664629" lon="14.6844602"><ele>697.0</ele><time>2026-04-18T06:07:52.057Z</time></trkpt><trkpt lat="40.6664287" lon="14.6843865"><ele>697.0</ele><time>2026-04-18T06:07:57.057Z</time></trkpt><trkpt lat="40.6664124" lon="14.6842983"><ele>697.0</ele><time>2026-04-18T06:08:02.057Z</time></trkpt><trkpt lat="40.6663936" lon="14.6842186"><ele>697.0</ele><time>2026-04-18T06:08:08.057Z</time></trkpt><trkpt lat="40.6663441" lon="14.6841624"><ele>697.0</ele><time>2026-04-18T06:08:15.057Z</time></trkpt><trkpt lat="40.6663231" lon="14.6840784"><ele>697.0</ele><time>2026-04-18T06:08:21.057Z</time></trkpt><trkpt lat="40.6663374" lon="14.6839856"><ele>697.4285714285714</ele><time>2026-04-18T06:08:29.057Z</time></trkpt><trkpt lat="40.6663639" lon="14.683905"><ele>697.8571428571429</ele><time>2026-04-18T06:08:35.057Z</time></trkpt><trkpt lat="40.6663949" lon="14.6838209"><ele>698.2857142857142</ele><time>2026-04-18T06:08:41.057Z</time></trkpt><trkpt lat="40.666434" lon="14.6837317"><ele>698.7142857142858</ele><time>2026-04-18T06:08:47.057Z</time></trkpt><trkpt lat="40.6664721" lon="14.6836492"><ele>699.1428571428571</ele><time>2026-04-18T06:08:58.057Z</time></trkpt><trkpt lat="40.666487" lon="14.6835511"><ele>699.5714285714286</ele><time>2026-04-18T06:09:03.057Z</time></trkpt><trkpt lat="40.6665113" lon="14.6834669"><ele>700.0</ele><time>2026-04-18T06:09:08.057Z</time></trkpt><trkpt lat="40.666532" lon="14.6833773"><ele>700.0</ele><time>2026-04-18T06:09:13.057Z</time></trkpt><trkpt lat="40.6665665" lon="14.6833038"><ele>700.0</ele><time>2026-04-18T06:09:18.057Z</time></trkpt><trkpt lat="40.6665854" lon="14.6832237"><ele>700.0</ele><time>2026-04-18T06:09:25.057Z</time></trkpt><trkpt lat="40.6666203" lon="14.6831486"><ele>700.0</ele><time>2026-04-18T06:09:34.057Z</time></trkpt><trkpt lat="40.6666499" lon="14.6830753"><ele>700.0</ele><time>2026-04-18T06:09:43.057Z</time></trkpt><trkpt lat="40.6666821" lon="14.6829965"><ele>700.0</ele><time>2026-04-18T06:09:52.057Z</time></trkpt><trkpt lat="40.6666992" lon="14.6829087"><ele>700.0</ele><time>2026-04-18T06:09:58.057Z</time></trkpt><trkpt lat="40.6667012" lon="14.6828252"><ele>700.8571428571429</ele><time>2026-04-18T06:10:06.058Z</time></trkpt><trkpt lat="40.6666597" lon="14.6827563"><ele>701.7142857142858</ele><time>2026-04-18T06:10:13.057Z</time></trkpt><trkpt lat="40.6666671" lon="14.6826737"><ele>702.5714285714286</ele><time>2026-04-18T06:10:22.057Z</time></trkpt><trkpt lat="40.6666621" lon="14.6825905"><ele>703.4285714285714</ele><time>2026-04-18T06:10:30.057Z</time></trkpt><trkpt lat="40.6666227" lon="14.6825129"><ele>704.2857142857143</ele><time>2026-04-18T06:10:37.057Z</time></trkpt><trkpt lat="40.6665999" lon="14.6824331"><ele>705.1428571428571</ele><time>2026-04-18T06:10:44.057Z</time></trkpt><trkpt lat="40.6665851" lon="14.6823501"><ele>706.0</ele><time>2026-04-18T06:10:49.057Z</time></trkpt><trkpt lat="40.6665218" lon="14.6823414"><ele>706.0</ele><time>2026-04-18T06:10:59.057Z</time></trkpt><trkpt lat="40.6664651" lon="14.6824045"><ele>706.0</ele><time>2026-04-18T06:11:16.057Z</time></trkpt><trkpt lat="40.666401" lon="14.6824517"><ele>706.0</ele><time>2026-04-18T06:11:23.057Z</time></trkpt><trkpt lat="40.6663475" lon="14.6825105"><ele>706.0</ele><time>2026-04-18T06:11:29.058Z</time></trkpt><trkpt lat="40.6662912" lon="14.6825494"><ele>706.0</ele><time>2026-04-18T06:11:36.057Z</time></trkpt><trkpt lat="40.6662362" lon="14.6825934"><ele>706.0</ele><time>2026-04-18T06:11:43.057Z</time></trkpt><trkpt lat="40.6661714" lon="14.6825504"><ele>706.0</ele><time>2026-04-18T06:11:48.057Z</time></trkpt><trkpt lat="40.6661004" lon="14.6825272"><ele>701.5714285714286</ele><time>2026-04-18T06:11:55.057Z</time></trkpt><trkpt lat="40.666045" lon="14.6824757"><ele>697.1428571428572</ele><time>2026-04-18T06:12:01.058Z</time></trkpt><trkpt lat="40.6660282" lon="14.6823946"><ele>692.7142857142858</ele><time>2026-04-18T06:12:07.057Z</time></trkpt><trkpt lat="40.6660177" lon="14.6823078"><ele>688.2857142857142</ele><time>2026-04-18T06:12:14.057Z</time></trkpt><trkpt lat="40.6660044" lon="14.6822102"><ele>683.8571428571429</ele><time>2026-04-18T06:12:21.057Z</time></trkpt><trkpt lat="40.6660089" lon="14.6821252"><ele>679.4285714285714</ele><time>2026-04-18T06:12:27.057Z</time></trkpt><trkpt lat="40.6660135" lon="14.6820379"><ele>675.0</ele><time>2026-04-18T06:12:34.057Z</time></trkpt><trkpt lat="40.665969" lon="14.6819534"><ele>678.4285714285714</ele><time>2026-04-18T06:12:40.057Z</time></trkpt><trkpt lat="40.6659036" lon="14.6819267"><ele>681.8571428571429</ele><time>2026-04-18T06:12:47.057Z</time></trkpt><trkpt lat="40.6658524" lon="14.681868"><ele>685.2857142857142</ele><time>2026-04-18T06:12:53.057Z</time></trkpt><trkpt lat="40.6657908" lon="14.6818145"><ele>688.7142857142858</ele><time>2026-04-18T06:13:00.057Z</time></trkpt><trkpt lat="40.6657166" lon="14.6818009"><ele>692.1428571428572</ele><time>2026-04-18T06:13:04.057Z</time></trkpt><trkpt lat="40.6656527" lon="14.681781"><ele>695.5714285714286</ele><time>2026-04-18T06:13:10.057Z</time></trkpt><trkpt lat="40.6656076" lon="14.6817093"><ele>699.0</ele><time>2026-04-18T06:13:17.057Z</time></trkpt><trkpt lat="40.6655631" lon="14.6816434"><ele>699.0</ele><time>2026-04-18T06:13:23.057Z</time></trkpt><trkpt lat="40.6655187" lon="14.6815745"><ele>699.0</ele><time>2026-04-18T06:13:29.057Z</time></trkpt><trkpt lat="40.6654776" lon="14.6814946"><ele>699.0</ele><time>2026-04-18T06:13:35.057Z</time></trkpt><trkpt lat="40.6654366" lon="14.6814211"><ele>699.0</ele><time>2026-04-18T06:13:40.057Z</time></trkpt><trkpt lat="40.6653738" lon="14.6813765"><ele>699.0</ele><time>2026-04-18T06:13:47.057Z</time></trkpt><trkpt lat="40.6653448" lon="14.6812997"><ele>699.0</ele><time>2026-04-18T06:13:55.057Z</time></trkpt><trkpt lat="40.6653266" lon="14.681215"><ele>699.0</ele><time>2026-04-18T06:14:04.057Z</time></trkpt><trkpt lat="40.6653046" lon="14.6811334"><ele>697.0</ele><time>2026-04-18T06:14:10.057Z</time></trkpt><trkpt lat="40.665283" lon="14.6810399"><ele>695.0</ele><time>2026-04-18T06:14:18.057Z</time></trkpt><trkpt lat="40.6652632" lon="14.6809567"><ele>693.0</ele><time>2026-04-18T06:14:24.058Z</time></trkpt><trkpt lat="40.6652649" lon="14.6808654"><ele>691.0</ele><time>2026-04-18T06:14:30.058Z</time></trkpt><trkpt lat="40.6652368" lon="14.6807798"><ele>689.0</ele><time>2026-04-18T06:14:37.057Z</time></trkpt><trkpt lat="40.6652525" lon="14.6806951"><ele>687.0</ele><time>2026-04-18T06:14:43.057Z</time></trkpt><trkpt lat="40.6652487" lon="14.6806072"><ele>685.0</ele><time>2026-04-18T06:14:52.057Z</time></trkpt><trkpt lat="40.6652461" lon="14.6805148"><ele>685.0</ele><time>2026-04-18T06:14:58.057Z</time></trkpt><trkpt lat="40.6652547" lon="14.6804155"><ele>685.0</ele><time>2026-04-18T06:15:04.057Z</time></trkpt><trkpt lat="40.6651673" lon="14.680439"><ele>685.0</ele><time>2026-04-18T06:15:49.057Z</time></trkpt><trkpt lat="40.6650966" lon="14.6804027"><ele>685.0</ele><time>2026-04-18T06:15:54.058Z</time></trkpt><trkpt lat="40.665053" lon="14.6803419"><ele>685.0</ele><time>2026-04-18T06:15:58.057Z</time></trkpt><trkpt lat="40.6649996" lon="14.6802928"><ele>685.0</ele><time>2026-04-18T06:16:02.057Z</time></trkpt><trkpt lat="40.6649394" lon="14.6802538"><ele>685.0</ele><time>2026-04-18T06:16:07.057Z</time></trkpt><trkpt lat="40.6648733" lon="14.6802251"><ele>688.8571428571428</ele><time>2026-04-18T06:16:12.057Z</time></trkpt><trkpt lat="40.6648028" lon="14.6802188"><ele>692.7142857142858</ele><time>2026-04-18T06:16:18.057Z</time></trkpt><trkpt lat="40.6647358" lon="14.6802296"><ele>696.5714285714286</ele><time>2026-04-18T06:16:24.057Z</time></trkpt><trkpt lat="40.6646703" lon="14.6802336"><ele>700.4285714285713</ele><time>2026-04-18T06:16:29.057Z</time></trkpt><trkpt lat="40.6646163" lon="14.6801664"><ele>704.2857142857142</ele><time>2026-04-18T06:16:35.057Z</time></trkpt><trkpt lat="40.6645552" lon="14.6801202"><ele>708.1428571428571</ele><time>2026-04-18T06:16:42.057Z</time></trkpt><trkpt lat="40.664485" lon="14.680146"><ele>712.0</ele><time>2026-04-18T06:16:47.057Z</time></trkpt><trkpt lat="40.6644169" lon="14.680139"><ele>711.9999999999999</ele><time>2026-04-18T06:16:52.057Z</time></trkpt><trkpt lat="40.6643483" lon="14.6801253"><ele>712.0</ele><time>2026-04-18T06:16:58.057Z</time></trkpt><trkpt lat="40.6642886" lon="14.6800945"><ele>712.0</ele><time>2026-04-18T06:17:02.057Z</time></trkpt><trkpt lat="40.6642167" lon="14.6800799"><ele>712.0</ele><time>2026-04-18T06:17:08.058Z</time></trkpt><trkpt lat="40.6641846" lon="14.6801647"><ele>712.0</ele><time>2026-04-18T06:17:16.057Z</time></trkpt><trkpt lat="40.6641496" lon="14.6802508"><ele>711.9999999999999</ele><time>2026-04-18T06:17:22.057Z</time></trkpt><trkpt lat="40.6641082" lon="14.6803256"><ele>712.0</ele><time>2026-04-18T06:17:27.057Z</time></trkpt><trkpt lat="40.6640566" lon="14.6803752"><ele>706.7142857142857</ele><time>2026-04-18T06:17:32.057Z</time></trkpt><trkpt lat="40.6639986" lon="14.6804219"><ele>701.4285714285714</ele><time>2026-04-18T06:17:41.057Z</time></trkpt><trkpt lat="40.6639637" lon="14.6804939"><ele>696.1428571428571</ele><time>2026-04-18T06:17:47.057Z</time></trkpt><trkpt lat="40.663919" lon="14.6805542"><ele>690.8571428571429</ele><time>2026-04-18T06:17:55.057Z</time></trkpt><trkpt lat="40.6639107" lon="14.680641"><ele>685.5714285714286</ele><time>2026-04-18T06:18:01.057Z</time></trkpt><trkpt lat="40.6638929" lon="14.6807278"><ele>680.2857142857142</ele><time>2026-04-18T06:18:10.057Z</time></trkpt><trkpt lat="40.6638278" lon="14.6807508"><ele>675.0</ele><time>2026-04-18T06:18:18.057Z</time></trkpt><trkpt lat="40.6637941" lon="14.6806805"><ele>675.0</ele><time>2026-04-18T06:18:23.057Z</time></trkpt><trkpt lat="40.6637669" lon="14.6806056"><ele>675.0</ele><time>2026-04-18T06:18:29.057Z</time></trkpt><trkpt lat="40.6636964" lon="14.6805894"><ele>675.0</ele><time>2026-04-18T06:18:34.057Z</time></trkpt><trkpt lat="40.6636251" lon="14.6805742"><ele>675.0</ele><time>2026-04-18T06:18:39.057Z</time></trkpt><trkpt lat="40.6635663" lon="14.6805333"><ele>675.0</ele><time>2026-04-18T06:18:44.057Z</time></trkpt><trkpt lat="40.6634989" lon="14.680518"><ele>675.0</ele><time>2026-04-18T06:18:50.057Z</time></trkpt><trkpt lat="40.6634317" lon="14.6805245"><ele>675.0</ele><time>2026-04-18T06:19:08.058Z</time></trkpt><trkpt lat="40.66337" lon="14.6805481"><ele>676.4285714285714</ele><time>2026-04-18T06:19:15.058Z</time></trkpt><trkpt lat="40.6633205" lon="14.6804873"><ele>677.8571428571429</ele><time>2026-04-18T06:19:33.057Z</time></trkpt><trkpt lat="40.663257" lon="14.6804972"><ele>679.2857142857142</ele><time>2026-04-18T06:19:44.057Z</time></trkpt><trkpt lat="40.663203" lon="14.6804445"><ele>680.7142857142858</ele><time>2026-04-18T06:20:05.057Z</time></trkpt><trkpt lat="40.6631435" lon="14.6804781"><ele>682.1428571428572</ele><time>2026-04-18T06:20:16.058Z</time></trkpt><trkpt lat="40.663101" lon="14.6804127"><ele>683.5714285714286</ele><time>2026-04-18T06:20:28.058Z</time></trkpt><trkpt lat="40.6630416" lon="14.6803799"><ele>685.0</ele><time>2026-04-18T06:20:38.058Z</time></trkpt><trkpt lat="40.6630053" lon="14.6803024"><ele>691.8571428571428</ele><time>2026-04-18T06:20:46.058Z</time></trkpt><trkpt lat="40.6629711" lon="14.680227"><ele>698.7142857142858</ele><time>2026-04-18T06:20:54.058Z</time></trkpt><trkpt lat="40.6629694" lon="14.6801366"><ele>705.5714285714286</ele><time>2026-04-18T06:21:01.058Z</time></trkpt><trkpt lat="40.662956" lon="14.6800521"><ele>712.4285714285713</ele><time>2026-04-18T06:21:09.058Z</time></trkpt><trkpt lat="40.6629342" lon="14.6799731"><ele>719.2857142857142</ele><time>2026-04-18T06:21:18.058Z</time></trkpt><trkpt lat="40.6629293" lon="14.6798796"><ele>726.1428571428571</ele><time>2026-04-18T06:21:26.058Z</time></trkpt><trkpt lat="40.6628923" lon="14.67981"><ele>733.0</ele><time>2026-04-18T06:21:33.058Z</time></trkpt><trkpt lat="40.6628726" lon="14.6797271"><ele>732.9999999999999</ele><time>2026-04-18T06:21:44.059Z</time></trkpt><trkpt lat="40.662826" lon="14.6796584"><ele>733.0</ele><time>2026-04-18T06:22:04.059Z</time></trkpt><trkpt lat="40.6627775" lon="14.6795971"><ele>733.0</ele><time>2026-04-18T06:22:12.058Z</time></trkpt><trkpt lat="40.6627204" lon="14.6795445"><ele>733.0</ele><time>2026-04-18T06:22:21.058Z</time></trkpt><trkpt lat="40.6626644" lon="14.6795054"><ele>733.0</ele><time>2026-04-18T06:22:28.058Z</time></trkpt><trkpt lat="40.6625965" lon="14.6794831"><ele>732.9999999999999</ele><time>2026-04-18T06:22:36.058Z</time></trkpt><trkpt lat="40.6625651" lon="14.6794032"><ele>733.0</ele><time>2026-04-18T06:22:46.058Z</time></trkpt><trkpt lat="40.6625849" lon="14.6793117"><ele>732.7142857142857</ele><time>2026-04-18T06:22:53.058Z</time></trkpt><trkpt lat="40.6626427" lon="14.6792721"><ele>732.4285714285714</ele><time>2026-04-18T06:23:01.058Z</time></trkpt><trkpt lat="40.6626954" lon="14.6792218"><ele>732.1428571428571</ele><time>2026-04-18T06:23:10.058Z</time></trkpt><trkpt lat="40.6627636" lon="14.6792374"><ele>731.8571428571429</ele><time>2026-04-18T06:23:25.058Z</time></trkpt><trkpt lat="40.6628338" lon="14.6792329"><ele>731.5714285714286</ele><time>2026-04-18T06:23:36.058Z</time></trkpt><trkpt lat="40.662848" lon="14.6791478"><ele>731.2857142857142</ele><time>2026-04-18T06:25:43.058Z</time></trkpt><trkpt lat="40.6628706" lon="14.6790632"><ele>731.0</ele><time>2026-04-18T06:25:49.058Z</time></trkpt><trkpt lat="40.6628852" lon="14.678976"><ele>736.5714285714286</ele><time>2026-04-18T06:25:55.058Z</time></trkpt><trkpt lat="40.6629283" lon="14.6788984"><ele>742.1428571428571</ele><time>2026-04-18T06:26:02.058Z</time></trkpt><trkpt lat="40.6629361" lon="14.6788072"><ele>747.7142857142858</ele><time>2026-04-18T06:26:08.058Z</time></trkpt><trkpt lat="40.662937" lon="14.6787144"><ele>753.2857142857142</ele><time>2026-04-18T06:26:13.058Z</time></trkpt><trkpt lat="40.6629424" lon="14.6786284"><ele>758.8571428571429</ele><time>2026-04-18T06:26:18.058Z</time></trkpt><trkpt lat="40.6629544" lon="14.6785385"><ele>764.4285714285714</ele><time>2026-04-18T06:26:24.058Z</time></trkpt><trkpt lat="40.6629741" lon="14.6784533"><ele>770.0</ele><time>2026-04-18T06:26:29.058Z</time></trkpt><trkpt lat="40.662996" lon="14.6783612"><ele>769.1428571428571</ele><time>2026-04-18T06:26:35.058Z</time></trkpt><trkpt lat="40.6629763" lon="14.6782728"><ele>768.2857142857142</ele><time>2026-04-18T06:26:40.058Z</time></trkpt><trkpt lat="40.6629464" lon="14.6781925"><ele>767.4285714285714</ele><time>2026-04-18T06:26:45.059Z</time></trkpt><trkpt lat="40.6628724" lon="14.6781818"><ele>766.5714285714286</ele><time>2026-04-18T06:26:49.058Z</time></trkpt><trkpt lat="40.6628109" lon="14.6781506"><ele>765.7142857142857</ele><time>2026-04-18T06:26:53.058Z</time></trkpt><trkpt lat="40.6627441" lon="14.678182"><ele>764.8571428571429</ele><time>2026-04-18T06:26:58.058Z</time></trkpt><trkpt lat="40.6626813" lon="14.6781908"><ele>764.0</ele><time>2026-04-18T06:27:05.058Z</time></trkpt><trkpt lat="40.6626704" lon="14.6781067"><ele>764.0</ele><time>2026-04-18T06:27:11.058Z</time></trkpt><trkpt lat="40.662643" lon="14.6780163"><ele>764.0</ele><time>2026-04-18T06:27:17.058Z</time></trkpt><trkpt lat="40.6626163" lon="14.6779398"><ele>764.0</ele><time>2026-04-18T06:27:23.058Z</time></trkpt><trkpt lat="40.6626158" lon="14.6778425"><ele>764.0</ele><time>2026-04-18T06:27:31.059Z</time></trkpt><trkpt lat="40.6626069" lon="14.6777503"><ele>764.0</ele><time>2026-04-18T06:27:36.058Z</time></trkpt><trkpt lat="40.6625686" lon="14.6776771"><ele>764.0</ele><time>2026-04-18T06:27:42.058Z</time></trkpt><trkpt lat="40.6625087" lon="14.6776148"><ele>764.0</ele><time>2026-04-18T06:27:50.058Z</time></trkpt><trkpt lat="40.6624412" lon="14.6776019"><ele>769.8571428571429</ele><time>2026-04-18T06:27:58.058Z</time></trkpt><trkpt lat="40.6623894" lon="14.6776496"><ele>775.7142857142857</ele><time>2026-04-18T06:28:05.058Z</time></trkpt><trkpt lat="40.6623128" lon="14.6776968"><ele>781.5714285714286</ele><time>2026-04-18T06:29:43.058Z</time></trkpt><trkpt lat="40.662244" lon="14.677723"><ele>787.4285714285714</ele><time>2026-04-18T06:29:52.058Z</time></trkpt><trkpt lat="40.6621904" lon="14.6776781"><ele>793.2857142857142</ele><time>2026-04-18T06:29:58.058Z</time></trkpt><trkpt lat="40.6621373" lon="14.6776334"><ele>799.1428571428571</ele><time>2026-04-18T06:30:07.058Z</time></trkpt><trkpt lat="40.6620721" lon="14.6776645"><ele>805.0</ele><time>2026-04-18T06:30:16.059Z</time></trkpt><trkpt lat="40.6620241" lon="14.6777211"><ele>805.0</ele><time>2026-04-18T06:30:29.059Z</time></trkpt><trkpt lat="40.6619601" lon="14.6777099"><ele>805.0</ele><time>2026-04-18T06:30:37.058Z</time></trkpt><trkpt lat="40.6618934" lon="14.6777125"><ele>805.0</ele><time>2026-04-18T06:30:46.058Z</time></trkpt><trkpt lat="40.6618413" lon="14.6776642"><ele>805.0</ele><time>2026-04-18T06:30:53.058Z</time></trkpt><trkpt lat="40.6618055" lon="14.6775881"><ele>805.0</ele><time>2026-04-18T06:31:00.058Z</time></trkpt><trkpt lat="40.6618197" lon="14.6775069"><ele>805.0</ele><time>2026-04-18T06:31:06.058Z</time></trkpt><trkpt lat="40.6618355" lon="14.67742"><ele>805.0</ele><time>2026-04-18T06:31:12.058Z</time></trkpt><trkpt lat="40.6618095" lon="14.6773421"><ele>802.0</ele><time>2026-04-18T06:31:19.058Z</time></trkpt><trkpt lat="40.6617602" lon="14.6772881"><ele>799.0</ele><time>2026-04-18T06:31:26.058Z</time></trkpt><trkpt lat="40.6617383" lon="14.6772059"><ele>796.0</ele><time>2026-04-18T06:31:33.058Z</time></trkpt><trkpt lat="40.6617272" lon="14.6771192"><ele>793.0</ele><time>2026-04-18T06:31:39.058Z</time></trkpt><trkpt lat="40.6616883" lon="14.677052"><ele>790.0</ele><time>2026-04-18T06:31:44.058Z</time></trkpt><trkpt lat="40.6616438" lon="14.6769641"><ele>787.0</ele><time>2026-04-18T06:31:50.058Z</time></trkpt><trkpt lat="40.661611" lon="14.6768848"><ele>784.0</ele><time>2026-04-18T06:32:00.058Z</time></trkpt><trkpt lat="40.6615533" lon="14.6768483"><ele>790.5714285714286</ele><time>2026-04-18T06:32:08.058Z</time></trkpt><trkpt lat="40.6614982" lon="14.6767814"><ele>797.1428571428571</ele><time>2026-04-18T06:32:13.058Z</time></trkpt><trkpt lat="40.6614627" lon="14.6767027"><ele>803.7142857142858</ele><time>2026-04-18T06:32:17.058Z</time></trkpt><trkpt lat="40.6614214" lon="14.6765995"><ele>810.2857142857142</ele><time>2026-04-18T06:32:23.058Z</time></trkpt><trkpt lat="40.6613592" lon="14.6765621"><ele>816.8571428571429</ele><time>2026-04-18T06:32:31.058Z</time></trkpt><trkpt lat="40.661302" lon="14.6765185"><ele>823.4285714285714</ele><time>2026-04-18T06:32:38.058Z</time></trkpt><trkpt lat="40.6612372" lon="14.6765107"><ele>830.0</ele><time>2026-04-18T06:32:46.059Z</time></trkpt><trkpt lat="40.6611688" lon="14.6765327"><ele>829.4285714285714</ele><time>2026-04-18T06:32:55.058Z</time></trkpt><trkpt lat="40.6611084" lon="14.6765083"><ele>828.8571428571429</ele><time>2026-04-18T06:33:03.058Z</time></trkpt><trkpt lat="40.6610434" lon="14.6765167"><ele>828.2857142857142</ele><time>2026-04-18T06:33:13.058Z</time></trkpt><trkpt lat="40.66098" lon="14.6765094"><ele>827.7142857142858</ele><time>2026-04-18T06:34:49.058Z</time></trkpt><trkpt lat="40.6609208" lon="14.6765661"><ele>827.1428571428571</ele><time>2026-04-18T06:34:55.058Z</time></trkpt><trkpt lat="40.6609375" lon="14.6766468"><ele>826.5714285714286</ele><time>2026-04-18T06:35:01.058Z</time></trkpt><trkpt lat="40.6609567" lon="14.6767332"><ele>826.0</ele><time>2026-04-18T06:35:09.058Z</time></trkpt><trkpt lat="40.6609038" lon="14.676789"><ele>826.0</ele><time>2026-04-18T06:35:13.058Z</time></trkpt><trkpt lat="40.6608455" lon="14.6768281"><ele>826.0</ele><time>2026-04-18T06:35:17.058Z</time></trkpt><trkpt lat="40.6607714" lon="14.6768226"><ele>826.0</ele><time>2026-04-18T06:35:22.058Z</time></trkpt><trkpt lat="40.6607166" lon="14.676779"><ele>826.0</ele><time>2026-04-18T06:35:26.058Z</time></trkpt><trkpt lat="40.6606526" lon="14.6767299"><ele>826.0</ele><time>2026-04-18T06:35:31.058Z</time></trkpt><trkpt lat="40.6605826" lon="14.676751"><ele>826.0</ele><time>2026-04-18T06:35:37.058Z</time></trkpt><trkpt lat="40.6605162" lon="14.6767797"><ele>826.0</ele><time>2026-04-18T06:35:44.058Z</time></trkpt><trkpt lat="40.6604506" lon="14.6767813"><ele>826.0</ele><time>2026-04-18T06:35:50.058Z</time></trkpt><trkpt lat="40.660391" lon="14.6768123"><ele>826.0</ele><time>2026-04-18T06:35:59.058Z</time></trkpt><trkpt lat="40.6603266" lon="14.6768315"><ele>826.0</ele><time>2026-04-18T06:36:10.059Z</time></trkpt><trkpt lat="40.6602787" lon="14.6767541"><ele>826.0</ele><time>2026-04-18T06:36:18.058Z</time></trkpt><trkpt lat="40.6602412" lon="14.6766808"><ele>826.0</ele><time>2026-04-18T06:36:24.058Z</time></trkpt><trkpt lat="40.6602266" lon="14.6765855"><ele>826.0</ele><time>2026-04-18T06:36:32.058Z</time></trkpt><trkpt lat="40.6602183" lon="14.676502"><ele>826.0</ele><time>2026-04-18T06:36:38.058Z</time></trkpt><trkpt lat="40.6602453" lon="14.6764157"><ele>826.0</ele><time>2026-04-18T06:36:43.058Z</time></trkpt><trkpt lat="40.6602587" lon="14.6763178"><ele>826.0</ele><time>2026-04-18T06:36:49.058Z</time></trkpt><trkpt lat="40.6602777" lon="14.6762227"><ele>826.0</ele><time>2026-04-18T06:36:55.058Z</time></trkpt><trkpt lat="40.6603088" lon="14.6761446"><ele>826.0</ele><time>2026-04-18T06:37:02.058Z</time></trkpt><trkpt lat="40.6603187" lon="14.67606"><ele>826.0</ele><time>2026-04-18T06:37:11.058Z</time></trkpt><trkpt lat="40.6603419" lon="14.6759729"><ele>826.0</ele><time>2026-04-18T06:37:18.058Z</time></trkpt><trkpt lat="40.6603414" lon="14.675885"><ele>826.0</ele><time>2026-04-18T06:37:27.058Z</time></trkpt><trkpt lat="40.6603656" lon="14.6757958"><ele>826.7142857142857</ele><time>2026-04-18T06:37:33.058Z</time></trkpt><trkpt lat="40.6603945" lon="14.6757161"><ele>827.4285714285714</ele><time>2026-04-18T06:37:41.058Z</time></trkpt><trkpt lat="40.6603786" lon="14.6756348"><ele>828.1428571428571</ele><time>2026-04-18T06:37:53.058Z</time></trkpt><trkpt lat="40.6603332" lon="14.6755711"><ele>828.8571428571429</ele><time>2026-04-18T06:38:17.058Z</time></trkpt><trkpt lat="40.660268" lon="14.6755458"><ele>829.5714285714286</ele><time>2026-04-18T06:38:25.058Z</time></trkpt><trkpt lat="40.6602007" lon="14.6755311"><ele>830.2857142857142</ele><time>2026-04-18T06:38:32.058Z</time></trkpt><trkpt lat="40.6601381" lon="14.675489"><ele>831.0</ele><time>2026-04-18T06:38:38.058Z</time></trkpt><trkpt lat="40.6601406" lon="14.6754043"><ele>830.9999999999999</ele><time>2026-04-18T06:38:48.058Z</time></trkpt><trkpt lat="40.6601976" lon="14.675358"><ele>831.0</ele><time>2026-04-18T06:38:55.058Z</time></trkpt><trkpt lat="40.660261" lon="14.675329"><ele>831.0</ele><time>2026-04-18T06:39:03.058Z</time></trkpt><trkpt lat="40.6603201" lon="14.6752904"><ele>831.0</ele><time>2026-04-18T06:39:13.058Z</time></trkpt><trkpt lat="40.6603842" lon="14.6752425"><ele>831.0</ele><time>2026-04-18T06:39:21.058Z</time></trkpt><trkpt lat="40.6604431" lon="14.6752073"><ele>830.9999999999999</ele><time>2026-04-18T06:39:29.058Z</time></trkpt><trkpt lat="40.6604964" lon="14.6751609"><ele>831.0</ele><time>2026-04-18T06:39:39.058Z</time></trkpt><trkpt lat="40.6605512" lon="14.6751091"><ele>838.8571428571428</ele><time>2026-04-18T06:39:48.058Z</time></trkpt><trkpt lat="40.6605848" lon="14.6750388"><ele>846.7142857142857</ele><time>2026-04-18T06:40:06.058Z</time></trkpt><trkpt lat="40.6606563" lon="14.6750191"><ele>854.5714285714286</ele><time>2026-04-18T06:40:15.058Z</time></trkpt><trkpt lat="40.6607229" lon="14.6750003"><ele>862.4285714285713</ele><time>2026-04-18T06:40:21.058Z</time></trkpt><trkpt lat="40.6606577" lon="14.6750037"><ele>870.2857142857143</ele><time>2026-04-18T06:41:11.058Z</time></trkpt><trkpt lat="40.660593" lon="14.6749685"><ele>878.1428571428571</ele><time>2026-04-18T06:41:21.059Z</time></trkpt><trkpt lat="40.6605657" lon="14.6748879"><ele>886.0</ele><time>2026-04-18T06:41:33.059Z</time></trkpt><trkpt lat="40.6605772" lon="14.6747976"><ele>886.0</ele><time>2026-04-18T06:41:40.058Z</time></trkpt><trkpt lat="40.6606032" lon="14.6747198"><ele>886.0</ele><time>2026-04-18T06:41:50.058Z</time></trkpt><trkpt lat="40.6605647" lon="14.6746073"><ele>886.0</ele><time>2026-04-18T06:42:06.058Z</time></trkpt><trkpt lat="40.660566" lon="14.6745226"><ele>886.0</ele><time>2026-04-18T06:42:13.058Z</time></trkpt><trkpt lat="40.6605623" lon="14.6744331"><ele>886.0</ele><time>2026-04-18T06:42:20.058Z</time></trkpt><trkpt lat="40.6605667" lon="14.6743473"><ele>886.0</ele><time>2026-04-18T06:42:26.058Z</time></trkpt><trkpt lat="40.6605863" lon="14.6742601"><ele>886.0</ele><time>2026-04-18T06:42:32.058Z</time></trkpt><trkpt lat="40.660588" lon="14.6741715"><ele>889.0</ele><time>2026-04-18T06:42:39.058Z</time></trkpt><trkpt lat="40.6605833" lon="14.6740734"><ele>892.0</ele><time>2026-04-18T06:42:45.059Z</time></trkpt><trkpt lat="40.6605773" lon="14.6739852"><ele>895.0</ele><time>2026-04-18T06:42:51.058Z</time></trkpt><trkpt lat="40.6604928" lon="14.6739061"><ele>898.0</ele><time>2026-04-18T06:43:27.058Z</time></trkpt><trkpt lat="40.6604388" lon="14.673861"><ele>901.0</ele><time>2026-04-18T06:43:37.058Z</time></trkpt><trkpt lat="40.6603972" lon="14.6737935"><ele>904.0000000000001</ele><time>2026-04-18T06:43:49.058Z</time></trkpt><trkpt lat="40.6603697" lon="14.6737058"><ele>907.0000000000001</ele><time>2026-04-18T06:43:56.058Z</time></trkpt><trkpt lat="40.660333" lon="14.6736238"><ele>905.1428571428572</ele><time>2026-04-18T06:44:02.058Z</time></trkpt><trkpt lat="40.6602932" lon="14.673558"><ele>903.2857142857143</ele><time>2026-04-18T06:44:07.058Z</time></trkpt><trkpt lat="40.660224" lon="14.6735661"><ele>901.4285714285714</ele><time>2026-04-18T06:44:13.058Z</time></trkpt><trkpt lat="40.6601584" lon="14.6735491"><ele>899.5714285714287</ele><time>2026-04-18T06:44:19.058Z</time></trkpt><trkpt lat="40.6600962" lon="14.673533"><ele>897.7142857142858</ele><time>2026-04-18T06:44:25.058Z</time></trkpt><trkpt lat="40.6600506" lon="14.6734695"><ele>895.8571428571428</ele><time>2026-04-18T06:44:32.058Z</time></trkpt><trkpt lat="40.6600349" lon="14.6733734"><ele>894.0</ele><time>2026-04-18T06:44:41.058Z</time></trkpt><trkpt lat="40.6599909" lon="14.6732885"><ele>893.2857142857142</ele><time>2026-04-18T06:44:47.058Z</time></trkpt><trkpt lat="40.6599398" lon="14.6732389"><ele>892.5714285714286</ele><time>2026-04-18T06:44:54.058Z</time></trkpt><trkpt lat="40.6598848" lon="14.6731761"><ele>891.8571428571429</ele><time>2026-04-18T06:45:01.058Z</time></trkpt><trkpt lat="40.6598486" lon="14.6730968"><ele>891.1428571428571</ele><time>2026-04-18T06:45:06.058Z</time></trkpt><trkpt lat="40.6598197" lon="14.6730204"><ele>890.4285714285714</ele><time>2026-04-18T06:45:12.058Z</time></trkpt><trkpt lat="40.6597567" lon="14.6730046"><ele>889.7142857142857</ele><time>2026-04-18T06:45:18.058Z</time></trkpt><trkpt lat="40.6596852" lon="14.6729989"><ele>889.0</ele><time>2026-04-18T06:45:22.059Z</time></trkpt><trkpt lat="40.6596239" lon="14.6729655"><ele>889.0</ele><time>2026-04-18T06:45:26.058Z</time></trkpt><trkpt lat="40.6595554" lon="14.6729628"><ele>889.0</ele><time>2026-04-18T06:45:31.058Z</time></trkpt><trkpt lat="40.6594858" lon="14.6729342"><ele>889.0</ele><time>2026-04-18T06:45:37.058Z</time></trkpt><trkpt lat="40.6594274" lon="14.6728966"><ele>889.0</ele><time>2026-04-18T06:45:43.058Z</time></trkpt><trkpt lat="40.6593584" lon="14.6728765"><ele>889.0</ele><time>2026-04-18T06:45:50.058Z</time></trkpt><trkpt lat="40.659296" lon="14.6728549"><ele>889.0</ele><time>2026-04-18T06:45:56.058Z</time></trkpt><trkpt lat="40.6592254" lon="14.672841"><ele>889.0</ele><time>2026-04-18T06:46:03.058Z</time></trkpt><trkpt lat="40.6591632" lon="14.6728121"><ele>887.1666666666666</ele><time>2026-04-18T06:46:09.058Z</time></trkpt><trkpt lat="40.6590991" lon="14.6727814"><ele>885.3333333333333</ele><time>2026-04-18T06:46:15.058Z</time></trkpt><trkpt lat="40.6590354" lon="14.6727443"><ele>883.5</ele><time>2026-04-18T06:46:21.058Z</time></trkpt><trkpt lat="40.6588989" lon="14.6727469"><ele>881.6666666666667</ele><time>2026-04-18T06:47:43.058Z</time></trkpt><trkpt lat="40.6588298" lon="14.6727408"><ele>879.8333333333334</ele><time>2026-04-18T06:47:51.058Z</time></trkpt><trkpt lat="40.6587946" lon="14.6726547"><ele>878.0</ele><time>2026-04-18T06:47:58.058Z</time></trkpt><trkpt lat="40.6587515" lon="14.6725748"><ele>882.1428571428571</ele><time>2026-04-18T06:48:04.058Z</time></trkpt><trkpt lat="40.6587125" lon="14.6724977"><ele>886.2857142857142</ele><time>2026-04-18T06:48:10.058Z</time></trkpt><trkpt lat="40.6586575" lon="14.6724361"><ele>890.4285714285716</ele><time>2026-04-18T06:48:17.058Z</time></trkpt><trkpt lat="40.6585937" lon="14.672423"><ele>894.5714285714287</ele><time>2026-04-18T06:48:22.059Z</time></trkpt><trkpt lat="40.6585253" lon="14.6724345"><ele>898.7142857142858</ele><time>2026-04-18T06:48:26.059Z</time></trkpt><trkpt lat="40.6584532" lon="14.672428"><ele>902.857142857143</ele><time>2026-04-18T06:48:31.059Z</time></trkpt><trkpt lat="40.6583891" lon="14.6724263"><ele>907.0000000000001</ele><time>2026-04-18T06:48:42.06Z</time></trkpt><trkpt lat="40.6583231" lon="14.6724099"><ele>907.4285714285716</ele><time>2026-04-18T06:49:05.06Z</time></trkpt><trkpt lat="40.6582583" lon="14.6723888"><ele>907.8571428571429</ele><time>2026-04-18T06:49:13.059Z</time></trkpt><trkpt lat="40.658211" lon="14.672454"><ele>908.2857142857143</ele><time>2026-04-18T06:49:20.059Z</time></trkpt><trkpt lat="40.658149" lon="14.6724779"><ele>908.7142857142858</ele><time>2026-04-18T06:49:28.059Z</time></trkpt><trkpt lat="40.6580883" lon="14.6724477"><ele>909.1428571428571</ele><time>2026-04-18T06:49:34.059Z</time></trkpt><trkpt lat="40.658021" lon="14.6724273"><ele>909.5714285714286</ele><time>2026-04-18T06:49:41.059Z</time></trkpt><trkpt lat="40.6579642" lon="14.6723724"><ele>910.0</ele><time>2026-04-18T06:49:54.059Z</time></trkpt><trkpt lat="40.6579222" lon="14.6722972"><ele>910.0</ele><time>2026-04-18T06:50:01.059Z</time></trkpt><trkpt lat="40.6579306" lon="14.6722095"><ele>910.0</ele><time>2026-04-18T06:50:10.059Z</time></trkpt><trkpt lat="40.6579184" lon="14.672128"><ele>910.0</ele><time>2026-04-18T06:50:15.06Z</time></trkpt><trkpt lat="40.6578948" lon="14.6720391"><ele>910.0</ele><time>2026-04-18T06:50:21.059Z</time></trkpt><trkpt lat="40.6578368" lon="14.671987"><ele>910.0</ele><time>2026-04-18T06:50:26.059Z</time></trkpt><trkpt lat="40.6577887" lon="14.6719283"><ele>910.0</ele><time>2026-04-18T06:50:32.059Z</time></trkpt><trkpt lat="40.6577676" lon="14.6718455"><ele>910.0</ele><time>2026-04-18T06:50:37.059Z</time></trkpt><trkpt lat="40.6577391" lon="14.6717651"><ele>913.7142857142858</ele><time>2026-04-18T06:50:41.059Z</time></trkpt><trkpt lat="40.65771" lon="14.6716893"><ele>917.4285714285714</ele><time>2026-04-18T06:50:44.059Z</time></trkpt><trkpt lat="40.6576797" lon="14.6715805"><ele>921.1428571428571</ele><time>2026-04-18T06:50:50.059Z</time></trkpt><trkpt lat="40.6576151" lon="14.6716261"><ele>924.8571428571429</ele><time>2026-04-18T06:50:56.059Z</time></trkpt><trkpt lat="40.6575656" lon="14.6716842"><ele>928.5714285714287</ele><time>2026-04-18T06:51:00.059Z</time></trkpt><trkpt lat="40.6575039" lon="14.671729"><ele>932.2857142857143</ele><time>2026-04-18T06:51:04.059Z</time></trkpt><trkpt lat="40.6574373" lon="14.6717495"><ele>936.0</ele><time>2026-04-18T06:51:10.06Z</time></trkpt><trkpt lat="40.6573712" lon="14.671754"><ele>936.0</ele><time>2026-04-18T06:51:16.059Z</time></trkpt><trkpt lat="40.6573073" lon="14.6717815"><ele>936.0000000000001</ele><time>2026-04-18T06:51:22.059Z</time></trkpt><trkpt lat="40.6572423" lon="14.67181"><ele>936.0</ele><time>2026-04-18T06:51:29.059Z</time></trkpt><trkpt lat="40.6571776" lon="14.6717983"><ele>936.0</ele><time>2026-04-18T06:51:38.059Z</time></trkpt><trkpt lat="40.6571142" lon="14.6717484"><ele>936.0000000000001</ele><time>2026-04-18T06:51:44.059Z</time></trkpt><trkpt lat="40.6570498" lon="14.6717008"><ele>936.0</ele><time>2026-04-18T06:51:51.059Z</time></trkpt><trkpt lat="40.656982" lon="14.6716624"><ele>936.0</ele><time>2026-04-18T06:51:58.059Z</time></trkpt><trkpt lat="40.6569191" lon="14.6716542"><ele>935.4285714285714</ele><time>2026-04-18T06:52:05.059Z</time></trkpt><trkpt lat="40.6568475" lon="14.6716521"><ele>934.8571428571429</ele><time>2026-04-18T06:52:11.059Z</time></trkpt><trkpt lat="40.6567756" lon="14.6716346"><ele>934.2857142857143</ele><time>2026-04-18T06:52:17.059Z</time></trkpt><trkpt lat="40.6567124" lon="14.6716404"><ele>933.7142857142858</ele><time>2026-04-18T06:52:23.059Z</time></trkpt><trkpt lat="40.6566541" lon="14.671677"><ele>933.1428571428571</ele><time>2026-04-18T06:52:29.059Z</time></trkpt><trkpt lat="40.6565913" lon="14.6716956"><ele>932.5714285714287</ele><time>2026-04-18T06:52:34.059Z</time></trkpt><trkpt lat="40.6565267" lon="14.6716732"><ele>932.0</ele><time>2026-04-18T06:52:40.059Z</time></trkpt><trkpt lat="40.6564619" lon="14.6716564"><ele>932.0</ele><time>2026-04-18T06:52:45.059Z</time></trkpt><trkpt lat="40.6563993" lon="14.6716711"><ele>932.0</ele><time>2026-04-18T06:52:51.059Z</time></trkpt><trkpt lat="40.6563342" lon="14.6716846"><ele>932.0</ele><time>2026-04-18T06:52:59.06Z</time></trkpt><trkpt lat="40.6562761" lon="14.6716469"><ele>932.0</ele><time>2026-04-18T06:53:06.059Z</time></trkpt><trkpt lat="40.6562154" lon="14.6716211"><ele>932.0</ele><time>2026-04-18T06:53:12.059Z</time></trkpt><trkpt lat="40.6561475" lon="14.6716095"><ele>932.0</ele><time>2026-04-18T06:53:21.059Z</time></trkpt><trkpt lat="40.6561031" lon="14.671532"><ele>932.0</ele><time>2026-04-18T06:53:32.059Z</time></trkpt><trkpt lat="40.6560459" lon="14.6714882"><ele>932.5714285714287</ele><time>2026-04-18T06:53:48.059Z</time></trkpt><trkpt lat="40.6559931" lon="14.6714399"><ele>933.1428571428571</ele><time>2026-04-18T06:54:03.059Z</time></trkpt><trkpt lat="40.6559553" lon="14.6713718"><ele>933.7142857142858</ele><time>2026-04-18T06:54:14.06Z</time></trkpt><trkpt lat="40.6559646" lon="14.6712725"><ele>934.2857142857143</ele><time>2026-04-18T06:54:31.059Z</time></trkpt><trkpt lat="40.6559161" lon="14.6711667"><ele>934.8571428571429</ele><time>2026-04-18T06:54:50.059Z</time></trkpt><trkpt lat="40.6559217" lon="14.6710767"><ele>935.4285714285714</ele><time>2026-04-18T06:55:17.059Z</time></trkpt><trkpt lat="40.6559931" lon="14.6710551"><ele>936.0</ele><time>2026-04-18T06:55:18.059Z</time></trkpt><trkpt lat="40.6560078" lon="14.6709724"><ele>936.0</ele><time>2026-04-18T06:55:37.059Z</time></trkpt><trkpt lat="40.6559481" lon="14.6709449"><ele>936.0</ele><time>2026-04-18T06:55:49.059Z</time></trkpt><trkpt lat="40.6558932" lon="14.670882"><ele>936.0</ele><time>2026-04-18T06:55:58.059Z</time></trkpt><trkpt lat="40.6558392" lon="14.6708285"><ele>936.0</ele><time>2026-04-18T06:56:05.059Z</time></trkpt><trkpt lat="40.6557407" lon="14.6707279"><ele>936.0</ele><time>2026-04-18T06:57:31.059Z</time></trkpt><trkpt lat="40.6556899" lon="14.670656"><ele>936.0</ele><time>2026-04-18T06:57:38.06Z</time></trkpt><trkpt lat="40.6556451" lon="14.6705777"><ele>936.0</ele><time>2026-04-18T06:57:44.059Z</time></trkpt><trkpt lat="40.6556043" lon="14.6705106"><ele>936.0000000000001</ele><time>2026-04-18T06:57:48.059Z</time></trkpt><trkpt lat="40.6555598" lon="14.6704488"><ele>936.0</ele><time>2026-04-18T06:57:57.06Z</time></trkpt><trkpt lat="40.655498" lon="14.6704253"><ele>936.0</ele><time>2026-04-18T06:58:08.059Z</time></trkpt><trkpt lat="40.6554344" lon="14.6704176"><ele>936.0000000000001</ele><time>2026-04-18T06:58:14.059Z</time></trkpt><trkpt lat="40.6553619" lon="14.6703953"><ele>936.0</ele><time>2026-04-18T06:58:33.059Z</time></trkpt><trkpt lat="40.65529" lon="14.6703945"><ele>936.0</ele><time>2026-04-18T06:58:41.059Z</time></trkpt><trkpt lat="40.6552108" lon="14.6703495"><ele>936.7142857142858</ele><time>2026-04-18T06:58:57.059Z</time></trkpt><trkpt lat="40.6551441" lon="14.670341"><ele>937.4285714285716</ele><time>2026-04-18T06:59:05.059Z</time></trkpt><trkpt lat="40.6550805" lon="14.6703209"><ele>938.1428571428571</ele><time>2026-04-18T06:59:12.059Z</time></trkpt><trkpt lat="40.6550158" lon="14.670332"><ele>938.8571428571429</ele><time>2026-04-18T06:59:21.059Z</time></trkpt><trkpt lat="40.6549365" lon="14.6703287"><ele>939.5714285714286</ele><time>2026-04-18T07:00:14.059Z</time></trkpt><trkpt lat="40.6548671" lon="14.6703017"><ele>940.2857142857142</ele><time>2026-04-18T07:00:20.059Z</time></trkpt><trkpt lat="40.6549011" lon="14.6702312"><ele>940.9999999999999</ele><time>2026-04-18T07:00:31.059Z</time></trkpt><trkpt lat="40.6548459" lon="14.6701811"><ele>935.4285714285713</ele><time>2026-04-18T07:00:41.059Z</time></trkpt><trkpt lat="40.6547796" lon="14.6701907"><ele>929.8571428571429</ele><time>2026-04-18T07:00:51.06Z</time></trkpt><trkpt lat="40.6547425" lon="14.6701083"><ele>924.2857142857142</ele><time>2026-04-18T07:00:58.059Z</time></trkpt><trkpt lat="40.6546782" lon="14.6701077"><ele>918.7142857142857</ele><time>2026-04-18T07:01:07.059Z</time></trkpt><trkpt lat="40.6546167" lon="14.6701359"><ele>913.1428571428571</ele><time>2026-04-18T07:01:18.059Z</time></trkpt><trkpt lat="40.6545667" lon="14.6700656"><ele>907.5714285714286</ele><time>2026-04-18T07:01:25.059Z</time></trkpt><trkpt lat="40.6545562" lon="14.669975"><ele>902.0</ele><time>2026-04-18T07:01:32.059Z</time></trkpt><trkpt lat="40.6545477" lon="14.6698886"><ele>902.0</ele><time>2026-04-18T07:01:45.059Z</time></trkpt><trkpt lat="40.6545663" lon="14.6698092"><ele>902.0</ele><time>2026-04-18T07:01:54.059Z</time></trkpt><trkpt lat="40.654504" lon="14.6698271"><ele>902.0</ele><time>2026-04-18T07:02:06.059Z</time></trkpt><trkpt lat="40.6545098" lon="14.669736"><ele>902.0</ele><time>2026-04-18T07:02:13.059Z</time></trkpt><trkpt lat="40.6544747" lon="14.669666"><ele>902.0</ele><time>2026-04-18T07:02:20.059Z</time></trkpt><trkpt lat="40.6544431" lon="14.6695757"><ele>902.0</ele><time>2026-04-18T07:02:28.059Z</time></trkpt><trkpt lat="40.6543858" lon="14.6695352"><ele>902.0</ele><time>2026-04-18T07:02:36.059Z</time></trkpt><trkpt lat="40.6544491" lon="14.6696104"><ele>902.0</ele><time>2026-04-18T07:03:23.059Z</time></trkpt><trkpt lat="40.6544884" lon="14.6696827"><ele>902.0</ele><time>2026-04-18T07:03:31.059Z</time></trkpt><trkpt lat="40.6545179" lon="14.6697591"><ele>902.0</ele><time>2026-04-18T07:03:38.059Z</time></trkpt><trkpt lat="40.654572" lon="14.6698111"><ele>902.0</ele><time>2026-04-18T07:03:51.059Z</time></trkpt><trkpt lat="40.6545961" lon="14.6698903"><ele>902.0</ele><time>2026-04-18T07:04:32.06Z</time></trkpt><trkpt lat="40.6546182" lon="14.6699701"><ele>902.0</ele><time>2026-04-18T07:04:47.059Z</time></trkpt><trkpt lat="40.6546156" lon="14.6700535"><ele>902.0</ele><time>2026-04-18T07:04:58.061Z</time></trkpt><trkpt lat="40.6546404" lon="14.6701365"><ele>902.0</ele><time>2026-04-18T07:05:10.06Z</time></trkpt><trkpt lat="40.6547026" lon="14.6701995"><ele>902.0</ele><time>2026-04-18T07:05:37.06Z</time></trkpt><trkpt lat="40.6547605" lon="14.6701633"><ele>902.0</ele><time>2026-04-18T07:05:49.061Z</time></trkpt><trkpt lat="40.6548377" lon="14.6701926"><ele>902.0</ele><time>2026-04-18T07:06:08.06Z</time></trkpt><trkpt lat="40.654901" lon="14.670179"><ele>902.0</ele><time>2026-04-18T07:06:18.06Z</time></trkpt><trkpt lat="40.6548716" lon="14.6702537"><ele>902.0</ele><time>2026-04-18T07:06:32.061Z</time></trkpt><trkpt lat="40.6549371" lon="14.6702407"><ele>902.0</ele><time>2026-04-18T07:07:03.061Z</time></trkpt><trkpt lat="40.6550076" lon="14.670281"><ele>906.8571428571429</ele><time>2026-04-18T07:07:16.06Z</time></trkpt><trkpt lat="40.6550722" lon="14.6702951"><ele>911.7142857142858</ele><time>2026-04-18T07:07:24.06Z</time></trkpt><trkpt lat="40.655136" lon="14.6703062"><ele>916.5714285714287</ele><time>2026-04-18T07:07:34.06Z</time></trkpt><trkpt lat="40.6551998" lon="14.6703339"><ele>921.4285714285714</ele><time>2026-04-18T07:07:41.06Z</time></trkpt><trkpt lat="40.6552684" lon="14.6703443"><ele>926.2857142857144</ele><time>2026-04-18T07:07:48.06Z</time></trkpt><trkpt lat="40.6553337" lon="14.6703598"><ele>931.1428571428572</ele><time>2026-04-18T07:07:56.06Z</time></trkpt><trkpt lat="40.6554042" lon="14.6703686"><ele>936.0</ele><time>2026-04-18T07:08:33.06Z</time></trkpt><trkpt lat="40.6554705" lon="14.6703916"><ele>936.0</ele><time>2026-04-18T07:08:39.06Z</time></trkpt><trkpt lat="40.6555252" lon="14.6704455"><ele>936.0000000000001</ele><time>2026-04-18T07:08:45.06Z</time></trkpt><trkpt lat="40.6555796" lon="14.6705078"><ele>936.0</ele><time>2026-04-18T07:08:51.06Z</time></trkpt><trkpt lat="40.6556343" lon="14.6705586"><ele>936.0</ele><time>2026-04-18T07:08:58.06Z</time></trkpt><trkpt lat="40.6556859" lon="14.6706208"><ele>936.0000000000001</ele><time>2026-04-18T07:09:04.061Z</time></trkpt><trkpt lat="40.6557382" lon="14.6706803"><ele>936.0</ele><time>2026-04-18T07:09:12.06Z</time></trkpt><trkpt lat="40.6557932" lon="14.6707233"><ele>936.0</ele><time>2026-04-18T07:09:20.06Z</time></trkpt><trkpt lat="40.6558448" lon="14.6707809"><ele>936.0</ele><time>2026-04-18T07:09:26.06Z</time></trkpt><trkpt lat="40.6558872" lon="14.6708542"><ele>936.0</ele><time>2026-04-18T07:09:33.06Z</time></trkpt><trkpt lat="40.6559358" lon="14.670923"><ele>936.0</ele><time>2026-04-18T07:09:41.06Z</time></trkpt><trkpt lat="40.6559774" lon="14.6710511"><ele>936.0</ele><time>2026-04-18T07:10:00.06Z</time></trkpt><trkpt lat="40.6559999" lon="14.6711376"><ele>936.0</ele><time>2026-04-18T07:10:08.06Z</time></trkpt><trkpt lat="40.6560026" lon="14.6712322"><ele>936.0</ele><time>2026-04-18T07:10:15.06Z</time></trkpt><trkpt lat="40.6559924" lon="14.6713193"><ele>935.4285714285714</ele><time>2026-04-18T07:10:21.06Z</time></trkpt><trkpt lat="40.6560286" lon="14.6713976"><ele>934.8571428571429</ele><time>2026-04-18T07:10:27.061Z</time></trkpt><trkpt lat="40.656078" lon="14.6714505"><ele>934.2857142857143</ele><time>2026-04-18T07:10:32.06Z</time></trkpt><trkpt lat="40.6561389" lon="14.671486"><ele>933.7142857142858</ele><time>2026-04-18T07:10:36.06Z</time></trkpt><trkpt lat="40.6561933" lon="14.6715469"><ele>933.1428571428571</ele><time>2026-04-18T07:10:41.06Z</time></trkpt><trkpt lat="40.6562527" lon="14.6715189"><ele>932.5714285714287</ele><time>2026-04-18T07:10:57.06Z</time></trkpt><trkpt lat="40.6562783" lon="14.6715953"><ele>932.0</ele><time>2026-04-18T07:11:03.06Z</time></trkpt><trkpt lat="40.656314" lon="14.6716644"><ele>932.0</ele><time>2026-04-18T07:11:08.06Z</time></trkpt><trkpt lat="40.6563808" lon="14.6716769"><ele>932.0</ele><time>2026-04-18T07:11:15.06Z</time></trkpt><trkpt lat="40.6564469" lon="14.6716772"><ele>932.0</ele><time>2026-04-18T07:11:22.06Z</time></trkpt><trkpt lat="40.6565132" lon="14.6716836"><ele>932.0</ele><time>2026-04-18T07:11:30.061Z</time></trkpt><trkpt lat="40.6565517" lon="14.6716152"><ele>932.0</ele><time>2026-04-18T07:11:39.06Z</time></trkpt><trkpt lat="40.6565808" lon="14.6716936"><ele>932.0</ele><time>2026-04-18T07:11:57.061Z</time></trkpt><trkpt lat="40.656652" lon="14.6717041"><ele>932.0</ele><time>2026-04-18T07:12:06.06Z</time></trkpt><trkpt lat="40.6567153" lon="14.6716928"><ele>932.0000000000001</ele><time>2026-04-18T07:12:11.06Z</time></trkpt><trkpt lat="40.6567732" lon="14.6716515"><ele>932.0</ele><time>2026-04-18T07:12:17.06Z</time></trkpt><trkpt lat="40.6568422" lon="14.6716547"><ele>932.0</ele><time>2026-04-18T07:12:25.06Z</time></trkpt><trkpt lat="40.6569128" lon="14.6716606"><ele>932.0</ele><time>2026-04-18T07:12:32.06Z</time></trkpt><trkpt lat="40.6569884" lon="14.6716486"><ele>932.0000000000001</ele><time>2026-04-18T07:12:38.06Z</time></trkpt><trkpt lat="40.6570798" lon="14.6716979"><ele>932.0</ele><time>2026-04-18T07:12:55.06Z</time></trkpt><trkpt lat="40.6571416" lon="14.6717428"><ele>932.5714285714287</ele><time>2026-04-18T07:13:01.06Z</time></trkpt><trkpt lat="40.6571965" lon="14.6717864"><ele>933.1428571428571</ele><time>2026-04-18T07:13:07.06Z</time></trkpt><trkpt lat="40.6572574" lon="14.6718147"><ele>933.7142857142858</ele><time>2026-04-18T07:13:14.06Z</time></trkpt><trkpt lat="40.6573244" lon="14.6718026"><ele>934.2857142857143</ele><time>2026-04-18T07:13:23.061Z</time></trkpt><trkpt lat="40.6574163" lon="14.6717907"><ele>934.8571428571429</ele><time>2026-04-18T07:14:00.061Z</time></trkpt><trkpt lat="40.6574829" lon="14.6718103"><ele>935.4285714285714</ele><time>2026-04-18T07:14:06.06Z</time></trkpt><trkpt lat="40.6575506" lon="14.6717966"><ele>936.0</ele><time>2026-04-18T07:14:15.06Z</time></trkpt><trkpt lat="40.6576216" lon="14.671819"><ele>936.0</ele><time>2026-04-18T07:14:23.06Z</time></trkpt><trkpt lat="40.657692" lon="14.6718413"><ele>936.0000000000001</ele><time>2026-04-18T07:14:30.06Z</time></trkpt><trkpt lat="40.6577416" lon="14.6718971"><ele>936.0</ele><time>2026-04-18T07:14:37.06Z</time></trkpt><trkpt lat="40.6577812" lon="14.6719732"><ele>936.0</ele><time>2026-04-18T07:14:47.06Z</time></trkpt><trkpt lat="40.657833" lon="14.6720391"><ele>936.0000000000001</ele><time>2026-04-18T07:14:54.06Z</time></trkpt><trkpt lat="40.6578895" lon="14.6720967"><ele>936.0</ele><time>2026-04-18T07:15:01.06Z</time></trkpt><trkpt lat="40.6579121" lon="14.6721807"><ele>936.0</ele><time>2026-04-18T07:15:07.06Z</time></trkpt><trkpt lat="40.6579342" lon="14.6722604"><ele>932.2857142857143</ele><time>2026-04-18T07:15:15.06Z</time></trkpt><trkpt lat="40.6579517" lon="14.6723421"><ele>928.5714285714287</ele><time>2026-04-18T07:15:24.06Z</time></trkpt><trkpt lat="40.6579736" lon="14.6724235"><ele>924.8571428571429</ele><time>2026-04-18T07:15:34.061Z</time></trkpt><trkpt lat="40.6580518" lon="14.6724327"><ele>921.1428571428571</ele><time>2026-04-18T07:22:57.061Z</time></trkpt><trkpt lat="40.658121" lon="14.6724404"><ele>917.4285714285714</ele><time>2026-04-18T07:23:05.061Z</time></trkpt><trkpt lat="40.6581954" lon="14.6724326"><ele>913.7142857142858</ele><time>2026-04-18T07:23:13.061Z</time></trkpt><trkpt lat="40.6582559" lon="14.6724013"><ele>910.0</ele><time>2026-04-18T07:23:20.062Z</time></trkpt><trkpt lat="40.6583244" lon="14.6723943"><ele>910.0</ele><time>2026-04-18T07:23:27.061Z</time></trkpt><trkpt lat="40.6583839" lon="14.6724454"><ele>910.0</ele><time>2026-04-18T07:23:35.062Z</time></trkpt><trkpt lat="40.658456" lon="14.6724464"><ele>910.0</ele><time>2026-04-18T07:23:43.061Z</time></trkpt><trkpt lat="40.6585276" lon="14.6724505"><ele>910.0</ele><time>2026-04-18T07:23:55.061Z</time></trkpt><trkpt lat="40.6585975" lon="14.6724418"><ele>910.0</ele><time>2026-04-18T07:24:02.061Z</time></trkpt><trkpt lat="40.6586652" lon="14.6724769"><ele>910.0</ele><time>2026-04-18T07:24:09.061Z</time></trkpt><trkpt lat="40.6587175" lon="14.6725334"><ele>910.0</ele><time>2026-04-18T07:24:14.062Z</time></trkpt><trkpt lat="40.6587817" lon="14.6725738"><ele>909.5714285714286</ele><time>2026-04-18T07:24:21.061Z</time></trkpt><trkpt lat="40.6588229" lon="14.6726379"><ele>909.1428571428571</ele><time>2026-04-18T07:24:26.061Z</time></trkpt><trkpt lat="40.6588636" lon="14.6727167"><ele>908.7142857142858</ele><time>2026-04-18T07:24:32.061Z</time></trkpt><trkpt lat="40.6589307" lon="14.6727348"><ele>908.2857142857143</ele><time>2026-04-18T07:24:41.061Z</time></trkpt><trkpt lat="40.6590043" lon="14.6727636"><ele>907.8571428571429</ele><time>2026-04-18T07:24:47.061Z</time></trkpt><trkpt lat="40.6590651" lon="14.6727938"><ele>907.4285714285716</ele><time>2026-04-18T07:24:52.061Z</time></trkpt><trkpt lat="40.6591242" lon="14.6728296"><ele>907.0000000000001</ele><time>2026-04-18T07:24:58.061Z</time></trkpt><trkpt lat="40.6591857" lon="14.6728531"><ele>904.4285714285716</ele><time>2026-04-18T07:25:04.061Z</time></trkpt><trkpt lat="40.659255" lon="14.6728595"><ele>901.8571428571429</ele><time>2026-04-18T07:25:09.061Z</time></trkpt><trkpt lat="40.6593274" lon="14.6728833"><ele>899.2857142857143</ele><time>2026-04-18T07:25:16.061Z</time></trkpt><trkpt lat="40.6593983" lon="14.6728956"><ele>896.7142857142858</ele><time>2026-04-18T07:25:22.061Z</time></trkpt><trkpt lat="40.6594685" lon="14.6729116"><ele>894.1428571428571</ele><time>2026-04-18T07:25:26.061Z</time></trkpt><trkpt lat="40.6595352" lon="14.6729397"><ele>891.5714285714286</ele><time>2026-04-18T07:25:31.061Z</time></trkpt><trkpt lat="40.6595956" lon="14.6729758"><ele>889.0</ele><time>2026-04-18T07:25:35.061Z</time></trkpt><trkpt lat="40.6596625" lon="14.6730089"><ele>889.0</ele><time>2026-04-18T07:25:41.061Z</time></trkpt><trkpt lat="40.6597238" lon="14.6730524"><ele>889.0</ele><time>2026-04-18T07:25:47.061Z</time></trkpt><trkpt lat="40.6597912" lon="14.6730988"><ele>889.0</ele><time>2026-04-18T07:25:53.061Z</time></trkpt><trkpt lat="40.6598531" lon="14.6731578"><ele>889.0</ele><time>2026-04-18T07:25:58.061Z</time></trkpt><trkpt lat="40.6598837" lon="14.6732305"><ele>889.0</ele><time>2026-04-18T07:26:03.062Z</time></trkpt><trkpt lat="40.6599443" lon="14.673257"><ele>889.0</ele><time>2026-04-18T07:26:09.061Z</time></trkpt><trkpt lat="40.6599915" lon="14.6733218"><ele>889.0</ele><time>2026-04-18T07:26:15.061Z</time></trkpt><trkpt lat="40.6600348" lon="14.6734016"><ele>889.0</ele><time>2026-04-18T07:26:20.061Z</time></trkpt><trkpt lat="40.6600546" lon="14.6734826"><ele>889.0</ele><time>2026-04-18T07:26:26.061Z</time></trkpt><trkpt lat="40.6601076" lon="14.6735428"><ele>889.0</ele><time>2026-04-18T07:26:33.061Z</time></trkpt><trkpt lat="40.6601787" lon="14.6735561"><ele>889.0</ele><time>2026-04-18T07:26:38.061Z</time></trkpt><trkpt lat="40.6602398" lon="14.6735844"><ele>889.0</ele><time>2026-04-18T07:26:44.062Z</time></trkpt><trkpt lat="40.6603109" lon="14.6736246"><ele>889.0</ele><time>2026-04-18T07:26:50.062Z</time></trkpt><trkpt lat="40.6603641" lon="14.673675"><ele>889.0</ele><time>2026-04-18T07:26:54.063Z</time></trkpt><trkpt lat="40.6603824" lon="14.6737661"><ele>891.5714285714286</ele><time>2026-04-18T07:26:59.062Z</time></trkpt><trkpt lat="40.6604232" lon="14.6738384"><ele>894.1428571428571</ele><time>2026-04-18T07:27:06.062Z</time></trkpt><trkpt lat="40.6604796" lon="14.6738781"><ele>896.7142857142858</ele><time>2026-04-18T07:27:14.062Z</time></trkpt><trkpt lat="40.6605231" lon="14.6739474"><ele>899.2857142857143</ele><time>2026-04-18T07:27:24.062Z</time></trkpt><trkpt lat="40.6605413" lon="14.6740383"><ele>901.8571428571429</ele><time>2026-04-18T07:27:31.062Z</time></trkpt><trkpt lat="40.6605532" lon="14.6741253"><ele>904.4285714285716</ele><time>2026-04-18T07:27:37.062Z</time></trkpt><trkpt lat="40.6605604" lon="14.6742089"><ele>907.0000000000001</ele><time>2026-04-18T07:27:42.062Z</time></trkpt><trkpt lat="40.6605418" lon="14.674302"><ele>907.0000000000001</ele><time>2026-04-18T07:27:47.063Z</time></trkpt><trkpt lat="40.6605625" lon="14.6743941"><ele>907.0</ele><time>2026-04-18T07:27:53.062Z</time></trkpt><trkpt lat="40.66057" lon="14.6744938"><ele>907.0000000000001</ele><time>2026-04-18T07:27:58.063Z</time></trkpt><trkpt lat="40.6605829" lon="14.6745916"><ele>907.0000000000001</ele><time>2026-04-18T07:28:03.062Z</time></trkpt><trkpt lat="40.660603" lon="14.6746796"><ele>907.0</ele><time>2026-04-18T07:28:09.062Z</time></trkpt><trkpt lat="40.6606147" lon="14.6747686"><ele>907.0000000000001</ele><time>2026-04-18T07:28:17.062Z</time></trkpt><trkpt lat="40.6606531" lon="14.6748463"><ele>907.0000000000001</ele><time>2026-04-18T07:28:29.062Z</time></trkpt><trkpt lat="40.6606816" lon="14.6749253"><ele>904.0000000000001</ele><time>2026-04-18T07:28:41.062Z</time></trkpt><trkpt lat="40.6607349" lon="14.674977"><ele>901.0</ele><time>2026-04-18T07:28:51.062Z</time></trkpt><trkpt lat="40.6606496" lon="14.6750078"><ele>898.0</ele><time>2026-04-18T07:29:01.062Z</time></trkpt><trkpt lat="40.6605989" lon="14.6750658"><ele>895.0</ele><time>2026-04-18T07:29:07.062Z</time></trkpt><trkpt lat="40.6605716" lon="14.6751551"><ele>892.0</ele><time>2026-04-18T07:29:18.062Z</time></trkpt><trkpt lat="40.6605242" lon="14.6752285"><ele>889.0</ele><time>2026-04-18T07:29:23.062Z</time></trkpt><trkpt lat="40.6604672" lon="14.6752836"><ele>886.0</ele><time>2026-04-18T07:29:29.062Z</time></trkpt><trkpt lat="40.6604095" lon="14.6753217"><ele>882.5714285714286</ele><time>2026-04-18T07:29:35.062Z</time></trkpt><trkpt lat="40.6603388" lon="14.6753454"><ele>879.1428571428571</ele><time>2026-04-18T07:29:44.063Z</time></trkpt><trkpt lat="40.6602662" lon="14.6753457"><ele>875.7142857142858</ele><time>2026-04-18T07:29:50.062Z</time></trkpt><trkpt lat="40.6602945" lon="14.6754231"><ele>872.2857142857142</ele><time>2026-04-18T07:30:05.062Z</time></trkpt><trkpt lat="40.6603455" lon="14.6754847"><ele>868.8571428571428</ele><time>2026-04-18T07:30:16.062Z</time></trkpt><trkpt lat="40.6604096" lon="14.6754939"><ele>865.4285714285714</ele><time>2026-04-18T07:30:24.063Z</time></trkpt><trkpt lat="40.6604339" lon="14.6756155"><ele>862.0</ele><time>2026-04-18T07:30:39.062Z</time></trkpt><trkpt lat="40.660427" lon="14.6757045"><ele>862.0</ele><time>2026-04-18T07:30:45.062Z</time></trkpt><trkpt lat="40.6603966" lon="14.6758027"><ele>862.0</ele><time>2026-04-18T07:30:52.062Z</time></trkpt><trkpt lat="40.6603723" lon="14.6758909"><ele>862.0</ele><time>2026-04-18T07:30:58.062Z</time></trkpt><trkpt lat="40.6603727" lon="14.6759856"><ele>862.0</ele><time>2026-04-18T07:31:05.062Z</time></trkpt><trkpt lat="40.6603491" lon="14.6760736"><ele>862.0</ele><time>2026-04-18T07:31:10.062Z</time></trkpt><trkpt lat="40.6603324" lon="14.6761576"><ele>862.0</ele><time>2026-04-18T07:31:14.062Z</time></trkpt><trkpt lat="40.6603037" lon="14.6762378"><ele>862.0</ele><time>2026-04-18T07:31:19.062Z</time></trkpt><trkpt lat="40.6602904" lon="14.67633"><ele>856.8571428571429</ele><time>2026-04-18T07:31:26.062Z</time></trkpt><trkpt lat="40.6602691" lon="14.6764104"><ele>851.7142857142857</ele><time>2026-04-18T07:31:31.062Z</time></trkpt><trkpt lat="40.6602446" lon="14.6765042"><ele>846.5714285714286</ele><time>2026-04-18T07:31:37.062Z</time></trkpt><trkpt lat="40.6602367" lon="14.6765989"><ele>841.4285714285714</ele><time>2026-04-18T07:31:42.062Z</time></trkpt><trkpt lat="40.6602708" lon="14.6766853"><ele>836.2857142857142</ele><time>2026-04-18T07:31:48.062Z</time></trkpt><trkpt lat="40.6603171" lon="14.676745"><ele>831.1428571428571</ele><time>2026-04-18T07:31:52.062Z</time></trkpt><trkpt lat="40.6603648" lon="14.6768012"><ele>826.0</ele><time>2026-04-18T07:31:56.062Z</time></trkpt><trkpt lat="40.6604304" lon="14.6768233"><ele>826.0</ele><time>2026-04-18T07:32:06.062Z</time></trkpt><trkpt lat="40.6604989" lon="14.676797"><ele>826.0</ele><time>2026-04-18T07:32:14.062Z</time></trkpt><trkpt lat="40.6605623" lon="14.6767833"><ele>826.0</ele><time>2026-04-18T07:32:25.062Z</time></trkpt><trkpt lat="40.6606292" lon="14.6767675"><ele>826.0</ele><time>2026-04-18T07:32:30.062Z</time></trkpt><trkpt lat="40.6607019" lon="14.6767915"><ele>826.0</ele><time>2026-04-18T07:32:35.062Z</time></trkpt><trkpt lat="40.6607664" lon="14.6768225"><ele>826.0</ele><time>2026-04-18T07:32:41.062Z</time></trkpt><trkpt lat="40.6608427" lon="14.6768055"><ele>826.0</ele><time>2026-04-18T07:32:47.062Z</time></trkpt><trkpt lat="40.6608948" lon="14.6767479"><ele>825.9999999999999</ele><time>2026-04-18T07:32:51.062Z</time></trkpt><trkpt lat="40.6609058" lon="14.6766614"><ele>826.0</ele><time>2026-04-18T07:32:57.062Z</time></trkpt><trkpt lat="40.6608995" lon="14.6765769"><ele>826.0</ele><time>2026-04-18T07:33:08.062Z</time></trkpt><trkpt lat="40.6609472" lon="14.6765206"><ele>826.0</ele><time>2026-04-18T07:33:14.063Z</time></trkpt><trkpt lat="40.6610045" lon="14.6764697"><ele>825.9999999999999</ele><time>2026-04-18T07:33:20.063Z</time></trkpt><trkpt lat="40.6611155" lon="14.6764264"><ele>826.0</ele><time>2026-04-18T07:34:14.062Z</time></trkpt><trkpt lat="40.6611841" lon="14.6764592"><ele>826.5714285714286</ele><time>2026-04-18T07:34:19.062Z</time></trkpt><trkpt lat="40.6612474" lon="14.6764444"><ele>827.1428571428571</ele><time>2026-04-18T07:34:27.063Z</time></trkpt><trkpt lat="40.6613202" lon="14.6764728"><ele>827.7142857142858</ele><time>2026-04-18T07:34:33.062Z</time></trkpt><trkpt lat="40.661369" lon="14.6765524"><ele>828.2857142857142</ele><time>2026-04-18T07:34:38.062Z</time></trkpt><trkpt lat="40.6614108" lon="14.6766348"><ele>828.8571428571429</ele><time>2026-04-18T07:34:43.062Z</time></trkpt><trkpt lat="40.6614582" lon="14.6767034"><ele>829.4285714285714</ele><time>2026-04-18T07:34:48.062Z</time></trkpt><trkpt lat="40.6615016" lon="14.6767814"><ele>830.0</ele><time>2026-04-18T07:34:53.062Z</time></trkpt><trkpt lat="40.6615457" lon="14.6768474"><ele>823.4285714285714</ele><time>2026-04-18T07:34:58.062Z</time></trkpt><trkpt lat="40.6615704" lon="14.6769359"><ele>816.8571428571429</ele><time>2026-04-18T07:35:05.062Z</time></trkpt><trkpt lat="40.6616051" lon="14.677016"><ele>810.2857142857142</ele><time>2026-04-18T07:35:15.062Z</time></trkpt><trkpt lat="40.6616455" lon="14.6770946"><ele>803.7142857142858</ele><time>2026-04-18T07:35:21.062Z</time></trkpt><trkpt lat="40.6616667" lon="14.6771847"><ele>797.1428571428571</ele><time>2026-04-18T07:35:26.062Z</time></trkpt><trkpt lat="40.6616974" lon="14.6772661"><ele>790.5714285714286</ele><time>2026-04-18T07:35:32.062Z</time></trkpt><trkpt lat="40.6617477" lon="14.6773298"><ele>784.0</ele><time>2026-04-18T07:35:38.062Z</time></trkpt><trkpt lat="40.6617821" lon="14.6774159"><ele>784.0</ele><time>2026-04-18T07:35:44.062Z</time></trkpt><trkpt lat="40.6618039" lon="14.6775065"><ele>784.0</ele><time>2026-04-18T07:35:50.063Z</time></trkpt><trkpt lat="40.6618115" lon="14.6775914"><ele>784.0</ele><time>2026-04-18T07:35:57.062Z</time></trkpt><trkpt lat="40.6618528" lon="14.6776649"><ele>784.0</ele><time>2026-04-18T07:38:24.062Z</time></trkpt><trkpt lat="40.6619143" lon="14.6776925"><ele>784.0</ele><time>2026-04-18T07:38:31.062Z</time></trkpt><trkpt lat="40.6619806" lon="14.6776794"><ele>784.0</ele><time>2026-04-18T07:38:37.062Z</time></trkpt><trkpt lat="40.6620504" lon="14.6776477"><ele>784.0</ele><time>2026-04-18T07:38:44.063Z</time></trkpt><trkpt lat="40.6621169" lon="14.6776382"><ele>787.4999999999999</ele><time>2026-04-18T07:38:51.062Z</time></trkpt><trkpt lat="40.6621711" lon="14.6776859"><ele>791.0</ele><time>2026-04-18T07:39:00.062Z</time></trkpt><trkpt lat="40.6622376" lon="14.6776592"><ele>794.5</ele><time>2026-04-18T07:39:10.063Z</time></trkpt><trkpt lat="40.6622994" lon="14.6776239"><ele>798.0</ele><time>2026-04-18T07:39:18.063Z</time></trkpt><trkpt lat="40.6624107" lon="14.6776067"><ele>801.4999999999999</ele><time>2026-04-18T07:39:49.063Z</time></trkpt><trkpt lat="40.6624829" lon="14.6776344"><ele>805.0</ele><time>2026-04-18T07:39:54.063Z</time></trkpt><trkpt lat="40.6625349" lon="14.6776881"><ele>805.0</ele><time>2026-04-18T07:39:59.063Z</time></trkpt><trkpt lat="40.6625619" lon="14.6777684"><ele>805.0</ele><time>2026-04-18T07:40:07.063Z</time></trkpt><trkpt lat="40.6625797" lon="14.6778585"><ele>805.0</ele><time>2026-04-18T07:40:15.063Z</time></trkpt><trkpt lat="40.6625982" lon="14.6779473"><ele>805.0</ele><time>2026-04-18T07:40:23.063Z</time></trkpt><trkpt lat="40.6626341" lon="14.6780283"><ele>805.0</ele><time>2026-04-18T07:40:29.063Z</time></trkpt><trkpt lat="40.6626707" lon="14.6781055"><ele>805.0</ele><time>2026-04-18T07:40:34.064Z</time></trkpt><trkpt lat="40.6626792" lon="14.6781923"><ele>805.0</ele><time>2026-04-18T07:40:40.063Z</time></trkpt><trkpt lat="40.6627478" lon="14.6781904"><ele>804.4285714285714</ele><time>2026-04-18T07:40:49.063Z</time></trkpt><trkpt lat="40.6628109" lon="14.6781757"><ele>803.8571428571429</ele><time>2026-04-18T07:40:57.063Z</time></trkpt><trkpt lat="40.6628801" lon="14.6781947"><ele>803.2857142857142</ele><time>2026-04-18T07:41:02.063Z</time></trkpt><trkpt lat="40.6629095" lon="14.6782727"><ele>802.7142857142858</ele><time>2026-04-18T07:41:07.063Z</time></trkpt><trkpt lat="40.662921" lon="14.6783581"><ele>802.1428571428571</ele><time>2026-04-18T07:41:13.063Z</time></trkpt><trkpt lat="40.662891" lon="14.678451"><ele>801.5714285714286</ele><time>2026-04-18T07:41:19.063Z</time></trkpt><trkpt lat="40.6628805" lon="14.678534"><ele>801.0</ele><time>2026-04-18T07:41:24.063Z</time></trkpt><trkpt lat="40.6628733" lon="14.6786254"><ele>796.5714285714286</ele><time>2026-04-18T07:41:31.063Z</time></trkpt><trkpt lat="40.6628805" lon="14.6787141"><ele>792.1428571428571</ele><time>2026-04-18T07:41:36.064Z</time></trkpt><trkpt lat="40.662885" lon="14.6788013"><ele>787.7142857142858</ele><time>2026-04-18T07:41:41.063Z</time></trkpt><trkpt lat="40.6628613" lon="14.6788925"><ele>783.2857142857142</ele><time>2026-04-18T07:41:50.063Z</time></trkpt><trkpt lat="40.6628449" lon="14.6789802"><ele>778.8571428571429</ele><time>2026-04-18T07:41:55.063Z</time></trkpt><trkpt lat="40.6628503" lon="14.6790719"><ele>774.4285714285714</ele><time>2026-04-18T07:42:01.063Z</time></trkpt><trkpt lat="40.6628383" lon="14.6791622"><ele>770.0</ele><time>2026-04-18T07:42:07.064Z</time></trkpt><trkpt lat="40.6627963" lon="14.6792323"><ele>764.4285714285714</ele><time>2026-04-18T07:42:15.063Z</time></trkpt><trkpt lat="40.6627323" lon="14.6792343"><ele>758.8571428571429</ele><time>2026-04-18T07:42:24.063Z</time></trkpt><trkpt lat="40.6626629" lon="14.6792474"><ele>753.2857142857142</ele><time>2026-04-18T07:42:34.063Z</time></trkpt><trkpt lat="40.6626098" lon="14.6792965"><ele>747.7142857142858</ele><time>2026-04-18T07:42:42.063Z</time></trkpt><trkpt lat="40.6625654" lon="14.6793557"><ele>742.1428571428571</ele><time>2026-04-18T07:42:48.063Z</time></trkpt><trkpt lat="40.6625892" lon="14.6794384"><ele>736.5714285714286</ele><time>2026-04-18T07:42:54.063Z</time></trkpt><trkpt lat="40.6626489" lon="14.6794926"><ele>731.0</ele><time>2026-04-18T07:43:00.063Z</time></trkpt><trkpt lat="40.6627089" lon="14.6795335"><ele>731.2857142857142</ele><time>2026-04-18T07:43:07.063Z</time></trkpt><trkpt lat="40.6627666" lon="14.6795876"><ele>731.5714285714286</ele><time>2026-04-18T07:43:14.063Z</time></trkpt><trkpt lat="40.6628194" lon="14.6796376"><ele>731.8571428571429</ele><time>2026-04-18T07:43:20.063Z</time></trkpt><trkpt lat="40.6628334" lon="14.6797289"><ele>732.1428571428571</ele><time>2026-04-18T07:43:25.063Z</time></trkpt><trkpt lat="40.6628642" lon="14.6798062"><ele>732.4285714285714</ele><time>2026-04-18T07:43:34.063Z</time></trkpt><trkpt lat="40.6628942" lon="14.6798815"><ele>732.7142857142857</ele><time>2026-04-18T07:43:40.063Z</time></trkpt><trkpt lat="40.6628933" lon="14.67998"><ele>733.0</ele><time>2026-04-18T07:43:46.063Z</time></trkpt><trkpt lat="40.6629114" lon="14.6800721"><ele>732.9999999999999</ele><time>2026-04-18T07:43:53.063Z</time></trkpt><trkpt lat="40.6629249" lon="14.6801621"><ele>733.0</ele><time>2026-04-18T07:43:59.064Z</time></trkpt><trkpt lat="40.6629524" lon="14.6802371"><ele>733.0</ele><time>2026-04-18T07:44:04.063Z</time></trkpt><trkpt lat="40.6629805" lon="14.6803125"><ele>733.0</ele><time>2026-04-18T07:44:09.064Z</time></trkpt><trkpt lat="40.663025" lon="14.6803759"><ele>733.0</ele><time>2026-04-18T07:44:14.063Z</time></trkpt><trkpt lat="40.6630825" lon="14.6804224"><ele>732.9999999999999</ele><time>2026-04-18T07:44:23.063Z</time></trkpt><trkpt lat="40.6631275" lon="14.6804901"><ele>733.0</ele><time>2026-04-18T07:44:30.063Z</time></trkpt><trkpt lat="40.6631952" lon="14.6804789"><ele>726.1428571428571</ele><time>2026-04-18T07:44:36.063Z</time></trkpt><trkpt lat="40.6632591" lon="14.680484"><ele>719.2857142857142</ele><time>2026-04-18T07:44:54.063Z</time></trkpt><trkpt lat="40.6633221" lon="14.6804858"><ele>712.4285714285713</ele><time>2026-04-18T07:45:05.063Z</time></trkpt><trkpt lat="40.6634151" lon="14.6805443"><ele>705.5714285714286</ele><time>2026-04-18T07:45:31.063Z</time></trkpt><trkpt lat="40.6634832" lon="14.6805314"><ele>698.7142857142858</ele><time>2026-04-18T07:45:38.063Z</time></trkpt><trkpt lat="40.6635514" lon="14.6805077"><ele>691.8571428571428</ele><time>2026-04-18T07:45:44.064Z</time></trkpt><trkpt lat="40.6636214" lon="14.680543"><ele>685.0</ele><time>2026-04-18T07:45:50.063Z</time></trkpt><trkpt lat="40.6636915" lon="14.6805608"><ele>683.5714285714286</ele><time>2026-04-18T07:45:55.063Z</time></trkpt><trkpt lat="40.663765" lon="14.6805824"><ele>682.1428571428572</ele><time>2026-04-18T07:46:00.063Z</time></trkpt><trkpt lat="40.6638044" lon="14.6806568"><ele>680.7142857142858</ele><time>2026-04-18T07:46:05.063Z</time></trkpt><trkpt lat="40.6638455" lon="14.680725"><ele>679.2857142857142</ele><time>2026-04-18T07:46:10.063Z</time></trkpt><trkpt lat="40.663903" lon="14.6806857"><ele>677.8571428571429</ele><time>2026-04-18T07:46:18.063Z</time></trkpt><trkpt lat="40.6639444" lon="14.6806119"><ele>676.4285714285714</ele><time>2026-04-18T07:46:27.063Z</time></trkpt><trkpt lat="40.6639823" lon="14.6805446"><ele>675.0</ele><time>2026-04-18T07:46:32.063Z</time></trkpt><trkpt lat="40.663994" lon="14.6804621"><ele>675.0</ele><time>2026-04-18T07:46:36.063Z</time></trkpt><trkpt lat="40.6640416" lon="14.6803962"><ele>675.0</ele><time>2026-04-18T07:46:43.063Z</time></trkpt><trkpt lat="40.6640937" lon="14.6803305"><ele>675.0</ele><time>2026-04-18T07:46:48.063Z</time></trkpt><trkpt lat="40.6641613" lon="14.6802845"><ele>675.0</ele><time>2026-04-18T07:46:53.063Z</time></trkpt><trkpt lat="40.6641774" lon="14.6801985"><ele>675.0</ele><time>2026-04-18T07:46:58.063Z</time></trkpt><trkpt lat="40.6641894" lon="14.6801051"><ele>675.0</ele><time>2026-04-18T07:47:03.063Z</time></trkpt><trkpt lat="40.6642295" lon="14.6800297"><ele>675.0</ele><time>2026-04-18T07:47:10.063Z</time></trkpt><trkpt lat="40.6642924" lon="14.6800434"><ele>680.2857142857142</ele><time>2026-04-18T07:47:17.063Z</time></trkpt><trkpt lat="40.6643658" lon="14.6800379"><ele>685.5714285714286</ele><time>2026-04-18T07:47:23.063Z</time></trkpt><trkpt lat="40.6644367" lon="14.6800345"><ele>690.8571428571429</ele><time>2026-04-18T07:47:28.063Z</time></trkpt><trkpt lat="40.6645091" lon="14.6799959"><ele>696.1428571428571</ele><time>2026-04-18T07:47:33.063Z</time></trkpt><trkpt lat="40.6645721" lon="14.6800385"><ele>701.4285714285714</ele><time>2026-04-18T07:47:39.063Z</time></trkpt><trkpt lat="40.6646221" lon="14.6800907"><ele>706.7142857142857</ele><time>2026-04-18T07:47:43.063Z</time></trkpt><trkpt lat="40.6646826" lon="14.6801209"><ele>712.0</ele><time>2026-04-18T07:47:49.063Z</time></trkpt><trkpt lat="40.6647501" lon="14.6801412"><ele>713.7142857142857</ele><time>2026-04-18T07:47:54.063Z</time></trkpt><trkpt lat="40.6648192" lon="14.6801435"><ele>715.4285714285714</ele><time>2026-04-18T07:48:00.063Z</time></trkpt><trkpt lat="40.6648892" lon="14.6801669"><ele>717.1428571428571</ele><time>2026-04-18T07:48:05.063Z</time></trkpt><trkpt lat="40.6649558" lon="14.6801901"><ele>718.8571428571429</ele><time>2026-04-18T07:48:11.063Z</time></trkpt><trkpt lat="40.6650044" lon="14.6802558"><ele>720.5714285714286</ele><time>2026-04-18T07:48:17.063Z</time></trkpt><trkpt lat="40.6650665" lon="14.6802933"><ele>722.2857142857142</ele><time>2026-04-18T07:48:22.063Z</time></trkpt><trkpt lat="40.6651358" lon="14.6803067"><ele>724.0</ele><time>2026-04-18T07:48:29.063Z</time></trkpt><trkpt lat="40.6651899" lon="14.6803619"><ele>718.4285714285714</ele><time>2026-04-18T07:48:36.063Z</time></trkpt><trkpt lat="40.6651837" lon="14.6804468"><ele>712.8571428571429</ele><time>2026-04-18T07:48:42.063Z</time></trkpt><trkpt lat="40.665197" lon="14.6805319"><ele>707.2857142857142</ele><time>2026-04-18T07:48:46.064Z</time></trkpt><trkpt lat="40.6652075" lon="14.6806201"><ele>701.7142857142858</ele><time>2026-04-18T07:48:52.063Z</time></trkpt><trkpt lat="40.6652056" lon="14.6807128"><ele>696.1428571428572</ele><time>2026-04-18T07:48:59.063Z</time></trkpt><trkpt lat="40.6651986" lon="14.6808039"><ele>690.5714285714286</ele><time>2026-04-18T07:49:04.063Z</time></trkpt><trkpt lat="40.6651876" lon="14.6808942"><ele>685.0</ele><time>2026-04-18T07:49:14.063Z</time></trkpt><trkpt lat="40.6652124" lon="14.6809748"><ele>685.0</ele><time>2026-04-18T07:49:19.063Z</time></trkpt><trkpt lat="40.6652355" lon="14.6810526"><ele>685.0</ele><time>2026-04-18T07:49:24.063Z</time></trkpt><trkpt lat="40.6652323" lon="14.6811381"><ele>685.0</ele><time>2026-04-18T07:49:29.063Z</time></trkpt><trkpt lat="40.6652726" lon="14.6812124"><ele>685.0</ele><time>2026-04-18T07:49:36.063Z</time></trkpt><trkpt lat="40.665294" lon="14.6812996"><ele>685.0</ele><time>2026-04-18T07:49:44.064Z</time></trkpt><trkpt lat="40.6653475" lon="14.6813544"><ele>685.0</ele><time>2026-04-18T07:49:51.063Z</time></trkpt><trkpt lat="40.665405" lon="14.6813952"><ele>685.0</ele><time>2026-04-18T07:49:59.063Z</time></trkpt><trkpt lat="40.665457" lon="14.6814619"><ele>687.0</ele><time>2026-04-18T07:50:05.063Z</time></trkpt><trkpt lat="40.6655176" lon="14.6815133"><ele>689.0</ele><time>2026-04-18T07:50:11.063Z</time></trkpt><trkpt lat="40.6655713" lon="14.6815765"><ele>691.0</ele><time>2026-04-18T07:50:16.064Z</time></trkpt><trkpt lat="40.6656314" lon="14.6816253"><ele>693.0</ele><time>2026-04-18T07:50:21.063Z</time></trkpt><trkpt lat="40.6656941" lon="14.6816648"><ele>695.0</ele><time>2026-04-18T07:50:26.063Z</time></trkpt><trkpt lat="40.6657574" lon="14.6817067"><ele>697.0</ele><time>2026-04-18T07:50:31.063Z</time></trkpt><trkpt lat="40.6658042" lon="14.6817781"><ele>699.0</ele><time>2026-04-18T07:50:37.063Z</time></trkpt><trkpt lat="40.6658526" lon="14.6818462"><ele>699.0</ele><time>2026-04-18T07:50:43.063Z</time></trkpt><trkpt lat="40.6659136" lon="14.6819093"><ele>699.0</ele><time>2026-04-18T07:50:48.063Z</time></trkpt><trkpt lat="40.6659745" lon="14.6819427"><ele>699.0</ele><time>2026-04-18T07:50:53.063Z</time></trkpt><trkpt lat="40.6659884" lon="14.6820257"><ele>699.0</ele><time>2026-04-18T07:50:58.063Z</time></trkpt><trkpt lat="40.6659826" lon="14.6821099"><ele>699.0</ele><time>2026-04-18T07:51:03.063Z</time></trkpt><trkpt lat="40.6659756" lon="14.6821959"><ele>699.0</ele><time>2026-04-18T07:51:07.063Z</time></trkpt><trkpt lat="40.6659927" lon="14.6822846"><ele>699.0</ele><time>2026-04-18T07:51:12.063Z</time></trkpt><trkpt lat="40.6660231" lon="14.6823745"><ele>700.0</ele><time>2026-04-18T07:51:17.063Z</time></trkpt><trkpt lat="40.6660601" lon="14.6824519"><ele>701.0</ele><time>2026-04-18T07:51:22.063Z</time></trkpt><trkpt lat="40.6661305" lon="14.6824916"><ele>702.0</ele><time>2026-04-18T07:51:28.063Z</time></trkpt><trkpt lat="40.6661981" lon="14.6825184"><ele>703.0</ele><time>2026-04-18T07:51:34.063Z</time></trkpt><trkpt lat="40.6662664" lon="14.6825201"><ele>704.0</ele><time>2026-04-18T07:51:41.063Z</time></trkpt><trkpt lat="40.6663158" lon="14.6824674"><ele>705.0</ele><time>2026-04-18T07:51:50.063Z</time></trkpt><trkpt lat="40.6663712" lon="14.6824243"><ele>706.0</ele><time>2026-04-18T07:51:55.064Z</time></trkpt><trkpt lat="40.666427" lon="14.6823747"><ele>706.0</ele><time>2026-04-18T07:52:01.063Z</time></trkpt><trkpt lat="40.6664872" lon="14.682307"><ele>706.0</ele><time>2026-04-18T07:52:19.063Z</time></trkpt><trkpt lat="40.6665536" lon="14.6822845"><ele>706.0</ele><time>2026-04-18T07:52:27.063Z</time></trkpt><trkpt lat="40.666604" lon="14.682353"><ele>706.0</ele><time>2026-04-18T07:52:35.063Z</time></trkpt><trkpt lat="40.6666149" lon="14.6824394"><ele>706.0</ele><time>2026-04-18T07:52:40.063Z</time></trkpt><trkpt lat="40.6666282" lon="14.6825212"><ele>706.0</ele><time>2026-04-18T07:52:46.063Z</time></trkpt><trkpt lat="40.6666411" lon="14.682612"><ele>706.0</ele><time>2026-04-18T07:52:51.063Z</time></trkpt><trkpt lat="40.6666622" lon="14.6826975"><ele>705.1428571428571</ele><time>2026-04-18T07:52:57.063Z</time></trkpt><trkpt lat="40.6666777" lon="14.68278"><ele>704.2857142857143</ele><time>2026-04-18T07:53:03.063Z</time></trkpt><trkpt lat="40.6667079" lon="14.68287"><ele>703.4285714285714</ele><time>2026-04-18T07:53:09.063Z</time></trkpt><trkpt lat="40.6666763" lon="14.6829541"><ele>702.5714285714286</ele><time>2026-04-18T07:53:15.063Z</time></trkpt><trkpt lat="40.666627" lon="14.6830113"><ele>701.7142857142858</ele><time>2026-04-18T07:53:20.063Z</time></trkpt><trkpt lat="40.6665859" lon="14.6830771"><ele>700.8571428571429</ele><time>2026-04-18T07:53:25.063Z</time></trkpt><trkpt lat="40.6665616" lon="14.6831664"><ele>700.0</ele><time>2026-04-18T07:53:32.063Z</time></trkpt><trkpt lat="40.6665509" lon="14.6832655"><ele>700.0</ele><time>2026-04-18T07:53:37.063Z</time></trkpt><trkpt lat="40.6665352" lon="14.6833526"><ele>700.0</ele><time>2026-04-18T07:53:42.063Z</time></trkpt><trkpt lat="40.6664874" lon="14.6834294"><ele>700.0</ele><time>2026-04-18T07:53:48.063Z</time></trkpt><trkpt lat="40.6664581" lon="14.6835079"><ele>700.0</ele><time>2026-04-18T07:53:54.063Z</time></trkpt><trkpt lat="40.6664505" lon="14.6836293"><ele>700.0</ele><time>2026-04-18T07:57:16.063Z</time></trkpt><trkpt lat="40.666403" lon="14.6837305"><ele>700.0</ele><time>2026-04-18T07:57:22.063Z</time></trkpt><trkpt lat="40.6663881" lon="14.6838175"><ele>700.0</ele><time>2026-04-18T07:57:27.063Z</time></trkpt><trkpt lat="40.6663536" lon="14.6838927"><ele>700.0</ele><time>2026-04-18T07:57:34.063Z</time></trkpt><trkpt lat="40.6663401" lon="14.6839839"><ele>700.0</ele><time>2026-04-18T07:57:41.063Z</time></trkpt><trkpt lat="40.6663216" lon="14.6840678"><ele>700.0</ele><time>2026-04-18T07:57:48.063Z</time></trkpt><trkpt lat="40.6663355" lon="14.6841527"><ele>700.0</ele><time>2026-04-18T07:57:55.063Z</time></trkpt><trkpt lat="40.6663955" lon="14.6842232"><ele>700.0</ele><time>2026-04-18T07:58:02.063Z</time></trkpt><trkpt lat="40.6664196" lon="14.6843094"><ele>700.0</ele><time>2026-04-18T07:58:06.063Z</time></trkpt><trkpt lat="40.666444" lon="14.6843872"><ele>699.5714285714286</ele><time>2026-04-18T07:58:11.063Z</time></trkpt><trkpt lat="40.6664549" lon="14.6844789"><ele>699.1428571428571</ele><time>2026-04-18T07:58:17.063Z</time></trkpt><trkpt lat="40.6664851" lon="14.6845584"><ele>698.7142857142858</ele><time>2026-04-18T07:58:22.063Z</time></trkpt><trkpt lat="40.6665112" lon="14.6846483"><ele>698.2857142857142</ele><time>2026-04-18T07:58:27.064Z</time></trkpt><trkpt lat="40.6665311" lon="14.6847287"><ele>697.8571428571429</ele><time>2026-04-18T07:58:31.063Z</time></trkpt><trkpt lat="40.6665604" lon="14.6848142"><ele>697.4285714285714</ele><time>2026-04-18T07:58:36.063Z</time></trkpt><trkpt lat="40.6665847" lon="14.6849017"><ele>697.0</ele><time>2026-04-18T07:58:43.063Z</time></trkpt><trkpt lat="40.6666003" lon="14.6849823"><ele>697.0</ele><time>2026-04-18T07:58:49.063Z</time></trkpt><trkpt lat="40.6666159" lon="14.6850777"><ele>697.0</ele><time>2026-04-18T07:58:55.063Z</time></trkpt><trkpt lat="40.6666497" lon="14.6851619"><ele>697.0</ele><time>2026-04-18T07:59:02.064Z</time></trkpt><trkpt lat="40.6667159" lon="14.6852054"><ele>697.0</ele><time>2026-04-18T07:59:08.063Z</time></trkpt><trkpt lat="40.6667822" lon="14.6852448"><ele>697.0</ele><time>2026-04-18T07:59:17.064Z</time></trkpt><trkpt lat="40.6668053" lon="14.6853268"><ele>697.0</ele><time>2026-04-18T07:59:23.063Z</time></trkpt><trkpt lat="40.6667981" lon="14.6854097"><ele>697.0</ele><time>2026-04-18T07:59:30.063Z</time></trkpt><trkpt lat="40.6668014" lon="14.6855009"><ele>695.2857142857143</ele><time>2026-04-18T07:59:35.063Z</time></trkpt><trkpt lat="40.6668152" lon="14.6855937"><ele>693.5714285714286</ele><time>2026-04-18T07:59:40.063Z</time></trkpt><trkpt lat="40.6668555" lon="14.6856709"><ele>691.8571428571429</ele><time>2026-04-18T07:59:46.064Z</time></trkpt><trkpt lat="40.6668708" lon="14.6857598"><ele>690.1428571428571</ele><time>2026-04-18T07:59:51.063Z</time></trkpt><trkpt lat="40.6668812" lon="14.685842"><ele>688.4285714285714</ele><time>2026-04-18T07:59:55.063Z</time></trkpt><trkpt lat="40.6669068" lon="14.6859377"><ele>686.7142857142857</ele><time>2026-04-18T08:00:00.063Z</time></trkpt><trkpt lat="40.6669429" lon="14.6860059"><ele>685.0</ele><time>2026-04-18T08:00:04.063Z</time></trkpt><trkpt lat="40.6669632" lon="14.6860907"><ele>687.1428571428571</ele><time>2026-04-18T08:00:09.063Z</time></trkpt><trkpt lat="40.6669666" lon="14.6861827"><ele>689.2857142857143</ele><time>2026-04-18T08:00:14.063Z</time></trkpt><trkpt lat="40.6669775" lon="14.6862781"><ele>691.4285714285714</ele><time>2026-04-18T08:00:21.064Z</time></trkpt><trkpt lat="40.66697" lon="14.6863755"><ele>693.5714285714286</ele><time>2026-04-18T08:00:28.063Z</time></trkpt><trkpt lat="40.666909" lon="14.6864186"><ele>695.7142857142858</ele><time>2026-04-18T08:00:35.063Z</time></trkpt><trkpt lat="40.6668423" lon="14.6864153"><ele>697.8571428571429</ele><time>2026-04-18T08:00:42.063Z</time></trkpt><trkpt lat="40.6667762" lon="14.6864373"><ele>700.0</ele><time>2026-04-18T08:00:48.063Z</time></trkpt><trkpt lat="40.6667287" lon="14.6864958"><ele>700.0</ele><time>2026-04-18T08:00:54.063Z</time></trkpt><trkpt lat="40.6667248" lon="14.6865844"><ele>700.0</ele><time>2026-04-18T08:01:01.064Z</time></trkpt><trkpt lat="40.666671" lon="14.6866295"><ele>700.0</ele><time>2026-04-18T08:01:08.064Z</time></trkpt><trkpt lat="40.6666205" lon="14.6866834"><ele>700.0</ele><time>2026-04-18T08:01:13.064Z</time></trkpt><trkpt lat="40.6666001" lon="14.6867629"><ele>700.0</ele><time>2026-04-18T08:01:18.063Z</time></trkpt><trkpt lat="40.6665995" lon="14.6868504"><ele>700.0</ele><time>2026-04-18T08:01:23.063Z</time></trkpt><trkpt lat="40.666563" lon="14.6869312"><ele>700.0</ele><time>2026-04-18T08:01:29.063Z</time></trkpt><trkpt lat="40.6665127" lon="14.6869977"><ele>701.8571428571429</ele><time>2026-04-18T08:01:36.063Z</time></trkpt><trkpt lat="40.6664929" lon="14.687085"><ele>703.7142857142858</ele><time>2026-04-18T08:01:43.063Z</time></trkpt><trkpt lat="40.6665185" lon="14.6871645"><ele>705.5714285714286</ele><time>2026-04-18T08:01:48.063Z</time></trkpt><trkpt lat="40.6665337" lon="14.687251"><ele>707.4285714285714</ele><time>2026-04-18T08:01:53.063Z</time></trkpt><trkpt lat="40.6665501" lon="14.6873344"><ele>709.2857142857143</ele><time>2026-04-18T08:02:00.064Z</time></trkpt><trkpt lat="40.6665776" lon="14.6874235"><ele>711.1428571428571</ele><time>2026-04-18T08:02:05.063Z</time></trkpt><trkpt lat="40.6666019" lon="14.687512"><ele>713.0</ele><time>2026-04-18T08:02:10.063Z</time></trkpt><trkpt lat="40.6666084" lon="14.6876053"><ele>713.0</ele><time>2026-04-18T08:02:17.063Z</time></trkpt><trkpt lat="40.6666316" lon="14.6876959"><ele>713.0</ele><time>2026-04-18T08:02:22.064Z</time></trkpt><trkpt lat="40.6666312" lon="14.6877875"><ele>713.0</ele><time>2026-04-18T08:02:27.064Z</time></trkpt><trkpt lat="40.6666284" lon="14.6878752"><ele>713.0</ele><time>2026-04-18T08:02:32.063Z</time></trkpt><trkpt lat="40.6666175" lon="14.6879689"><ele>713.0</ele><time>2026-04-18T08:02:37.063Z</time></trkpt><trkpt lat="40.6666267" lon="14.688061"><ele>713.0</ele><time>2026-04-18T08:02:42.063Z</time></trkpt><trkpt lat="40.6666038" lon="14.6881482"><ele>713.0</ele><time>2026-04-18T08:02:48.063Z</time></trkpt><trkpt lat="40.6665872" lon="14.6882386"><ele>713.1428571428571</ele><time>2026-04-18T08:02:54.063Z</time></trkpt><trkpt lat="40.6665482" lon="14.6883109"><ele>713.2857142857143</ele><time>2026-04-18T08:02:59.063Z</time></trkpt><trkpt lat="40.6665357" lon="14.6884065"><ele>713.4285714285714</ele><time>2026-04-18T08:03:05.063Z</time></trkpt><trkpt lat="40.6665422" lon="14.6885028"><ele>713.5714285714286</ele><time>2026-04-18T08:03:10.063Z</time></trkpt><trkpt lat="40.6665486" lon="14.688599"><ele>713.7142857142858</ele><time>2026-04-18T08:03:15.064Z</time></trkpt><trkpt lat="40.6665594" lon="14.6886898"><ele>713.8571428571429</ele><time>2026-04-18T08:03:20.063Z</time></trkpt><trkpt lat="40.6665783" lon="14.6887785"><ele>714.0</ele><time>2026-04-18T08:03:25.063Z</time></trkpt><trkpt lat="40.6665793" lon="14.6888707"><ele>713.3333333333334</ele><time>2026-04-18T08:03:31.063Z</time></trkpt><trkpt lat="40.6665737" lon="14.688973"><ele>712.6666666666666</ele><time>2026-04-18T08:03:36.064Z</time></trkpt><trkpt lat="40.6665609" lon="14.689072"><ele>712.0</ele><time>2026-04-18T08:03:41.063Z</time></trkpt><trkpt lat="40.6665646" lon="14.6891656"><ele>711.3333333333333</ele><time>2026-04-18T08:03:46.063Z</time></trkpt><trkpt lat="40.6666024" lon="14.6892595"><ele>710.6666666666666</ele><time>2026-04-18T08:04:04.063Z</time></trkpt><trkpt lat="40.6666354" lon="14.6893491"><ele>710.0</ele><time>2026-04-18T08:04:09.063Z</time></trkpt><trkpt lat="40.6666809" lon="14.6894208"><ele>712.8571428571429</ele><time>2026-04-18T08:04:16.063Z</time></trkpt><trkpt lat="40.6667328" lon="14.6894858"><ele>715.7142857142858</ele><time>2026-04-18T08:04:22.063Z</time></trkpt><trkpt lat="40.6667917" lon="14.6895383"><ele>718.5714285714287</ele><time>2026-04-18T08:04:27.063Z</time></trkpt><trkpt lat="40.6668291" lon="14.6896244"><ele>721.4285714285714</ele><time>2026-04-18T08:04:32.063Z</time></trkpt><trkpt lat="40.6668501" lon="14.6897113"><ele>724.2857142857143</ele><time>2026-04-18T08:04:37.063Z</time></trkpt><trkpt lat="40.6668773" lon="14.6897971"><ele>727.1428571428572</ele><time>2026-04-18T08:04:43.063Z</time></trkpt><trkpt lat="40.6669162" lon="14.6898794"><ele>730.0</ele><time>2026-04-18T08:04:50.063Z</time></trkpt><trkpt lat="40.6669633" lon="14.6899383"><ele>730.0000000000001</ele><time>2026-04-18T08:04:59.063Z</time></trkpt><trkpt lat="40.6670313" lon="14.6899368"><ele>730.0</ele><time>2026-04-18T08:05:09.063Z</time></trkpt><trkpt lat="40.6670719" lon="14.69001"><ele>730.0</ele><time>2026-04-18T08:05:19.064Z</time></trkpt><trkpt lat="40.6670837" lon="14.690098"><ele>730.0</ele><time>2026-04-18T08:05:27.063Z</time></trkpt><trkpt lat="40.6670878" lon="14.6901907"><ele>730.0</ele><time>2026-04-18T08:05:34.063Z</time></trkpt><trkpt lat="40.6671278" lon="14.6902713"><ele>730.0000000000001</ele><time>2026-04-18T08:05:41.063Z</time></trkpt><trkpt lat="40.6671424" lon="14.6903554"><ele>730.0</ele><time>2026-04-18T08:05:46.063Z</time></trkpt><trkpt lat="40.6671782" lon="14.690433"><ele>727.0000000000001</ele><time>2026-04-18T08:05:52.063Z</time></trkpt><trkpt lat="40.6672167" lon="14.690515"><ele>724.0</ele><time>2026-04-18T08:06:01.063Z</time></trkpt><trkpt lat="40.6672407" lon="14.6905991"><ele>721.0</ele><time>2026-04-18T08:06:06.063Z</time></trkpt><trkpt lat="40.6672541" lon="14.6906935"><ele>718.0</ele><time>2026-04-18T08:06:11.063Z</time></trkpt><trkpt lat="40.6672887" lon="14.6907649"><ele>715.0</ele><time>2026-04-18T08:06:16.063Z</time></trkpt><trkpt lat="40.6673209" lon="14.6908421"><ele>712.0000000000001</ele><time>2026-04-18T08:06:23.063Z</time></trkpt><trkpt lat="40.6673586" lon="14.6909096"><ele>709.0</ele><time>2026-04-18T08:06:29.063Z</time></trkpt><trkpt lat="40.6673606" lon="14.6910066"><ele>707.0000000000001</ele><time>2026-04-18T08:06:34.063Z</time></trkpt><trkpt lat="40.667358" lon="14.6910917"><ele>705.0</ele><time>2026-04-18T08:06:39.063Z</time></trkpt><trkpt lat="40.6673661" lon="14.6911875"><ele>703.0</ele><time>2026-04-18T08:06:50.063Z</time></trkpt><trkpt lat="40.6673767" lon="14.691278"><ele>701.0</ele><time>2026-04-18T08:06:56.063Z</time></trkpt><trkpt lat="40.6673777" lon="14.6913641"><ele>699.0</ele><time>2026-04-18T08:07:02.063Z</time></trkpt><trkpt lat="40.6673816" lon="14.691455"><ele>697.0000000000001</ele><time>2026-04-18T08:07:11.064Z</time></trkpt><trkpt lat="40.6673815" lon="14.6915463"><ele>695.0</ele><time>2026-04-18T08:07:21.063Z</time></trkpt><trkpt lat="40.6673737" lon="14.6916369"><ele>695.0000000000001</ele><time>2026-04-18T08:07:27.063Z</time></trkpt><trkpt lat="40.6673577" lon="14.6917266"><ele>695.0</ele><time>2026-04-18T08:07:33.063Z</time></trkpt><trkpt lat="40.6673736" lon="14.6918221"><ele>695.0</ele><time>2026-04-18T08:07:39.063Z</time></trkpt><trkpt lat="40.6673996" lon="14.6919053"><ele>695.0</ele><time>2026-04-18T08:07:44.063Z</time></trkpt><trkpt lat="40.6673994" lon="14.691995"><ele>695.0</ele><time>2026-04-18T08:07:49.063Z</time></trkpt><trkpt lat="40.6674002" lon="14.6920859"><ele>695.0000000000001</ele><time>2026-04-18T08:07:54.063Z</time></trkpt><trkpt lat="40.6674186" lon="14.6921875"><ele>695.0</ele><time>2026-04-18T08:07:59.063Z</time></trkpt><trkpt lat="40.6674623" lon="14.6922636"><ele>693.1428571428572</ele><time>2026-04-18T08:08:05.063Z</time></trkpt><trkpt lat="40.6673912" lon="14.6922296"><ele>691.2857142857143</ele><time>2026-04-18T08:08:27.063Z</time></trkpt><trkpt lat="40.6673262" lon="14.6922625"><ele>689.4285714285714</ele><time>2026-04-18T08:08:35.063Z</time></trkpt><trkpt lat="40.6672826" lon="14.6923344"><ele>687.5714285714287</ele><time>2026-04-18T08:08:42.063Z</time></trkpt><trkpt lat="40.6672645" lon="14.6924228"><ele>685.7142857142858</ele><time>2026-04-18T08:08:50.063Z</time></trkpt><trkpt lat="40.6672562" lon="14.6923283"><ele>683.8571428571429</ele><time>2026-04-18T08:09:48.063Z</time></trkpt><trkpt lat="40.6673021" lon="14.692269"><ele>682.0</ele><time>2026-04-18T08:09:53.063Z</time></trkpt><trkpt lat="40.6673647" lon="14.6922272"><ele>682.0</ele><time>2026-04-18T08:09:58.063Z</time></trkpt><trkpt lat="40.6674368" lon="14.6922436"><ele>682.0</ele><time>2026-04-18T08:10:05.063Z</time></trkpt><trkpt lat="40.6674904" lon="14.6922912"><ele>682.0</ele><time>2026-04-18T08:10:10.063Z</time></trkpt><trkpt lat="40.6675592" lon="14.6923134"><ele>682.0</ele><time>2026-04-18T08:10:15.063Z</time></trkpt><trkpt lat="40.667625" lon="14.6923546"><ele>682.0</ele><time>2026-04-18T08:10:20.063Z</time></trkpt><trkpt lat="40.6676972" lon="14.6923782"><ele>682.0</ele><time>2026-04-18T08:10:26.063Z</time></trkpt><trkpt lat="40.6677661" lon="14.6924247"><ele>682.0</ele><time>2026-04-18T08:10:32.063Z</time></trkpt><trkpt lat="40.6678256" lon="14.6924886"><ele>684.0</ele><time>2026-04-18T08:10:37.064Z</time></trkpt><trkpt lat="40.6678943" lon="14.6925216"><ele>686.0</ele><time>2026-04-18T08:10:44.063Z</time></trkpt><trkpt lat="40.6679609" lon="14.6925404"><ele>688.0</ele><time>2026-04-18T08:10:51.064Z</time></trkpt><trkpt lat="40.6680257" lon="14.6925595"><ele>690.0</ele><time>2026-04-18T08:10:57.063Z</time></trkpt><trkpt lat="40.6680637" lon="14.692633"><ele>692.0</ele><time>2026-04-18T08:11:03.063Z</time></trkpt><trkpt lat="40.6681166" lon="14.69269"><ele>694.0</ele><time>2026-04-18T08:11:08.063Z</time></trkpt><trkpt lat="40.6681841" lon="14.6926906"><ele>696.0</ele><time>2026-04-18T08:11:16.063Z</time></trkpt><trkpt lat="40.6682484" lon="14.692702"><ele>696.0</ele><time>2026-04-18T08:11:21.063Z</time></trkpt><trkpt lat="40.668309" lon="14.6927346"><ele>696.0</ele><time>2026-04-18T08:11:25.063Z</time></trkpt><trkpt lat="40.6683746" lon="14.6927603"><ele>696.0</ele><time>2026-04-18T08:11:30.063Z</time></trkpt><trkpt lat="40.6684456" lon="14.6927586"><ele>696.0</ele><time>2026-04-18T08:11:36.063Z</time></trkpt><trkpt lat="40.6685056" lon="14.6927299"><ele>696.0</ele><time>2026-04-18T08:11:42.063Z</time></trkpt><trkpt lat="40.6685541" lon="14.6926765"><ele>696.0</ele><time>2026-04-18T08:11:47.063Z</time></trkpt><trkpt lat="40.6686225" lon="14.6926557"><ele>696.0</ele><time>2026-04-18T08:11:54.064Z</time></trkpt><trkpt lat="40.6686779" lon="14.692615"><ele>694.1428571428571</ele><time>2026-04-18T08:12:00.063Z</time></trkpt><trkpt lat="40.6687396" lon="14.6925869"><ele>692.2857142857143</ele><time>2026-04-18T08:12:08.063Z</time></trkpt><trkpt lat="40.6688036" lon="14.6925883"><ele>690.4285714285714</ele><time>2026-04-18T08:12:14.063Z</time></trkpt><trkpt lat="40.668873" lon="14.6926192"><ele>688.5714285714286</ele><time>2026-04-18T08:12:20.063Z</time></trkpt><trkpt lat="40.6689185" lon="14.6926779"><ele>686.7142857142857</ele><time>2026-04-18T08:12:24.063Z</time></trkpt><trkpt lat="40.6689471" lon="14.6927574"><ele>684.8571428571429</ele><time>2026-04-18T08:12:29.063Z</time></trkpt><trkpt lat="40.6689795" lon="14.6928311"><ele>683.0</ele><time>2026-04-18T08:12:35.063Z</time></trkpt><trkpt lat="40.6690265" lon="14.6928941"><ele>677.2857142857143</ele><time>2026-04-18T08:12:39.063Z</time></trkpt><trkpt lat="40.6690722" lon="14.6929513"><ele>671.5714285714286</ele><time>2026-04-18T08:12:44.063Z</time></trkpt><trkpt lat="40.6691362" lon="14.6929283"><ele>665.8571428571429</ele><time>2026-04-18T08:12:54.063Z</time></trkpt><trkpt lat="40.6691934" lon="14.6928902"><ele>660.1428571428571</ele><time>2026-04-18T08:13:01.063Z</time></trkpt><trkpt lat="40.6692611" lon="14.6928751"><ele>654.4285714285714</ele><time>2026-04-18T08:13:07.063Z</time></trkpt><trkpt lat="40.6693298" lon="14.6928775"><ele>648.7142857142857</ele><time>2026-04-18T08:13:13.063Z</time></trkpt><trkpt lat="40.6694035" lon="14.6928806"><ele>643.0</ele><time>2026-04-18T08:13:18.063Z</time></trkpt><trkpt lat="40.6694723" lon="14.6928788"><ele>641.8571428571428</ele><time>2026-04-18T08:13:25.063Z</time></trkpt><trkpt lat="40.6695354" lon="14.6928343"><ele>640.7142857142858</ele><time>2026-04-18T08:13:31.063Z</time></trkpt><trkpt lat="40.6695936" lon="14.6928006"><ele>639.5714285714286</ele><time>2026-04-18T08:13:40.063Z</time></trkpt><trkpt lat="40.6696369" lon="14.6927319"><ele>638.4285714285713</ele><time>2026-04-18T08:13:47.063Z</time></trkpt><trkpt lat="40.669702" lon="14.6926827"><ele>637.2857142857142</ele><time>2026-04-18T08:13:54.063Z</time></trkpt><trkpt lat="40.6697618" lon="14.6926543"><ele>636.1428571428571</ele><time>2026-04-18T08:13:58.063Z</time></trkpt><trkpt lat="40.6698237" lon="14.692596"><ele>635.0</ele><time>2026-04-18T08:14:05.063Z</time></trkpt><trkpt lat="40.669894" lon="14.6925775"><ele>634.9999999999999</ele><time>2026-04-18T08:14:12.063Z</time></trkpt><trkpt lat="40.6699735" lon="14.692605"><ele>635.0</ele><time>2026-04-18T08:14:18.063Z</time></trkpt><trkpt lat="40.6700294" lon="14.6926472"><ele>635.0</ele><time>2026-04-18T08:14:21.063Z</time></trkpt><trkpt lat="40.6700849" lon="14.6927211"><ele>635.0</ele><time>2026-04-18T08:14:25.063Z</time></trkpt><trkpt lat="40.6701276" lon="14.6927993"><ele>635.0</ele><time>2026-04-18T08:14:29.063Z</time></trkpt><trkpt lat="40.6701563" lon="14.6928893"><ele>634.9999999999999</ele><time>2026-04-18T08:14:34.063Z</time></trkpt><trkpt lat="40.6701864" lon="14.6929807"><ele>635.0</ele><time>2026-04-18T08:14:39.064Z</time></trkpt><trkpt lat="40.6702313" lon="14.693049"><ele>634.9999999999999</ele><time>2026-04-18T08:14:44.063Z</time></trkpt><trkpt lat="40.6702715" lon="14.693118"><ele>635.0</ele><time>2026-04-18T08:14:50.063Z</time></trkpt><trkpt lat="40.6703299" lon="14.6931765"><ele>635.0</ele><time>2026-04-18T08:14:57.063Z</time></trkpt><trkpt lat="40.6703853" lon="14.693236"><ele>635.0</ele><time>2026-04-18T08:15:02.063Z</time></trkpt><trkpt lat="40.6704583" lon="14.6932324"><ele>635.0</ele><time>2026-04-18T08:15:09.063Z</time></trkpt><trkpt lat="40.6705202" lon="14.6931919"><ele>634.9999999999999</ele><time>2026-04-18T08:15:14.063Z</time></trkpt><trkpt lat="40.6705477" lon="14.6931035"><ele>635.0</ele><time>2026-04-18T08:15:21.063Z</time></trkpt><trkpt lat="40.6705601" lon="14.6930143"><ele>632.1428571428571</ele><time>2026-04-18T08:15:27.063Z</time></trkpt><trkpt lat="40.670567" lon="14.6929186"><ele>629.2857142857142</ele><time>2026-04-18T08:15:33.063Z</time></trkpt><trkpt lat="40.6705891" lon="14.6928347"><ele>626.4285714285713</ele><time>2026-04-18T08:15:38.064Z</time></trkpt><trkpt lat="40.6706138" lon="14.6927488"><ele>623.5714285714286</ele><time>2026-04-18T08:15:43.063Z</time></trkpt><trkpt lat="40.6706502" lon="14.6926751"><ele>620.7142857142858</ele><time>2026-04-18T08:15:48.063Z</time></trkpt><trkpt lat="40.6706845" lon="14.692584"><ele>617.8571428571428</ele><time>2026-04-18T08:15:54.063Z</time></trkpt><trkpt lat="40.6707043" lon="14.6925004"><ele>615.0</ele><time>2026-04-18T08:16:01.063Z</time></trkpt><trkpt lat="40.670723" lon="14.6924065"><ele>615.0</ele><time>2026-04-18T08:16:09.064Z</time></trkpt><trkpt lat="40.670706" lon="14.6923121"><ele>615.0</ele><time>2026-04-18T08:16:15.063Z</time></trkpt><trkpt lat="40.670719" lon="14.6922178"><ele>615.0</ele><time>2026-04-18T08:16:22.063Z</time></trkpt><trkpt lat="40.6707259" lon="14.6921288"><ele>615.0</ele><time>2026-04-18T08:16:29.063Z</time></trkpt><trkpt lat="40.6707228" lon="14.6920349"><ele>615.0</ele><time>2026-04-18T08:16:36.063Z</time></trkpt><trkpt lat="40.6707449" lon="14.6919549"><ele>615.0</ele><time>2026-04-18T08:16:41.063Z</time></trkpt><trkpt lat="40.6707377" lon="14.6918523"><ele>615.0</ele><time>2026-04-18T08:16:46.064Z</time></trkpt><trkpt lat="40.6706984" lon="14.6917744"><ele>614.2857142857142</ele><time>2026-04-18T08:16:51.063Z</time></trkpt><trkpt lat="40.6706453" lon="14.6917135"><ele>613.5714285714287</ele><time>2026-04-18T08:16:56.063Z</time></trkpt><trkpt lat="40.6706097" lon="14.6916277"><ele>612.8571428571429</ele><time>2026-04-18T08:17:02.063Z</time></trkpt><trkpt lat="40.6706323" lon="14.6915317"><ele>612.1428571428571</ele><time>2026-04-18T08:17:07.064Z</time></trkpt><trkpt lat="40.6706817" lon="14.6914768"><ele>611.4285714285713</ele><time>2026-04-18T08:17:10.063Z</time></trkpt><trkpt lat="40.6707238" lon="14.6914046"><ele>610.7142857142858</ele><time>2026-04-18T08:17:13.064Z</time></trkpt><trkpt lat="40.6707777" lon="14.6913415"><ele>610.0</ele><time>2026-04-18T08:17:17.063Z</time></trkpt><trkpt lat="40.6707917" lon="14.6912511"><ele>610.0</ele><time>2026-04-18T08:17:24.063Z</time></trkpt><trkpt lat="40.6707994" lon="14.6911582"><ele>610.0</ele><time>2026-04-18T08:17:31.063Z</time></trkpt><trkpt lat="40.6707856" lon="14.6910734"><ele>610.0</ele><time>2026-04-18T08:17:36.063Z</time></trkpt><trkpt lat="40.6707583" lon="14.6909786"><ele>610.0</ele><time>2026-04-18T08:17:42.063Z</time></trkpt><trkpt lat="40.6707231" lon="14.6909008"><ele>610.0</ele><time>2026-04-18T08:17:48.063Z</time></trkpt><trkpt lat="40.6706805" lon="14.6908295"><ele>610.0</ele><time>2026-04-18T08:17:55.063Z</time></trkpt><trkpt lat="40.6706646" lon="14.6907365"><ele>610.0</ele><time>2026-04-18T08:18:01.063Z</time></trkpt><trkpt lat="40.6706585" lon="14.6906434"><ele>609.1428571428572</ele><time>2026-04-18T08:18:07.063Z</time></trkpt><trkpt lat="40.6706381" lon="14.6905627"><ele>608.2857142857142</ele><time>2026-04-18T08:18:14.063Z</time></trkpt><trkpt lat="40.6706302" lon="14.690473"><ele>607.4285714285714</ele><time>2026-04-18T08:18:19.064Z</time></trkpt><trkpt lat="40.6706757" lon="14.690413"><ele>606.5714285714287</ele><time>2026-04-18T08:18:26.063Z</time></trkpt><trkpt lat="40.670737" lon="14.6904356"><ele>605.7142857142858</ele><time>2026-04-18T08:18:30.063Z</time></trkpt><trkpt lat="40.6708" lon="14.6904907"><ele>604.8571428571429</ele><time>2026-04-18T08:18:35.063Z</time></trkpt><trkpt lat="40.6708467" lon="14.690547"><ele>604.0</ele><time>2026-04-18T08:18:40.063Z</time></trkpt><trkpt lat="40.6709025" lon="14.6906104"><ele>604.0000000000001</ele><time>2026-04-18T08:18:45.063Z</time></trkpt><trkpt lat="40.6709659" lon="14.6906225"><ele>604.0</ele><time>2026-04-18T08:18:54.063Z</time></trkpt><trkpt lat="40.6709523" lon="14.6905365"><ele>604.0</ele><time>2026-04-18T08:19:03.063Z</time></trkpt><trkpt lat="40.6709916" lon="14.6904702"><ele>604.0</ele><time>2026-04-18T08:19:09.063Z</time></trkpt><trkpt lat="40.671051" lon="14.6904312"><ele>604.0</ele><time>2026-04-18T08:19:14.063Z</time></trkpt><trkpt lat="40.671124" lon="14.6904039"><ele>604.0000000000001</ele><time>2026-04-18T08:19:22.063Z</time></trkpt><trkpt lat="40.6711929" lon="14.6903923"><ele>604.0</ele><time>2026-04-18T08:19:29.063Z</time></trkpt><trkpt lat="40.6712581" lon="14.6903819"><ele>601.1428571428572</ele><time>2026-04-18T08:19:38.063Z</time></trkpt><trkpt lat="40.6713195" lon="14.6903532"><ele>598.2857142857143</ele><time>2026-04-18T08:19:45.063Z</time></trkpt><trkpt lat="40.671383" lon="14.6903766"><ele>595.4285714285714</ele><time>2026-04-18T08:19:51.063Z</time></trkpt><trkpt lat="40.6714499" lon="14.6903726"><ele>592.5714285714287</ele><time>2026-04-18T08:19:58.063Z</time></trkpt><trkpt lat="40.6715005" lon="14.6904281"><ele>589.7142857142858</ele><time>2026-04-18T08:20:04.063Z</time></trkpt><trkpt lat="40.6715234" lon="14.6905222"><ele>586.8571428571429</ele><time>2026-04-18T08:20:09.063Z</time></trkpt><trkpt lat="40.6715835" lon="14.690584"><ele>584.0</ele><time>2026-04-18T08:20:14.063Z</time></trkpt><trkpt lat="40.6716219" lon="14.6906726"><ele>584.0</ele><time>2026-04-18T08:20:18.063Z</time></trkpt><trkpt lat="40.6716178" lon="14.6907589"><ele>584.0</ele><time>2026-04-18T08:20:22.063Z</time></trkpt><trkpt lat="40.6715646" lon="14.6908076"><ele>584.0</ele><time>2026-04-18T08:20:31.063Z</time></trkpt><trkpt lat="40.6715594" lon="14.6907146"><ele>584.0</ele><time>2026-04-18T08:21:48.063Z</time></trkpt><trkpt lat="40.6716213" lon="14.6907385"><ele>584.0</ele><time>2026-04-18T08:22:12.064Z</time></trkpt><trkpt lat="40.6716226" lon="14.6908215"><ele>584.0</ele><time>2026-04-18T08:22:19.063Z</time></trkpt><trkpt lat="40.6716534" lon="14.6908946"><ele>584.0</ele><time>2026-04-18T08:22:27.064Z</time></trkpt><trkpt lat="40.6716978" lon="14.6909618"><ele>584.0</ele><time>2026-04-18T08:22:32.064Z</time></trkpt><trkpt lat="40.6717617" lon="14.6910097"><ele>584.0</ele><time>2026-04-18T08:22:40.064Z</time></trkpt><trkpt lat="40.6718096" lon="14.6910706"><ele>584.0</ele><time>2026-04-18T08:22:46.064Z</time></trkpt><trkpt lat="40.6718426" lon="14.6911439"><ele>584.0</ele><time>2026-04-18T08:22:51.065Z</time></trkpt><trkpt lat="40.6718533" lon="14.6912354"><ele>584.0</ele><time>2026-04-18T08:22:58.064Z</time></trkpt><trkpt lat="40.6718669" lon="14.6913259"><ele>584.0</ele><time>2026-04-18T08:23:03.064Z</time></trkpt><trkpt lat="40.6718944" lon="14.6914142"><ele>584.0</ele><time>2026-04-18T08:23:08.064Z</time></trkpt><trkpt lat="40.6718821" lon="14.6915121"><ele>581.8571428571429</ele><time>2026-04-18T08:23:13.064Z</time></trkpt><trkpt lat="40.6718748" lon="14.6916012"><ele>579.7142857142858</ele><time>2026-04-18T08:23:18.064Z</time></trkpt><trkpt lat="40.6718424" lon="14.6916873"><ele>577.5714285714287</ele><time>2026-04-18T08:23:24.064Z</time></trkpt><trkpt lat="40.6718331" lon="14.691782"><ele>575.4285714285714</ele><time>2026-04-18T08:23:29.064Z</time></trkpt><trkpt lat="40.6718173" lon="14.6918646"><ele>573.2857142857143</ele><time>2026-04-18T08:23:34.064Z</time></trkpt><trkpt lat="40.6717656" lon="14.6919225"><ele>571.1428571428572</ele><time>2026-04-18T08:23:50.064Z</time></trkpt><trkpt lat="40.671746" lon="14.6920197"><ele>569.0</ele><time>2026-04-18T08:23:55.064Z</time></trkpt><trkpt lat="40.6717461" lon="14.6921038"><ele>567.8571428571429</ele><time>2026-04-18T08:24:02.064Z</time></trkpt><trkpt lat="40.6717363" lon="14.6921899"><ele>566.7142857142858</ele><time>2026-04-18T08:24:10.064Z</time></trkpt><trkpt lat="40.6717701" lon="14.6922735"><ele>565.5714285714286</ele><time>2026-04-18T08:24:21.064Z</time></trkpt><trkpt lat="40.6717934" lon="14.6923508"><ele>564.4285714285714</ele><time>2026-04-18T08:24:27.064Z</time></trkpt><trkpt lat="40.6718185" lon="14.6924333"><ele>563.2857142857142</ele><time>2026-04-18T08:24:34.064Z</time></trkpt><trkpt lat="40.6718524" lon="14.6925108"><ele>562.1428571428571</ele><time>2026-04-18T08:24:44.064Z</time></trkpt><trkpt lat="40.6719366" lon="14.6925501"><ele>561.0</ele><time>2026-04-18T08:24:59.064Z</time></trkpt><trkpt lat="40.6719924" lon="14.6925971"><ele>557.7142857142857</ele><time>2026-04-18T08:25:08.064Z</time></trkpt><trkpt lat="40.672056" lon="14.6926526"><ele>554.4285714285713</ele><time>2026-04-18T08:27:43.065Z</time></trkpt><trkpt lat="40.672118" lon="14.6926096"><ele>551.1428571428571</ele><time>2026-04-18T08:27:50.064Z</time></trkpt><trkpt lat="40.6721848" lon="14.6925811"><ele>547.8571428571429</ele><time>2026-04-18T08:27:58.064Z</time></trkpt><trkpt lat="40.6722295" lon="14.6925078"><ele>544.5714285714287</ele><time>2026-04-18T08:28:06.064Z</time></trkpt><trkpt lat="40.6722913" lon="14.6924606"><ele>541.2857142857143</ele><time>2026-04-18T08:28:12.064Z</time></trkpt><trkpt lat="40.6723584" lon="14.6924456"><ele>538.0</ele><time>2026-04-18T08:28:18.064Z</time></trkpt><trkpt lat="40.6724279" lon="14.6924337"><ele>538.0</ele><time>2026-04-18T08:28:25.064Z</time></trkpt><trkpt lat="40.6724881" lon="14.6924791"><ele>538.0</ele><time>2026-04-18T08:28:30.064Z</time></trkpt><trkpt lat="40.6725528" lon="14.6925205"><ele>538.0</ele><time>2026-04-18T08:28:35.064Z</time></trkpt><trkpt lat="40.6726126" lon="14.6925485"><ele>538.0</ele><time>2026-04-18T08:28:39.065Z</time></trkpt><trkpt lat="40.6726785" lon="14.6925758"><ele>538.0</ele><time>2026-04-18T08:28:44.064Z</time></trkpt><trkpt lat="40.672734" lon="14.6926203"><ele>538.0</ele><time>2026-04-18T08:28:52.064Z</time></trkpt><trkpt lat="40.6727965" lon="14.6925998"><ele>538.0</ele><time>2026-04-18T08:29:07.065Z</time></trkpt><trkpt lat="40.6728409" lon="14.6925296"><ele>536.1428571428571</ele><time>2026-04-18T08:29:20.064Z</time></trkpt><trkpt lat="40.6729031" lon="14.692496"><ele>534.2857142857143</ele><time>2026-04-18T08:29:27.064Z</time></trkpt><trkpt lat="40.6729694" lon="14.6925177"><ele>532.4285714285714</ele><time>2026-04-18T08:29:32.064Z</time></trkpt><trkpt lat="40.6730219" lon="14.6925667"><ele>530.5714285714286</ele><time>2026-04-18T08:29:38.064Z</time></trkpt><trkpt lat="40.6730749" lon="14.6926212"><ele>528.7142857142858</ele><time>2026-04-18T08:29:45.064Z</time></trkpt><trkpt lat="40.6731353" lon="14.6926692"><ele>526.8571428571429</ele><time>2026-04-18T08:29:50.064Z</time></trkpt><trkpt lat="40.6731983" lon="14.692688"><ele>525.0</ele><time>2026-04-18T08:29:59.064Z</time></trkpt><trkpt lat="40.6733282" lon="14.6927006"><ele>525.0</ele><time>2026-04-18T08:30:28.064Z</time></trkpt><trkpt lat="40.6734014" lon="14.6927217"><ele>525.0</ele><time>2026-04-18T08:30:34.064Z</time></trkpt><trkpt lat="40.6734736" lon="14.6927266"><ele>525.0</ele><time>2026-04-18T08:30:39.064Z</time></trkpt><trkpt lat="40.6735434" lon="14.6927381"><ele>525.0</ele><time>2026-04-18T08:30:44.064Z</time></trkpt><trkpt lat="40.6736137" lon="14.6927449"><ele>525.0</ele><time>2026-04-18T08:30:50.064Z</time></trkpt><trkpt lat="40.6736794" lon="14.6927616"><ele>525.0</ele><time>2026-04-18T08:30:55.064Z</time></trkpt><trkpt lat="40.6737449" lon="14.692782"><ele>525.0</ele><time>2026-04-18T08:31:00.064Z</time></trkpt><trkpt lat="40.6738123" lon="14.6927799"><ele>522.1428571428571</ele><time>2026-04-18T08:31:04.064Z</time></trkpt><trkpt lat="40.6738748" lon="14.6927644"><ele>519.2857142857142</ele><time>2026-04-18T08:31:10.064Z</time></trkpt><trkpt lat="40.6739338" lon="14.6927218"><ele>516.4285714285714</ele><time>2026-04-18T08:31:16.064Z</time></trkpt><trkpt lat="40.6739733" lon="14.6926559"><ele>513.5714285714286</ele><time>2026-04-18T08:31:20.064Z</time></trkpt><trkpt lat="40.6740161" lon="14.6925797"><ele>510.71428571428567</ele><time>2026-04-18T08:31:25.065Z</time></trkpt><trkpt lat="40.674046" lon="14.6924919"><ele>507.85714285714283</ele><time>2026-04-18T08:31:31.064Z</time></trkpt><trkpt lat="40.6740538" lon="14.6924031"><ele>505.0</ele><time>2026-04-18T08:31:37.064Z</time></trkpt><trkpt lat="40.6740566" lon="14.6923067"><ele>505.0</ele><time>2026-04-18T08:31:43.064Z</time></trkpt><trkpt lat="40.6740546" lon="14.6922222"><ele>504.99999999999994</ele><time>2026-04-18T08:31:48.064Z</time></trkpt><trkpt lat="40.6741194" lon="14.692187"><ele>505.0</ele><time>2026-04-18T08:31:57.065Z</time></trkpt><trkpt lat="40.6741872" lon="14.692155"><ele>505.0</ele><time>2026-04-18T08:32:03.064Z</time></trkpt><trkpt lat="40.6742399" lon="14.6921047"><ele>504.99999999999994</ele><time>2026-04-18T08:32:07.064Z</time></trkpt><trkpt lat="40.6743068" lon="14.6920931"><ele>505.0</ele><time>2026-04-18T08:32:12.064Z</time></trkpt><trkpt lat="40.6743323" lon="14.6921856"><ele>505.0</ele><time>2026-04-18T08:32:17.064Z</time></trkpt><trkpt lat="40.6743688" lon="14.6922674"><ele>505.0</ele><time>2026-04-18T08:32:21.064Z</time></trkpt><trkpt lat="40.6743893" lon="14.6923553"><ele>504.99999999999994</ele><time>2026-04-18T08:32:25.064Z</time></trkpt><trkpt lat="40.6743979" lon="14.6924456"><ele>505.0</ele><time>2026-04-18T08:32:30.064Z</time></trkpt><trkpt lat="40.6744236" lon="14.6925268"><ele>505.0</ele><time>2026-04-18T08:32:34.064Z</time></trkpt><trkpt lat="40.6744445" lon="14.6926206"><ele>504.99999999999994</ele><time>2026-04-18T08:32:40.064Z</time></trkpt><trkpt lat="40.6744793" lon="14.6926982"><ele>505.0</ele><time>2026-04-18T08:32:45.064Z</time></trkpt><trkpt lat="40.6745048" lon="14.6927797"><ele>505.0</ele><time>2026-04-18T08:32:50.064Z</time></trkpt><trkpt lat="40.6745147" lon="14.6928783"><ele>507.4285714285714</ele><time>2026-04-18T08:32:57.064Z</time></trkpt><trkpt lat="40.6745345" lon="14.6929726"><ele>509.8571428571428</ele><time>2026-04-18T08:33:02.064Z</time></trkpt><trkpt lat="40.6745547" lon="14.6930639"><ele>512.2857142857142</ele><time>2026-04-18T08:33:07.064Z</time></trkpt><trkpt lat="40.6745711" lon="14.6931454"><ele>514.7142857142857</ele><time>2026-04-18T08:33:12.064Z</time></trkpt><trkpt lat="40.6745944" lon="14.6932312"><ele>517.1428571428571</ele><time>2026-04-18T08:33:17.064Z</time></trkpt><trkpt lat="40.6746251" lon="14.6933054"><ele>519.5714285714286</ele><time>2026-04-18T08:33:21.064Z</time></trkpt><trkpt lat="40.6746428" lon="14.6933875"><ele>522.0</ele><time>2026-04-18T08:33:26.064Z</time></trkpt><trkpt lat="40.6746658" lon="14.6934732"><ele>522.0</ele><time>2026-04-18T08:33:31.064Z</time></trkpt><trkpt lat="40.6746673" lon="14.6935691"><ele>522.0</ele><time>2026-04-18T08:33:37.065Z</time></trkpt><trkpt lat="40.6746646" lon="14.6936662"><ele>522.0</ele><time>2026-04-18T08:33:43.065Z</time></trkpt><trkpt lat="40.6746754" lon="14.6937564"><ele>522.0</ele><time>2026-04-18T08:33:49.064Z</time></trkpt><trkpt lat="40.6746988" lon="14.6938403"><ele>522.0</ele><time>2026-04-18T08:33:54.064Z</time></trkpt><trkpt lat="40.6747106" lon="14.6939309"><ele>522.0</ele><time>2026-04-18T08:33:59.064Z</time></trkpt><trkpt lat="40.6747363" lon="14.6940143"><ele>522.0</ele><time>2026-04-18T08:34:04.064Z</time></trkpt><trkpt lat="40.6747446" lon="14.6941014"><ele>518.2857142857143</ele><time>2026-04-18T08:34:09.065Z</time></trkpt><trkpt lat="40.6747652" lon="14.6941899"><ele>514.5714285714286</ele><time>2026-04-18T08:34:13.064Z</time></trkpt><trkpt lat="40.6747795" lon="14.6942756"><ele>510.8571428571429</ele><time>2026-04-18T08:34:18.064Z</time></trkpt><trkpt lat="40.6747853" lon="14.6943604"><ele>507.14285714285717</ele><time>2026-04-18T08:34:22.064Z</time></trkpt><trkpt lat="40.6748079" lon="14.6944458"><ele>503.42857142857144</ele><time>2026-04-18T08:34:26.064Z</time></trkpt><trkpt lat="40.6748415" lon="14.6945319"><ele>499.7142857142857</ele><time>2026-04-18T08:34:33.064Z</time></trkpt><trkpt lat="40.6748742" lon="14.6946085"><ele>496.0</ele><time>2026-04-18T08:34:38.064Z</time></trkpt><trkpt lat="40.6749312" lon="14.6946522"><ele>493.7142857142857</ele><time>2026-04-18T08:34:43.064Z</time></trkpt><trkpt lat="40.674991" lon="14.6946811"><ele>491.42857142857144</ele><time>2026-04-18T08:34:49.065Z</time></trkpt><trkpt lat="40.6750433" lon="14.6947319"><ele>489.14285714285717</ele><time>2026-04-18T08:34:55.064Z</time></trkpt><trkpt lat="40.6751042" lon="14.6947705"><ele>486.8571428571429</ele><time>2026-04-18T08:35:00.064Z</time></trkpt><trkpt lat="40.6751674" lon="14.6947949"><ele>484.57142857142856</ele><time>2026-04-18T08:35:05.064Z</time></trkpt><trkpt lat="40.6752212" lon="14.6948526"><ele>482.28571428571433</ele><time>2026-04-18T08:35:09.064Z</time></trkpt><trkpt lat="40.6752903" lon="14.6948873"><ele>480.0</ele><time>2026-04-18T08:35:14.064Z</time></trkpt><trkpt lat="40.6753635" lon="14.6948959"><ele>480.0</ele><time>2026-04-18T08:35:21.065Z</time></trkpt><trkpt lat="40.6754333" lon="14.6949206"><ele>480.0</ele><time>2026-04-18T08:35:27.064Z</time></trkpt><trkpt lat="40.6754983" lon="14.694942"><ele>480.0</ele><time>2026-04-18T08:35:34.064Z</time></trkpt><trkpt lat="40.6755641" lon="14.6949544"><ele>480.0</ele><time>2026-04-18T08:35:42.064Z</time></trkpt><trkpt lat="40.6756323" lon="14.6949722"><ele>480.0</ele><time>2026-04-18T08:35:47.064Z</time></trkpt><trkpt lat="40.6756987" lon="14.6949919"><ele>480.0</ele><time>2026-04-18T08:35:51.064Z</time></trkpt><trkpt lat="40.6757674" lon="14.6950135"><ele>480.0</ele><time>2026-04-18T08:35:55.064Z</time></trkpt><trkpt lat="40.6758714" lon="14.6950229"><ele>480.0</ele><time>2026-04-18T08:36:03.064Z</time></trkpt><trkpt lat="40.6759411" lon="14.6950264"><ele>480.0</ele><time>2026-04-18T08:36:09.064Z</time></trkpt><trkpt lat="40.6760046" lon="14.6950377"><ele>480.0</ele><time>2026-04-18T08:36:16.065Z</time></trkpt><trkpt lat="40.6760755" lon="14.6950517"><ele>480.0</ele><time>2026-04-18T08:36:22.064Z</time></trkpt><trkpt lat="40.6762716" lon="14.695077"><ele>480.0</ele><time>2026-04-18T08:36:36.064Z</time></trkpt><trkpt lat="40.6763345" lon="14.6950959"><ele>479.7142857142857</ele><time>2026-04-18T08:36:39.064Z</time></trkpt><trkpt lat="40.6764175" lon="14.6951033"><ele>479.42857142857144</ele><time>2026-04-18T08:36:44.064Z</time></trkpt><trkpt lat="40.6764837" lon="14.6951391"><ele>479.14285714285717</ele><time>2026-04-18T08:36:52.065Z</time></trkpt><trkpt lat="40.6765566" lon="14.6951501"><ele>478.8571428571429</ele><time>2026-04-18T08:36:57.064Z</time></trkpt><trkpt lat="40.6766154" lon="14.6951906"><ele>478.57142857142856</ele><time>2026-04-18T08:37:01.064Z</time></trkpt><trkpt lat="40.6766728" lon="14.695238"><ele>478.28571428571433</ele><time>2026-04-18T08:37:05.064Z</time></trkpt><trkpt lat="40.6767254" lon="14.6953"><ele>478.00000000000006</ele><time>2026-04-18T08:37:09.064Z</time></trkpt><trkpt lat="40.6767882" lon="14.6953367"><ele>475.00000000000006</ele><time>2026-04-18T08:37:14.064Z</time></trkpt><trkpt lat="40.6768513" lon="14.6953637"><ele>472.0</ele><time>2026-04-18T08:37:19.064Z</time></trkpt><trkpt lat="40.676917" lon="14.6953509"><ele>469.00000000000006</ele><time>2026-04-18T08:37:24.064Z</time></trkpt><trkpt lat="40.6769801" lon="14.6953606"><ele>466.00000000000006</ele><time>2026-04-18T08:37:29.064Z</time></trkpt><trkpt lat="40.6770447" lon="14.6953869"><ele>463.0</ele><time>2026-04-18T08:37:36.064Z</time></trkpt><trkpt lat="40.6771087" lon="14.6954083"><ele>460.00000000000006</ele><time>2026-04-18T08:37:41.064Z</time></trkpt><trkpt lat="40.6771715" lon="14.695433"><ele>457.00000000000006</ele><time>2026-04-18T08:37:46.064Z</time></trkpt><trkpt lat="40.677235" lon="14.6954332"><ele>454.5714285714286</ele><time>2026-04-18T08:37:52.064Z</time></trkpt><trkpt lat="40.6773072" lon="14.6954231"><ele>452.14285714285717</ele><time>2026-04-18T08:37:57.064Z</time></trkpt><trkpt lat="40.6773709" lon="14.6954081"><ele>449.7142857142857</ele><time>2026-04-18T08:38:03.064Z</time></trkpt><trkpt lat="40.6774424" lon="14.6954035"><ele>447.28571428571433</ele><time>2026-04-18T08:38:08.064Z</time></trkpt><trkpt lat="40.6775073" lon="14.6953956"><ele>444.8571428571429</ele><time>2026-04-18T08:38:13.064Z</time></trkpt><trkpt lat="40.6775725" lon="14.6953781"><ele>442.4285714285714</ele><time>2026-04-18T08:38:18.064Z</time></trkpt><trkpt lat="40.6776344" lon="14.6953291"><ele>440.0</ele><time>2026-04-18T08:38:23.064Z</time></trkpt><trkpt lat="40.6777004" lon="14.6953091"><ele>439.99999999999994</ele><time>2026-04-18T08:38:28.064Z</time></trkpt><trkpt lat="40.6777613" lon="14.6952653"><ele>440.0</ele><time>2026-04-18T08:38:34.064Z</time></trkpt><trkpt lat="40.6778217" lon="14.6952417"><ele>440.0</ele><time>2026-04-18T08:38:39.064Z</time></trkpt><trkpt lat="40.6778854" lon="14.6952058"><ele>440.0</ele><time>2026-04-18T08:38:44.064Z</time></trkpt><trkpt lat="40.6779417" lon="14.6951629"><ele>440.0</ele><time>2026-04-18T08:38:49.064Z</time></trkpt><trkpt lat="40.6780085" lon="14.695121"><ele>439.99999999999994</ele><time>2026-04-18T08:38:55.064Z</time></trkpt><trkpt lat="40.6780674" lon="14.6950862"><ele>440.0</ele><time>2026-04-18T08:39:00.064Z</time></trkpt><trkpt lat="40.6781352" lon="14.6950628"><ele>439.85714285714283</ele><time>2026-04-18T08:39:05.065Z</time></trkpt><trkpt lat="40.6782088" lon="14.6950406"><ele>439.7142857142857</ele><time>2026-04-18T08:39:09.065Z</time></trkpt><trkpt lat="40.6782814" lon="14.6950087"><ele>439.57142857142856</ele><time>2026-04-18T08:39:14.064Z</time></trkpt><trkpt lat="40.6783473" lon="14.6949856"><ele>439.42857142857144</ele><time>2026-04-18T08:39:18.064Z</time></trkpt><trkpt lat="40.6784129" lon="14.6949604"><ele>439.2857142857143</ele><time>2026-04-18T08:39:22.064Z</time></trkpt><trkpt lat="40.6784752" lon="14.6949201"><ele>439.1428571428571</ele><time>2026-04-18T08:39:26.064Z</time></trkpt><trkpt lat="40.67853" lon="14.6948777"><ele>439.0</ele><time>2026-04-18T08:39:31.064Z</time></trkpt><trkpt lat="40.6785727" lon="14.6948086"><ele>438.85714285714283</ele><time>2026-04-18T08:39:37.064Z</time></trkpt><trkpt lat="40.6786174" lon="14.6947307"><ele>438.71428571428567</ele><time>2026-04-18T08:39:43.064Z</time></trkpt><trkpt lat="40.6786589" lon="14.6946655"><ele>438.57142857142856</ele><time>2026-04-18T08:39:48.064Z</time></trkpt><trkpt lat="40.6786606" lon="14.6945707"><ele>438.42857142857144</ele><time>2026-04-18T08:39:55.064Z</time></trkpt><trkpt lat="40.6786395" lon="14.6944888"><ele>438.2857142857143</ele><time>2026-04-18T08:40:00.064Z</time></trkpt><trkpt lat="40.6786173" lon="14.694409"><ele>438.14285714285717</ele><time>2026-04-18T08:40:04.065Z</time></trkpt><trkpt lat="40.6785591" lon="14.694351"><ele>438.0</ele><time>2026-04-18T08:40:11.064Z</time></trkpt><trkpt lat="40.6784926" lon="14.6943161"><ele>438.0</ele><time>2026-04-18T08:40:16.065Z</time></trkpt><trkpt lat="40.67842" lon="14.6943358"><ele>438.0</ele><time>2026-04-18T08:40:22.064Z</time></trkpt><trkpt lat="40.6784197" lon="14.6942402"><ele>438.0</ele><time>2026-04-18T08:40:28.064Z</time></trkpt><trkpt lat="40.6784141" lon="14.6941544"><ele>438.0</ele><time>2026-04-18T08:40:33.064Z</time></trkpt><trkpt lat="40.6783892" lon="14.6940621"><ele>438.0</ele><time>2026-04-18T08:40:42.065Z</time></trkpt><trkpt lat="40.6783614" lon="14.693969"><ele>438.0</ele><time>2026-04-18T08:40:47.064Z</time></trkpt><trkpt lat="40.6783105" lon="14.6939115"><ele>438.0</ele><time>2026-04-18T08:40:52.064Z</time></trkpt><trkpt lat="40.6782931" lon="14.6938231"><ele>438.0</ele><time>2026-04-18T08:41:00.064Z</time></trkpt><trkpt lat="40.678321" lon="14.6937372"><ele>438.0</ele><time>2026-04-18T08:41:05.064Z</time></trkpt><trkpt lat="40.6783414" lon="14.6936443"><ele>438.0</ele><time>2026-04-18T08:41:10.064Z</time></trkpt><trkpt lat="40.6783091" lon="14.6935722"><ele>438.0</ele><time>2026-04-18T08:41:15.064Z</time></trkpt><trkpt lat="40.6782581" lon="14.6935189"><ele>438.0</ele><time>2026-04-18T08:41:20.064Z</time></trkpt><trkpt lat="40.6782071" lon="14.6934641"><ele>438.0</ele><time>2026-04-18T08:41:26.064Z</time></trkpt><trkpt lat="40.6781934" lon="14.6933828"><ele>438.0</ele><time>2026-04-18T08:41:32.065Z</time></trkpt><trkpt lat="40.6782291" lon="14.6933124"><ele>438.0</ele><time>2026-04-18T08:41:37.064Z</time></trkpt><trkpt lat="40.678293" lon="14.6932992"><ele>438.0</ele><time>2026-04-18T08:41:41.064Z</time></trkpt><trkpt lat="40.6783596" lon="14.6932884"><ele>438.0</ele><time>2026-04-18T08:41:45.064Z</time></trkpt><trkpt lat="40.6784305" lon="14.6932715"><ele>438.0</ele><time>2026-04-18T08:41:50.064Z</time></trkpt><trkpt lat="40.6784955" lon="14.6932651"><ele>438.0</ele><time>2026-04-18T08:41:55.064Z</time></trkpt><trkpt lat="40.6785622" lon="14.6932798"><ele>438.0</ele><time>2026-04-18T08:41:59.064Z</time></trkpt><trkpt lat="40.6786294" lon="14.6932981"><ele>438.0</ele><time>2026-04-18T08:42:04.064Z</time></trkpt><trkpt lat="40.6786998" lon="14.6933112"><ele>437.0</ele><time>2026-04-18T08:42:10.064Z</time></trkpt><trkpt lat="40.6787661" lon="14.6933277"><ele>436.0</ele><time>2026-04-18T08:42:14.064Z</time></trkpt><trkpt lat="40.6788316" lon="14.6933358"><ele>435.0</ele><time>2026-04-18T08:42:19.064Z</time></trkpt><trkpt lat="40.6788981" lon="14.6933154"><ele>434.0</ele><time>2026-04-18T08:42:25.064Z</time></trkpt><trkpt lat="40.6789687" lon="14.6933018"><ele>433.0</ele><time>2026-04-18T08:42:32.064Z</time></trkpt><trkpt lat="40.6790296" lon="14.6932761"><ele>432.0</ele><time>2026-04-18T08:42:38.064Z</time></trkpt><trkpt lat="40.6791064" lon="14.693256"><ele>431.0</ele><time>2026-04-18T08:42:43.064Z</time></trkpt><trkpt lat="40.6791735" lon="14.6932439"><ele>431.0</ele><time>2026-04-18T08:42:48.064Z</time></trkpt><trkpt lat="40.6792426" lon="14.6932191"><ele>431.0</ele><time>2026-04-18T08:42:53.064Z</time></trkpt><trkpt lat="40.6793064" lon="14.6932054"><ele>431.0</ele><time>2026-04-18T08:42:57.064Z</time></trkpt><trkpt lat="40.6793685" lon="14.693189"><ele>431.0</ele><time>2026-04-18T08:43:01.064Z</time></trkpt><trkpt lat="40.6794323" lon="14.6931768"><ele>431.0</ele><time>2026-04-18T08:43:05.064Z</time></trkpt><trkpt lat="40.679501" lon="14.6931487"><ele>431.0</ele><time>2026-04-18T08:43:09.064Z</time></trkpt><trkpt lat="40.6795648" lon="14.6931146"><ele>431.0</ele><time>2026-04-18T08:43:14.064Z</time></trkpt><trkpt lat="40.6796276" lon="14.6930694"><ele>428.2857142857143</ele><time>2026-04-18T08:43:20.064Z</time></trkpt><trkpt lat="40.6796917" lon="14.693016"><ele>425.57142857142856</ele><time>2026-04-18T08:43:25.064Z</time></trkpt><trkpt lat="40.6797588" lon="14.6929666"><ele>422.85714285714283</ele><time>2026-04-18T08:43:30.064Z</time></trkpt><trkpt lat="40.6797999" lon="14.6928993"><ele>420.1428571428571</ele><time>2026-04-18T08:43:35.064Z</time></trkpt><trkpt lat="40.679848" lon="14.6928441"><ele>417.42857142857144</ele><time>2026-04-18T08:43:40.064Z</time></trkpt><trkpt lat="40.6799005" lon="14.6927918"><ele>414.71428571428567</ele><time>2026-04-18T08:43:45.064Z</time></trkpt><trkpt lat="40.6799484" lon="14.6927341"><ele>412.0</ele><time>2026-04-18T08:43:51.064Z</time></trkpt><trkpt lat="40.6799802" lon="14.6926555"><ele>411.99999999999994</ele><time>2026-04-18T08:43:57.064Z</time></trkpt><trkpt lat="40.680012" lon="14.6925733"><ele>412.0</ele><time>2026-04-18T08:44:03.064Z</time></trkpt><trkpt lat="40.6800168" lon="14.69249"><ele>412.0</ele><time>2026-04-18T08:44:09.064Z</time></trkpt><trkpt lat="40.6800318" lon="14.6924031"><ele>412.0</ele><time>2026-04-18T08:44:15.065Z</time></trkpt><trkpt lat="40.6800547" lon="14.6923173"><ele>412.0</ele><time>2026-04-18T08:44:22.064Z</time></trkpt><trkpt lat="40.6800901" lon="14.6922446"><ele>411.99999999999994</ele><time>2026-04-18T08:44:27.064Z</time></trkpt><trkpt lat="40.6801296" lon="14.6921653"><ele>412.0</ele><time>2026-04-18T08:44:32.064Z</time></trkpt><trkpt lat="40.6801786" lon="14.6921017"><ele>411.99999999999994</ele><time>2026-04-18T08:44:37.064Z</time></trkpt><trkpt lat="40.6802254" lon="14.6920425"><ele>412.0</ele><time>2026-04-18T08:44:41.064Z</time></trkpt><trkpt lat="40.6802578" lon="14.6919645"><ele>412.0</ele><time>2026-04-18T08:44:46.064Z</time></trkpt><trkpt lat="40.6802857" lon="14.6918777"><ele>412.0</ele><time>2026-04-18T08:44:52.064Z</time></trkpt><trkpt lat="40.6802731" lon="14.6917951"><ele>412.0</ele><time>2026-04-18T08:44:58.064Z</time></trkpt><trkpt lat="40.680265" lon="14.691709"><ele>411.99999999999994</ele><time>2026-04-18T08:45:04.064Z</time></trkpt><trkpt lat="40.6802266" lon="14.6916288"><ele>412.0</ele><time>2026-04-18T08:45:10.065Z</time></trkpt><trkpt lat="40.6801737" lon="14.6915654"><ele>411.00000000000006</ele><time>2026-04-18T08:45:17.064Z</time></trkpt><trkpt lat="40.6801148" lon="14.6915154"><ele>410.0</ele><time>2026-04-18T08:45:23.064Z</time></trkpt><trkpt lat="40.6800566" lon="14.6914472"><ele>409.0</ele><time>2026-04-18T08:45:28.064Z</time></trkpt><trkpt lat="40.6799922" lon="14.6914067"><ele>408.0</ele><time>2026-04-18T08:45:34.064Z</time></trkpt><trkpt lat="40.679924" lon="14.691412"><ele>407.00000000000006</ele><time>2026-04-18T08:45:42.064Z</time></trkpt><trkpt lat="40.6798599" lon="14.6914129"><ele>406.0</ele><time>2026-04-18T08:45:49.064Z</time></trkpt><trkpt lat="40.6797842" lon="14.6913271"><ele>406.00000000000006</ele><time>2026-04-18T08:46:19.065Z</time></trkpt><trkpt lat="40.6798258" lon="14.6912013"><ele>406.0</ele><time>2026-04-18T08:46:38.064Z</time></trkpt><trkpt lat="40.6799185" lon="14.6911442"><ele>406.0</ele><time>2026-04-18T08:46:47.064Z</time></trkpt><trkpt lat="40.6799777" lon="14.6911003"><ele>406.0</ele><time>2026-04-18T08:46:53.064Z</time></trkpt><trkpt lat="40.6800423" lon="14.6910892"><ele>406.00000000000006</ele><time>2026-04-18T08:46:58.064Z</time></trkpt><trkpt lat="40.6801177" lon="14.6911093"><ele>406.0</ele><time>2026-04-18T08:47:04.064Z</time></trkpt><trkpt lat="40.680187" lon="14.6910904"><ele>407.14285714285717</ele><time>2026-04-18T08:47:09.064Z</time></trkpt><trkpt lat="40.6802406" lon="14.6910389"><ele>408.2857142857143</ele><time>2026-04-18T08:47:16.064Z</time></trkpt><trkpt lat="40.6803016" lon="14.6910015"><ele>409.42857142857144</ele><time>2026-04-18T08:47:22.065Z</time></trkpt><trkpt lat="40.6803639" lon="14.6909773"><ele>410.57142857142856</ele><time>2026-04-18T08:47:31.064Z</time></trkpt><trkpt lat="40.6804327" lon="14.6909636"><ele>411.7142857142857</ele><time>2026-04-18T08:47:37.064Z</time></trkpt><trkpt lat="40.680493" lon="14.6909323"><ele>412.8571428571429</ele><time>2026-04-18T08:47:41.064Z</time></trkpt><trkpt lat="40.6805677" lon="14.6909039"><ele>414.0</ele><time>2026-04-18T08:47:47.065Z</time></trkpt><trkpt lat="40.680632" lon="14.6908796"><ele>409.28571428571433</ele><time>2026-04-18T08:47:52.064Z</time></trkpt><trkpt lat="40.680701" lon="14.6908984"><ele>404.57142857142856</ele><time>2026-04-18T08:47:58.064Z</time></trkpt><trkpt lat="40.6807671" lon="14.6909128"><ele>399.8571428571429</ele><time>2026-04-18T08:48:04.064Z</time></trkpt><trkpt lat="40.6808335" lon="14.6909076"><ele>395.14285714285717</ele><time>2026-04-18T08:48:09.064Z</time></trkpt><trkpt lat="40.680917" lon="14.6909243"><ele>390.42857142857144</ele><time>2026-04-18T08:48:13.064Z</time></trkpt><trkpt lat="40.6809766" lon="14.6909513"><ele>385.7142857142857</ele><time>2026-04-18T08:48:18.064Z</time></trkpt><trkpt lat="40.6810367" lon="14.6909843"><ele>381.0</ele><time>2026-04-18T08:48:23.064Z</time></trkpt><trkpt lat="40.6810963" lon="14.6910486"><ele>377.0</ele><time>2026-04-18T08:48:28.064Z</time></trkpt><trkpt lat="40.6811202" lon="14.6911365"><ele>373.0</ele><time>2026-04-18T08:48:34.064Z</time></trkpt><trkpt lat="40.6811108" lon="14.6910537"><ele>369.0</ele><time>2026-04-18T08:49:24.064Z</time></trkpt><trkpt lat="40.6811624" lon="14.690991"><ele>365.0</ele><time>2026-04-18T08:49:28.064Z</time></trkpt><trkpt lat="40.6812084" lon="14.6909306"><ele>361.0</ele><time>2026-04-18T08:49:33.065Z</time></trkpt><trkpt lat="40.6812524" lon="14.6908697"><ele>357.0</ele><time>2026-04-18T08:49:39.064Z</time></trkpt><trkpt lat="40.681286" lon="14.6907991"><ele>353.0</ele><time>2026-04-18T08:49:45.064Z</time></trkpt><trkpt lat="40.6812857" lon="14.6907144"><ele>353.0</ele><time>2026-04-18T08:49:51.064Z</time></trkpt><trkpt lat="40.681303" lon="14.6906155"><ele>353.0</ele><time>2026-04-18T08:49:56.064Z</time></trkpt><trkpt lat="40.6813353" lon="14.6905393"><ele>353.0</ele><time>2026-04-18T08:50:01.064Z</time></trkpt><trkpt lat="40.681353" lon="14.6904445"><ele>353.0</ele><time>2026-04-18T08:50:07.064Z</time></trkpt><trkpt lat="40.6813609" lon="14.6903553"><ele>353.0</ele><time>2026-04-18T08:50:12.064Z</time></trkpt><trkpt lat="40.6813902" lon="14.6902629"><ele>353.0</ele><time>2026-04-18T08:50:24.064Z</time></trkpt><trkpt lat="40.6814485" lon="14.690206"><ele>353.0</ele><time>2026-04-18T08:50:29.064Z</time></trkpt><trkpt lat="40.6815083" lon="14.6901637"><ele>353.4285714285714</ele><time>2026-04-18T08:50:34.064Z</time></trkpt><trkpt lat="40.6815762" lon="14.6901463"><ele>353.8571428571429</ele><time>2026-04-18T08:50:38.064Z</time></trkpt><trkpt lat="40.6816468" lon="14.6901374"><ele>354.2857142857143</ele><time>2026-04-18T08:50:44.064Z</time></trkpt><trkpt lat="40.6816638" lon="14.6900552"><ele>354.71428571428567</ele><time>2026-04-18T08:50:57.064Z</time></trkpt><trkpt lat="40.6817211" lon="14.6900035"><ele>355.1428571428571</ele><time>2026-04-18T08:51:03.064Z</time></trkpt><trkpt lat="40.6817112" lon="14.689914"><ele>355.57142857142856</ele><time>2026-04-18T08:51:15.064Z</time></trkpt><trkpt lat="40.6817259" lon="14.6898318"><ele>356.0</ele><time>2026-04-18T08:51:21.064Z</time></trkpt><trkpt lat="40.6817161" lon="14.6897418"><ele>355.99999999999994</ele><time>2026-04-18T08:51:28.064Z</time></trkpt><trkpt lat="40.6817467" lon="14.6896616"><ele>356.0</ele><time>2026-04-18T08:51:36.064Z</time></trkpt><trkpt lat="40.6818091" lon="14.6897042"><ele>356.0</ele><time>2026-04-18T08:51:42.064Z</time></trkpt><trkpt lat="40.6818539" lon="14.6897722"><ele>356.0</ele><time>2026-04-18T08:51:49.064Z</time></trkpt><trkpt lat="40.6818444" lon="14.6898641"><ele>356.0</ele><time>2026-04-18T08:51:54.064Z</time></trkpt><trkpt lat="40.6818454" lon="14.689956"><ele>355.99999999999994</ele><time>2026-04-18T08:52:00.064Z</time></trkpt><trkpt lat="40.6818538" lon="14.6900582"><ele>356.0</ele><time>2026-04-18T08:52:07.064Z</time></trkpt><trkpt lat="40.6818564" lon="14.6901578"><ele>355.99999999999994</ele><time>2026-04-18T08:52:12.065Z</time></trkpt><trkpt lat="40.6818277" lon="14.6902512"><ele>356.0</ele><time>2026-04-18T08:52:17.064Z</time></trkpt><trkpt lat="40.6817693" lon="14.6903086"><ele>356.0</ele><time>2026-04-18T08:52:23.064Z</time></trkpt><trkpt lat="40.6817084" lon="14.6903576"><ele>356.0</ele><time>2026-04-18T08:52:30.064Z</time></trkpt><trkpt lat="40.6816625" lon="14.690421"><ele>356.0</ele><time>2026-04-18T08:52:38.064Z</time></trkpt><trkpt lat="40.6816466" lon="14.6905067"><ele>355.99999999999994</ele><time>2026-04-18T08:52:44.064Z</time></trkpt><trkpt lat="40.6816256" lon="14.6905994"><ele>356.0</ele><time>2026-04-18T08:52:51.064Z</time></trkpt><trkpt lat="40.6815927" lon="14.6906848"><ele>355.57142857142856</ele><time>2026-04-18T08:52:56.064Z</time></trkpt><trkpt lat="40.6815919" lon="14.690774"><ele>355.1428571428571</ele><time>2026-04-18T08:53:01.064Z</time></trkpt><trkpt lat="40.6815379" lon="14.6908447"><ele>354.71428571428567</ele><time>2026-04-18T08:53:06.064Z</time></trkpt><trkpt lat="40.681537" lon="14.6909395"><ele>354.2857142857143</ele><time>2026-04-18T08:53:12.064Z</time></trkpt><trkpt lat="40.6815497" lon="14.6910261"><ele>353.8571428571429</ele><time>2026-04-18T08:53:17.064Z</time></trkpt><trkpt lat="40.681556" lon="14.691111"><ele>353.4285714285714</ele><time>2026-04-18T08:53:22.064Z</time></trkpt><trkpt lat="40.6815416" lon="14.6911975"><ele>353.0</ele><time>2026-04-18T08:53:28.064Z</time></trkpt><trkpt lat="40.6815686" lon="14.6912837"><ele>351.85714285714283</ele><time>2026-04-18T08:53:34.064Z</time></trkpt><trkpt lat="40.6815947" lon="14.6913762"><ele>350.7142857142857</ele><time>2026-04-18T08:53:39.064Z</time></trkpt><trkpt lat="40.6816657" lon="14.6914031"><ele>349.57142857142856</ele><time>2026-04-18T08:54:23.064Z</time></trkpt><trkpt lat="40.6817337" lon="14.6914024"><ele>348.42857142857144</ele><time>2026-04-18T08:54:28.064Z</time></trkpt><trkpt lat="40.6817987" lon="14.6914101"><ele>347.2857142857143</ele><time>2026-04-18T08:54:34.065Z</time></trkpt><trkpt lat="40.6817676" lon="14.6913357"><ele>346.14285714285717</ele><time>2026-04-18T08:54:45.064Z</time></trkpt><trkpt lat="40.6817423" lon="14.6912526"><ele>345.0</ele><time>2026-04-18T08:54:51.064Z</time></trkpt><trkpt lat="40.6817223" lon="14.6911688"><ele>345.0</ele><time>2026-04-18T08:54:57.064Z</time></trkpt><trkpt lat="40.6817396" lon="14.6910767"><ele>345.0</ele><time>2026-04-18T08:55:03.064Z</time></trkpt><trkpt lat="40.6818147" lon="14.6910592"><ele>345.0</ele><time>2026-04-18T08:55:08.064Z</time></trkpt><trkpt lat="40.6818313" lon="14.6911413"><ele>345.0</ele><time>2026-04-18T08:55:14.064Z</time></trkpt><trkpt lat="40.681865" lon="14.6912272"><ele>345.0</ele><time>2026-04-18T08:55:20.064Z</time></trkpt><trkpt lat="40.6818822" lon="14.6913093"><ele>345.0</ele><time>2026-04-18T08:55:26.064Z</time></trkpt><trkpt lat="40.6818953" lon="14.6914046"><ele>345.0</ele><time>2026-04-18T08:55:33.064Z</time></trkpt><trkpt lat="40.681921" lon="14.6914817"><ele>350.42857142857144</ele><time>2026-04-18T08:55:39.064Z</time></trkpt><trkpt lat="40.6819439" lon="14.6915806"><ele>355.85714285714283</ele><time>2026-04-18T08:56:27.064Z</time></trkpt><trkpt lat="40.6819641" lon="14.6915017"><ele>361.2857142857143</ele><time>2026-04-18T08:56:41.064Z</time></trkpt><trkpt lat="40.6819436" lon="14.6914224"><ele>366.7142857142857</ele><time>2026-04-18T08:56:47.064Z</time></trkpt><trkpt lat="40.6820016" lon="14.69139"><ele>372.1428571428571</ele><time>2026-04-18T08:56:58.064Z</time></trkpt><trkpt lat="40.6820449" lon="14.6914573"><ele>377.57142857142856</ele><time>2026-04-18T08:57:05.064Z</time></trkpt><trkpt lat="40.6820619" lon="14.6915531"><ele>383.0</ele><time>2026-04-18T08:57:11.064Z</time></trkpt><trkpt lat="40.6820523" lon="14.6916375"><ele>383.0</ele><time>2026-04-18T08:57:16.065Z</time></trkpt><trkpt lat="40.6820387" lon="14.6917218"><ele>383.0</ele><time>2026-04-18T08:57:21.064Z</time></trkpt><trkpt lat="40.6820832" lon="14.6916502"><ele>383.0</ele><time>2026-04-18T08:57:32.064Z</time></trkpt><trkpt lat="40.6820695" lon="14.6915555"><ele>383.0</ele><time>2026-04-18T08:57:39.064Z</time></trkpt><trkpt lat="40.6821319" lon="14.6915957"><ele>383.0</ele><time>2026-04-18T08:57:55.064Z</time></trkpt><trkpt lat="40.682153" lon="14.6916782"><ele>383.0</ele><time>2026-04-18T08:58:05.064Z</time></trkpt><trkpt lat="40.6821268" lon="14.6917745"><ele>383.0</ele><time>2026-04-18T08:58:12.064Z</time></trkpt><trkpt lat="40.6821327" lon="14.6918754"><ele>381.42857142857144</ele><time>2026-04-18T08:58:18.064Z</time></trkpt><trkpt lat="40.6821391" lon="14.6919642"><ele>379.85714285714283</ele><time>2026-04-18T08:58:23.064Z</time></trkpt><trkpt lat="40.6821409" lon="14.6920534"><ele>378.28571428571433</ele><time>2026-04-18T08:58:27.064Z</time></trkpt><trkpt lat="40.6821407" lon="14.6921416"><ele>376.7142857142857</ele><time>2026-04-18T08:58:32.064Z</time></trkpt><trkpt lat="40.6821419" lon="14.6922249"><ele>375.14285714285717</ele><time>2026-04-18T08:58:37.064Z</time></trkpt><trkpt lat="40.6821363" lon="14.6923208"><ele>373.5714285714286</ele><time>2026-04-18T08:58:43.064Z</time></trkpt><trkpt lat="40.6821159" lon="14.6924086"><ele>372.0</ele><time>2026-04-18T08:58:48.064Z</time></trkpt><trkpt lat="40.6821304" lon="14.6924987"><ele>372.00000000000006</ele><time>2026-04-18T08:58:54.064Z</time></trkpt><trkpt lat="40.6821875" lon="14.6925649"><ele>372.0</ele><time>2026-04-18T08:59:00.064Z</time></trkpt><trkpt lat="40.682231" lon="14.6926363"><ele>372.0</ele><time>2026-04-18T08:59:08.064Z</time></trkpt><trkpt lat="40.682286" lon="14.6926866"><ele>372.0</ele><time>2026-04-18T08:59:13.064Z</time></trkpt><trkpt lat="40.6823295" lon="14.6927615"><ele>372.0</ele><time>2026-04-18T08:59:18.064Z</time></trkpt><trkpt lat="40.6823661" lon="14.6928317"><ele>372.00000000000006</ele><time>2026-04-18T08:59:24.064Z</time></trkpt><trkpt lat="40.6823964" lon="14.6929083"><ele>372.0</ele><time>2026-04-18T08:59:30.064Z</time></trkpt><trkpt lat="40.6824415" lon="14.6929726"><ele>369.5714285714286</ele><time>2026-04-18T08:59:36.065Z</time></trkpt><trkpt lat="40.6824634" lon="14.6930769"><ele>367.14285714285717</ele><time>2026-04-18T09:00:18.064Z</time></trkpt><trkpt lat="40.6824663" lon="14.6931618"><ele>364.7142857142857</ele><time>2026-04-18T09:00:24.064Z</time></trkpt><trkpt lat="40.6824833" lon="14.6932527"><ele>362.28571428571433</ele><time>2026-04-18T09:00:30.064Z</time></trkpt><trkpt lat="40.682505" lon="14.6933385"><ele>359.8571428571429</ele><time>2026-04-18T09:00:36.064Z</time></trkpt><trkpt lat="40.682536" lon="14.6934191"><ele>357.42857142857144</ele><time>2026-04-18T09:00:41.064Z</time></trkpt><trkpt lat="40.6825739" lon="14.693486"><ele>355.0</ele><time>2026-04-18T09:00:46.064Z</time></trkpt><trkpt lat="40.6826191" lon="14.6935442"><ele>355.0</ele><time>2026-04-18T09:00:50.064Z</time></trkpt><trkpt lat="40.6826534" lon="14.6936199"><ele>355.0</ele><time>2026-04-18T09:00:55.064Z</time></trkpt><trkpt lat="40.6827103" lon="14.6936561"><ele>355.0</ele><time>2026-04-18T09:00:59.064Z</time></trkpt><trkpt lat="40.6827673" lon="14.6936988"><ele>355.0</ele><time>2026-04-18T09:01:04.064Z</time></trkpt><trkpt lat="40.6828395" lon="14.6937254"><ele>355.0</ele><time>2026-04-18T09:01:09.064Z</time></trkpt><trkpt lat="40.6829127" lon="14.6937242"><ele>355.0</ele><time>2026-04-18T09:01:15.065Z</time></trkpt><trkpt lat="40.6829711" lon="14.6936921"><ele>355.0</ele><time>2026-04-18T09:01:20.064Z</time></trkpt><trkpt lat="40.6830259" lon="14.6936357"><ele>356.85714285714283</ele><time>2026-04-18T09:01:25.064Z</time></trkpt><trkpt lat="40.6830748" lon="14.6935784"><ele>358.7142857142857</ele><time>2026-04-18T09:01:30.064Z</time></trkpt><trkpt lat="40.683119" lon="14.6935028"><ele>360.57142857142856</ele><time>2026-04-18T09:01:35.064Z</time></trkpt><trkpt lat="40.6831511" lon="14.6934111"><ele>362.42857142857144</ele><time>2026-04-18T09:01:40.064Z</time></trkpt><trkpt lat="40.6831791" lon="14.6933348"><ele>364.2857142857143</ele><time>2026-04-18T09:01:45.064Z</time></trkpt><trkpt lat="40.6832201" lon="14.693257"><ele>366.14285714285717</ele><time>2026-04-18T09:01:50.065Z</time></trkpt><trkpt lat="40.683274" lon="14.6931995"><ele>368.0</ele><time>2026-04-18T09:01:55.064Z</time></trkpt><trkpt lat="40.6833423" lon="14.6932043"><ele>368.0</ele><time>2026-04-18T09:02:05.064Z</time></trkpt><trkpt lat="40.6834097" lon="14.6931712"><ele>368.0</ele><time>2026-04-18T09:02:13.065Z</time></trkpt><trkpt lat="40.6834572" lon="14.693107"><ele>368.0</ele><time>2026-04-18T09:02:19.064Z</time></trkpt><trkpt lat="40.6835111" lon="14.6930418"><ele>368.0</ele><time>2026-04-18T09:02:26.064Z</time></trkpt><trkpt lat="40.6835676" lon="14.6929868"><ele>368.0</ele><time>2026-04-18T09:02:31.064Z</time></trkpt><trkpt lat="40.6836172" lon="14.6929272"><ele>368.0</ele><time>2026-04-18T09:02:36.064Z</time></trkpt><trkpt lat="40.6836791" lon="14.6928868"><ele>368.0</ele><time>2026-04-18T09:02:41.064Z</time></trkpt><trkpt lat="40.6837406" lon="14.6928538"><ele>370.14285714285717</ele><time>2026-04-18T09:02:46.064Z</time></trkpt><trkpt lat="40.6838138" lon="14.6928425"><ele>372.2857142857143</ele><time>2026-04-18T09:02:51.064Z</time></trkpt><trkpt lat="40.6838832" lon="14.6928218"><ele>374.42857142857144</ele><time>2026-04-18T09:02:56.064Z</time></trkpt><trkpt lat="40.6839485" lon="14.6928498"><ele>376.57142857142856</ele><time>2026-04-18T09:03:00.064Z</time></trkpt><trkpt lat="40.6840039" lon="14.6929062"><ele>378.71428571428567</ele><time>2026-04-18T09:03:04.064Z</time></trkpt><trkpt lat="40.6840283" lon="14.693004"><ele>380.85714285714283</ele><time>2026-04-18T09:03:09.064Z</time></trkpt><trkpt lat="40.6840036" lon="14.6930881"><ele>383.0</ele><time>2026-04-18T09:03:13.064Z</time></trkpt><trkpt lat="40.6839689" lon="14.6931774"><ele>383.0</ele><time>2026-04-18T09:03:18.064Z</time></trkpt><trkpt lat="40.6839296" lon="14.6932563"><ele>383.0</ele><time>2026-04-18T09:03:23.064Z</time></trkpt><trkpt lat="40.683912" lon="14.6933466"><ele>383.0</ele><time>2026-04-18T09:03:28.064Z</time></trkpt><trkpt lat="40.6838754" lon="14.6934366"><ele>383.0</ele><time>2026-04-18T09:03:33.064Z</time></trkpt><trkpt lat="40.6838627" lon="14.6935313"><ele>383.0</ele><time>2026-04-18T09:03:39.065Z</time></trkpt><trkpt lat="40.6838642" lon="14.6936284"><ele>383.0</ele><time>2026-04-18T09:03:45.064Z</time></trkpt><trkpt lat="40.6838406" lon="14.6937061"><ele>383.0</ele><time>2026-04-18T09:03:50.064Z</time></trkpt><trkpt lat="40.683814" lon="14.6937896"><ele>383.1428571428571</ele><time>2026-04-18T09:04:03.064Z</time></trkpt><trkpt lat="40.6838326" lon="14.693876"><ele>383.2857142857143</ele><time>2026-04-18T09:04:08.064Z</time></trkpt><trkpt lat="40.6838272" lon="14.6939643"><ele>383.42857142857144</ele><time>2026-04-18T09:04:14.064Z</time></trkpt><trkpt lat="40.6838561" lon="14.6940541"><ele>383.57142857142856</ele><time>2026-04-18T09:04:19.065Z</time></trkpt><trkpt lat="40.6838827" lon="14.6941424"><ele>383.7142857142857</ele><time>2026-04-18T09:04:24.064Z</time></trkpt><trkpt lat="40.6839108" lon="14.6942208"><ele>383.85714285714283</ele><time>2026-04-18T09:04:29.064Z</time></trkpt><trkpt lat="40.6839403" lon="14.6943018"><ele>384.0</ele><time>2026-04-18T09:04:34.064Z</time></trkpt><trkpt lat="40.6839726" lon="14.6943921"><ele>382.4285714285714</ele><time>2026-04-18T09:04:39.064Z</time></trkpt><trkpt lat="40.6840146" lon="14.694462"><ele>380.85714285714283</ele><time>2026-04-18T09:04:44.064Z</time></trkpt><trkpt lat="40.6840417" lon="14.6945382"><ele>379.2857142857143</ele><time>2026-04-18T09:04:49.064Z</time></trkpt><trkpt lat="40.6840578" lon="14.6946328"><ele>377.71428571428567</ele><time>2026-04-18T09:04:54.064Z</time></trkpt><trkpt lat="40.684077" lon="14.694731"><ele>376.14285714285717</ele><time>2026-04-18T09:04:59.064Z</time></trkpt><trkpt lat="40.6840812" lon="14.6948217"><ele>374.57142857142856</ele><time>2026-04-18T09:05:04.064Z</time></trkpt><trkpt lat="40.6840846" lon="14.6949072"><ele>373.0</ele><time>2026-04-18T09:05:09.064Z</time></trkpt><trkpt lat="40.6841022" lon="14.6949912"><ele>373.0</ele><time>2026-04-18T09:05:14.064Z</time></trkpt><trkpt lat="40.6841001" lon="14.6950889"><ele>373.0</ele><time>2026-04-18T09:05:19.064Z</time></trkpt><trkpt lat="40.6841111" lon="14.6951803"><ele>373.0</ele><time>2026-04-18T09:05:24.064Z</time></trkpt><trkpt lat="40.6841285" lon="14.6952677"><ele>373.0</ele><time>2026-04-18T09:05:29.064Z</time></trkpt><trkpt lat="40.6841358" lon="14.6953511"><ele>373.0</ele><time>2026-04-18T09:05:34.064Z</time></trkpt><trkpt lat="40.6841253" lon="14.695434"><ele>373.0</ele><time>2026-04-18T09:06:14.064Z</time></trkpt><trkpt lat="40.6841183" lon="14.6955167"><ele>373.0</ele><time>2026-04-18T09:06:19.064Z</time></trkpt><trkpt lat="40.6841009" lon="14.695602"><ele>371.7142857142857</ele><time>2026-04-18T09:06:24.065Z</time></trkpt><trkpt lat="40.68409" lon="14.6956909"><ele>370.42857142857144</ele><time>2026-04-18T09:06:30.064Z</time></trkpt><trkpt lat="40.6840696" lon="14.6957832"><ele>369.1428571428571</ele><time>2026-04-18T09:06:36.065Z</time></trkpt><trkpt lat="40.6840628" lon="14.6958708"><ele>367.8571428571429</ele><time>2026-04-18T09:06:42.064Z</time></trkpt><trkpt lat="40.6840909" lon="14.6959595"><ele>366.57142857142856</ele><time>2026-04-18T09:06:48.064Z</time></trkpt><trkpt lat="40.6841199" lon="14.6960423"><ele>365.2857142857143</ele><time>2026-04-18T09:06:54.064Z</time></trkpt><trkpt lat="40.68418" lon="14.6960892"><ele>364.0</ele><time>2026-04-18T09:07:00.064Z</time></trkpt><trkpt lat="40.6842401" lon="14.6961353"><ele>363.7142857142857</ele><time>2026-04-18T09:07:05.064Z</time></trkpt><trkpt lat="40.6842934" lon="14.6961894"><ele>363.42857142857144</ele><time>2026-04-18T09:07:11.064Z</time></trkpt><trkpt lat="40.6843525" lon="14.6962392"><ele>363.1428571428571</ele><time>2026-04-18T09:07:17.064Z</time></trkpt><trkpt lat="40.6844062" lon="14.6962964"><ele>362.8571428571429</ele><time>2026-04-18T09:07:23.064Z</time></trkpt><trkpt lat="40.6844575" lon="14.6963459"><ele>362.57142857142856</ele><time>2026-04-18T09:07:27.064Z</time></trkpt><trkpt lat="40.6845237" lon="14.6963845"><ele>362.2857142857143</ele><time>2026-04-18T09:07:32.065Z</time></trkpt><trkpt lat="40.6845769" lon="14.6964379"><ele>362.0</ele><time>2026-04-18T09:07:37.064Z</time></trkpt><trkpt lat="40.6846445" lon="14.6964701"><ele>362.0</ele><time>2026-04-18T09:07:52.064Z</time></trkpt><trkpt lat="40.6847101" lon="14.696514"><ele>362.0</ele><time>2026-04-18T09:07:57.064Z</time></trkpt><trkpt lat="40.6847723" lon="14.6965497"><ele>362.0</ele><time>2026-04-18T09:08:03.064Z</time></trkpt><trkpt lat="40.6848412" lon="14.6965843"><ele>362.0</ele><time>2026-04-18T09:08:09.064Z</time></trkpt><trkpt lat="40.6849116" lon="14.696625"><ele>362.0</ele><time>2026-04-18T09:08:15.064Z</time></trkpt><trkpt lat="40.6849705" lon="14.6966577"><ele>362.0</ele><time>2026-04-18T09:08:20.064Z</time></trkpt><trkpt lat="40.6850279" lon="14.6966994"><ele>362.0</ele><time>2026-04-18T09:08:25.064Z</time></trkpt><trkpt lat="40.6850886" lon="14.6967329"><ele>362.0</ele><time>2026-04-18T09:08:30.064Z</time></trkpt><trkpt lat="40.685152" lon="14.6967808"><ele>362.0</ele><time>2026-04-18T09:08:36.064Z</time></trkpt><trkpt lat="40.6852108" lon="14.6968134"><ele>362.0</ele><time>2026-04-18T09:08:41.064Z</time></trkpt><trkpt lat="40.6852684" lon="14.6968549"><ele>362.0</ele><time>2026-04-18T09:08:46.064Z</time></trkpt><trkpt lat="40.6853246" lon="14.6968985"><ele>362.0</ele><time>2026-04-18T09:08:51.064Z</time></trkpt><trkpt lat="40.6853819" lon="14.696938"><ele>362.0</ele><time>2026-04-18T09:08:56.064Z</time></trkpt><trkpt lat="40.6854509" lon="14.6969638"><ele>362.0</ele><time>2026-04-18T09:09:01.064Z</time></trkpt><trkpt lat="40.6855179" lon="14.6969935"><ele>360.85714285714283</ele><time>2026-04-18T09:09:06.065Z</time></trkpt><trkpt lat="40.6855698" lon="14.6970429"><ele>359.71428571428567</ele><time>2026-04-18T09:09:11.064Z</time></trkpt><trkpt lat="40.6856296" lon="14.6971008"><ele>358.57142857142856</ele><time>2026-04-18T09:09:16.065Z</time></trkpt><trkpt lat="40.6856932" lon="14.6971566"><ele>357.42857142857144</ele><time>2026-04-18T09:09:21.064Z</time></trkpt><trkpt lat="40.6857393" lon="14.6972234"><ele>356.2857142857143</ele><time>2026-04-18T09:09:26.065Z</time></trkpt><trkpt lat="40.6857949" lon="14.6972878"><ele>355.14285714285717</ele><time>2026-04-18T09:09:32.064Z</time></trkpt><trkpt lat="40.6858421" lon="14.697365"><ele>354.0</ele><time>2026-04-18T09:09:38.064Z</time></trkpt><trkpt lat="40.6858936" lon="14.6974367"><ele>354.0</ele><time>2026-04-18T09:09:44.064Z</time></trkpt><trkpt lat="40.68595" lon="14.6974965"><ele>354.0</ele><time>2026-04-18T09:09:49.064Z</time></trkpt><trkpt lat="40.6859956" lon="14.697558"><ele>354.0</ele><time>2026-04-18T09:09:54.064Z</time></trkpt><trkpt lat="40.6860529" lon="14.6976186"><ele>354.0</ele><time>2026-04-18T09:09:59.064Z</time></trkpt><trkpt lat="40.6861002" lon="14.6976742"><ele>354.0</ele><time>2026-04-18T09:10:04.064Z</time></trkpt><trkpt lat="40.68615" lon="14.6977357"><ele>354.0</ele><time>2026-04-18T09:10:09.064Z</time></trkpt><trkpt lat="40.6862063" lon="14.6977942"><ele>354.0</ele><time>2026-04-18T09:10:14.064Z</time></trkpt><trkpt lat="40.6862639" lon="14.6978566"><ele>352.7142857142857</ele><time>2026-04-18T09:10:19.064Z</time></trkpt><trkpt lat="40.6863154" lon="14.6979245"><ele>351.4285714285714</ele><time>2026-04-18T09:10:25.064Z</time></trkpt><trkpt lat="40.6863702" lon="14.69798"><ele>350.1428571428571</ele><time>2026-04-18T09:10:30.064Z</time></trkpt><trkpt lat="40.6864342" lon="14.6980257"><ele>348.8571428571429</ele><time>2026-04-18T09:10:35.065Z</time></trkpt><trkpt lat="40.6864945" lon="14.6980594"><ele>347.57142857142856</ele><time>2026-04-18T09:10:40.064Z</time></trkpt><trkpt lat="40.6865566" lon="14.6980754"><ele>346.2857142857143</ele><time>2026-04-18T09:10:45.064Z</time></trkpt><trkpt lat="40.6866203" lon="14.6980921"><ele>345.0</ele><time>2026-04-18T09:10:50.064Z</time></trkpt><trkpt lat="40.6866825" lon="14.6981213"><ele>345.0</ele><time>2026-04-18T09:10:55.064Z</time></trkpt><trkpt lat="40.6867482" lon="14.69814"><ele>345.0</ele><time>2026-04-18T09:11:01.064Z</time></trkpt><trkpt lat="40.6868194" lon="14.6981484"><ele>345.0</ele><time>2026-04-18T09:11:07.064Z</time></trkpt><trkpt lat="40.6868947" lon="14.6981697"><ele>345.0</ele><time>2026-04-18T09:11:12.065Z</time></trkpt><trkpt lat="40.6869704" lon="14.6981835"><ele>345.0</ele><time>2026-04-18T09:11:17.064Z</time></trkpt><trkpt lat="40.6870387" lon="14.6981904"><ele>345.0</ele><time>2026-04-18T09:11:22.064Z</time></trkpt><trkpt lat="40.6871047" lon="14.6982042"><ele>345.0</ele><time>2026-04-18T09:11:27.064Z</time></trkpt><trkpt lat="40.6871681" lon="14.6981982"><ele>344.8571428571429</ele><time>2026-04-18T09:11:32.064Z</time></trkpt><trkpt lat="40.6872413" lon="14.6982097"><ele>344.7142857142857</ele><time>2026-04-18T09:11:38.064Z</time></trkpt><trkpt lat="40.6873069" lon="14.6982205"><ele>344.57142857142856</ele><time>2026-04-18T09:11:43.064Z</time></trkpt><trkpt lat="40.6873705" lon="14.6982361"><ele>344.42857142857144</ele><time>2026-04-18T09:11:48.064Z</time></trkpt><trkpt lat="40.6874379" lon="14.6982638"><ele>344.2857142857143</ele><time>2026-04-18T09:11:53.064Z</time></trkpt><trkpt lat="40.6875067" lon="14.6982877"><ele>344.14285714285717</ele><time>2026-04-18T09:11:58.065Z</time></trkpt><trkpt lat="40.6875699" lon="14.6983105"><ele>344.0</ele><time>2026-04-18T09:12:03.064Z</time></trkpt><trkpt lat="40.6876431" lon="14.6983347"><ele>344.00000000000006</ele><time>2026-04-18T09:12:09.065Z</time></trkpt><trkpt lat="40.6877074" lon="14.698336"><ele>344.0</ele><time>2026-04-18T09:12:16.064Z</time></trkpt><trkpt lat="40.6877774" lon="14.6983344"><ele>344.0</ele><time>2026-04-18T09:12:24.064Z</time></trkpt><trkpt lat="40.6878412" lon="14.6983174"><ele>344.0</ele><time>2026-04-18T09:12:29.064Z</time></trkpt><trkpt lat="40.6879014" lon="14.6982909"><ele>344.0</ele><time>2026-04-18T09:12:34.064Z</time></trkpt><trkpt lat="40.6879619" lon="14.698244"><ele>344.00000000000006</ele><time>2026-04-18T09:12:39.065Z</time></trkpt><trkpt lat="40.6880238" lon="14.6981835"><ele>344.0</ele><time>2026-04-18T09:12:45.064Z</time></trkpt><trkpt lat="40.6880783" lon="14.6981175"><ele>342.28571428571433</ele><time>2026-04-18T09:12:51.064Z</time></trkpt><trkpt lat="40.6881274" lon="14.6980487"><ele>340.57142857142856</ele><time>2026-04-18T09:12:56.064Z</time></trkpt><trkpt lat="40.6881489" lon="14.6979698"><ele>338.8571428571429</ele><time>2026-04-18T09:13:01.064Z</time></trkpt><trkpt lat="40.6881731" lon="14.6978876"><ele>337.14285714285717</ele><time>2026-04-18T09:13:07.064Z</time></trkpt><trkpt lat="40.6881993" lon="14.6978054"><ele>335.42857142857144</ele><time>2026-04-18T09:13:13.064Z</time></trkpt><trkpt lat="40.6882247" lon="14.6977245"><ele>333.7142857142857</ele><time>2026-04-18T09:13:19.064Z</time></trkpt><trkpt lat="40.6882464" lon="14.6976393"><ele>332.0</ele><time>2026-04-18T09:13:25.064Z</time></trkpt><trkpt lat="40.6882605" lon="14.6975464"><ele>332.0</ele><time>2026-04-18T09:13:30.064Z</time></trkpt><trkpt lat="40.6882516" lon="14.6974608"><ele>332.0</ele><time>2026-04-18T09:13:35.064Z</time></trkpt><trkpt lat="40.6882376" lon="14.6973783"><ele>332.0</ele><time>2026-04-18T09:13:40.064Z</time></trkpt><trkpt lat="40.6882113" lon="14.6972959"><ele>332.0</ele><time>2026-04-18T09:13:45.064Z</time></trkpt><trkpt lat="40.6881836" lon="14.6972126"><ele>332.0</ele><time>2026-04-18T09:13:50.064Z</time></trkpt><trkpt lat="40.68818" lon="14.6971296"><ele>332.0</ele><time>2026-04-18T09:13:55.064Z</time></trkpt><trkpt lat="40.6882148" lon="14.6970573"><ele>332.0</ele><time>2026-04-18T09:13:59.064Z</time></trkpt><trkpt lat="40.6882668" lon="14.6969831"><ele>332.2857142857143</ele><time>2026-04-18T09:14:03.064Z</time></trkpt><trkpt lat="40.6883128" lon="14.6969045"><ele>332.5714285714286</ele><time>2026-04-18T09:14:08.064Z</time></trkpt><trkpt lat="40.6883583" lon="14.696847"><ele>332.8571428571429</ele><time>2026-04-18T09:14:13.064Z</time></trkpt><trkpt lat="40.6884128" lon="14.6967998"><ele>333.1428571428571</ele><time>2026-04-18T09:14:18.064Z</time></trkpt><trkpt lat="40.6884688" lon="14.6967607"><ele>333.42857142857144</ele><time>2026-04-18T09:14:22.065Z</time></trkpt><trkpt lat="40.6885333" lon="14.696706"><ele>333.7142857142857</ele><time>2026-04-18T09:14:27.064Z</time></trkpt><trkpt lat="40.6885924" lon="14.6966688"><ele>334.0</ele><time>2026-04-18T09:14:32.064Z</time></trkpt><trkpt lat="40.6886468" lon="14.6966217"><ele>334.0</ele><time>2026-04-18T09:14:37.064Z</time></trkpt><trkpt lat="40.6887133" lon="14.6966035"><ele>334.0</ele><time>2026-04-18T09:14:42.064Z</time></trkpt><trkpt lat="40.6887763" lon="14.6966208"><ele>334.0</ele><time>2026-04-18T09:14:46.064Z</time></trkpt><trkpt lat="40.6888306" lon="14.6966678"><ele>334.0</ele><time>2026-04-18T09:14:49.064Z</time></trkpt><trkpt lat="40.6888933" lon="14.696731"><ele>334.0</ele><time>2026-04-18T09:14:54.064Z</time></trkpt><trkpt lat="40.6889471" lon="14.6967781"><ele>334.0</ele><time>2026-04-18T09:14:58.064Z</time></trkpt><trkpt lat="40.689017" lon="14.6968185"><ele>334.0</ele><time>2026-04-18T09:15:03.064Z</time></trkpt><trkpt lat="40.6890834" lon="14.6968534"><ele>332.2857142857143</ele><time>2026-04-18T09:15:08.064Z</time></trkpt><trkpt lat="40.6891662" lon="14.6969256"><ele>330.57142857142856</ele><time>2026-04-18T09:15:36.064Z</time></trkpt><trkpt lat="40.6892383" lon="14.6969555"><ele>328.8571428571429</ele><time>2026-04-18T09:15:43.064Z</time></trkpt><trkpt lat="40.6893055" lon="14.6969793"><ele>327.1428571428571</ele><time>2026-04-18T09:15:51.064Z</time></trkpt><trkpt lat="40.6893674" lon="14.6970072"><ele>325.42857142857144</ele><time>2026-04-18T09:15:56.064Z</time></trkpt><trkpt lat="40.6894338" lon="14.6969678"><ele>323.7142857142857</ele><time>2026-04-18T09:16:04.064Z</time></trkpt><trkpt lat="40.6894621" lon="14.6968923"><ele>322.0</ele><time>2026-04-18T09:16:09.064Z</time></trkpt><trkpt lat="40.6894631" lon="14.6967931"><ele>322.0</ele><time>2026-04-18T09:16:14.064Z</time></trkpt><trkpt lat="40.689482" lon="14.6967116"><ele>322.0</ele><time>2026-04-18T09:16:20.064Z</time></trkpt><trkpt lat="40.6895091" lon="14.6966175"><ele>322.0</ele><time>2026-04-18T09:16:25.064Z</time></trkpt><trkpt lat="40.6895328" lon="14.6965375"><ele>322.0</ele><time>2026-04-18T09:16:29.064Z</time></trkpt><trkpt lat="40.6895609" lon="14.6964573"><ele>322.0</ele><time>2026-04-18T09:16:34.064Z</time></trkpt><trkpt lat="40.6896221" lon="14.6964262"><ele>322.0</ele><time>2026-04-18T09:16:39.065Z</time></trkpt><trkpt lat="40.6896963" lon="14.6963937"><ele>322.0</ele><time>2026-04-18T09:16:44.064Z</time></trkpt><trkpt lat="40.6897591" lon="14.6964018"><ele>322.0</ele><time>2026-04-18T09:16:48.064Z</time></trkpt><trkpt lat="40.6898197" lon="14.696459"><ele>322.0</ele><time>2026-04-18T09:16:53.064Z</time></trkpt><trkpt lat="40.6898717" lon="14.6965214"><ele>322.0</ele><time>2026-04-18T09:16:59.064Z</time></trkpt><trkpt lat="40.6899227" lon="14.6965756"><ele>322.0</ele><time>2026-04-18T09:17:04.064Z</time></trkpt><trkpt lat="40.6899915" lon="14.6966152"><ele>322.0</ele><time>2026-04-18T09:17:10.064Z</time></trkpt><trkpt lat="40.6900583" lon="14.6966449"><ele>322.0</ele><time>2026-04-18T09:17:16.064Z</time></trkpt><trkpt lat="40.690111" lon="14.696692"><ele>322.0</ele><time>2026-04-18T09:17:24.064Z</time></trkpt><trkpt lat="40.6901789" lon="14.6967017"><ele>322.0</ele><time>2026-04-18T09:17:30.065Z</time></trkpt><trkpt lat="40.6902419" lon="14.6966998"><ele>322.0</ele><time>2026-04-18T09:17:35.064Z</time></trkpt><trkpt lat="40.6903098" lon="14.696668"><ele>322.0</ele><time>2026-04-18T09:17:40.065Z</time></trkpt><trkpt lat="40.6903749" lon="14.6966559"><ele>322.0</ele><time>2026-04-18T09:17:45.065Z</time></trkpt><trkpt lat="40.690433" lon="14.6966953"><ele>322.0</ele><time>2026-04-18T09:17:50.064Z</time></trkpt><trkpt lat="40.6904906" lon="14.6967418"><ele>322.0</ele><time>2026-04-18T09:17:54.064Z</time></trkpt><trkpt lat="40.6905454" lon="14.696787"><ele>322.0</ele><time>2026-04-18T09:17:58.064Z</time></trkpt><trkpt lat="40.6906026" lon="14.6968273"><ele>322.85714285714283</ele><time>2026-04-18T09:18:02.064Z</time></trkpt><trkpt lat="40.6906697" lon="14.6968764"><ele>323.7142857142857</ele><time>2026-04-18T09:18:07.064Z</time></trkpt><trkpt lat="40.690727" lon="14.696924"><ele>324.57142857142856</ele><time>2026-04-18T09:18:12.065Z</time></trkpt><trkpt lat="40.690787" lon="14.6969637"><ele>325.42857142857144</ele><time>2026-04-18T09:18:17.064Z</time></trkpt><trkpt lat="40.6908442" lon="14.6970047"><ele>326.2857142857143</ele><time>2026-04-18T09:18:22.064Z</time></trkpt><trkpt lat="40.6909126" lon="14.6970364"><ele>327.1428571428571</ele><time>2026-04-18T09:18:27.064Z</time></trkpt><trkpt lat="40.6909835" lon="14.6970432"><ele>328.0</ele><time>2026-04-18T09:18:32.064Z</time></trkpt><trkpt lat="40.6910556" lon="14.6970622"><ele>325.85714285714283</ele><time>2026-04-18T09:18:37.064Z</time></trkpt><trkpt lat="40.6911187" lon="14.69705"><ele>323.7142857142857</ele><time>2026-04-18T09:18:42.064Z</time></trkpt><trkpt lat="40.69119" lon="14.6970172"><ele>321.57142857142856</ele><time>2026-04-18T09:18:48.064Z</time></trkpt><trkpt lat="40.6912521" lon="14.6969714"><ele>319.42857142857144</ele><time>2026-04-18T09:18:53.064Z</time></trkpt><trkpt lat="40.6913194" lon="14.69694"><ele>317.2857142857143</ele><time>2026-04-18T09:18:58.064Z</time></trkpt><trkpt lat="40.6913869" lon="14.6969205"><ele>315.1428571428571</ele><time>2026-04-18T09:19:03.064Z</time></trkpt><trkpt lat="40.6914512" lon="14.6968689"><ele>313.0</ele><time>2026-04-18T09:19:08.064Z</time></trkpt><trkpt lat="40.6915051" lon="14.6968142"><ele>313.0</ele><time>2026-04-18T09:19:13.064Z</time></trkpt><trkpt lat="40.6915623" lon="14.6967586"><ele>313.0</ele><time>2026-04-18T09:19:18.064Z</time></trkpt><trkpt lat="40.6916172" lon="14.69671"><ele>313.0</ele><time>2026-04-18T09:19:23.064Z</time></trkpt><trkpt lat="40.691678" lon="14.6966618"><ele>313.0</ele><time>2026-04-18T09:19:29.064Z</time></trkpt><trkpt lat="40.6917319" lon="14.6966158"><ele>313.0</ele><time>2026-04-18T09:19:35.064Z</time></trkpt><trkpt lat="40.6917826" lon="14.696556"><ele>313.0</ele><time>2026-04-18T09:19:40.064Z</time></trkpt><trkpt lat="40.6918407" lon="14.6964938"><ele>313.0</ele><time>2026-04-18T09:19:45.065Z</time></trkpt><trkpt lat="40.6919028" lon="14.696445"><ele>312.1428571428571</ele><time>2026-04-18T09:19:50.064Z</time></trkpt><trkpt lat="40.6919656" lon="14.696426"><ele>311.2857142857143</ele><time>2026-04-18T09:19:55.064Z</time></trkpt><trkpt lat="40.692028" lon="14.6963999"><ele>310.42857142857144</ele><time>2026-04-18T09:20:00.064Z</time></trkpt><trkpt lat="40.6920872" lon="14.6963702"><ele>309.57142857142856</ele><time>2026-04-18T09:20:05.064Z</time></trkpt><trkpt lat="40.6921571" lon="14.6963626"><ele>308.7142857142857</ele><time>2026-04-18T09:20:10.065Z</time></trkpt><trkpt lat="40.6922224" lon="14.6963748"><ele>307.85714285714283</ele><time>2026-04-18T09:20:14.064Z</time></trkpt><trkpt lat="40.6922932" lon="14.6964077"><ele>307.0</ele><time>2026-04-18T09:20:18.064Z</time></trkpt><trkpt lat="40.6923647" lon="14.6964387"><ele>306.99999999999994</ele><time>2026-04-18T09:20:23.064Z</time></trkpt><trkpt lat="40.6924303" lon="14.6964917"><ele>307.0</ele><time>2026-04-18T09:20:28.064Z</time></trkpt><trkpt lat="40.6924906" lon="14.696555"><ele>307.0</ele><time>2026-04-18T09:20:33.065Z</time></trkpt><trkpt lat="40.69255" lon="14.6966069"><ele>307.0</ele><time>2026-04-18T09:20:38.064Z</time></trkpt><trkpt lat="40.6926075" lon="14.6966704"><ele>307.0</ele><time>2026-04-18T09:20:43.065Z</time></trkpt><trkpt lat="40.6926606" lon="14.696715"><ele>306.99999999999994</ele><time>2026-04-18T09:20:47.064Z</time></trkpt><trkpt lat="40.6927187" lon="14.6967688"><ele>307.0</ele><time>2026-04-18T09:20:52.064Z</time></trkpt><trkpt lat="40.6927618" lon="14.6968437"><ele>308.4285714285714</ele><time>2026-04-18T09:20:57.064Z</time></trkpt><trkpt lat="40.6927992" lon="14.6969162"><ele>309.85714285714283</ele><time>2026-04-18T09:21:03.064Z</time></trkpt><trkpt lat="40.6928529" lon="14.6969751"><ele>311.2857142857143</ele><time>2026-04-18T09:21:09.064Z</time></trkpt><trkpt lat="40.6929115" lon="14.6970231"><ele>312.71428571428567</ele><time>2026-04-18T09:21:14.064Z</time></trkpt><trkpt lat="40.6929607" lon="14.6970829"><ele>314.1428571428571</ele><time>2026-04-18T09:21:19.064Z</time></trkpt><trkpt lat="40.6929909" lon="14.6971648"><ele>315.57142857142856</ele><time>2026-04-18T09:21:25.064Z</time></trkpt><trkpt lat="40.6930452" lon="14.6972262"><ele>317.0</ele><time>2026-04-18T09:21:30.064Z</time></trkpt><trkpt lat="40.6931035" lon="14.6972676"><ele>312.57142857142856</ele><time>2026-04-18T09:21:35.064Z</time></trkpt><trkpt lat="40.6931613" lon="14.697302"><ele>308.1428571428571</ele><time>2026-04-18T09:21:39.065Z</time></trkpt><trkpt lat="40.6932277" lon="14.6973323"><ele>303.71428571428567</ele><time>2026-04-18T09:21:44.065Z</time></trkpt><trkpt lat="40.6933023" lon="14.6973263"><ele>299.2857142857143</ele><time>2026-04-18T09:21:50.064Z</time></trkpt><trkpt lat="40.6933771" lon="14.6973128"><ele>294.85714285714283</ele><time>2026-04-18T09:21:56.064Z</time></trkpt><trkpt lat="40.6934463" lon="14.6972992"><ele>290.4285714285714</ele><time>2026-04-18T09:22:01.064Z</time></trkpt><trkpt lat="40.6935053" lon="14.6972526"><ele>286.0</ele><time>2026-04-18T09:22:06.064Z</time></trkpt><trkpt lat="40.6935806" lon="14.6972409"><ele>284.57142857142856</ele><time>2026-04-18T09:22:11.064Z</time></trkpt><trkpt lat="40.6936526" lon="14.697219"><ele>283.1428571428571</ele><time>2026-04-18T09:22:16.064Z</time></trkpt><trkpt lat="40.69372" lon="14.6971943"><ele>281.7142857142857</ele><time>2026-04-18T09:22:21.064Z</time></trkpt><trkpt lat="40.6937793" lon="14.697165"><ele>280.2857142857143</ele><time>2026-04-18T09:22:26.064Z</time></trkpt><trkpt lat="40.6938546" lon="14.6971451"><ele>278.8571428571429</ele><time>2026-04-18T09:22:32.064Z</time></trkpt><trkpt lat="40.6939261" lon="14.6971173"><ele>277.42857142857144</ele><time>2026-04-18T09:22:37.064Z</time></trkpt><trkpt lat="40.6939948" lon="14.6971004"><ele>276.0</ele><time>2026-04-18T09:22:42.065Z</time></trkpt><trkpt lat="40.6940699" lon="14.6970993"><ele>276.0</ele><time>2026-04-18T09:22:47.065Z</time></trkpt><trkpt lat="40.6941446" lon="14.6970981"><ele>276.0</ele><time>2026-04-18T09:22:52.064Z</time></trkpt><trkpt lat="40.6942187" lon="14.6970942"><ele>276.0</ele><time>2026-04-18T09:22:58.064Z</time></trkpt><trkpt lat="40.6942923" lon="14.6970927"><ele>276.0</ele><time>2026-04-18T09:23:03.065Z</time></trkpt><trkpt lat="40.6943547" lon="14.6970745"><ele>276.0</ele><time>2026-04-18T09:23:08.064Z</time></trkpt><trkpt lat="40.6944248" lon="14.6970643"><ele>276.0</ele><time>2026-04-18T09:23:13.064Z</time></trkpt><trkpt lat="40.6944909" lon="14.6970641"><ele>276.0</ele><time>2026-04-18T09:23:18.064Z</time></trkpt><trkpt lat="40.6945599" lon="14.6970518"><ele>276.0</ele><time>2026-04-18T09:23:23.065Z</time></trkpt><trkpt lat="40.694628" lon="14.6970572"><ele>276.0</ele><time>2026-04-18T09:23:28.064Z</time></trkpt><trkpt lat="40.694695" lon="14.6970581"><ele>276.0</ele><time>2026-04-18T09:23:33.064Z</time></trkpt><trkpt lat="40.6947711" lon="14.6970492"><ele>276.0</ele><time>2026-04-18T09:23:39.064Z</time></trkpt><trkpt lat="40.6948365" lon="14.6970543"><ele>276.0</ele><time>2026-04-18T09:24:00.064Z</time></trkpt><trkpt lat="40.6949096" lon="14.6970309"><ele>276.0</ele><time>2026-04-18T09:24:09.064Z</time></trkpt><trkpt lat="40.694974" lon="14.6970072"><ele>276.0</ele><time>2026-04-18T09:24:14.064Z</time></trkpt><trkpt lat="40.6950367" lon="14.6969873"><ele>276.0</ele><time>2026-04-18T09:24:20.064Z</time></trkpt><trkpt lat="40.695106" lon="14.6969727"><ele>276.0</ele><time>2026-04-18T09:24:36.064Z</time></trkpt><trkpt lat="40.6951704" lon="14.6969334"><ele>276.0</ele><time>2026-04-18T09:24:41.064Z</time></trkpt><trkpt lat="40.6952434" lon="14.6969133"><ele>276.0</ele><time>2026-04-18T09:24:47.064Z</time></trkpt><trkpt lat="40.6952984" lon="14.6968719"><ele>276.0</ele><time>2026-04-18T09:24:52.064Z</time></trkpt><trkpt lat="40.6953614" lon="14.6968419"><ele>276.0</ele><time>2026-04-18T09:24:57.064Z</time></trkpt><trkpt lat="40.6954227" lon="14.6968138"><ele>276.0</ele><time>2026-04-18T09:25:02.064Z</time></trkpt><trkpt lat="40.6954692" lon="14.6967571"><ele>275.2857142857143</ele><time>2026-04-18T09:25:07.064Z</time></trkpt><trkpt lat="40.6955083" lon="14.6966753"><ele>274.5714285714286</ele><time>2026-04-18T09:25:13.064Z</time></trkpt><trkpt lat="40.6955436" lon="14.6966027"><ele>273.8571428571429</ele><time>2026-04-18T09:25:19.064Z</time></trkpt><trkpt lat="40.6955741" lon="14.6965273"><ele>273.14285714285717</ele><time>2026-04-18T09:25:25.064Z</time></trkpt><trkpt lat="40.6956024" lon="14.6964432"><ele>272.42857142857144</ele><time>2026-04-18T09:25:31.064Z</time></trkpt><trkpt lat="40.6956087" lon="14.6963552"><ele>271.7142857142857</ele><time>2026-04-18T09:25:36.065Z</time></trkpt><trkpt lat="40.6955957" lon="14.6962736"><ele>271.0</ele><time>2026-04-18T09:25:41.064Z</time></trkpt><trkpt lat="40.6955891" lon="14.6961903"><ele>271.0</ele><time>2026-04-18T09:25:46.064Z</time></trkpt><trkpt lat="40.6955866" lon="14.696105"><ele>271.0</ele><time>2026-04-18T09:25:51.064Z</time></trkpt><trkpt lat="40.6955985" lon="14.6960086"><ele>271.0</ele><time>2026-04-18T09:25:56.064Z</time></trkpt><trkpt lat="40.6955933" lon="14.6959236"><ele>271.0</ele><time>2026-04-18T09:26:01.065Z</time></trkpt><trkpt lat="40.6955893" lon="14.6958251"><ele>271.0</ele><time>2026-04-18T09:26:07.064Z</time></trkpt><trkpt lat="40.6955898" lon="14.6957359"><ele>271.0</ele><time>2026-04-18T09:26:12.064Z</time></trkpt><trkpt lat="40.6955795" lon="14.6956486"><ele>271.0</ele><time>2026-04-18T09:26:17.065Z</time></trkpt><trkpt lat="40.6955788" lon="14.6955551"><ele>271.0</ele><time>2026-04-18T09:26:22.064Z</time></trkpt><trkpt lat="40.6955764" lon="14.6954643"><ele>271.0</ele><time>2026-04-18T09:26:27.064Z</time></trkpt><trkpt lat="40.6955988" lon="14.6953768"><ele>271.0</ele><time>2026-04-18T09:26:32.064Z</time></trkpt><trkpt lat="40.6956348" lon="14.6952892"><ele>271.0</ele><time>2026-04-18T09:26:37.064Z</time></trkpt><trkpt lat="40.6956837" lon="14.695228"><ele>271.0</ele><time>2026-04-18T09:26:41.064Z</time></trkpt><trkpt lat="40.6957582" lon="14.6952279"><ele>271.0</ele><time>2026-04-18T09:26:47.065Z</time></trkpt><trkpt lat="40.695812" lon="14.6952786"><ele>271.0</ele><time>2026-04-18T09:26:51.064Z</time></trkpt><trkpt lat="40.6958658" lon="14.6953375"><ele>271.0</ele><time>2026-04-18T09:26:56.064Z</time></trkpt><trkpt lat="40.6959188" lon="14.695401"><ele>271.0</ele><time>2026-04-18T09:27:01.064Z</time></trkpt><trkpt lat="40.695952" lon="14.6954871"><ele>271.0</ele><time>2026-04-18T09:27:06.065Z</time></trkpt><trkpt lat="40.6959923" lon="14.6955676"><ele>271.0</ele><time>2026-04-18T09:27:11.064Z</time></trkpt><trkpt lat="40.6960275" lon="14.6956505"><ele>271.0</ele><time>2026-04-18T09:27:16.064Z</time></trkpt><trkpt lat="40.696047" lon="14.6957432"><ele>271.0</ele><time>2026-04-18T09:27:21.064Z</time></trkpt><trkpt lat="40.6960892" lon="14.6958192"><ele>271.0</ele><time>2026-04-18T09:27:27.064Z</time></trkpt><trkpt lat="40.6961577" lon="14.6958592"><ele>270.7142857142857</ele><time>2026-04-18T09:27:34.064Z</time></trkpt><trkpt lat="40.6962275" lon="14.695868"><ele>270.42857142857144</ele><time>2026-04-18T09:27:39.064Z</time></trkpt><trkpt lat="40.6962966" lon="14.6958773"><ele>270.14285714285717</ele><time>2026-04-18T09:27:45.064Z</time></trkpt><trkpt lat="40.696363" lon="14.6958817"><ele>269.8571428571429</ele><time>2026-04-18T09:27:50.064Z</time></trkpt><trkpt lat="40.696431" lon="14.6958944"><ele>269.5714285714286</ele><time>2026-04-18T09:27:55.064Z</time></trkpt><trkpt lat="40.6964981" lon="14.6959255"><ele>269.2857142857143</ele><time>2026-04-18T09:28:00.065Z</time></trkpt><trkpt lat="40.6965704" lon="14.6959387"><ele>269.0</ele><time>2026-04-18T09:28:05.064Z</time></trkpt><trkpt lat="40.6966416" lon="14.6959493"><ele>269.0</ele><time>2026-04-18T09:28:15.063Z</time></trkpt><trkpt lat="40.6967066" lon="14.6959903"><ele>269.0</ele><time>2026-04-18T09:28:21.063Z</time></trkpt><trkpt lat="40.6967754" lon="14.6960285"><ele>269.0</ele><time>2026-04-18T09:28:26.063Z</time></trkpt><trkpt lat="40.6968411" lon="14.6960772"><ele>269.0</ele><time>2026-04-18T09:28:30.063Z</time></trkpt><trkpt lat="40.6968896" lon="14.6961462"><ele>269.0</ele><time>2026-04-18T09:28:35.063Z</time></trkpt><trkpt lat="40.6969336" lon="14.6962098"><ele>269.0</ele><time>2026-04-18T09:28:40.063Z</time></trkpt><trkpt lat="40.6969754" lon="14.6962835"><ele>269.0</ele><time>2026-04-18T09:28:45.063Z</time></trkpt><trkpt lat="40.6969717" lon="14.6963825"><ele>268.14285714285717</ele><time>2026-04-18T09:28:51.063Z</time></trkpt><trkpt lat="40.6969776" lon="14.6964663"><ele>267.28571428571433</ele><time>2026-04-18T09:28:55.063Z</time></trkpt><trkpt lat="40.6969748" lon="14.6965631"><ele>266.42857142857144</ele><time>2026-04-18T09:29:00.063Z</time></trkpt><trkpt lat="40.6969702" lon="14.6966561"><ele>265.57142857142856</ele><time>2026-04-18T09:29:05.063Z</time></trkpt><trkpt lat="40.6969671" lon="14.6967471"><ele>264.71428571428567</ele><time>2026-04-18T09:29:11.063Z</time></trkpt><trkpt lat="40.69697" lon="14.6968337"><ele>263.85714285714283</ele><time>2026-04-18T09:29:17.063Z</time></trkpt><trkpt lat="40.696983" lon="14.6969314"><ele>263.0</ele><time>2026-04-18T09:29:23.063Z</time></trkpt><trkpt lat="40.6970051" lon="14.6970171"><ele>262.0</ele><time>2026-04-18T09:29:28.064Z</time></trkpt><trkpt lat="40.6970267" lon="14.6970988"><ele>261.0</ele><time>2026-04-18T09:29:33.063Z</time></trkpt><trkpt lat="40.6970549" lon="14.697181"><ele>260.0</ele><time>2026-04-18T09:29:39.063Z</time></trkpt><trkpt lat="40.6970816" lon="14.6972609"><ele>259.0</ele><time>2026-04-18T09:29:44.063Z</time></trkpt><trkpt lat="40.6971103" lon="14.697347"><ele>258.0</ele><time>2026-04-18T09:29:50.063Z</time></trkpt><trkpt lat="40.6971432" lon="14.69745"><ele>257.0</ele><time>2026-04-18T09:29:56.063Z</time></trkpt><trkpt lat="40.6971704" lon="14.697534"><ele>256.0</ele><time>2026-04-18T09:30:00.063Z</time></trkpt><trkpt lat="40.6971986" lon="14.697621"><ele>256.0</ele><time>2026-04-18T09:30:06.063Z</time></trkpt><trkpt lat="40.6972268" lon="14.6977059"><ele>255.99999999999997</ele><time>2026-04-18T09:30:11.064Z</time></trkpt><trkpt lat="40.6972518" lon="14.6977838"><ele>256.0</ele><time>2026-04-18T09:30:16.063Z</time></trkpt><trkpt lat="40.6972769" lon="14.6978633"><ele>256.0</ele><time>2026-04-18T09:30:21.063Z</time></trkpt><trkpt lat="40.6973047" lon="14.6979507"><ele>255.99999999999997</ele><time>2026-04-18T09:30:26.063Z</time></trkpt><trkpt lat="40.6973302" lon="14.6980278"><ele>256.0</ele><time>2026-04-18T09:30:32.063Z</time></trkpt><trkpt lat="40.6973572" lon="14.6981126"><ele>256.0</ele><time>2026-04-18T09:30:39.063Z</time></trkpt><trkpt lat="40.6973823" lon="14.6981902"><ele>255.66666666666666</ele><time>2026-04-18T09:30:44.063Z</time></trkpt><trkpt lat="40.6974031" lon="14.6982858"><ele>255.33333333333331</ele><time>2026-04-18T09:30:49.063Z</time></trkpt><trkpt lat="40.6974123" lon="14.6983858"><ele>255.0</ele><time>2026-04-18T09:30:54.063Z</time></trkpt><trkpt lat="40.6974037" lon="14.6984912"><ele>254.66666666666669</ele><time>2026-04-18T09:30:59.063Z</time></trkpt><trkpt lat="40.6973919" lon="14.6985884"><ele>254.33333333333334</ele><time>2026-04-18T09:31:05.063Z</time></trkpt><trkpt lat="40.6973773" lon="14.6986901"><ele>254.0</ele><time>2026-04-18T09:31:11.063Z</time></trkpt><trkpt lat="40.6973655" lon="14.698785"><ele>254.00000000000003</ele><time>2026-04-18T09:31:17.063Z</time></trkpt><trkpt lat="40.6973523" lon="14.6988807"><ele>254.0</ele><time>2026-04-18T09:31:21.063Z</time></trkpt><trkpt lat="40.6973389" lon="14.6989773"><ele>254.0</ele><time>2026-04-18T09:31:27.063Z</time></trkpt><trkpt lat="40.6973226" lon="14.6990848"><ele>254.0</ele><time>2026-04-18T09:31:35.063Z</time></trkpt><trkpt lat="40.6973036" lon="14.6991852"><ele>254.00000000000003</ele><time>2026-04-18T09:31:41.063Z</time></trkpt><trkpt lat="40.6972871" lon="14.6992735"><ele>254.0</ele><time>2026-04-18T09:31:46.064Z</time></trkpt><trkpt lat="40.6972695" lon="14.6993673"><ele>253.28571428571428</ele><time>2026-04-18T09:31:51.063Z</time></trkpt><trkpt lat="40.6972513" lon="14.6994599"><ele>252.57142857142856</ele><time>2026-04-18T09:31:56.063Z</time></trkpt><trkpt lat="40.6972347" lon="14.6995447"><ele>251.85714285714283</ele><time>2026-04-18T09:32:03.063Z</time></trkpt><trkpt lat="40.6972219" lon="14.6996263"><ele>251.14285714285714</ele><time>2026-04-18T09:32:08.063Z</time></trkpt><trkpt lat="40.6972169" lon="14.6997189"><ele>250.4285714285714</ele><time>2026-04-18T09:32:14.063Z</time></trkpt><trkpt lat="40.6971848" lon="14.6997954"><ele>249.7142857142857</ele><time>2026-04-18T09:32:20.063Z</time></trkpt><trkpt lat="40.6971737" lon="14.6998804"><ele>249.0</ele><time>2026-04-18T09:32:25.063Z</time></trkpt><trkpt lat="40.6971721" lon="14.6999763"><ele>249.0</ele><time>2026-04-18T09:32:31.063Z</time></trkpt><trkpt lat="40.6971716" lon="14.7000662"><ele>248.99999999999997</ele><time>2026-04-18T09:32:36.064Z</time></trkpt><trkpt lat="40.6971719" lon="14.7001651"><ele>249.0</ele><time>2026-04-18T09:32:45.063Z</time></trkpt><trkpt lat="40.6971776" lon="14.700264"><ele>249.0</ele><time>2026-04-18T09:32:50.063Z</time></trkpt><trkpt lat="40.6971938" lon="14.7003542"><ele>248.99999999999997</ele><time>2026-04-18T09:32:57.063Z</time></trkpt><trkpt lat="40.6972135" lon="14.7004346"><ele>249.0</ele><time>2026-04-18T09:33:02.063Z</time></trkpt><trkpt lat="40.6972435" lon="14.7005373"><ele>249.0</ele><time>2026-04-18T09:33:11.063Z</time></trkpt><trkpt lat="40.6973261" lon="14.7005261"><ele>248.57142857142856</ele><time>2026-04-18T09:33:16.063Z</time></trkpt><trkpt lat="40.6974019" lon="14.7005139"><ele>248.1428571428571</ele><time>2026-04-18T09:33:21.063Z</time></trkpt><trkpt lat="40.6974724" lon="14.700489"><ele>247.71428571428572</ele><time>2026-04-18T09:33:26.063Z</time></trkpt><trkpt lat="40.6975378" lon="14.7004518"><ele>247.28571428571428</ele><time>2026-04-18T09:33:32.063Z</time></trkpt><trkpt lat="40.6976014" lon="14.7004196"><ele>246.85714285714286</ele><time>2026-04-18T09:33:37.063Z</time></trkpt><trkpt lat="40.697662" lon="14.7003554"><ele>246.42857142857144</ele><time>2026-04-18T09:33:42.063Z</time></trkpt><trkpt lat="40.6977188" lon="14.7002964"><ele>246.00000000000003</ele><time>2026-04-18T09:33:48.063Z</time></trkpt><trkpt lat="40.6977718" lon="14.7002397"><ele>246.00000000000003</ele><time>2026-04-18T09:33:53.063Z</time></trkpt><trkpt lat="40.6978236" lon="14.7001845"><ele>246.0</ele><time>2026-04-18T09:33:58.063Z</time></trkpt><trkpt lat="40.6978804" lon="14.7001243"><ele>246.00000000000003</ele><time>2026-04-18T09:34:04.063Z</time></trkpt><trkpt lat="40.6979323" lon="14.700069"><ele>246.00000000000003</ele><time>2026-04-18T09:34:09.064Z</time></trkpt><trkpt lat="40.6979843" lon="14.7000128"><ele>246.0</ele><time>2026-04-18T09:34:14.063Z</time></trkpt><trkpt lat="40.6980454" lon="14.6999562"><ele>246.00000000000003</ele><time>2026-04-18T09:34:19.063Z</time></trkpt><trkpt lat="40.698105" lon="14.6999049"><ele>246.00000000000003</ele><time>2026-04-18T09:34:25.063Z</time></trkpt><trkpt lat="40.6981617" lon="14.6998569"><ele>246.00000000000003</ele><time>2026-04-18T09:34:30.063Z</time></trkpt><trkpt lat="40.6982159" lon="14.6998121"><ele>246.0</ele><time>2026-04-18T09:34:34.063Z</time></trkpt><trkpt lat="40.6982765" lon="14.699765"><ele>246.00000000000003</ele><time>2026-04-18T09:34:39.063Z</time></trkpt><trkpt lat="40.6983386" lon="14.6997241"><ele>246.00000000000003</ele><time>2026-04-18T09:34:44.063Z</time></trkpt><trkpt lat="40.6984129" lon="14.6996998"><ele>246.0</ele><time>2026-04-18T09:34:50.063Z</time></trkpt><trkpt lat="40.698488" lon="14.6997303"><ele>246.00000000000003</ele><time>2026-04-18T09:34:55.063Z</time></trkpt><trkpt lat="40.6985377" lon="14.699784"><ele>246.00000000000003</ele><time>2026-04-18T09:34:58.063Z</time></trkpt><trkpt lat="40.6985895" lon="14.6998522"><ele>245.14285714285717</ele><time>2026-04-18T09:35:02.063Z</time></trkpt><trkpt lat="40.698655" lon="14.6998824"><ele>244.28571428571428</ele><time>2026-04-18T09:35:06.063Z</time></trkpt><trkpt lat="40.698701" lon="14.699948"><ele>243.42857142857144</ele><time>2026-04-18T09:35:11.064Z</time></trkpt><trkpt lat="40.698747" lon="14.700024"><ele>242.57142857142858</ele><time>2026-04-18T09:35:17.063Z</time></trkpt><trkpt lat="40.6987926" lon="14.7000907"><ele>241.71428571428572</ele><time>2026-04-18T09:35:22.063Z</time></trkpt><trkpt lat="40.6988382" lon="14.7001564"><ele>240.85714285714286</ele><time>2026-04-18T09:35:27.063Z</time></trkpt><trkpt lat="40.6988855" lon="14.7002266"><ele>240.0</ele><time>2026-04-18T09:35:32.063Z</time></trkpt><trkpt lat="40.69893" lon="14.7002913"><ele>239.85714285714286</ele><time>2026-04-18T09:35:38.063Z</time></trkpt><trkpt lat="40.6989797" lon="14.7003595"><ele>239.71428571428572</ele><time>2026-04-18T09:35:43.063Z</time></trkpt><trkpt lat="40.6990373" lon="14.7004192"><ele>239.57142857142858</ele><time>2026-04-18T09:35:49.063Z</time></trkpt><trkpt lat="40.6990987" lon="14.7004851"><ele>239.42857142857144</ele><time>2026-04-18T09:35:54.063Z</time></trkpt><trkpt lat="40.6991575" lon="14.7005478"><ele>239.28571428571428</ele><time>2026-04-18T09:36:00.063Z</time></trkpt><trkpt lat="40.6992158" lon="14.7006105"><ele>239.14285714285717</ele><time>2026-04-18T09:36:06.063Z</time></trkpt><trkpt lat="40.6992692" lon="14.7006671"><ele>239.00000000000003</ele><time>2026-04-18T09:36:11.063Z</time></trkpt><trkpt lat="40.6993198" lon="14.7007199"><ele>239.00000000000003</ele><time>2026-04-18T09:36:16.064Z</time></trkpt><trkpt lat="40.6993694" lon="14.7007813"><ele>239.0</ele><time>2026-04-18T09:36:21.063Z</time></trkpt><trkpt lat="40.6993932" lon="14.7008671"><ele>239.00000000000003</ele><time>2026-04-18T09:36:27.063Z</time></trkpt><trkpt lat="40.6994317" lon="14.7009336"><ele>239.00000000000003</ele><time>2026-04-18T09:36:33.063Z</time></trkpt><trkpt lat="40.6994715" lon="14.700998"><ele>239.0</ele><time>2026-04-18T09:36:38.063Z</time></trkpt><trkpt lat="40.6995141" lon="14.7010671"><ele>239.00000000000003</ele><time>2026-04-18T09:36:43.063Z</time></trkpt><trkpt lat="40.6995539" lon="14.7011344"><ele>239.00000000000003</ele><time>2026-04-18T09:36:48.063Z</time></trkpt><trkpt lat="40.699597" lon="14.7012089"><ele>237.50000000000003</ele><time>2026-04-18T09:36:54.063Z</time></trkpt><trkpt lat="40.6996355" lon="14.7012753"><ele>236.0</ele><time>2026-04-18T09:37:00.063Z</time></trkpt><trkpt lat="40.6996796" lon="14.7013555"><ele>234.5</ele><time>2026-04-18T09:37:05.063Z</time></trkpt><trkpt lat="40.6996988" lon="14.7014552"><ele>233.0</ele><time>2026-04-18T09:37:10.063Z</time></trkpt><trkpt lat="40.6997005" lon="14.7015509"><ele>231.50000000000003</ele><time>2026-04-18T09:37:15.063Z</time></trkpt><trkpt lat="40.6996745" lon="14.7017138"><ele>230.0</ele><time>2026-04-18T09:37:42.063Z</time></trkpt><trkpt lat="40.69968" lon="14.7018055"><ele>229.99999999999997</ele><time>2026-04-18T09:37:50.064Z</time></trkpt><trkpt lat="40.6996881" lon="14.7018934"><ele>230.0</ele><time>2026-04-18T09:37:55.063Z</time></trkpt><trkpt lat="40.699697" lon="14.7019824"><ele>229.99999999999997</ele><time>2026-04-18T09:38:02.063Z</time></trkpt><trkpt lat="40.6997046" lon="14.7020651"><ele>229.99999999999997</ele><time>2026-04-18T09:38:08.063Z</time></trkpt><trkpt lat="40.6997131" lon="14.7021723"><ele>230.0</ele><time>2026-04-18T09:38:16.063Z</time></trkpt><trkpt lat="40.6997298" lon="14.702263"><ele>229.99999999999997</ele><time>2026-04-18T09:38:49.063Z</time></trkpt><trkpt lat="40.6997368" lon="14.7023463"><ele>229.99999999999997</ele><time>2026-04-18T09:39:00.063Z</time></trkpt><trkpt lat="40.6997396" lon="14.7024334"><ele>229.1428571428571</ele><time>2026-04-18T09:39:04.063Z</time></trkpt><trkpt lat="40.6997041" lon="14.7025216"><ele>228.28571428571428</ele><time>2026-04-18T09:39:10.063Z</time></trkpt><trkpt lat="40.6996736" lon="14.702608"><ele>227.42857142857142</ele><time>2026-04-18T09:39:15.063Z</time></trkpt><trkpt lat="40.6996621" lon="14.7027024"><ele>226.57142857142856</ele><time>2026-04-18T09:39:21.063Z</time></trkpt><trkpt lat="40.6996314" lon="14.7027959"><ele>225.71428571428572</ele><time>2026-04-18T09:39:28.063Z</time></trkpt><trkpt lat="40.6996078" lon="14.7028792"><ele>224.85714285714286</ele><time>2026-04-18T09:39:34.063Z</time></trkpt><trkpt lat="40.6995739" lon="14.7029639"><ele>224.0</ele><time>2026-04-18T09:39:41.063Z</time></trkpt><trkpt lat="40.6995413" lon="14.7030446"><ele>223.71428571428572</ele><time>2026-04-18T09:39:45.063Z</time></trkpt><trkpt lat="40.6995086" lon="14.7031209"><ele>223.42857142857144</ele><time>2026-04-18T09:39:50.063Z</time></trkpt><trkpt lat="40.6994734" lon="14.7031949"><ele>223.14285714285714</ele><time>2026-04-18T09:39:54.064Z</time></trkpt><trkpt lat="40.6994351" lon="14.7032764"><ele>222.85714285714286</ele><time>2026-04-18T09:40:01.063Z</time></trkpt><trkpt lat="40.6993929" lon="14.7033627"><ele>222.57142857142858</ele><time>2026-04-18T09:40:07.063Z</time></trkpt><trkpt lat="40.6993534" lon="14.7034467"><ele>222.28571428571428</ele><time>2026-04-18T09:40:12.063Z</time></trkpt><trkpt lat="40.6993179" lon="14.7035212"><ele>222.0</ele><time>2026-04-18T09:40:17.064Z</time></trkpt><trkpt lat="40.6992822" lon="14.7035959"><ele>221.5</ele><time>2026-04-18T09:40:23.063Z</time></trkpt><trkpt lat="40.6992422" lon="14.7036805"><ele>221.0</ele><time>2026-04-18T09:40:29.063Z</time></trkpt><trkpt lat="40.6992259" lon="14.7037744"><ele>220.5</ele><time>2026-04-18T09:40:37.064Z</time></trkpt><trkpt lat="40.6992557" lon="14.7038655"><ele>220.0</ele><time>2026-04-18T09:40:42.063Z</time></trkpt><trkpt lat="40.6992872" lon="14.7039564"><ele>219.5</ele><time>2026-04-18T09:40:47.063Z</time></trkpt><trkpt lat="40.6993189" lon="14.7040344"><ele>219.0</ele><time>2026-04-18T09:40:52.064Z</time></trkpt><trkpt lat="40.6993239" lon="14.7041875"><ele>219.0</ele><time>2026-04-18T09:41:11.063Z</time></trkpt><trkpt lat="40.6993496" lon="14.7042683"><ele>219.0</ele><time>2026-04-18T09:41:15.064Z</time></trkpt><trkpt lat="40.6993842" lon="14.7043554"><ele>219.0</ele><time>2026-04-18T09:41:20.063Z</time></trkpt><trkpt lat="40.6994149" lon="14.7044312"><ele>219.0</ele><time>2026-04-18T09:41:26.063Z</time></trkpt><trkpt lat="40.699451" lon="14.70452"><ele>219.0</ele><time>2026-04-18T09:41:32.063Z</time></trkpt><trkpt lat="40.6994859" lon="14.7046063"><ele>219.0</ele><time>2026-04-18T09:41:37.063Z</time></trkpt><trkpt lat="40.6995226" lon="14.7046961"><ele>219.0</ele><time>2026-04-18T09:41:41.063Z</time></trkpt><trkpt lat="40.6995572" lon="14.7047826"><ele>218.42857142857144</ele><time>2026-04-18T09:41:50.063Z</time></trkpt><trkpt lat="40.6995901" lon="14.7048634"><ele>217.85714285714283</ele><time>2026-04-18T09:41:55.063Z</time></trkpt><trkpt lat="40.6996269" lon="14.7049549"><ele>217.28571428571428</ele><time>2026-04-18T09:42:00.063Z</time></trkpt><trkpt lat="40.6996573" lon="14.7050277"><ele>216.71428571428572</ele><time>2026-04-18T09:42:04.063Z</time></trkpt><trkpt lat="40.6996867" lon="14.7051027"><ele>216.14285714285717</ele><time>2026-04-18T09:42:09.063Z</time></trkpt><trkpt lat="40.6997212" lon="14.7051914"><ele>215.57142857142856</ele><time>2026-04-18T09:42:15.063Z</time></trkpt><trkpt lat="40.6997495" lon="14.7052708"><ele>215.0</ele><time>2026-04-18T09:42:20.063Z</time></trkpt><trkpt lat="40.6997774" lon="14.7053487"><ele>214.57142857142856</ele><time>2026-04-18T09:42:25.063Z</time></trkpt><trkpt lat="40.6998088" lon="14.7054375"><ele>214.14285714285717</ele><time>2026-04-18T09:42:30.063Z</time></trkpt><trkpt lat="40.6998359" lon="14.7055145"><ele>213.71428571428572</ele><time>2026-04-18T09:42:35.063Z</time></trkpt><trkpt lat="40.6998638" lon="14.7055916"><ele>213.28571428571428</ele><time>2026-04-18T09:42:39.064Z</time></trkpt><trkpt lat="40.6998943" lon="14.7056793"><ele>212.85714285714283</ele><time>2026-04-18T09:42:46.063Z</time></trkpt><trkpt lat="40.6999245" lon="14.7057649"><ele>212.42857142857144</ele><time>2026-04-18T09:42:54.063Z</time></trkpt><trkpt lat="40.6999539" lon="14.7058459"><ele>212.0</ele><time>2026-04-18T09:42:59.063Z</time></trkpt><trkpt lat="40.6999868" lon="14.7059392"><ele>212.0</ele><time>2026-04-18T09:43:04.063Z</time></trkpt><trkpt lat="40.7000169" lon="14.7060248"><ele>212.0</ele><time>2026-04-18T09:43:11.063Z</time></trkpt><trkpt lat="40.7000474" lon="14.7061091"><ele>212.0</ele><time>2026-04-18T09:43:17.063Z</time></trkpt><trkpt lat="40.7000737" lon="14.7061847"><ele>212.0</ele><time>2026-04-18T09:43:23.063Z</time></trkpt><trkpt lat="40.7001024" lon="14.7062662"><ele>212.0</ele><time>2026-04-18T09:43:27.064Z</time></trkpt><trkpt lat="40.7001305" lon="14.7063434"><ele>212.0</ele><time>2026-04-18T09:43:31.063Z</time></trkpt><trkpt lat="40.7001607" lon="14.7064214"><ele>212.0</ele><time>2026-04-18T09:43:37.063Z</time></trkpt><trkpt lat="40.7001921" lon="14.706504"><ele>212.0</ele><time>2026-04-18T09:43:43.063Z</time></trkpt><trkpt lat="40.7002227" lon="14.7065805"><ele>212.0</ele><time>2026-04-18T09:43:47.063Z</time></trkpt><trkpt lat="40.7002571" lon="14.7066646"><ele>212.0</ele><time>2026-04-18T09:43:52.063Z</time></trkpt><trkpt lat="40.7002953" lon="14.7067391"><ele>212.0</ele><time>2026-04-18T09:43:58.063Z</time></trkpt><trkpt lat="40.7003165" lon="14.7068243"><ele>212.0</ele><time>2026-04-18T09:44:03.063Z</time></trkpt><trkpt lat="40.7003119" lon="14.7069167"><ele>212.0</ele><time>2026-04-18T09:44:08.063Z</time></trkpt><trkpt lat="40.7003054" lon="14.7070033"><ele>212.0</ele><time>2026-04-18T09:44:13.063Z</time></trkpt><trkpt lat="40.7003203" lon="14.7070935"><ele>211.2857142857143</ele><time>2026-04-18T09:44:18.063Z</time></trkpt><trkpt lat="40.7003324" lon="14.7071895"><ele>210.57142857142856</ele><time>2026-04-18T09:44:23.063Z</time></trkpt><trkpt lat="40.7003301" lon="14.707284"><ele>209.85714285714286</ele><time>2026-04-18T09:44:29.063Z</time></trkpt><trkpt lat="40.7003185" lon="14.7073874"><ele>209.14285714285717</ele><time>2026-04-18T09:44:35.063Z</time></trkpt><trkpt lat="40.7003171" lon="14.7074827"><ele>208.42857142857144</ele><time>2026-04-18T09:44:40.063Z</time></trkpt><trkpt lat="40.7003464" lon="14.7075687"><ele>207.71428571428572</ele><time>2026-04-18T09:44:45.063Z</time></trkpt><trkpt lat="40.7003812" lon="14.7076414"><ele>207.0</ele><time>2026-04-18T09:44:49.063Z</time></trkpt><trkpt lat="40.7004215" lon="14.7077052"><ele>206.6</ele><time>2026-04-18T09:44:56.063Z</time></trkpt><trkpt lat="40.7003632" lon="14.7078206"><ele>206.2</ele><time>2026-04-18T09:46:04.063Z</time></trkpt><trkpt lat="40.7003057" lon="14.7078632"><ele>205.8</ele><time>2026-04-18T09:46:08.063Z</time></trkpt><trkpt lat="40.7002369" lon="14.7079156"><ele>205.4</ele><time>2026-04-18T09:46:13.063Z</time></trkpt><trkpt lat="40.7001416" lon="14.7080485"><ele>205.0</ele><time>2026-04-18T09:47:51.063Z</time></trkpt><trkpt lat="40.7000761" lon="14.7081092"><ele>205.85714285714286</ele><time>2026-04-18T09:47:55.063Z</time></trkpt><trkpt lat="40.7000161" lon="14.7081587"><ele>206.7142857142857</ele><time>2026-04-18T09:48:00.063Z</time></trkpt><trkpt lat="40.6999569" lon="14.7082028"><ele>207.57142857142856</ele><time>2026-04-18T09:48:06.063Z</time></trkpt><trkpt lat="40.6998953" lon="14.7082499"><ele>208.42857142857144</ele><time>2026-04-18T09:48:12.063Z</time></trkpt><trkpt lat="40.6998392" lon="14.7082926"><ele>209.28571428571428</ele><time>2026-04-18T09:48:17.063Z</time></trkpt><trkpt lat="40.699774" lon="14.7083417"><ele>210.14285714285714</ele><time>2026-04-18T09:48:22.064Z</time></trkpt><trkpt lat="40.6996999" lon="14.7083909"><ele>211.0</ele><time>2026-04-18T09:48:26.063Z</time></trkpt><trkpt lat="40.6996398" lon="14.7084312"><ele>211.0</ele><time>2026-04-18T09:48:30.063Z</time></trkpt><trkpt lat="40.6995795" lon="14.7084723"><ele>211.0</ele><time>2026-04-18T09:48:35.063Z</time></trkpt><trkpt lat="40.6995205" lon="14.7085118"><ele>211.0</ele><time>2026-04-18T09:48:40.063Z</time></trkpt><trkpt lat="40.6994619" lon="14.7085508"><ele>211.0</ele><time>2026-04-18T09:48:48.063Z</time></trkpt><trkpt lat="40.699397" lon="14.708566"><ele>211.0</ele><time>2026-04-18T09:49:01.063Z</time></trkpt><trkpt lat="40.6993289" lon="14.708567"><ele>211.0</ele><time>2026-04-18T09:49:06.063Z</time></trkpt><trkpt lat="40.69925" lon="14.7085838"><ele>211.0</ele><time>2026-04-18T09:49:10.063Z</time></trkpt><trkpt lat="40.699188" lon="14.7086047"><ele>210.71428571428572</ele><time>2026-04-18T09:49:13.064Z</time></trkpt><trkpt lat="40.6991238" lon="14.7086179"><ele>210.42857142857144</ele><time>2026-04-18T09:49:17.063Z</time></trkpt><trkpt lat="40.6990573" lon="14.7086558"><ele>210.14285714285714</ele><time>2026-04-18T09:49:23.063Z</time></trkpt><trkpt lat="40.6989824" lon="14.7086697"><ele>209.85714285714286</ele><time>2026-04-18T09:49:28.062Z</time></trkpt><trkpt lat="40.6989175" lon="14.7086688"><ele>209.57142857142856</ele><time>2026-04-18T09:49:34.062Z</time></trkpt><trkpt lat="40.6988483" lon="14.7086824"><ele>209.28571428571428</ele><time>2026-04-18T09:49:42.062Z</time></trkpt><trkpt lat="40.698762" lon="14.7087158"><ele>209.0</ele><time>2026-04-18T09:50:11.062Z</time></trkpt><trkpt lat="40.6986933" lon="14.7087267"><ele>209.00000000000003</ele><time>2026-04-18T09:51:24.062Z</time></trkpt><trkpt lat="40.6986233" lon="14.70877"><ele>209.0</ele><time>2026-04-18T09:51:29.062Z</time></trkpt><trkpt lat="40.6985583" lon="14.7088267"><ele>209.0</ele><time>2026-04-18T09:51:35.062Z</time></trkpt><trkpt lat="40.6985" lon="14.7088733"><ele>209.0</ele><time>2026-04-18T09:51:40.062Z</time></trkpt><trkpt lat="40.6984617" lon="14.70896"><ele>209.00000000000003</ele><time>2026-04-18T09:51:43.062Z</time></trkpt><trkpt lat="40.6983917" lon="14.7090058"><ele>209.0</ele><time>2026-04-18T09:51:48.062Z</time></trkpt><trkpt lat="40.698326" lon="14.7090488"><ele>208.71428571428572</ele><time>2026-04-18T09:51:54.062Z</time></trkpt><trkpt lat="40.698258" lon="14.7090941"><ele>208.42857142857142</ele><time>2026-04-18T09:51:59.062Z</time></trkpt><trkpt lat="40.6981971" lon="14.7091353"><ele>208.14285714285717</ele><time>2026-04-18T09:52:05.062Z</time></trkpt><trkpt lat="40.6981577" lon="14.7092239"><ele>207.85714285714286</ele><time>2026-04-18T09:52:11.062Z</time></trkpt><trkpt lat="40.6981092" lon="14.7092973"><ele>207.57142857142858</ele><time>2026-04-18T09:52:16.062Z</time></trkpt><trkpt lat="40.6980459" lon="14.7093501"><ele>207.2857142857143</ele><time>2026-04-18T09:52:22.063Z</time></trkpt><trkpt lat="40.6980066" lon="14.7094253"><ele>207.0</ele><time>2026-04-18T09:52:26.062Z</time></trkpt><trkpt lat="40.6979412" lon="14.7094445"><ele>206.6</ele><time>2026-04-18T09:52:31.062Z</time></trkpt><trkpt lat="40.6978744" lon="14.7094767"><ele>206.2</ele><time>2026-04-18T09:52:36.062Z</time></trkpt><trkpt lat="40.6977907" lon="14.7095662"><ele>205.8</ele><time>2026-04-18T09:52:42.972Z</time></trkpt><trkpt lat="40.6977332" lon="14.7096304"><ele>205.4</ele><time>2026-04-18T09:52:49.627Z</time></trkpt><trkpt lat="40.6975981" lon="14.7098018"><ele>205.0</ele><time>2026-04-18T09:53:02.823Z</time></trkpt><trkpt lat="40.6975833" lon="14.7096723"><ele>205.0</ele><time>2026-04-18T09:53:05.054Z</time></trkpt><trkpt lat="40.6975735" lon="14.709459"><ele>205.0</ele><time>2026-04-18T09:53:06.053Z</time></trkpt><trkpt lat="40.6975454" lon="14.7097562"><ele>205.0</ele><time>2026-04-18T09:53:16.409Z</time></trkpt><trkpt lat="40.6975356" lon="14.709863"><ele>204.99999999999997</ele><time>2026-04-18T09:53:21.054Z</time></trkpt><trkpt lat="40.6976224" lon="14.7099921"><ele>205.0</ele><time>2026-04-18T09:53:22.054Z</time></trkpt><trkpt lat="40.6976053" lon="14.7100775"><ele>205.0</ele><time>2026-04-18T09:53:25.054Z</time></trkpt><trkpt lat="40.6975357" lon="14.7101549"><ele>205.0</ele><time>2026-04-18T09:53:28.054Z</time></trkpt><trkpt lat="40.6974632" lon="14.7101137"><ele>204.99999999999997</ele><time>2026-04-18T09:53:30.054Z</time></trkpt><trkpt lat="40.6974001" lon="14.7101334"><ele>205.0</ele><time>2026-04-18T09:53:37.054Z</time></trkpt><trkpt lat="40.6973456" lon="14.7101862"><ele>203.99999999999997</ele><time>2026-04-18T09:53:42.054Z</time></trkpt><trkpt lat="40.6972834" lon="14.7102489"><ele>203.0</ele><time>2026-04-18T09:53:47.054Z</time></trkpt><trkpt lat="40.6972225" lon="14.7102992"><ele>202.0</ele><time>2026-04-18T09:53:53.054Z</time></trkpt><trkpt lat="40.6971518" lon="14.7103571"><ele>201.0</ele><time>2026-04-18T09:53:58.054Z</time></trkpt><trkpt lat="40.6970888" lon="14.7104095"><ele>199.99999999999997</ele><time>2026-04-18T09:54:03.054Z</time></trkpt><trkpt lat="40.6970232" lon="14.7104625"><ele>199.0</ele><time>2026-04-18T09:54:12.054Z</time></trkpt><trkpt lat="40.6969675" lon="14.7105076"><ele>198.66666666666666</ele><time>2026-04-18T09:54:18.054Z</time></trkpt><trkpt lat="40.6969081" lon="14.7105453"><ele>198.33333333333331</ele><time>2026-04-18T09:54:24.054Z</time></trkpt><trkpt lat="40.6968506" lon="14.7105815"><ele>198.0</ele><time>2026-04-18T09:54:30.054Z</time></trkpt><trkpt lat="40.6967404" lon="14.7105917"><ele>197.66666666666669</ele><time>2026-04-18T09:55:26.054Z</time></trkpt><trkpt lat="40.6966767" lon="14.7106229"><ele>197.33333333333334</ele><time>2026-04-18T09:55:31.054Z</time></trkpt><trkpt lat="40.6966079" lon="14.7106486"><ele>197.0</ele><time>2026-04-18T09:55:37.054Z</time></trkpt><trkpt lat="40.6965506" lon="14.7107979"><ele>197.0</ele><time>2026-04-18T09:59:08.057Z</time></trkpt><trkpt lat="40.6966011" lon="14.7107296"><ele>197.0</ele><time>2026-04-18T09:59:09.058Z</time></trkpt><trkpt lat="40.6965937" lon="14.7106405"><ele>197.0</ele><time>2026-04-18T09:59:12.057Z</time></trkpt><trkpt lat="40.6965166" lon="14.7106326"><ele>197.0</ele><time>2026-04-18T10:02:22.058Z</time></trkpt><trkpt lat="40.6964431" lon="14.7106589"><ele>197.0</ele><time>2026-04-18T10:02:28.057Z</time></trkpt><trkpt lat="40.6963793" lon="14.7106817"><ele>197.0</ele><time>2026-04-18T10:02:33.057Z</time></trkpt><trkpt lat="40.6963101" lon="14.7107059"><ele>197.0</ele><time>2026-04-18T10:02:41.057Z</time></trkpt><trkpt lat="40.6962481" lon="14.7107275"><ele>197.0</ele><time>2026-04-18T10:02:47.057Z</time></trkpt><trkpt lat="40.696182" lon="14.7107511"><ele>197.0</ele><time>2026-04-18T10:02:51.057Z</time></trkpt><trkpt lat="40.6961107" lon="14.7107762"><ele>197.0</ele><time>2026-04-18T10:02:54.057Z</time></trkpt><trkpt lat="40.6960462" lon="14.7107965"><ele>197.0</ele><time>2026-04-18T10:03:00.057Z</time></trkpt><trkpt lat="40.696034" lon="14.7109052"><ele>197.0</ele><time>2026-04-18T10:03:04.057Z</time></trkpt><trkpt lat="40.6960775" lon="14.7109834"><ele>197.0</ele><time>2026-04-18T10:03:07.057Z</time></trkpt><trkpt lat="40.6960723" lon="14.7110787"><ele>197.0</ele><time>2026-04-18T10:03:11.057Z</time></trkpt><trkpt lat="40.696067" lon="14.7111685"><ele>196.0</ele><time>2026-04-18T10:03:15.057Z</time></trkpt><trkpt lat="40.696113" lon="14.7112323"><ele>195.0</ele><time>2026-04-18T10:03:20.057Z</time></trkpt><trkpt lat="40.6961604" lon="14.7113026"><ele>194.0</ele><time>2026-04-18T10:03:31.057Z</time></trkpt><trkpt lat="40.696201" lon="14.7113784"><ele>193.0</ele><time>2026-04-18T10:03:37.057Z</time></trkpt><trkpt lat="40.6962517" lon="14.7114428"><ele>192.0</ele><time>2026-04-18T10:03:42.057Z</time></trkpt><trkpt lat="40.6962973" lon="14.7115126"><ele>191.0</ele><time>2026-04-18T10:03:48.057Z</time></trkpt><trkpt lat="40.6963642" lon="14.7115385"><ele>190.0</ele><time>2026-04-18T10:03:54.057Z</time></trkpt><trkpt lat="40.6964266" lon="14.711558"><ele>190.0</ele><time>2026-04-18T10:04:05.057Z</time></trkpt><trkpt lat="40.6964892" lon="14.7116009"><ele>190.0</ele><time>2026-04-18T10:04:13.057Z</time></trkpt><trkpt lat="40.6965341" lon="14.7116697"><ele>190.0</ele><time>2026-04-18T10:04:18.057Z</time></trkpt><trkpt lat="40.6965675" lon="14.7117594"><ele>190.0</ele><time>2026-04-18T10:04:23.057Z</time></trkpt><trkpt lat="40.6965864" lon="14.711855"><ele>190.0</ele><time>2026-04-18T10:04:28.057Z</time></trkpt><trkpt lat="40.6966196" lon="14.7119316"><ele>190.0</ele><time>2026-04-18T10:04:33.057Z</time></trkpt><trkpt lat="40.6966492" lon="14.7120122"><ele>190.0</ele><time>2026-04-18T10:04:38.058Z</time></trkpt><trkpt lat="40.6966854" lon="14.712093"><ele>190.42857142857144</ele><time>2026-04-18T10:04:43.057Z</time></trkpt><trkpt lat="40.696696" lon="14.7121853"><ele>190.85714285714286</ele><time>2026-04-18T10:04:49.058Z</time></trkpt><trkpt lat="40.6966685" lon="14.712279"><ele>191.28571428571428</ele><time>2026-04-18T10:04:54.057Z</time></trkpt><trkpt lat="40.6966074" lon="14.7123292"><ele>191.71428571428572</ele><time>2026-04-18T10:04:58.057Z</time></trkpt><trkpt lat="40.696542" lon="14.7123783"><ele>192.14285714285714</ele><time>2026-04-18T10:05:02.057Z</time></trkpt><trkpt lat="40.6964788" lon="14.7124281"><ele>192.57142857142858</ele><time>2026-04-18T10:05:07.057Z</time></trkpt><trkpt lat="40.6964204" lon="14.7124791"><ele>193.0</ele><time>2026-04-18T10:05:13.058Z</time></trkpt><trkpt lat="40.6963619" lon="14.7125347"><ele>193.00000000000003</ele><time>2026-04-18T10:05:20.057Z</time></trkpt><trkpt lat="40.6963083" lon="14.7125864"><ele>193.0</ele><time>2026-04-18T10:05:27.057Z</time></trkpt><trkpt lat="40.6962589" lon="14.712644"><ele>193.0</ele><time>2026-04-18T10:05:33.056Z</time></trkpt><trkpt lat="40.696204" lon="14.7127132"><ele>193.0</ele><time>2026-04-18T10:05:38.057Z</time></trkpt><trkpt lat="40.6961527" lon="14.7127789"><ele>193.0</ele><time>2026-04-18T10:05:45.056Z</time></trkpt><trkpt lat="40.6961071" lon="14.7128396"><ele>193.00000000000003</ele><time>2026-04-18T10:05:54.056Z</time></trkpt><trkpt lat="40.6960567" lon="14.7129129"><ele>193.0</ele><time>2026-04-18T10:05:59.056Z</time></trkpt><trkpt lat="40.6960012" lon="14.7129876"><ele>192.66666666666666</ele><time>2026-04-18T10:06:03.056Z</time></trkpt><trkpt lat="40.6959477" lon="14.7130596"><ele>192.33333333333331</ele><time>2026-04-18T10:06:07.056Z</time></trkpt><trkpt lat="40.6958944" lon="14.7131342"><ele>192.0</ele><time>2026-04-18T10:06:14.057Z</time></trkpt><trkpt lat="40.6958429" lon="14.713215"><ele>191.66666666666666</ele><time>2026-04-18T10:06:23.056Z</time></trkpt><trkpt lat="40.6959012" lon="14.7132957"><ele>191.33333333333331</ele><time>2026-04-18T10:06:27.056Z</time></trkpt><trkpt lat="40.6959535" lon="14.7133706"><ele>191.0</ele><time>2026-04-18T10:06:30.056Z</time></trkpt><trkpt lat="40.696012" lon="14.7134418"><ele>191.0</ele><time>2026-04-18T10:06:34.056Z</time></trkpt><trkpt lat="40.696069" lon="14.7135057"><ele>191.0</ele><time>2026-04-18T10:06:39.056Z</time></trkpt><trkpt lat="40.6961249" lon="14.7135684"><ele>191.0</ele><time>2026-04-18T10:06:44.056Z</time></trkpt><trkpt lat="40.6961853" lon="14.7136354"><ele>191.0</ele><time>2026-04-18T10:06:50.056Z</time></trkpt><trkpt lat="40.6962346" lon="14.7136895"><ele>191.0</ele><time>2026-04-18T10:06:55.056Z</time></trkpt><trkpt lat="40.6962938" lon="14.7137552"><ele>191.0</ele><time>2026-04-18T10:07:00.056Z</time></trkpt><trkpt lat="40.6963441" lon="14.7138095"><ele>191.0</ele><time>2026-04-18T10:07:06.056Z</time></trkpt><trkpt lat="40.696399" lon="14.7138741"><ele>190.71428571428572</ele><time>2026-04-18T10:07:11.056Z</time></trkpt><trkpt lat="40.69645" lon="14.7139379"><ele>190.42857142857142</ele><time>2026-04-18T10:07:17.056Z</time></trkpt><trkpt lat="40.6965009" lon="14.7139912"><ele>190.14285714285714</ele><time>2026-04-18T10:07:24.056Z</time></trkpt><trkpt lat="40.6965623" lon="14.7140508"><ele>189.85714285714286</ele><time>2026-04-18T10:07:29.056Z</time></trkpt><trkpt lat="40.6966181" lon="14.714103"><ele>189.57142857142856</ele><time>2026-04-18T10:07:34.056Z</time></trkpt><trkpt lat="40.6966796" lon="14.7141522"><ele>189.28571428571428</ele><time>2026-04-18T10:07:40.056Z</time></trkpt><trkpt lat="40.6967454" lon="14.714147"><ele>189.0</ele><time>2026-04-18T10:07:45.056Z</time></trkpt><trkpt lat="40.6968208" lon="14.7141254"><ele>189.0</ele><time>2026-04-18T10:07:50.056Z</time></trkpt><trkpt lat="40.6968889" lon="14.7140875"><ele>189.0</ele><time>2026-04-18T10:07:55.056Z</time></trkpt><trkpt lat="40.6969494" lon="14.7140536"><ele>189.0</ele><time>2026-04-18T10:08:00.056Z</time></trkpt><trkpt lat="40.6970162" lon="14.7140164"><ele>189.0</ele><time>2026-04-18T10:08:04.056Z</time></trkpt><trkpt lat="40.6970808" lon="14.7140411"><ele>189.0</ele><time>2026-04-18T10:08:12.056Z</time></trkpt><trkpt lat="40.6971469" lon="14.714065"><ele>189.0</ele><time>2026-04-18T10:08:16.056Z</time></trkpt><trkpt lat="40.6972009" lon="14.7141123"><ele>189.0</ele><time>2026-04-18T10:08:20.056Z</time></trkpt><trkpt lat="40.6972362" lon="14.7141922"><ele>189.14285714285714</ele><time>2026-04-18T10:08:25.056Z</time></trkpt><trkpt lat="40.6972787" lon="14.7142554"><ele>189.28571428571428</ele><time>2026-04-18T10:08:29.056Z</time></trkpt><trkpt lat="40.6973213" lon="14.7143362"><ele>189.42857142857144</ele><time>2026-04-18T10:08:34.056Z</time></trkpt><trkpt lat="40.697357" lon="14.7144204"><ele>189.57142857142856</ele><time>2026-04-18T10:08:38.056Z</time></trkpt><trkpt lat="40.6973833" lon="14.7145075"><ele>189.71428571428572</ele><time>2026-04-18T10:08:46.056Z</time></trkpt><trkpt lat="40.6973965" lon="14.7146032"><ele>189.85714285714286</ele><time>2026-04-18T10:08:51.056Z</time></trkpt><trkpt lat="40.6974208" lon="14.714693"><ele>190.0</ele><time>2026-04-18T10:08:56.056Z</time></trkpt><trkpt lat="40.697452" lon="14.7147668"><ele>190.0</ele><time>2026-04-18T10:09:01.056Z</time></trkpt><trkpt lat="40.6974467" lon="14.7149041"><ele>190.0</ele><time>2026-04-18T10:13:22.056Z</time></trkpt><trkpt lat="40.6974845" lon="14.7149755"><ele>190.0</ele><time>2026-04-18T10:13:28.056Z</time></trkpt><trkpt lat="40.6975301" lon="14.7150457"><ele>190.0</ele><time>2026-04-18T10:13:34.056Z</time></trkpt><trkpt lat="40.6975865" lon="14.7151225"><ele>190.0</ele><time>2026-04-18T10:13:39.056Z</time></trkpt><trkpt lat="40.6976551" lon="14.7151994"><ele>190.0</ele><time>2026-04-18T10:13:47.057Z</time></trkpt><trkpt lat="40.6977251" lon="14.7152727"><ele>190.28571428571428</ele><time>2026-04-18T10:13:54.056Z</time></trkpt><trkpt lat="40.6977842" lon="14.7153263"><ele>190.57142857142858</ele><time>2026-04-18T10:13:59.056Z</time></trkpt><trkpt lat="40.6978417" lon="14.7153778"><ele>190.85714285714283</ele><time>2026-04-18T10:14:03.056Z</time></trkpt><trkpt lat="40.6979057" lon="14.7154331"><ele>191.14285714285714</ele><time>2026-04-18T10:14:10.056Z</time></trkpt><trkpt lat="40.6979673" lon="14.7154878"><ele>191.42857142857142</ele><time>2026-04-18T10:14:16.056Z</time></trkpt><trkpt lat="40.6980278" lon="14.7155419"><ele>191.7142857142857</ele><time>2026-04-18T10:14:21.056Z</time></trkpt><trkpt lat="40.6980929" lon="14.7155982"><ele>192.0</ele><time>2026-04-18T10:14:26.056Z</time></trkpt><trkpt lat="40.6981607" lon="14.7156561"><ele>192.0</ele><time>2026-04-18T10:14:31.056Z</time></trkpt><trkpt lat="40.6982213" lon="14.7157079"><ele>192.0</ele><time>2026-04-18T10:14:37.056Z</time></trkpt><trkpt lat="40.6982851" lon="14.7157656"><ele>192.0</ele><time>2026-04-18T10:14:42.056Z</time></trkpt><trkpt lat="40.6983524" lon="14.7158291"><ele>192.0</ele><time>2026-04-18T10:14:47.056Z</time></trkpt><trkpt lat="40.6984113" lon="14.7158907"><ele>192.0</ele><time>2026-04-18T10:14:53.056Z</time></trkpt><trkpt lat="40.6984739" lon="14.715965"><ele>192.0</ele><time>2026-04-18T10:15:00.056Z</time></trkpt><trkpt lat="40.6985291" lon="14.7160352"><ele>191.85714285714283</ele><time>2026-04-18T10:15:05.056Z</time></trkpt><trkpt lat="40.6985768" lon="14.7160957"><ele>191.71428571428572</ele><time>2026-04-18T10:15:11.057Z</time></trkpt><trkpt lat="40.6986209" lon="14.7161569"><ele>191.57142857142856</ele><time>2026-04-18T10:15:18.057Z</time></trkpt><trkpt lat="40.69866" lon="14.7162333"><ele>191.42857142857142</ele><time>2026-04-18T10:15:27.056Z</time></trkpt><trkpt lat="40.6986906" lon="14.7163098"><ele>191.28571428571428</ele><time>2026-04-18T10:15:33.056Z</time></trkpt><trkpt lat="40.6987181" lon="14.7163862"><ele>191.14285714285714</ele><time>2026-04-18T10:15:39.056Z</time></trkpt><trkpt lat="40.698777" lon="14.7164589"><ele>191.0</ele><time>2026-04-18T10:16:01.056Z</time></trkpt><trkpt lat="40.6988035" lon="14.7165394"><ele>191.42857142857144</ele><time>2026-04-18T10:16:09.056Z</time></trkpt><trkpt lat="40.6988161" lon="14.7166229"><ele>191.85714285714283</ele><time>2026-04-18T10:16:20.056Z</time></trkpt><trkpt lat="40.6988446" lon="14.7167121"><ele>192.28571428571428</ele><time>2026-04-18T10:16:28.056Z</time></trkpt><trkpt lat="40.6988728" lon="14.7167984"><ele>192.71428571428572</ele><time>2026-04-18T10:16:35.056Z</time></trkpt><trkpt lat="40.6988622" lon="14.716882"><ele>193.14285714285717</ele><time>2026-04-18T10:16:43.056Z</time></trkpt><trkpt lat="40.6987919" lon="14.7169176"><ele>193.57142857142856</ele><time>2026-04-18T10:16:47.056Z</time></trkpt><trkpt lat="40.6987138" lon="14.716916"><ele>194.0</ele><time>2026-04-18T10:16:51.056Z</time></trkpt><trkpt lat="40.6986508" lon="14.7168925"><ele>193.57142857142856</ele><time>2026-04-18T10:16:55.056Z</time></trkpt><trkpt lat="40.6985853" lon="14.7168613"><ele>193.14285714285717</ele><time>2026-04-18T10:16:59.056Z</time></trkpt><trkpt lat="40.6985032" lon="14.7168202"><ele>192.71428571428572</ele><time>2026-04-18T10:17:03.056Z</time></trkpt><trkpt lat="40.69844" lon="14.7167901"><ele>192.28571428571428</ele><time>2026-04-18T10:17:10.057Z</time></trkpt><trkpt lat="40.6983729" lon="14.7167711"><ele>191.85714285714283</ele><time>2026-04-18T10:17:15.056Z</time></trkpt><trkpt lat="40.6983226" lon="14.71671"><ele>191.42857142857144</ele><time>2026-04-18T10:17:21.056Z</time></trkpt><trkpt lat="40.6982787" lon="14.716647"><ele>191.0</ele><time>2026-04-18T10:17:26.056Z</time></trkpt><trkpt lat="40.6982247" lon="14.7165881"><ele>191.0</ele><time>2026-04-18T10:17:32.056Z</time></trkpt><trkpt lat="40.6981735" lon="14.7165368"><ele>191.0</ele><time>2026-04-18T10:17:39.057Z</time></trkpt><trkpt lat="40.6981157" lon="14.7164794"><ele>191.0</ele><time>2026-04-18T10:17:45.056Z</time></trkpt><trkpt lat="40.698065" lon="14.71643"><ele>191.0</ele><time>2026-04-18T10:17:51.057Z</time></trkpt><trkpt lat="40.6980053" lon="14.7163738"><ele>191.0</ele><time>2026-04-18T10:17:58.056Z</time></trkpt><trkpt lat="40.6979497" lon="14.7163258"><ele>191.0</ele><time>2026-04-18T10:18:04.056Z</time></trkpt><trkpt lat="40.6978899" lon="14.7162844"><ele>191.0</ele><time>2026-04-18T10:18:10.056Z</time></trkpt><trkpt lat="40.6978257" lon="14.7162444"><ele>191.0</ele><time>2026-04-18T10:18:17.056Z</time></trkpt><trkpt lat="40.6977623" lon="14.7162095"><ele>191.0</ele><time>2026-04-18T10:18:25.056Z</time></trkpt><trkpt lat="40.6976973" lon="14.7161849"><ele>191.0</ele><time>2026-04-18T10:18:35.056Z</time></trkpt><trkpt lat="40.6976339" lon="14.7161617"><ele>191.0</ele><time>2026-04-18T10:18:41.056Z</time></trkpt><trkpt lat="40.6975653" lon="14.7161814"><ele>191.0</ele><time>2026-04-18T10:18:48.056Z</time></trkpt><trkpt lat="40.6974981" lon="14.7161869"><ele>191.0</ele><time>2026-04-18T10:18:53.056Z</time></trkpt><trkpt lat="40.6974313" lon="14.7162255"><ele>191.0</ele><time>2026-04-18T10:18:59.056Z</time></trkpt><trkpt lat="40.6973638" lon="14.7162509"><ele>192.42857142857144</ele><time>2026-04-18T10:19:06.055Z</time></trkpt><trkpt lat="40.6973" lon="14.7162607"><ele>193.85714285714283</ele><time>2026-04-18T10:19:12.055Z</time></trkpt><trkpt lat="40.6972303" lon="14.7162873"><ele>195.28571428571428</ele><time>2026-04-18T10:19:17.055Z</time></trkpt><trkpt lat="40.6971545" lon="14.7163195"><ele>196.71428571428572</ele><time>2026-04-18T10:19:22.055Z</time></trkpt><trkpt lat="40.6970865" lon="14.716361"><ele>198.14285714285717</ele><time>2026-04-18T10:19:28.056Z</time></trkpt><trkpt lat="40.6970282" lon="14.7163976"><ele>199.57142857142856</ele><time>2026-04-18T10:19:33.055Z</time></trkpt><trkpt lat="40.6969686" lon="14.7164332"><ele>201.0</ele><time>2026-04-18T10:19:38.055Z</time></trkpt><trkpt lat="40.6968996" lon="14.7164759"><ele>201.0</ele><time>2026-04-18T10:19:44.055Z</time></trkpt><trkpt lat="40.696838" lon="14.7165189"><ele>201.0</ele><time>2026-04-18T10:19:49.055Z</time></trkpt><trkpt lat="40.6967783" lon="14.7165622"><ele>201.0</ele><time>2026-04-18T10:19:54.056Z</time></trkpt><trkpt lat="40.6967242" lon="14.7166137"><ele>201.0</ele><time>2026-04-18T10:19:58.055Z</time></trkpt><trkpt lat="40.6967663" lon="14.7166874"><ele>201.0</ele><time>2026-04-18T10:20:06.055Z</time></trkpt><trkpt lat="40.6967592" lon="14.7167845"><ele>201.0</ele><time>2026-04-18T10:20:11.055Z</time></trkpt><trkpt lat="40.696748" lon="14.7168689"><ele>201.0</ele><time>2026-04-18T10:20:16.055Z</time></trkpt><trkpt lat="40.6967334" lon="14.7169663"><ele>202.57142857142856</ele><time>2026-04-18T10:20:21.055Z</time></trkpt><trkpt lat="40.6967219" lon="14.7170494"><ele>204.14285714285717</ele><time>2026-04-18T10:20:26.056Z</time></trkpt><trkpt lat="40.696707" lon="14.717148"><ele>205.71428571428572</ele><time>2026-04-18T10:20:33.055Z</time></trkpt><trkpt lat="40.6966952" lon="14.7172322"><ele>207.28571428571428</ele><time>2026-04-18T10:20:38.055Z</time></trkpt><trkpt lat="40.6966632" lon="14.7173132"><ele>208.85714285714283</ele><time>2026-04-18T10:20:46.055Z</time></trkpt><trkpt lat="40.6965961" lon="14.7173549"><ele>210.42857142857144</ele><time>2026-04-18T10:20:51.055Z</time></trkpt><trkpt lat="40.6965235" lon="14.7173439"><ele>212.0</ele><time>2026-04-18T10:20:56.055Z</time></trkpt><trkpt lat="40.6964576" lon="14.7173085"><ele>212.0</ele><time>2026-04-18T10:21:01.055Z</time></trkpt><trkpt lat="40.696396" lon="14.7172907"><ele>212.0</ele><time>2026-04-18T10:21:05.055Z</time></trkpt><trkpt lat="40.6963166" lon="14.7172739"><ele>212.0</ele><time>2026-04-18T10:21:11.055Z</time></trkpt><trkpt lat="40.6962527" lon="14.7172605"><ele>212.0</ele><time>2026-04-18T10:21:16.055Z</time></trkpt><trkpt lat="40.6961858" lon="14.7172471"><ele>212.0</ele><time>2026-04-18T10:21:22.055Z</time></trkpt><trkpt lat="40.6961057" lon="14.7172321"><ele>212.0</ele><time>2026-04-18T10:21:28.055Z</time></trkpt><trkpt lat="40.696019" lon="14.717216"><ele>212.0</ele><time>2026-04-18T10:21:34.055Z</time></trkpt><trkpt lat="40.6959388" lon="14.7171993"><ele>211.42857142857144</ele><time>2026-04-18T10:21:39.056Z</time></trkpt><trkpt lat="40.6958758" lon="14.7171989"><ele>210.85714285714283</ele><time>2026-04-18T10:21:44.055Z</time></trkpt><trkpt lat="40.6958297" lon="14.7171296"><ele>210.28571428571428</ele><time>2026-04-18T10:21:52.055Z</time></trkpt><trkpt lat="40.6958106" lon="14.7170395"><ele>209.71428571428572</ele><time>2026-04-18T10:21:58.055Z</time></trkpt><trkpt lat="40.6957873" lon="14.7169506"><ele>209.14285714285717</ele><time>2026-04-18T10:22:03.055Z</time></trkpt><trkpt lat="40.6957656" lon="14.7168536"><ele>208.57142857142856</ele><time>2026-04-18T10:22:08.055Z</time></trkpt><trkpt lat="40.6957488" lon="14.7167613"><ele>208.0</ele><time>2026-04-18T10:22:13.055Z</time></trkpt><trkpt lat="40.6957185" lon="14.7166877"><ele>208.0</ele><time>2026-04-18T10:22:19.056Z</time></trkpt><trkpt lat="40.6956516" lon="14.7166433"><ele>208.0</ele><time>2026-04-18T10:22:25.055Z</time></trkpt><trkpt lat="40.6955878" lon="14.7166201"><ele>208.0</ele><time>2026-04-18T10:22:31.055Z</time></trkpt><trkpt lat="40.6955092" lon="14.7166021"><ele>208.0</ele><time>2026-04-18T10:22:36.055Z</time></trkpt><trkpt lat="40.6954466" lon="14.7165878"><ele>208.0</ele><time>2026-04-18T10:22:41.055Z</time></trkpt><trkpt lat="40.695382" lon="14.7165721"><ele>208.0</ele><time>2026-04-18T10:22:46.055Z</time></trkpt><trkpt lat="40.6953095" lon="14.7165555"><ele>208.0</ele><time>2026-04-18T10:22:52.055Z</time></trkpt><trkpt lat="40.6952379" lon="14.7165386"><ele>210.0</ele><time>2026-04-18T10:22:58.055Z</time></trkpt><trkpt lat="40.6951684" lon="14.7165236"><ele>212.0</ele><time>2026-04-18T10:23:03.056Z</time></trkpt><trkpt lat="40.6951043" lon="14.7165088"><ele>214.0</ele><time>2026-04-18T10:23:08.055Z</time></trkpt><trkpt lat="40.69504" lon="14.7164939"><ele>216.0</ele><time>2026-04-18T10:23:12.055Z</time></trkpt><trkpt lat="40.6949726" lon="14.7164822"><ele>218.0</ele><time>2026-04-18T10:23:17.055Z</time></trkpt><trkpt lat="40.6949004" lon="14.7164682"><ele>220.0</ele><time>2026-04-18T10:23:24.055Z</time></trkpt><trkpt lat="40.6948227" lon="14.7164526"><ele>222.0</ele><time>2026-04-18T10:23:30.055Z</time></trkpt><trkpt lat="40.6947557" lon="14.7164291"><ele>222.0</ele><time>2026-04-18T10:23:35.055Z</time></trkpt><trkpt lat="40.6946983" lon="14.7163767"><ele>222.0</ele><time>2026-04-18T10:23:38.056Z</time></trkpt><trkpt lat="40.6946333" lon="14.71632"><ele>222.0</ele><time>2026-04-18T10:23:45.055Z</time></trkpt><trkpt lat="40.6945833" lon="14.7162667"><ele>222.0</ele><time>2026-04-18T10:23:50.055Z</time></trkpt><trkpt lat="40.69451" lon="14.7162633"><ele>222.0</ele><time>2026-04-18T10:23:56.055Z</time></trkpt><trkpt lat="40.694455" lon="14.716305"><ele>222.0</ele><time>2026-04-18T10:24:00.056Z</time></trkpt><trkpt lat="40.6943917" lon="14.7163467"><ele>222.0</ele><time>2026-04-18T10:24:06.056Z</time></trkpt><trkpt lat="40.6944017" lon="14.7164333"><ele>222.0</ele><time>2026-04-18T10:24:19.055Z</time></trkpt><trkpt lat="40.6943883" lon="14.7165183"><ele>222.0</ele><time>2026-04-18T10:24:24.055Z</time></trkpt><trkpt lat="40.6943733" lon="14.71663"><ele>222.0</ele><time>2026-04-18T10:24:30.055Z</time></trkpt><trkpt lat="40.6944233" lon="14.7166867"><ele>222.0</ele><time>2026-04-18T10:24:34.055Z</time></trkpt><trkpt lat="40.69441" lon="14.7167683"><ele>222.0</ele><time>2026-04-18T10:24:39.055Z</time></trkpt><trkpt lat="40.6944" lon="14.7168567"><ele>222.0</ele><time>2026-04-18T10:24:45.055Z</time></trkpt><trkpt lat="40.6943967" lon="14.7169467"><ele>222.0</ele><time>2026-04-18T10:24:50.055Z</time></trkpt><trkpt lat="40.6943783" lon="14.7170333"><ele>223.57142857142856</ele><time>2026-04-18T10:24:55.055Z</time></trkpt><trkpt lat="40.694355" lon="14.7171167"><ele>225.14285714285717</ele><time>2026-04-18T10:25:00.055Z</time></trkpt><trkpt lat="40.69433" lon="14.7171933"><ele>226.71428571428572</ele><time>2026-04-18T10:25:05.055Z</time></trkpt><trkpt lat="40.694305" lon="14.71727"><ele>228.28571428571428</ele><time>2026-04-18T10:25:11.056Z</time></trkpt><trkpt lat="40.6942783" lon="14.7173517"><ele>229.85714285714283</ele><time>2026-04-18T10:25:15.055Z</time></trkpt><trkpt lat="40.6942517" lon="14.7174317"><ele>231.42857142857144</ele><time>2026-04-18T10:25:20.055Z</time></trkpt><trkpt lat="40.6942233" lon="14.71752"><ele>233.0</ele><time>2026-04-18T10:25:24.055Z</time></trkpt><trkpt lat="40.694195" lon="14.7176033"><ele>233.0</ele><time>2026-04-18T10:25:30.055Z</time></trkpt><trkpt lat="40.6941583" lon="14.717695"><ele>233.0</ele><time>2026-04-18T10:25:39.055Z</time></trkpt><trkpt lat="40.694125" lon="14.7177817"><ele>233.0</ele><time>2026-04-18T10:25:44.055Z</time></trkpt><trkpt lat="40.6940933" lon="14.717865"><ele>233.0</ele><time>2026-04-18T10:25:49.055Z</time></trkpt><trkpt lat="40.6940633" lon="14.7179433"><ele>233.0</ele><time>2026-04-18T10:25:54.055Z</time></trkpt><trkpt lat="40.6940317" lon="14.7180233"><ele>233.0</ele><time>2026-04-18T10:25:59.055Z</time></trkpt><trkpt lat="40.6940033" lon="14.7181"><ele>233.0</ele><time>2026-04-18T10:26:04.055Z</time></trkpt><trkpt lat="40.693975" lon="14.718195"><ele>234.57142857142858</ele><time>2026-04-18T10:26:08.055Z</time></trkpt><trkpt lat="40.693955" lon="14.718275"><ele>236.1428571428571</ele><time>2026-04-18T10:26:12.055Z</time></trkpt><trkpt lat="40.693945" lon="14.7183767"><ele>237.7142857142857</ele><time>2026-04-18T10:26:16.055Z</time></trkpt><trkpt lat="40.693945" lon="14.718485"><ele>239.28571428571428</ele><time>2026-04-18T10:26:22.055Z</time></trkpt><trkpt lat="40.6939533" lon="14.7185833"><ele>240.85714285714283</ele><time>2026-04-18T10:26:26.055Z</time></trkpt><trkpt lat="40.693965" lon="14.7186683"><ele>242.4285714285714</ele><time>2026-04-18T10:26:31.055Z</time></trkpt><trkpt lat="40.6939817" lon="14.7187583"><ele>243.99999999999997</ele><time>2026-04-18T10:26:37.055Z</time></trkpt><trkpt lat="40.6940017" lon="14.7188567"><ele>244.28571428571425</ele><time>2026-04-18T10:26:42.055Z</time></trkpt><trkpt lat="40.69404" lon="14.7189417"><ele>244.57142857142856</ele><time>2026-04-18T10:26:47.055Z</time></trkpt><trkpt lat="40.6940733" lon="14.7190233"><ele>244.85714285714286</ele><time>2026-04-18T10:26:53.055Z</time></trkpt><trkpt lat="40.694095" lon="14.719115"><ele>245.14285714285714</ele><time>2026-04-18T10:26:59.055Z</time></trkpt><trkpt lat="40.694145" lon="14.7191817"><ele>245.42857142857144</ele><time>2026-04-18T10:27:03.055Z</time></trkpt><trkpt lat="40.6941733" lon="14.71926"><ele>245.71428571428575</ele><time>2026-04-18T10:27:12.055Z</time></trkpt><trkpt lat="40.694205" lon="14.7193383"><ele>246.00000000000003</ele><time>2026-04-18T10:27:17.055Z</time></trkpt><trkpt lat="40.694235" lon="14.7194133"><ele>244.42857142857144</ele><time>2026-04-18T10:27:25.055Z</time></trkpt><trkpt lat="40.6942717" lon="14.7195"><ele>242.85714285714286</ele><time>2026-04-18T10:27:31.055Z</time></trkpt><trkpt lat="40.6943017" lon="14.719575"><ele>241.28571428571428</ele><time>2026-04-18T10:27:36.055Z</time></trkpt><trkpt lat="40.6943433" lon="14.7196567"><ele>239.71428571428572</ele><time>2026-04-18T10:27:42.056Z</time></trkpt><trkpt lat="40.69438" lon="14.7197283"><ele>238.1428571428571</ele><time>2026-04-18T10:27:47.055Z</time></trkpt><trkpt lat="40.6944217" lon="14.719805"><ele>236.57142857142856</ele><time>2026-04-18T10:27:53.055Z</time></trkpt><trkpt lat="40.6944683" lon="14.7198733"><ele>235.0</ele><time>2026-04-18T10:27:59.055Z</time></trkpt><trkpt lat="40.6945133" lon="14.7199367"><ele>238.57142857142856</ele><time>2026-04-18T10:28:03.055Z</time></trkpt><trkpt lat="40.6945583" lon="14.7200017"><ele>242.1428571428571</ele><time>2026-04-18T10:28:08.055Z</time></trkpt><trkpt lat="40.6946033" lon="14.720065"><ele>245.71428571428572</ele><time>2026-04-18T10:28:13.055Z</time></trkpt><trkpt lat="40.6946483" lon="14.7201267"><ele>249.28571428571428</ele><time>2026-04-18T10:28:17.055Z</time></trkpt><trkpt lat="40.6946983" lon="14.7201967"><ele>252.85714285714286</ele><time>2026-04-18T10:28:22.055Z</time></trkpt><trkpt lat="40.6947417" lon="14.7202583"><ele>256.42857142857144</ele><time>2026-04-18T10:28:26.055Z</time></trkpt><trkpt lat="40.6947967" lon="14.7203367"><ele>260.0</ele><time>2026-04-18T10:28:31.055Z</time></trkpt><trkpt lat="40.6948223" lon="14.7204229"><ele>260.5714285714286</ele><time>2026-04-18T10:28:36.055Z</time></trkpt><trkpt lat="40.6948238" lon="14.7205249"><ele>261.14285714285717</ele><time>2026-04-18T10:28:41.055Z</time></trkpt><trkpt lat="40.6948103" lon="14.7206128"><ele>261.7142857142857</ele><time>2026-04-18T10:28:46.055Z</time></trkpt><trkpt lat="40.6947878" lon="14.7207066"><ele>262.28571428571433</ele><time>2026-04-18T10:28:52.055Z</time></trkpt><trkpt lat="40.694748" lon="14.7207811"><ele>262.8571428571429</ele><time>2026-04-18T10:28:57.055Z</time></trkpt><trkpt lat="40.6946993" lon="14.7208638"><ele>263.42857142857144</ele><time>2026-04-18T10:29:01.055Z</time></trkpt><trkpt lat="40.6946539" lon="14.720943"><ele>264.0</ele><time>2026-04-18T10:29:06.055Z</time></trkpt><trkpt lat="40.6946069" lon="14.721024"><ele>263.0</ele><time>2026-04-18T10:29:12.055Z</time></trkpt><trkpt lat="40.6945635" lon="14.7211003"><ele>262.0</ele><time>2026-04-18T10:29:16.055Z</time></trkpt><trkpt lat="40.6945143" lon="14.7211856"><ele>261.0</ele><time>2026-04-18T10:29:21.055Z</time></trkpt><trkpt lat="40.6944611" lon="14.7212565"><ele>260.0</ele><time>2026-04-18T10:29:26.055Z</time></trkpt><trkpt lat="40.6944081" lon="14.7213102"><ele>259.0</ele><time>2026-04-18T10:29:30.055Z</time></trkpt><trkpt lat="40.6943823" lon="14.7213953"><ele>258.0</ele><time>2026-04-18T10:29:38.056Z</time></trkpt><trkpt lat="40.6943582" lon="14.7214782"><ele>257.0</ele><time>2026-04-18T10:29:44.056Z</time></trkpt><trkpt lat="40.6943365" lon="14.7215608"><ele>257.0</ele><time>2026-04-18T10:29:49.055Z</time></trkpt><trkpt lat="40.6942726" lon="14.7215884"><ele>257.0</ele><time>2026-04-18T10:29:53.055Z</time></trkpt><trkpt lat="40.6942044" lon="14.7215951"><ele>257.0</ele><time>2026-04-18T10:29:55.055Z</time></trkpt><trkpt lat="40.6941405" lon="14.7216083"><ele>257.0</ele><time>2026-04-18T10:29:57.055Z</time></trkpt><trkpt lat="40.6940803" lon="14.7216523"><ele>257.0</ele><time>2026-04-18T10:30:00.055Z</time></trkpt><trkpt lat="40.6940258" lon="14.7216964"><ele>257.0</ele><time>2026-04-18T10:30:03.056Z</time></trkpt><trkpt lat="40.6939542" lon="14.7217608"><ele>257.0</ele><time>2026-04-18T10:30:08.055Z</time></trkpt><trkpt lat="40.6938852" lon="14.7217965"><ele>257.0</ele><time>2026-04-18T10:30:15.055Z</time></trkpt><trkpt lat="40.6938354" lon="14.7218521"><ele>257.0</ele><time>2026-04-18T10:30:21.055Z</time></trkpt><trkpt lat="40.6937867" lon="14.7219198"><ele>257.0</ele><time>2026-04-18T10:30:27.055Z</time></trkpt><trkpt lat="40.6937354" lon="14.7220102"><ele>257.0</ele><time>2026-04-18T10:30:33.055Z</time></trkpt><trkpt lat="40.6936937" lon="14.7220961"><ele>257.0</ele><time>2026-04-18T10:30:42.055Z</time></trkpt><trkpt lat="40.6936584" lon="14.7221884"><ele>257.0</ele><time>2026-04-18T10:30:49.056Z</time></trkpt><trkpt lat="40.6936321" lon="14.7222819"><ele>258.1428571428571</ele><time>2026-04-18T10:30:56.055Z</time></trkpt><trkpt lat="40.6936245" lon="14.7223697"><ele>259.2857142857143</ele><time>2026-04-18T10:31:01.055Z</time></trkpt><trkpt lat="40.693611" lon="14.7224511"><ele>260.42857142857144</ele><time>2026-04-18T10:31:05.055Z</time></trkpt><trkpt lat="40.693633" lon="14.7225456"><ele>261.57142857142856</ele><time>2026-04-18T10:31:11.054Z</time></trkpt><trkpt lat="40.6936473" lon="14.7226286"><ele>262.7142857142857</ele><time>2026-04-18T10:31:16.054Z</time></trkpt><trkpt lat="40.6936826" lon="14.7227169"><ele>263.85714285714283</ele><time>2026-04-18T10:31:21.054Z</time></trkpt><trkpt lat="40.6937139" lon="14.7227927"><ele>265.0</ele><time>2026-04-18T10:31:26.054Z</time></trkpt><trkpt lat="40.6937481" lon="14.7228754"><ele>262.57142857142856</ele><time>2026-04-18T10:31:31.054Z</time></trkpt><trkpt lat="40.6937857" lon="14.7229653"><ele>260.1428571428571</ele><time>2026-04-18T10:31:38.054Z</time></trkpt><trkpt lat="40.6938334" lon="14.7230251"><ele>257.7142857142857</ele><time>2026-04-18T10:31:43.054Z</time></trkpt><trkpt lat="40.693894" lon="14.7230826"><ele>255.28571428571428</ele><time>2026-04-18T10:31:49.054Z</time></trkpt><trkpt lat="40.6939499" lon="14.7231366"><ele>252.8571428571429</ele><time>2026-04-18T10:31:55.054Z</time></trkpt><trkpt lat="40.6940009" lon="14.7231858"><ele>250.42857142857144</ele><time>2026-04-18T10:32:02.054Z</time></trkpt><trkpt lat="40.6940596" lon="14.7232278"><ele>248.0</ele><time>2026-04-18T10:32:07.054Z</time></trkpt><trkpt lat="40.6941242" lon="14.7231985"><ele>248.0</ele><time>2026-04-18T10:32:12.054Z</time></trkpt><trkpt lat="40.6941971" lon="14.7231888"><ele>248.00000000000003</ele><time>2026-04-18T10:32:17.054Z</time></trkpt><trkpt lat="40.6942562" lon="14.7232182"><ele>248.0</ele><time>2026-04-18T10:32:22.054Z</time></trkpt><trkpt lat="40.6943242" lon="14.7232642"><ele>248.0</ele><time>2026-04-18T10:32:26.054Z</time></trkpt><trkpt lat="40.694385" lon="14.7233086"><ele>248.00000000000003</ele><time>2026-04-18T10:32:32.054Z</time></trkpt><trkpt lat="40.6944448" lon="14.7233526"><ele>248.0</ele><time>2026-04-18T10:32:39.054Z</time></trkpt><trkpt lat="40.6945005" lon="14.7233934"><ele>248.0</ele><time>2026-04-18T10:32:46.054Z</time></trkpt><trkpt lat="40.6945645" lon="14.7234402"><ele>249.14285714285717</ele><time>2026-04-18T10:32:52.054Z</time></trkpt><trkpt lat="40.6946272" lon="14.7234849"><ele>250.2857142857143</ele><time>2026-04-18T10:32:57.054Z</time></trkpt><trkpt lat="40.6946876" lon="14.7235291"><ele>251.42857142857144</ele><time>2026-04-18T10:33:03.054Z</time></trkpt><trkpt lat="40.6947451" lon="14.7235709"><ele>252.57142857142856</ele><time>2026-04-18T10:33:09.054Z</time></trkpt><trkpt lat="40.6948076" lon="14.7236106"><ele>253.7142857142857</ele><time>2026-04-18T10:33:13.054Z</time></trkpt><trkpt lat="40.6948858" lon="14.7236175"><ele>254.85714285714283</ele><time>2026-04-18T10:33:36.054Z</time></trkpt><trkpt lat="40.694946" lon="14.7236554"><ele>256.0</ele><time>2026-04-18T10:33:42.054Z</time></trkpt><trkpt lat="40.6950097" lon="14.7236955"><ele>256.0</ele><time>2026-04-18T10:33:48.054Z</time></trkpt><trkpt lat="40.6950787" lon="14.7237407"><ele>255.99999999999997</ele><time>2026-04-18T10:33:53.054Z</time></trkpt><trkpt lat="40.6951383" lon="14.7237758"><ele>256.0</ele><time>2026-04-18T10:33:58.054Z</time></trkpt><trkpt lat="40.6951974" lon="14.7238081"><ele>256.0</ele><time>2026-04-18T10:34:05.054Z</time></trkpt><trkpt lat="40.6952728" lon="14.7238335"><ele>255.99999999999997</ele><time>2026-04-18T10:35:43.055Z</time></trkpt><trkpt lat="40.6953387" lon="14.7238856"><ele>256.0</ele><time>2026-04-18T10:35:48.054Z</time></trkpt><trkpt lat="40.6954028" lon="14.723926"><ele>256.0</ele><time>2026-04-18T10:35:53.054Z</time></trkpt><trkpt lat="40.6954543" lon="14.7239743"><ele>258.7142857142857</ele><time>2026-04-18T10:35:57.054Z</time></trkpt><trkpt lat="40.6954959" lon="14.7240514"><ele>261.4285714285714</ele><time>2026-04-18T10:36:01.054Z</time></trkpt><trkpt lat="40.6955297" lon="14.7241217"><ele>264.1428571428571</ele><time>2026-04-18T10:36:05.054Z</time></trkpt><trkpt lat="40.6955568" lon="14.724202"><ele>266.85714285714283</ele><time>2026-04-18T10:36:09.054Z</time></trkpt><trkpt lat="40.6955853" lon="14.7243028"><ele>269.57142857142856</ele><time>2026-04-18T10:36:14.054Z</time></trkpt><trkpt lat="40.6955752" lon="14.7243877"><ele>272.2857142857143</ele><time>2026-04-18T10:36:18.055Z</time></trkpt><trkpt lat="40.6955587" lon="14.7244908"><ele>275.0</ele><time>2026-04-18T10:36:23.054Z</time></trkpt><trkpt lat="40.6955602" lon="14.7245784"><ele>275.0</ele><time>2026-04-18T10:36:28.054Z</time></trkpt><trkpt lat="40.6955606" lon="14.7246693"><ele>275.0</ele><time>2026-04-18T10:36:33.054Z</time></trkpt><trkpt lat="40.6955665" lon="14.7247544"><ele>275.0</ele><time>2026-04-18T10:36:38.055Z</time></trkpt><trkpt lat="40.6955628" lon="14.724841"><ele>275.0</ele><time>2026-04-18T10:36:43.054Z</time></trkpt><trkpt lat="40.6955914" lon="14.7249241"><ele>275.0</ele><time>2026-04-18T10:36:48.055Z</time></trkpt><trkpt lat="40.6956079" lon="14.7250069"><ele>275.0</ele><time>2026-04-18T10:36:53.054Z</time></trkpt><trkpt lat="40.6956295" lon="14.7250879"><ele>275.0</ele><time>2026-04-18T10:36:58.054Z</time></trkpt><trkpt lat="40.6956266" lon="14.7251724"><ele>275.8571428571429</ele><time>2026-04-18T10:37:03.054Z</time></trkpt><trkpt lat="40.6956048" lon="14.7252534"><ele>276.7142857142857</ele><time>2026-04-18T10:37:08.054Z</time></trkpt><trkpt lat="40.6955854" lon="14.7253373"><ele>277.57142857142856</ele><time>2026-04-18T10:37:14.054Z</time></trkpt><trkpt lat="40.6955567" lon="14.7254294"><ele>278.42857142857144</ele><time>2026-04-18T10:37:19.054Z</time></trkpt><trkpt lat="40.6955283" lon="14.7255183"><ele>279.2857142857143</ele><time>2026-04-18T10:37:24.054Z</time></trkpt><trkpt lat="40.6955019" lon="14.7256006"><ele>280.14285714285717</ele><time>2026-04-18T10:37:29.055Z</time></trkpt><trkpt lat="40.6954787" lon="14.7256817"><ele>281.0</ele><time>2026-04-18T10:37:33.054Z</time></trkpt><trkpt lat="40.6954493" lon="14.7257789"><ele>281.00000000000006</ele><time>2026-04-18T10:37:38.054Z</time></trkpt><trkpt lat="40.6954231" lon="14.7258701"><ele>281.0</ele><time>2026-04-18T10:37:43.054Z</time></trkpt><trkpt lat="40.6953985" lon="14.7259547"><ele>281.0</ele><time>2026-04-18T10:37:48.054Z</time></trkpt><trkpt lat="40.695372" lon="14.7260429"><ele>281.0</ele><time>2026-04-18T10:37:52.055Z</time></trkpt><trkpt lat="40.6953502" lon="14.7261356"><ele>281.0</ele><time>2026-04-18T10:37:58.054Z</time></trkpt><trkpt lat="40.6953314" lon="14.7262155"><ele>281.00000000000006</ele><time>2026-04-18T10:38:03.054Z</time></trkpt><trkpt lat="40.695312" lon="14.7263058"><ele>281.0</ele><time>2026-04-18T10:38:08.054Z</time></trkpt><trkpt lat="40.6953002" lon="14.7263889"><ele>280.5714285714286</ele><time>2026-04-18T10:38:13.054Z</time></trkpt><trkpt lat="40.6952906" lon="14.7264731"><ele>280.14285714285717</ele><time>2026-04-18T10:38:17.054Z</time></trkpt><trkpt lat="40.6953058" lon="14.7265544"><ele>279.7142857142857</ele><time>2026-04-18T10:38:22.054Z</time></trkpt><trkpt lat="40.695325" lon="14.7266457"><ele>279.28571428571433</ele><time>2026-04-18T10:38:28.054Z</time></trkpt><trkpt lat="40.6953433" lon="14.7267377"><ele>278.8571428571429</ele><time>2026-04-18T10:38:33.054Z</time></trkpt><trkpt lat="40.6953615" lon="14.7268263"><ele>278.42857142857144</ele><time>2026-04-18T10:38:41.054Z</time></trkpt><trkpt lat="40.6954218" lon="14.7267691"><ele>278.0</ele><time>2026-04-18T10:39:08.054Z</time></trkpt><trkpt lat="40.6954368" lon="14.7266776"><ele>278.0</ele><time>2026-04-18T10:39:15.054Z</time></trkpt><trkpt lat="40.695499" lon="14.726659"><ele>278.0</ele><time>2026-04-18T10:39:24.054Z</time></trkpt></trkseg></trk></gpx>